<?xml version='1.0' encoding='UTF-8'?><gpx version="1.1" creator="JPX - https://github.com/jenetics/jpx" xmlns="http://www.topografix.com/GPX/1/1"><trk><trkseg><trkpt lat="45.8773161" lon="11.6358761"><ele>1120.0</ele><time>2026-04-19T14:47:41.87Z</time></trkpt><trkpt lat="45.8772464" lon="11.6360154"><ele>1120.0</ele><time>2026-04-19T14:47:48.813Z</time></trkpt><trkpt lat="45.8771693" lon="11.6359513"><ele>1120.0</ele><time>2026-04-19T14:48:15.883Z</time></trkpt><trkpt lat="45.8772406" lon="11.635931"><ele>1120.0</ele><time>2026-04-19T14:48:21.762Z</time></trkpt><trkpt lat="45.8772955" lon="11.6358778"><ele>1120.0</ele><time>2026-04-19T14:48:26.762Z</time></trkpt><trkpt lat="45.8773461" lon="11.6357889"><ele>1120.0</ele><time>2026-04-19T14:48:30.761Z</time></trkpt><trkpt lat="45.8774112" lon="11.6357284"><ele>1120.0</ele><time>2026-04-19T14:48:35.762Z</time></trkpt><trkpt lat="45.8774637" lon="11.6356785"><ele>1120.0</ele><time>2026-04-19T14:48:40.762Z</time></trkpt><trkpt lat="45.8775153" lon="11.6356207"><ele>1120.0</ele><time>2026-04-19T14:48:46.762Z</time></trkpt><trkpt lat="45.8775846" lon="11.635601"><ele>1120.0</ele><time>2026-04-19T14:48:53.762Z</time></trkpt><trkpt lat="45.8776486" lon="11.6355901"><ele>1120.0</ele><time>2026-04-19T14:48:57.762Z</time></trkpt><trkpt lat="45.8777159" lon="11.6355558"><ele>1120.0</ele><time>2026-04-19T14:49:01.763Z</time></trkpt><trkpt lat="45.877788" lon="11.635534"><ele>1120.0</ele><time>2026-04-19T14:49:06.763Z</time></trkpt><trkpt lat="45.8778471" lon="11.6354999"><ele>1120.0</ele><time>2026-04-19T14:49:09.763Z</time></trkpt><trkpt lat="45.8779177" lon="11.6354765"><ele>1120.0</ele><time>2026-04-19T14:49:13.762Z</time></trkpt><trkpt lat="45.8779926" lon="11.6354497"><ele>1120.0</ele><time>2026-04-19T14:49:16.762Z</time></trkpt><trkpt lat="45.8780623" lon="11.6354285"><ele>1120.0</ele><time>2026-04-19T14:49:19.763Z</time></trkpt><trkpt lat="45.8781283" lon="11.6354045"><ele>1120.0</ele><time>2026-04-19T14:49:22.762Z</time></trkpt><trkpt lat="45.8782199" lon="11.6353819"><ele>1120.0</ele><time>2026-04-19T14:49:25.762Z</time></trkpt><trkpt lat="45.8783025" lon="11.6353828"><ele>1120.0</ele><time>2026-04-19T14:49:28.763Z</time></trkpt><trkpt lat="45.8783886" lon="11.6353732"><ele>1120.0</ele><time>2026-04-19T14:49:31.763Z</time></trkpt><trkpt lat="45.8784697" lon="11.6353592"><ele>1120.0</ele><time>2026-04-19T14:49:33.762Z</time></trkpt><trkpt lat="45.8785782" lon="11.6353434"><ele>1120.0</ele><time>2026-04-19T14:49:35.763Z</time></trkpt><trkpt lat="45.8787009" lon="11.635347"><ele>1120.0</ele><time>2026-04-19T14:49:37.763Z</time></trkpt><trkpt lat="45.8788099" lon="11.6353491"><ele>1120.0</ele><time>2026-04-19T14:49:39.762Z</time></trkpt><trkpt lat="45.8788876" lon="11.6353302"><ele>1120.0</ele><time>2026-04-19T14:49:41.762Z</time></trkpt><trkpt lat="45.8789485" lon="11.6352938"><ele>1120.0</ele><time>2026-04-19T14:49:44.763Z</time></trkpt><trkpt lat="45.8790247" lon="11.6352503"><ele>1120.0</ele><time>2026-04-19T14:49:48.763Z</time></trkpt><trkpt lat="45.8790849" lon="11.6352143"><ele>1120.0</ele><time>2026-04-19T14:49:51.763Z</time></trkpt><trkpt lat="45.8791594" lon="11.6351765"><ele>1120.0</ele><time>2026-04-19T14:49:55.762Z</time></trkpt><trkpt lat="45.8792333" lon="11.6351573"><ele>1120.0</ele><time>2026-04-19T14:49:59.762Z</time></trkpt><trkpt lat="45.8792941" lon="11.6351175"><ele>1120.7142857142858</ele><time>2026-04-19T14:50:02.762Z</time></trkpt><trkpt lat="45.8793574" lon="11.6350667"><ele>1121.4285714285716</ele><time>2026-04-19T14:50:05.764Z</time></trkpt><trkpt lat="45.8794152" lon="11.635016"><ele>1122.142857142857</ele><time>2026-04-19T14:50:08.764Z</time></trkpt><trkpt lat="45.8794826" lon="11.6349465"><ele>1122.857142857143</ele><time>2026-04-19T14:50:12.764Z</time></trkpt><trkpt lat="45.8795395" lon="11.6349014"><ele>1123.5714285714287</ele><time>2026-04-19T14:50:15.764Z</time></trkpt><trkpt lat="45.8796043" lon="11.6348397"><ele>1124.2857142857142</ele><time>2026-04-19T14:50:19.763Z</time></trkpt><trkpt lat="45.8796739" lon="11.6347912"><ele>1125.0</ele><time>2026-04-19T14:50:23.764Z</time></trkpt><trkpt lat="45.8797411" lon="11.6347354"><ele>1125.0</ele><time>2026-04-19T14:50:27.764Z</time></trkpt><trkpt lat="45.8798097" lon="11.6346922"><ele>1125.0</ele><time>2026-04-19T14:50:31.764Z</time></trkpt><trkpt lat="45.8798848" lon="11.6346486"><ele>1125.0</ele><time>2026-04-19T14:50:35.764Z</time></trkpt><trkpt lat="45.8799618" lon="11.6346185"><ele>1125.0</ele><time>2026-04-19T14:50:39.763Z</time></trkpt><trkpt lat="45.880035" lon="11.634567"><ele>1125.0</ele><time>2026-04-19T14:50:43.764Z</time></trkpt><trkpt lat="45.8801131" lon="11.6345467"><ele>1125.0</ele><time>2026-04-19T14:50:47.764Z</time></trkpt><trkpt lat="45.880176" lon="11.6345182"><ele>1125.0</ele><time>2026-04-19T14:50:51.763Z</time></trkpt><trkpt lat="45.8802349" lon="11.6344821"><ele>1125.0</ele><time>2026-04-19T14:50:55.764Z</time></trkpt><trkpt lat="45.880306" lon="11.6344543"><ele>1125.0</ele><time>2026-04-19T14:51:00.765Z</time></trkpt><trkpt lat="45.8803794" lon="11.6344168"><ele>1125.0</ele><time>2026-04-19T14:51:05.765Z</time></trkpt><trkpt lat="45.8804487" lon="11.6343773"><ele>1125.0</ele><time>2026-04-19T14:51:10.765Z</time></trkpt><trkpt lat="45.8805127" lon="11.6343447"><ele>1125.0</ele><time>2026-04-19T14:51:15.764Z</time></trkpt><trkpt lat="45.8805728" lon="11.6342986"><ele>1125.0</ele><time>2026-04-19T14:51:21.765Z</time></trkpt><trkpt lat="45.8806365" lon="11.6342985"><ele>1125.2857142857142</ele><time>2026-04-19T14:51:26.765Z</time></trkpt><trkpt lat="45.8807104" lon="11.6342701"><ele>1125.5714285714287</ele><time>2026-04-19T14:51:31.765Z</time></trkpt><trkpt lat="45.8807772" lon="11.634213"><ele>1125.857142857143</ele><time>2026-04-19T14:51:36.764Z</time></trkpt><trkpt lat="45.8808397" lon="11.6341755"><ele>1126.142857142857</ele><time>2026-04-19T14:51:41.765Z</time></trkpt><trkpt lat="45.8809029" lon="11.6341523"><ele>1126.4285714285716</ele><time>2026-04-19T14:51:46.765Z</time></trkpt><trkpt lat="45.8809757" lon="11.6341014"><ele>1126.7142857142858</ele><time>2026-04-19T14:51:50.764Z</time></trkpt><trkpt lat="45.8810394" lon="11.6340714"><ele>1127.0</ele><time>2026-04-19T14:51:53.765Z</time></trkpt><trkpt lat="45.8811127" lon="11.6340293"><ele>1127.0</ele><time>2026-04-19T14:51:56.765Z</time></trkpt><trkpt lat="45.8811758" lon="11.6340148"><ele>1127.0</ele><time>2026-04-19T14:51:58.765Z</time></trkpt><trkpt lat="45.8812445" lon="11.6340149"><ele>1127.0</ele><time>2026-04-19T14:52:00.765Z</time></trkpt><trkpt lat="45.8813132" lon="11.6340202"><ele>1127.0</ele><time>2026-04-19T14:52:02.765Z</time></trkpt><trkpt lat="45.8813886" lon="11.634023"><ele>1127.0</ele><time>2026-04-19T14:52:04.766Z</time></trkpt><trkpt lat="45.8814606" lon="11.6340434"><ele>1127.0</ele><time>2026-04-19T14:52:06.766Z</time></trkpt><trkpt lat="45.881548" lon="11.6340717"><ele>1127.0</ele><time>2026-04-19T14:52:08.765Z</time></trkpt><trkpt lat="45.8816473" lon="11.6341032"><ele>1127.0</ele><time>2026-04-19T14:52:10.766Z</time></trkpt><trkpt lat="45.8817394" lon="11.6341479"><ele>1127.0</ele><time>2026-04-19T14:52:12.766Z</time></trkpt><trkpt lat="45.8818319" lon="11.6341867"><ele>1127.0</ele><time>2026-04-19T14:52:14.766Z</time></trkpt><trkpt lat="45.8819344" lon="11.6342207"><ele>1127.0</ele><time>2026-04-19T14:52:16.766Z</time></trkpt><trkpt lat="45.8820423" lon="11.6342595"><ele>1127.0</ele><time>2026-04-19T14:52:18.766Z</time></trkpt><trkpt lat="45.882151" lon="11.6342938"><ele>1123.75</ele><time>2026-04-19T14:52:20.766Z</time></trkpt><trkpt lat="45.8822558" lon="11.6343171"><ele>1120.5</ele><time>2026-04-19T14:52:22.766Z</time></trkpt><trkpt lat="45.8823694" lon="11.6343203"><ele>1117.25</ele><time>2026-04-19T14:52:24.766Z</time></trkpt><trkpt lat="45.8824901" lon="11.6343083"><ele>1114.0</ele><time>2026-04-19T14:52:26.766Z</time></trkpt><trkpt lat="45.8826104" lon="11.6342978"><ele>1111.5</ele><time>2026-04-19T14:52:28.766Z</time></trkpt><trkpt lat="45.8827181" lon="11.6342918"><ele>1109.0</ele><time>2026-04-19T14:52:30.765Z</time></trkpt><trkpt lat="45.8828306" lon="11.6342856"><ele>1106.5</ele><time>2026-04-19T14:52:32.766Z</time></trkpt><trkpt lat="45.8829528" lon="11.6342486"><ele>1104.0</ele><time>2026-04-19T14:52:34.766Z</time></trkpt><trkpt lat="45.8830686" lon="11.6342192"><ele>1104.0</ele><time>2026-04-19T14:52:36.766Z</time></trkpt><trkpt lat="45.8831967" lon="11.6341644"><ele>1104.0</ele><time>2026-04-19T14:52:38.766Z</time></trkpt><trkpt lat="45.8832661" lon="11.6341397"><ele>1104.0</ele><time>2026-04-19T14:52:39.766Z</time></trkpt><trkpt lat="45.883337" lon="11.6341229"><ele>1104.0</ele><time>2026-04-19T14:52:40.765Z</time></trkpt><trkpt lat="45.8833995" lon="11.6341103"><ele>1104.0</ele><time>2026-04-19T14:52:41.765Z</time></trkpt><trkpt lat="45.8835017" lon="11.6340867"><ele>1104.0</ele><time>2026-04-19T14:52:43.766Z</time></trkpt><trkpt lat="45.8835702" lon="11.6340795"><ele>1102.6666666666667</ele><time>2026-04-19T14:52:44.765Z</time></trkpt><trkpt lat="45.8836455" lon="11.6340819"><ele>1101.3333333333333</ele><time>2026-04-19T14:52:45.766Z</time></trkpt><trkpt lat="45.883718" lon="11.6340914"><ele>1100.0</ele><time>2026-04-19T14:52:46.766Z</time></trkpt><trkpt lat="45.8837851" lon="11.6341068"><ele>1098.6666666666665</ele><time>2026-04-19T14:52:47.766Z</time></trkpt><trkpt lat="45.883851" lon="11.6341252"><ele>1097.3333333333333</ele><time>2026-04-19T14:52:48.766Z</time></trkpt><trkpt lat="45.8839133" lon="11.6341408"><ele>1096.0</ele><time>2026-04-19T14:52:49.766Z</time></trkpt><trkpt lat="45.8840241" lon="11.6341728"><ele>1096.0</ele><time>2026-04-19T14:52:51.765Z</time></trkpt><trkpt lat="45.8841368" lon="11.6342051"><ele>1096.0</ele><time>2026-04-19T14:52:53.765Z</time></trkpt><trkpt lat="45.8842569" lon="11.6342404"><ele>1096.0</ele><time>2026-04-19T14:52:55.766Z</time></trkpt><trkpt lat="45.8843735" lon="11.634278"><ele>1096.0</ele><time>2026-04-19T14:52:57.765Z</time></trkpt><trkpt lat="45.8844931" lon="11.6343226"><ele>1094.5</ele><time>2026-04-19T14:52:59.766Z</time></trkpt><trkpt lat="45.8845632" lon="11.6343509"><ele>1093.0</ele><time>2026-04-19T14:53:00.765Z</time></trkpt><trkpt lat="45.8846409" lon="11.6343812"><ele>1091.5</ele><time>2026-04-19T14:53:01.767Z</time></trkpt><trkpt lat="45.8847139" lon="11.6344195"><ele>1090.0</ele><time>2026-04-19T14:53:02.767Z</time></trkpt><trkpt lat="45.8847989" lon="11.6344705"><ele>1088.5</ele><time>2026-04-19T14:53:03.766Z</time></trkpt><trkpt lat="45.8848903" lon="11.6345309"><ele>1087.0</ele><time>2026-04-19T14:53:04.766Z</time></trkpt><trkpt lat="45.8849906" lon="11.6346022"><ele>1087.0</ele><time>2026-04-19T14:53:05.767Z</time></trkpt><trkpt lat="45.8850872" lon="11.6346707"><ele>1087.0</ele><time>2026-04-19T14:53:06.767Z</time></trkpt><trkpt lat="45.8851732" lon="11.634738"><ele>1087.0</ele><time>2026-04-19T14:53:07.767Z</time></trkpt><trkpt lat="45.885255" lon="11.6348014"><ele>1087.0</ele><time>2026-04-19T14:53:08.767Z</time></trkpt><trkpt lat="45.8853333" lon="11.6348461"><ele>1087.0</ele><time>2026-04-19T14:53:09.767Z</time></trkpt><trkpt lat="45.8854144" lon="11.6348779"><ele>1086.3333333333333</ele><time>2026-04-19T14:53:10.766Z</time></trkpt><trkpt lat="45.8854851" lon="11.6348967"><ele>1085.6666666666665</ele><time>2026-04-19T14:53:11.766Z</time></trkpt><trkpt lat="45.885561" lon="11.6349183"><ele>1085.0</ele><time>2026-04-19T14:53:12.767Z</time></trkpt><trkpt lat="45.8856485" lon="11.6349342"><ele>1084.3333333333333</ele><time>2026-04-19T14:53:13.767Z</time></trkpt><trkpt lat="45.8857305" lon="11.6349444"><ele>1083.6666666666667</ele><time>2026-04-19T14:53:14.767Z</time></trkpt><trkpt lat="45.885804" lon="11.6349485"><ele>1083.0</ele><time>2026-04-19T14:53:15.767Z</time></trkpt><trkpt lat="45.8858712" lon="11.6349521"><ele>1082.5714285714287</ele><time>2026-04-19T14:53:16.766Z</time></trkpt><trkpt lat="45.8859392" lon="11.6349542"><ele>1082.1428571428573</ele><time>2026-04-19T14:53:17.767Z</time></trkpt><trkpt lat="45.8860101" lon="11.6349598"><ele>1081.7142857142858</ele><time>2026-04-19T14:53:18.767Z</time></trkpt><trkpt lat="45.8860817" lon="11.634965"><ele>1081.2857142857142</ele><time>2026-04-19T14:53:19.766Z</time></trkpt><trkpt lat="45.8861524" lon="11.6349661"><ele>1080.8571428571427</ele><time>2026-04-19T14:53:20.767Z</time></trkpt><trkpt lat="45.8862208" lon="11.6349589"><ele>1080.4285714285713</ele><time>2026-04-19T14:53:21.767Z</time></trkpt><trkpt lat="45.8862874" lon="11.6349437"><ele>1080.0</ele><time>2026-04-19T14:53:22.767Z</time></trkpt><trkpt lat="45.8863541" lon="11.6349263"><ele>1080.0</ele><time>2026-04-19T14:53:23.767Z</time></trkpt><trkpt lat="45.8864232" lon="11.6349092"><ele>1080.0</ele><time>2026-04-19T14:53:24.767Z</time></trkpt><trkpt lat="45.8864908" lon="11.6348917"><ele>1080.0</ele><time>2026-04-19T14:53:25.767Z</time></trkpt><trkpt lat="45.8865582" lon="11.6348691"><ele>1080.0</ele><time>2026-04-19T14:53:26.766Z</time></trkpt><trkpt lat="45.8866218" lon="11.6348401"><ele>1080.0</ele><time>2026-04-19T14:53:27.767Z</time></trkpt><trkpt lat="45.8867435" lon="11.6347968"><ele>1080.0</ele><time>2026-04-19T14:53:29.766Z</time></trkpt><trkpt lat="45.8868581" lon="11.6347652"><ele>1080.25</ele><time>2026-04-19T14:53:31.767Z</time></trkpt><trkpt lat="45.886966" lon="11.6347338"><ele>1080.5</ele><time>2026-04-19T14:53:33.767Z</time></trkpt><trkpt lat="45.8870825" lon="11.6347152"><ele>1080.75</ele><time>2026-04-19T14:53:35.766Z</time></trkpt><trkpt lat="45.887201" lon="11.6346951"><ele>1081.0</ele><time>2026-04-19T14:53:37.767Z</time></trkpt><trkpt lat="45.8873173" lon="11.6347005"><ele>1081.0</ele><time>2026-04-19T14:53:39.766Z</time></trkpt><trkpt lat="45.8874278" lon="11.6347158"><ele>1081.0</ele><time>2026-04-19T14:53:41.767Z</time></trkpt><trkpt lat="45.8875318" lon="11.6347319"><ele>1081.0</ele><time>2026-04-19T14:53:43.766Z</time></trkpt><trkpt lat="45.8876281" lon="11.6347742"><ele>1081.0</ele><time>2026-04-19T14:53:45.766Z</time></trkpt><trkpt lat="45.8877199" lon="11.6348521"><ele>1081.0</ele><time>2026-04-19T14:53:47.767Z</time></trkpt><trkpt lat="45.8878057" lon="11.6349387"><ele>1082.0</ele><time>2026-04-19T14:53:49.767Z</time></trkpt><trkpt lat="45.8878934" lon="11.6350204"><ele>1083.0</ele><time>2026-04-19T14:53:51.766Z</time></trkpt><trkpt lat="45.8879801" lon="11.635102"><ele>1084.0</ele><time>2026-04-19T14:53:53.766Z</time></trkpt><trkpt lat="45.8880748" lon="11.6351724"><ele>1085.0</ele><time>2026-04-19T14:53:55.767Z</time></trkpt><trkpt lat="45.8881746" lon="11.6352172"><ele>1086.0</ele><time>2026-04-19T14:53:57.768Z</time></trkpt><trkpt lat="45.8882801" lon="11.6352358"><ele>1086.0</ele><time>2026-04-19T14:53:59.768Z</time></trkpt><trkpt lat="45.8883829" lon="11.6352371"><ele>1086.0</ele><time>2026-04-19T14:54:01.767Z</time></trkpt><trkpt lat="45.8884831" lon="11.6352418"><ele>1086.0</ele><time>2026-04-19T14:54:03.768Z</time></trkpt><trkpt lat="45.8885833" lon="11.6352331"><ele>1086.0</ele><time>2026-04-19T14:54:05.768Z</time></trkpt><trkpt lat="45.8886844" lon="11.6352302"><ele>1086.0</ele><time>2026-04-19T14:54:07.767Z</time></trkpt><trkpt lat="45.8887907" lon="11.6352245"><ele>1086.3999999999999</ele><time>2026-04-19T14:54:09.768Z</time></trkpt><trkpt lat="45.8888962" lon="11.6352279"><ele>1086.8</ele><time>2026-04-19T14:54:11.768Z</time></trkpt><trkpt lat="45.8889962" lon="11.6352413"><ele>1087.1999999999998</ele><time>2026-04-19T14:54:13.768Z</time></trkpt><trkpt lat="45.8890942" lon="11.6352565"><ele>1087.6</ele><time>2026-04-19T14:54:15.768Z</time></trkpt><trkpt lat="45.8891844" lon="11.6352833"><ele>1088.0</ele><time>2026-04-19T14:54:17.767Z</time></trkpt><trkpt lat="45.8892759" lon="11.6352968"><ele>1088.0</ele><time>2026-04-19T14:54:19.768Z</time></trkpt><trkpt lat="45.8893711" lon="11.6352919"><ele>1088.0</ele><time>2026-04-19T14:54:21.768Z</time></trkpt><trkpt lat="45.8894636" lon="11.6352768"><ele>1088.0</ele><time>2026-04-19T14:54:23.768Z</time></trkpt><trkpt lat="45.8895524" lon="11.6352525"><ele>1088.0</ele><time>2026-04-19T14:54:25.768Z</time></trkpt><trkpt lat="45.8896404" lon="11.6352221"><ele>1088.0</ele><time>2026-04-19T14:54:27.768Z</time></trkpt><trkpt lat="45.8897212" lon="11.6351823"><ele>1088.0</ele><time>2026-04-19T14:54:29.768Z</time></trkpt><trkpt lat="45.8897955" lon="11.6351292"><ele>1088.0</ele><time>2026-04-19T14:54:31.768Z</time></trkpt><trkpt lat="45.8898722" lon="11.6350662"><ele>1088.0</ele><time>2026-04-19T14:54:33.768Z</time></trkpt><trkpt lat="45.8899434" lon="11.6349968"><ele>1088.0</ele><time>2026-04-19T14:54:35.768Z</time></trkpt><trkpt lat="45.8899979" lon="11.6349376"><ele>1088.0</ele><time>2026-04-19T14:54:37.768Z</time></trkpt><trkpt lat="45.8900537" lon="11.6348569"><ele>1088.0</ele><time>2026-04-19T14:54:39.768Z</time></trkpt><trkpt lat="45.8901028" lon="11.6347406"><ele>1088.1666666666667</ele><time>2026-04-19T14:54:41.768Z</time></trkpt><trkpt lat="45.8901508" lon="11.6346386"><ele>1088.3333333333335</ele><time>2026-04-19T14:54:43.768Z</time></trkpt><trkpt lat="45.8902018" lon="11.6345413"><ele>1088.5</ele><time>2026-04-19T14:54:45.768Z</time></trkpt><trkpt lat="45.8902853" lon="11.6344887"><ele>1088.6666666666667</ele><time>2026-04-19T14:54:47.767Z</time></trkpt><trkpt lat="45.8903776" lon="11.6344859"><ele>1088.8333333333333</ele><time>2026-04-19T14:54:49.769Z</time></trkpt><trkpt lat="45.8904605" lon="11.6345149"><ele>1089.0</ele><time>2026-04-19T14:54:51.768Z</time></trkpt><trkpt lat="45.8905404" lon="11.6345197"><ele>1089.0000000000002</ele><time>2026-04-19T14:54:53.768Z</time></trkpt><trkpt lat="45.8906207" lon="11.6345032"><ele>1089.0</ele><time>2026-04-19T14:54:55.769Z</time></trkpt><trkpt lat="45.8906826" lon="11.6344636"><ele>1089.0</ele><time>2026-04-19T14:54:57.768Z</time></trkpt><trkpt lat="45.8907375" lon="11.6344013"><ele>1089.0</ele><time>2026-04-19T14:54:59.769Z</time></trkpt><trkpt lat="45.8907952" lon="11.6343373"><ele>1089.0</ele><time>2026-04-19T14:55:01.768Z</time></trkpt><trkpt lat="45.8908538" lon="11.6342937"><ele>1089.0000000000002</ele><time>2026-04-19T14:55:03.769Z</time></trkpt><trkpt lat="45.8909185" lon="11.6342599"><ele>1089.0</ele><time>2026-04-19T14:55:05.769Z</time></trkpt><trkpt lat="45.8909839" lon="11.6342112"><ele>1091.7142857142858</ele><time>2026-04-19T14:55:07.768Z</time></trkpt><trkpt lat="45.8910499" lon="11.634172"><ele>1094.4285714285716</ele><time>2026-04-19T14:55:09.769Z</time></trkpt><trkpt lat="45.8911097" lon="11.6341218"><ele>1097.142857142857</ele><time>2026-04-19T14:55:11.769Z</time></trkpt><trkpt lat="45.8911734" lon="11.6340706"><ele>1099.857142857143</ele><time>2026-04-19T14:55:13.769Z</time></trkpt><trkpt lat="45.8912318" lon="11.6340221"><ele>1102.5714285714284</ele><time>2026-04-19T14:55:15.768Z</time></trkpt><trkpt lat="45.8912914" lon="11.6339603"><ele>1105.2857142857142</ele><time>2026-04-19T14:55:17.768Z</time></trkpt><trkpt lat="45.8913454" lon="11.6339036"><ele>1108.0</ele><time>2026-04-19T14:55:19.769Z</time></trkpt><trkpt lat="45.891394" lon="11.6338421"><ele>1108.0</ele><time>2026-04-19T14:55:21.769Z</time></trkpt><trkpt lat="45.8914477" lon="11.6337712"><ele>1108.0</ele><time>2026-04-19T14:55:23.768Z</time></trkpt><trkpt lat="45.8915043" lon="11.6337028"><ele>1108.0</ele><time>2026-04-19T14:55:25.768Z</time></trkpt><trkpt lat="45.891563" lon="11.6336335"><ele>1108.0</ele><time>2026-04-19T14:55:27.769Z</time></trkpt><trkpt lat="45.8916231" lon="11.6335521"><ele>1108.0</ele><time>2026-04-19T14:55:29.769Z</time></trkpt><trkpt lat="45.8916887" lon="11.6334612"><ele>1108.0</ele><time>2026-04-19T14:55:31.769Z</time></trkpt><trkpt lat="45.8917566" lon="11.6333656"><ele>1106.6</ele><time>2026-04-19T14:55:33.769Z</time></trkpt><trkpt lat="45.8918246" lon="11.6332717"><ele>1105.1999999999998</ele><time>2026-04-19T14:55:35.768Z</time></trkpt><trkpt lat="45.8919008" lon="11.6331921"><ele>1103.8</ele><time>2026-04-19T14:55:37.769Z</time></trkpt><trkpt lat="45.8919841" lon="11.633128"><ele>1102.3999999999999</ele><time>2026-04-19T14:55:39.769Z</time></trkpt><trkpt lat="45.8920793" lon="11.6330702"><ele>1101.0</ele><time>2026-04-19T14:55:41.769Z</time></trkpt><trkpt lat="45.892182" lon="11.6330183"><ele>1101.0</ele><time>2026-04-19T14:55:43.769Z</time></trkpt><trkpt lat="45.8922831" lon="11.6329587"><ele>1101.0</ele><time>2026-04-19T14:55:45.768Z</time></trkpt><trkpt lat="45.8923895" lon="11.6328853"><ele>1101.0</ele><time>2026-04-19T14:55:47.769Z</time></trkpt><trkpt lat="45.8924987" lon="11.6328086"><ele>1101.0</ele><time>2026-04-19T14:55:49.768Z</time></trkpt><trkpt lat="45.8926121" lon="11.63273"><ele>1099.7142857142858</ele><time>2026-04-19T14:55:51.77Z</time></trkpt><trkpt lat="45.8927221" lon="11.6326588"><ele>1098.4285714285713</ele><time>2026-04-19T14:55:53.77Z</time></trkpt><trkpt lat="45.8927802" lon="11.6326235"><ele>1097.142857142857</ele><time>2026-04-19T14:55:54.77Z</time></trkpt><trkpt lat="45.8928394" lon="11.6325855"><ele>1095.857142857143</ele><time>2026-04-19T14:55:55.77Z</time></trkpt><trkpt lat="45.892899" lon="11.6325528"><ele>1094.5714285714284</ele><time>2026-04-19T14:55:56.769Z</time></trkpt><trkpt lat="45.89296" lon="11.6325202"><ele>1093.2857142857142</ele><time>2026-04-19T14:55:57.769Z</time></trkpt><trkpt lat="45.8930215" lon="11.6324904"><ele>1092.0</ele><time>2026-04-19T14:55:58.77Z</time></trkpt><trkpt lat="45.8930826" lon="11.6324639"><ele>1092.0</ele><time>2026-04-19T14:55:59.77Z</time></trkpt><trkpt lat="45.8931452" lon="11.6324385"><ele>1092.0</ele><time>2026-04-19T14:56:00.77Z</time></trkpt><trkpt lat="45.8932089" lon="11.6324087"><ele>1092.0</ele><time>2026-04-19T14:56:01.77Z</time></trkpt><trkpt lat="45.8932736" lon="11.6323772"><ele>1092.0</ele><time>2026-04-19T14:56:02.77Z</time></trkpt><trkpt lat="45.8933376" lon="11.6323447"><ele>1092.0</ele><time>2026-04-19T14:56:03.769Z</time></trkpt><trkpt lat="45.8934027" lon="11.6323096"><ele>1092.0</ele><time>2026-04-19T14:56:04.77Z</time></trkpt><trkpt lat="45.8935189" lon="11.6322411"><ele>1091.0</ele><time>2026-04-19T14:56:06.77Z</time></trkpt><trkpt lat="45.8935801" lon="11.6322071"><ele>1090.0</ele><time>2026-04-19T14:56:07.77Z</time></trkpt><trkpt lat="45.8936439" lon="11.6321689"><ele>1089.0</ele><time>2026-04-19T14:56:08.769Z</time></trkpt><trkpt lat="45.8937067" lon="11.6321272"><ele>1088.0</ele><time>2026-04-19T14:56:09.77Z</time></trkpt><trkpt lat="45.8937676" lon="11.6320834"><ele>1087.0</ele><time>2026-04-19T14:56:10.77Z</time></trkpt><trkpt lat="45.8938323" lon="11.6320367"><ele>1086.0</ele><time>2026-04-19T14:56:11.77Z</time></trkpt><trkpt lat="45.8938973" lon="11.6319893"><ele>1085.0</ele><time>2026-04-19T14:56:12.769Z</time></trkpt><trkpt lat="45.8939594" lon="11.6319332"><ele>1085.0</ele><time>2026-04-19T14:56:13.77Z</time></trkpt><trkpt lat="45.8940165" lon="11.631866"><ele>1085.0</ele><time>2026-04-19T14:56:14.77Z</time></trkpt><trkpt lat="45.894072" lon="11.6317981"><ele>1085.0</ele><time>2026-04-19T14:56:15.77Z</time></trkpt><trkpt lat="45.8941308" lon="11.631744"><ele>1085.0</ele><time>2026-04-19T14:56:16.77Z</time></trkpt><trkpt lat="45.894186" lon="11.6316944"><ele>1085.0</ele><time>2026-04-19T14:56:17.77Z</time></trkpt><trkpt lat="45.8942392" lon="11.6316458"><ele>1085.0</ele><time>2026-04-19T14:56:18.77Z</time></trkpt><trkpt lat="45.8943426" lon="11.63156"><ele>1084.4</ele><time>2026-04-19T14:56:20.77Z</time></trkpt><trkpt lat="45.8944433" lon="11.6314931"><ele>1083.8</ele><time>2026-04-19T14:56:22.77Z</time></trkpt><trkpt lat="45.8945618" lon="11.6314476"><ele>1083.2</ele><time>2026-04-19T14:56:24.769Z</time></trkpt><trkpt lat="45.8946222" lon="11.6314187"><ele>1082.6</ele><time>2026-04-19T14:56:25.77Z</time></trkpt><trkpt lat="45.8947371" lon="11.6313645"><ele>1082.0</ele><time>2026-04-19T14:56:27.769Z</time></trkpt><trkpt lat="45.8947993" lon="11.6313316"><ele>1082.0000000000002</ele><time>2026-04-19T14:56:28.77Z</time></trkpt><trkpt lat="45.8948636" lon="11.6312945"><ele>1082.0</ele><time>2026-04-19T14:56:29.77Z</time></trkpt><trkpt lat="45.8949269" lon="11.6312577"><ele>1082.0</ele><time>2026-04-19T14:56:30.77Z</time></trkpt><trkpt lat="45.8949942" lon="11.6312322"><ele>1082.0</ele><time>2026-04-19T14:56:31.77Z</time></trkpt><trkpt lat="45.8950589" lon="11.6312051"><ele>1082.0</ele><time>2026-04-19T14:56:32.77Z</time></trkpt><trkpt lat="45.8951224" lon="11.6311755"><ele>1082.0000000000002</ele><time>2026-04-19T14:56:33.769Z</time></trkpt><trkpt lat="45.8951833" lon="11.6311428"><ele>1082.0</ele><time>2026-04-19T14:56:34.769Z</time></trkpt><trkpt lat="45.8953028" lon="11.6310832"><ele>1081.5</ele><time>2026-04-19T14:56:36.77Z</time></trkpt><trkpt lat="45.8954197" lon="11.6310375"><ele>1081.0</ele><time>2026-04-19T14:56:38.77Z</time></trkpt><trkpt lat="45.8955361" lon="11.6310007"><ele>1080.5</ele><time>2026-04-19T14:56:40.77Z</time></trkpt><trkpt lat="45.895647" lon="11.6309579"><ele>1080.0</ele><time>2026-04-19T14:56:42.77Z</time></trkpt><trkpt lat="45.8957778" lon="11.6309405"><ele>1080.0</ele><time>2026-04-19T14:56:44.77Z</time></trkpt><trkpt lat="45.8958463" lon="11.6309247"><ele>1080.0</ele><time>2026-04-19T14:56:45.77Z</time></trkpt><trkpt lat="45.895965" lon="11.630896"><ele>1080.0</ele><time>2026-04-19T14:56:47.77Z</time></trkpt><trkpt lat="45.8960814" lon="11.630855"><ele>1080.0</ele><time>2026-04-19T14:56:49.771Z</time></trkpt><trkpt lat="45.8961967" lon="11.6308329"><ele>1080.0</ele><time>2026-04-19T14:56:51.77Z</time></trkpt><trkpt lat="45.8963095" lon="11.6307918"><ele>1080.8</ele><time>2026-04-19T14:56:53.771Z</time></trkpt><trkpt lat="45.8964097" lon="11.630733"><ele>1081.6</ele><time>2026-04-19T14:56:55.771Z</time></trkpt><trkpt lat="45.8965133" lon="11.6307223"><ele>1082.4</ele><time>2026-04-19T14:56:57.771Z</time></trkpt><trkpt lat="45.8966131" lon="11.6307296"><ele>1083.2</ele><time>2026-04-19T14:56:59.771Z</time></trkpt><trkpt lat="45.8967023" lon="11.6307223"><ele>1084.0</ele><time>2026-04-19T14:57:01.771Z</time></trkpt><trkpt lat="45.8967779" lon="11.6307189"><ele>1085.1666666666665</ele><time>2026-04-19T14:57:03.771Z</time></trkpt><trkpt lat="45.8968511" lon="11.6307265"><ele>1086.3333333333333</ele><time>2026-04-19T14:57:05.771Z</time></trkpt><trkpt lat="45.8969186" lon="11.6307162"><ele>1087.5</ele><time>2026-04-19T14:57:07.771Z</time></trkpt><trkpt lat="45.8970106" lon="11.6307003"><ele>1088.6666666666667</ele><time>2026-04-19T14:57:10.771Z</time></trkpt><trkpt lat="45.8971049" lon="11.6307035"><ele>1089.8333333333335</ele><time>2026-04-19T14:57:13.771Z</time></trkpt><trkpt lat="45.8971745" lon="11.6307038"><ele>1091.0</ele><time>2026-04-19T14:57:15.771Z</time></trkpt><trkpt lat="45.8972625" lon="11.6307011"><ele>1091.0</ele><time>2026-04-19T14:57:18.771Z</time></trkpt><trkpt lat="45.8973526" lon="11.6306932"><ele>1091.0</ele><time>2026-04-19T14:57:21.77Z</time></trkpt><trkpt lat="45.8974287" lon="11.6306731"><ele>1091.0</ele><time>2026-04-19T14:57:24.771Z</time></trkpt><trkpt lat="45.8974967" lon="11.6306258"><ele>1091.0</ele><time>2026-04-19T14:57:27.771Z</time></trkpt><trkpt lat="45.8975689" lon="11.6305759"><ele>1091.0</ele><time>2026-04-19T14:57:30.77Z</time></trkpt><trkpt lat="45.8976379" lon="11.6305266"><ele>1091.0</ele><time>2026-04-19T14:57:33.77Z</time></trkpt><trkpt lat="45.8977103" lon="11.6304775"><ele>1091.0</ele><time>2026-04-19T14:57:37.771Z</time></trkpt><trkpt lat="45.8977839" lon="11.6304449"><ele>1091.0</ele><time>2026-04-19T14:57:40.771Z</time></trkpt><trkpt lat="45.8978597" lon="11.6303965"><ele>1091.0</ele><time>2026-04-19T14:57:43.771Z</time></trkpt><trkpt lat="45.8979268" lon="11.6303769"><ele>1091.0</ele><time>2026-04-19T14:57:45.771Z</time></trkpt><trkpt lat="45.8980128" lon="11.6303174"><ele>1091.0</ele><time>2026-04-19T14:57:48.771Z</time></trkpt><trkpt lat="45.8980849" lon="11.6302602"><ele>1091.0</ele><time>2026-04-19T14:57:51.772Z</time></trkpt><trkpt lat="45.8981449" lon="11.6302086"><ele>1091.0</ele><time>2026-04-19T14:57:56.772Z</time></trkpt><trkpt lat="45.8982005" lon="11.6302933"><ele>1091.0</ele><time>2026-04-19T14:58:26.772Z</time></trkpt><trkpt lat="45.898296" lon="11.6303212"><ele>1091.0</ele><time>2026-04-19T14:58:29.771Z</time></trkpt><trkpt lat="45.8983786" lon="11.6302872"><ele>1091.0</ele><time>2026-04-19T14:58:31.772Z</time></trkpt><trkpt lat="45.8984532" lon="11.6302757"><ele>1091.0</ele><time>2026-04-19T14:58:33.772Z</time></trkpt><trkpt lat="45.8985287" lon="11.6302639"><ele>1091.0</ele><time>2026-04-19T14:58:35.771Z</time></trkpt><trkpt lat="45.8986129" lon="11.63024"><ele>1090.3333333333335</ele><time>2026-04-19T14:58:37.771Z</time></trkpt><trkpt lat="45.8986923" lon="11.6302212"><ele>1089.6666666666667</ele><time>2026-04-19T14:58:39.772Z</time></trkpt><trkpt lat="45.8987668" lon="11.6301992"><ele>1089.0</ele><time>2026-04-19T14:58:41.773Z</time></trkpt><trkpt lat="45.8988275" lon="11.6301741"><ele>1088.3333333333333</ele><time>2026-04-19T14:58:43.773Z</time></trkpt><trkpt lat="45.898906" lon="11.6301591"><ele>1087.6666666666665</ele><time>2026-04-19T14:58:46.773Z</time></trkpt><trkpt lat="45.8989805" lon="11.630138"><ele>1087.0</ele><time>2026-04-19T14:58:49.773Z</time></trkpt><trkpt lat="45.8990713" lon="11.6301115"><ele>1087.0</ele><time>2026-04-19T14:58:52.773Z</time></trkpt><trkpt lat="45.8991438" lon="11.630091"><ele>1087.0</ele><time>2026-04-19T14:58:54.772Z</time></trkpt><trkpt lat="45.8992229" lon="11.6300479"><ele>1087.0</ele><time>2026-04-19T14:58:56.773Z</time></trkpt><trkpt lat="45.8993245" lon="11.6300184"><ele>1087.0</ele><time>2026-04-19T14:58:58.773Z</time></trkpt><trkpt lat="45.8994427" lon="11.6300059"><ele>1087.0</ele><time>2026-04-19T14:59:00.773Z</time></trkpt><trkpt lat="45.8995645" lon="11.6299787"><ele>1085.4</ele><time>2026-04-19T14:59:02.773Z</time></trkpt><trkpt lat="45.8996777" lon="11.6299482"><ele>1083.8000000000002</ele><time>2026-04-19T14:59:04.772Z</time></trkpt><trkpt lat="45.8997838" lon="11.6299231"><ele>1082.2</ele><time>2026-04-19T14:59:06.773Z</time></trkpt><trkpt lat="45.8998749" lon="11.6298955"><ele>1080.6000000000001</ele><time>2026-04-19T14:59:08.773Z</time></trkpt><trkpt lat="45.899947" lon="11.6298766"><ele>1079.0</ele><time>2026-04-19T14:59:10.773Z</time></trkpt><trkpt lat="45.9000124" lon="11.6298578"><ele>1079.0</ele><time>2026-04-19T14:59:12.772Z</time></trkpt><trkpt lat="45.9000827" lon="11.629844"><ele>1079.0</ele><time>2026-04-19T14:59:14.773Z</time></trkpt><trkpt lat="45.9001632" lon="11.6298468"><ele>1079.0</ele><time>2026-04-19T14:59:17.772Z</time></trkpt><trkpt lat="45.9001795" lon="11.6299421"><ele>1079.0</ele><time>2026-04-19T14:59:20.772Z</time></trkpt><trkpt lat="45.9001253" lon="11.629992"><ele>1079.0</ele><time>2026-04-19T14:59:22.772Z</time></trkpt><trkpt lat="45.9000467" lon="11.6299914"><ele>1079.0</ele><time>2026-04-19T14:59:24.773Z</time></trkpt><trkpt lat="45.8999647" lon="11.6300304"><ele>1079.0</ele><time>2026-04-19T14:59:26.773Z</time></trkpt><trkpt lat="45.8998703" lon="11.6301108"><ele>1079.0</ele><time>2026-04-19T14:59:28.772Z</time></trkpt><trkpt lat="45.8997605" lon="11.6302022"><ele>1079.0</ele><time>2026-04-19T14:59:30.772Z</time></trkpt><trkpt lat="45.8996977" lon="11.6302445"><ele>1079.0</ele><time>2026-04-19T14:59:31.773Z</time></trkpt><trkpt lat="45.8996333" lon="11.6302926"><ele>1079.0</ele><time>2026-04-19T14:59:32.772Z</time></trkpt><trkpt lat="45.899569" lon="11.6303467"><ele>1079.0</ele><time>2026-04-19T14:59:33.773Z</time></trkpt><trkpt lat="45.8995039" lon="11.6304085"><ele>1079.0</ele><time>2026-04-19T14:59:34.773Z</time></trkpt><trkpt lat="45.8994395" lon="11.630477"><ele>1078.6666666666667</ele><time>2026-04-19T14:59:35.773Z</time></trkpt><trkpt lat="45.8993726" lon="11.6305463"><ele>1078.3333333333335</ele><time>2026-04-19T14:59:36.773Z</time></trkpt><trkpt lat="45.8993057" lon="11.6306182"><ele>1078.0</ele><time>2026-04-19T14:59:37.774Z</time></trkpt><trkpt lat="45.8992431" lon="11.6306825"><ele>1077.6666666666667</ele><time>2026-04-19T14:59:38.774Z</time></trkpt><trkpt lat="45.8991849" lon="11.6307496"><ele>1077.3333333333333</ele><time>2026-04-19T14:59:39.774Z</time></trkpt><trkpt lat="45.8991295" lon="11.6308265"><ele>1077.0</ele><time>2026-04-19T14:59:40.774Z</time></trkpt><trkpt lat="45.8990754" lon="11.6309133"><ele>1077.0</ele><time>2026-04-19T14:59:41.774Z</time></trkpt><trkpt lat="45.8990211" lon="11.6310098"><ele>1077.0</ele><time>2026-04-19T14:59:42.774Z</time></trkpt><trkpt lat="45.8989732" lon="11.6311094"><ele>1077.0</ele><time>2026-04-19T14:59:43.773Z</time></trkpt><trkpt lat="45.8989319" lon="11.6312138"><ele>1077.0</ele><time>2026-04-19T14:59:44.774Z</time></trkpt><trkpt lat="45.8988994" lon="11.6313229"><ele>1077.0</ele><time>2026-04-19T14:59:45.773Z</time></trkpt><trkpt lat="45.8988836" lon="11.6314364"><ele>1077.0</ele><time>2026-04-19T14:59:46.774Z</time></trkpt><trkpt lat="45.8988881" lon="11.6315499"><ele>1077.1666666666667</ele><time>2026-04-19T14:59:47.774Z</time></trkpt><trkpt lat="45.8989094" lon="11.6316601"><ele>1077.3333333333333</ele><time>2026-04-19T14:59:48.774Z</time></trkpt><trkpt lat="45.8989445" lon="11.6317697"><ele>1077.5</ele><time>2026-04-19T14:59:49.774Z</time></trkpt><trkpt lat="45.8989841" lon="11.631879"><ele>1077.6666666666665</ele><time>2026-04-19T14:59:50.774Z</time></trkpt><trkpt lat="45.899025" lon="11.6319789"><ele>1077.8333333333333</ele><time>2026-04-19T14:59:51.774Z</time></trkpt><trkpt lat="45.8990767" lon="11.6320832"><ele>1078.0</ele><time>2026-04-19T14:59:52.773Z</time></trkpt><trkpt lat="45.8991365" lon="11.6321811"><ele>1079.0</ele><time>2026-04-19T14:59:53.774Z</time></trkpt><trkpt lat="45.8992017" lon="11.6322733"><ele>1080.0</ele><time>2026-04-19T14:59:54.774Z</time></trkpt><trkpt lat="45.8992737" lon="11.6323625"><ele>1081.0</ele><time>2026-04-19T14:59:55.774Z</time></trkpt><trkpt lat="45.8993484" lon="11.6324498"><ele>1082.0</ele><time>2026-04-19T14:59:56.774Z</time></trkpt><trkpt lat="45.8994164" lon="11.6325431"><ele>1083.0</ele><time>2026-04-19T14:59:57.773Z</time></trkpt><trkpt lat="45.8994908" lon="11.6326445"><ele>1079.4</ele><time>2026-04-19T14:59:58.773Z</time></trkpt><trkpt lat="45.8995583" lon="11.6327461"><ele>1075.8</ele><time>2026-04-19T14:59:59.774Z</time></trkpt><trkpt lat="45.8996229" lon="11.6328468"><ele>1072.2</ele><time>2026-04-19T15:00:00.774Z</time></trkpt><trkpt lat="45.899686" lon="11.6329477"><ele>1068.6</ele><time>2026-04-19T15:00:01.774Z</time></trkpt><trkpt lat="45.8997478" lon="11.6330503"><ele>1065.0</ele><time>2026-04-19T15:00:02.774Z</time></trkpt><trkpt lat="45.8998068" lon="11.6331527"><ele>1065.0</ele><time>2026-04-19T15:00:03.774Z</time></trkpt><trkpt lat="45.8998628" lon="11.6332604"><ele>1065.0</ele><time>2026-04-19T15:00:04.774Z</time></trkpt><trkpt lat="45.899916" lon="11.6333733"><ele>1065.0</ele><time>2026-04-19T15:00:05.774Z</time></trkpt><trkpt lat="45.8999687" lon="11.6334819"><ele>1065.0</ele><time>2026-04-19T15:00:06.773Z</time></trkpt><trkpt lat="45.9000209" lon="11.6335927"><ele>1065.0</ele><time>2026-04-19T15:00:07.773Z</time></trkpt><trkpt lat="45.9000744" lon="11.6337043"><ele>1059.3333333333333</ele><time>2026-04-19T15:00:08.774Z</time></trkpt><trkpt lat="45.9001252" lon="11.6338131"><ele>1053.6666666666667</ele><time>2026-04-19T15:00:09.774Z</time></trkpt><trkpt lat="45.9001769" lon="11.6339247"><ele>1048.0</ele><time>2026-04-19T15:00:10.774Z</time></trkpt><trkpt lat="45.9002241" lon="11.6340309"><ele>1042.3333333333335</ele><time>2026-04-19T15:00:11.774Z</time></trkpt><trkpt lat="45.9002701" lon="11.6341358"><ele>1036.6666666666667</ele><time>2026-04-19T15:00:12.774Z</time></trkpt><trkpt lat="45.9003142" lon="11.6342393"><ele>1031.0</ele><time>2026-04-19T15:00:13.773Z</time></trkpt><trkpt lat="45.9003533" lon="11.6343434"><ele>1031.0</ele><time>2026-04-19T15:00:14.774Z</time></trkpt><trkpt lat="45.9003904" lon="11.6344506"><ele>1031.0</ele><time>2026-04-19T15:00:15.774Z</time></trkpt><trkpt lat="45.9004253" lon="11.6345621"><ele>1031.0</ele><time>2026-04-19T15:00:16.774Z</time></trkpt><trkpt lat="45.9004553" lon="11.6346882"><ele>1031.0</ele><time>2026-04-19T15:00:17.774Z</time></trkpt><trkpt lat="45.9004832" lon="11.6348123"><ele>1031.0</ele><time>2026-04-19T15:00:18.774Z</time></trkpt><trkpt lat="45.9005164" lon="11.6349394"><ele>1031.0</ele><time>2026-04-19T15:00:19.774Z</time></trkpt><trkpt lat="45.9005498" lon="11.6350583"><ele>1032.1666666666667</ele><time>2026-04-19T15:00:20.773Z</time></trkpt><trkpt lat="45.900584" lon="11.6351772"><ele>1033.3333333333335</ele><time>2026-04-19T15:00:21.774Z</time></trkpt><trkpt lat="45.9006117" lon="11.6352933"><ele>1034.5</ele><time>2026-04-19T15:00:22.773Z</time></trkpt><trkpt lat="45.9006316" lon="11.6354159"><ele>1035.6666666666667</ele><time>2026-04-19T15:00:23.774Z</time></trkpt><trkpt lat="45.9006397" lon="11.6355455"><ele>1036.8333333333333</ele><time>2026-04-19T15:00:24.773Z</time></trkpt><trkpt lat="45.9006407" lon="11.6356781"><ele>1038.0</ele><time>2026-04-19T15:00:25.774Z</time></trkpt><trkpt lat="45.9006293" lon="11.635807"><ele>1038.6666666666667</ele><time>2026-04-19T15:00:26.774Z</time></trkpt><trkpt lat="45.9006074" lon="11.6359235"><ele>1039.3333333333333</ele><time>2026-04-19T15:00:27.774Z</time></trkpt><trkpt lat="45.9005711" lon="11.6360324"><ele>1040.0</ele><time>2026-04-19T15:00:28.774Z</time></trkpt><trkpt lat="45.9005167" lon="11.63614"><ele>1040.6666666666665</ele><time>2026-04-19T15:00:29.774Z</time></trkpt><trkpt lat="45.9004537" lon="11.6362335"><ele>1041.3333333333333</ele><time>2026-04-19T15:00:30.774Z</time></trkpt><trkpt lat="45.900387" lon="11.636322"><ele>1042.0</ele><time>2026-04-19T15:00:31.774Z</time></trkpt><trkpt lat="45.9003121" lon="11.6364081"><ele>1041.6</ele><time>2026-04-19T15:00:32.775Z</time></trkpt><trkpt lat="45.9002333" lon="11.6364888"><ele>1041.2</ele><time>2026-04-19T15:00:33.774Z</time></trkpt><trkpt lat="45.9001518" lon="11.6365712"><ele>1040.8</ele><time>2026-04-19T15:00:34.775Z</time></trkpt><trkpt lat="45.9000623" lon="11.6366444"><ele>1040.4</ele><time>2026-04-19T15:00:35.774Z</time></trkpt><trkpt lat="45.8999681" lon="11.6367013"><ele>1040.0</ele><time>2026-04-19T15:00:36.775Z</time></trkpt><trkpt lat="45.8998742" lon="11.6367452"><ele>1040.0</ele><time>2026-04-19T15:00:37.774Z</time></trkpt><trkpt lat="45.8997833" lon="11.6367907"><ele>1040.0</ele><time>2026-04-19T15:00:38.775Z</time></trkpt><trkpt lat="45.8996945" lon="11.6368422"><ele>1040.0</ele><time>2026-04-19T15:00:39.775Z</time></trkpt><trkpt lat="45.8996074" lon="11.6368956"><ele>1040.0</ele><time>2026-04-19T15:00:40.775Z</time></trkpt><trkpt lat="45.8995226" lon="11.6369498"><ele>1040.0</ele><time>2026-04-19T15:00:41.775Z</time></trkpt><trkpt lat="45.8994349" lon="11.6370069"><ele>1036.6</ele><time>2026-04-19T15:00:42.774Z</time></trkpt><trkpt lat="45.8993464" lon="11.6370592"><ele>1033.2</ele><time>2026-04-19T15:00:43.775Z</time></trkpt><trkpt lat="45.8992532" lon="11.6371125"><ele>1029.8</ele><time>2026-04-19T15:00:44.775Z</time></trkpt><trkpt lat="45.8991601" lon="11.6371658"><ele>1026.4</ele><time>2026-04-19T15:00:45.775Z</time></trkpt><trkpt lat="45.8990698" lon="11.6372173"><ele>1023.0</ele><time>2026-04-19T15:00:46.775Z</time></trkpt><trkpt lat="45.8989797" lon="11.6372674"><ele>1023.0</ele><time>2026-04-19T15:00:47.775Z</time></trkpt><trkpt lat="45.8988948" lon="11.637314"><ele>1023.0</ele><time>2026-04-19T15:00:48.774Z</time></trkpt><trkpt lat="45.898816" lon="11.637354"><ele>1023.0</ele><time>2026-04-19T15:00:49.775Z</time></trkpt><trkpt lat="45.8987377" lon="11.6373916"><ele>1023.0</ele><time>2026-04-19T15:00:50.774Z</time></trkpt><trkpt lat="45.8986563" lon="11.6374368"><ele>1023.0</ele><time>2026-04-19T15:00:51.775Z</time></trkpt><trkpt lat="45.8985764" lon="11.6374839"><ele>1023.0</ele><time>2026-04-19T15:00:52.775Z</time></trkpt><trkpt lat="45.8984951" lon="11.6375263"><ele>1023.0</ele><time>2026-04-19T15:00:53.775Z</time></trkpt><trkpt lat="45.8984229" lon="11.637558"><ele>1023.0</ele><time>2026-04-19T15:00:54.775Z</time></trkpt><trkpt lat="45.8983452" lon="11.6375938"><ele>1023.0</ele><time>2026-04-19T15:00:55.774Z</time></trkpt><trkpt lat="45.8982671" lon="11.6376317"><ele>1023.0</ele><time>2026-04-19T15:00:56.774Z</time></trkpt><trkpt lat="45.8981816" lon="11.6376788"><ele>1023.0</ele><time>2026-04-19T15:00:57.775Z</time></trkpt><trkpt lat="45.8980942" lon="11.6377232"><ele>1023.0</ele><time>2026-04-19T15:00:58.775Z</time></trkpt><trkpt lat="45.8979954" lon="11.6377572"><ele>1024.2</ele><time>2026-04-19T15:00:59.775Z</time></trkpt><trkpt lat="45.8979003" lon="11.6377819"><ele>1025.4</ele><time>2026-04-19T15:01:00.775Z</time></trkpt><trkpt lat="45.8978022" lon="11.6377989"><ele>1026.6000000000001</ele><time>2026-04-19T15:01:01.775Z</time></trkpt><trkpt lat="45.8977057" lon="11.6378112"><ele>1027.8</ele><time>2026-04-19T15:01:02.774Z</time></trkpt><trkpt lat="45.8976143" lon="11.6378179"><ele>1029.0</ele><time>2026-04-19T15:01:03.775Z</time></trkpt><trkpt lat="45.8975188" lon="11.637816"><ele>1027.6666666666667</ele><time>2026-04-19T15:01:04.774Z</time></trkpt><trkpt lat="45.8974279" lon="11.6378062"><ele>1026.3333333333333</ele><time>2026-04-19T15:01:05.774Z</time></trkpt><trkpt lat="45.8973402" lon="11.6377939"><ele>1025.0</ele><time>2026-04-19T15:01:06.774Z</time></trkpt><trkpt lat="45.8972596" lon="11.6377653"><ele>1023.6666666666666</ele><time>2026-04-19T15:01:07.775Z</time></trkpt><trkpt lat="45.8971843" lon="11.6377192"><ele>1022.3333333333333</ele><time>2026-04-19T15:01:08.775Z</time></trkpt><trkpt lat="45.8971124" lon="11.6376543"><ele>1021.0</ele><time>2026-04-19T15:01:09.775Z</time></trkpt><trkpt lat="45.8970376" lon="11.6375408"><ele>1021.0</ele><time>2026-04-19T15:01:10.775Z</time></trkpt><trkpt lat="45.8969678" lon="11.6374267"><ele>1020.9999999999999</ele><time>2026-04-19T15:01:11.774Z</time></trkpt><trkpt lat="45.8968964" lon="11.6373281"><ele>1020.9999999999999</ele><time>2026-04-19T15:01:12.774Z</time></trkpt><trkpt lat="45.8968294" lon="11.6372387"><ele>1021.0</ele><time>2026-04-19T15:01:13.775Z</time></trkpt><trkpt lat="45.8967717" lon="11.637161"><ele>1021.0</ele><time>2026-04-19T15:01:14.774Z</time></trkpt><trkpt lat="45.8967187" lon="11.6370728"><ele>1018.4999999999999</ele><time>2026-04-19T15:01:15.775Z</time></trkpt><trkpt lat="45.8966828" lon="11.6369664"><ele>1016.0</ele><time>2026-04-19T15:01:16.775Z</time></trkpt><trkpt lat="45.8966571" lon="11.6368466"><ele>1013.5</ele><time>2026-04-19T15:01:17.775Z</time></trkpt><trkpt lat="45.8966387" lon="11.6367222"><ele>1011.0</ele><time>2026-04-19T15:01:18.774Z</time></trkpt><trkpt lat="45.8966292" lon="11.6365945"><ele>1008.4999999999999</ele><time>2026-04-19T15:01:19.775Z</time></trkpt><trkpt lat="45.8965982" lon="11.6364692"><ele>1006.0</ele><time>2026-04-19T15:01:20.775Z</time></trkpt><trkpt lat="45.8965543" lon="11.6363582"><ele>1006.0</ele><time>2026-04-19T15:01:21.775Z</time></trkpt><trkpt lat="45.8965104" lon="11.6362466"><ele>1005.9999999999999</ele><time>2026-04-19T15:01:22.775Z</time></trkpt><trkpt lat="45.8964778" lon="11.6361288"><ele>1005.9999999999999</ele><time>2026-04-19T15:01:23.775Z</time></trkpt><trkpt lat="45.8964611" lon="11.6360012"><ele>1006.0</ele><time>2026-04-19T15:01:24.775Z</time></trkpt><trkpt lat="45.8964505" lon="11.6358637"><ele>1006.0</ele><time>2026-04-19T15:01:25.774Z</time></trkpt><trkpt lat="45.8964388" lon="11.6357252"><ele>1007.0</ele><time>2026-04-19T15:01:26.774Z</time></trkpt><trkpt lat="45.8964248" lon="11.6355878"><ele>1007.9999999999999</ele><time>2026-04-19T15:01:27.775Z</time></trkpt><trkpt lat="45.8964139" lon="11.6354503"><ele>1008.9999999999999</ele><time>2026-04-19T15:01:28.776Z</time></trkpt><trkpt lat="45.8964076" lon="11.6353218"><ele>1010.0</ele><time>2026-04-19T15:01:29.775Z</time></trkpt><trkpt lat="45.896403" lon="11.6351902"><ele>1011.0</ele><time>2026-04-19T15:01:30.774Z</time></trkpt><trkpt lat="45.8963976" lon="11.635062"><ele>1011.0</ele><time>2026-04-19T15:01:31.776Z</time></trkpt><trkpt lat="45.8963936" lon="11.6349403"><ele>1011.0</ele><time>2026-04-19T15:01:32.775Z</time></trkpt><trkpt lat="45.8963958" lon="11.6348141"><ele>1011.0</ele><time>2026-04-19T15:01:33.776Z</time></trkpt><trkpt lat="45.8963999" lon="11.6346882"><ele>1011.0</ele><time>2026-04-19T15:01:34.776Z</time></trkpt><trkpt lat="45.8963999" lon="11.6345641"><ele>1011.0</ele><time>2026-04-19T15:01:35.776Z</time></trkpt><trkpt lat="45.8964057" lon="11.6344242"><ele>1011.0</ele><time>2026-04-19T15:01:36.776Z</time></trkpt><trkpt lat="45.8964079" lon="11.634286"><ele>1010.8333333333334</ele><time>2026-04-19T15:01:37.775Z</time></trkpt><trkpt lat="45.8964046" lon="11.6341474"><ele>1010.6666666666667</ele><time>2026-04-19T15:01:38.776Z</time></trkpt><trkpt lat="45.8964055" lon="11.6340132"><ele>1010.5</ele><time>2026-04-19T15:01:39.776Z</time></trkpt><trkpt lat="45.8963976" lon="11.6338917"><ele>1010.3333333333334</ele><time>2026-04-19T15:01:40.776Z</time></trkpt><trkpt lat="45.8963775" lon="11.6337892"><ele>1010.1666666666667</ele><time>2026-04-19T15:01:41.776Z</time></trkpt><trkpt lat="45.8963478" lon="11.6336945"><ele>1010.0</ele><time>2026-04-19T15:01:42.776Z</time></trkpt><trkpt lat="45.8962489" lon="11.6335864"><ele>1010.0000000000001</ele><time>2026-04-19T15:01:44.775Z</time></trkpt><trkpt lat="45.8961858" lon="11.6335968"><ele>1010.0</ele><time>2026-04-19T15:01:45.775Z</time></trkpt><trkpt lat="45.896108" lon="11.6336363"><ele>1010.0</ele><time>2026-04-19T15:01:46.776Z</time></trkpt><trkpt lat="45.8960343" lon="11.6336973"><ele>1010.0</ele><time>2026-04-19T15:01:47.775Z</time></trkpt><trkpt lat="45.895961" lon="11.6337602"><ele>1010.0000000000001</ele><time>2026-04-19T15:01:48.776Z</time></trkpt><trkpt lat="45.8958929" lon="11.6338215"><ele>1010.0</ele><time>2026-04-19T15:01:49.776Z</time></trkpt><trkpt lat="45.8958209" lon="11.6338823"><ele>1006.0000000000001</ele><time>2026-04-19T15:01:50.776Z</time></trkpt><trkpt lat="45.8957331" lon="11.6339445"><ele>1002.0</ele><time>2026-04-19T15:01:51.776Z</time></trkpt><trkpt lat="45.895655" lon="11.6339926"><ele>998.0</ele><time>2026-04-19T15:01:52.776Z</time></trkpt><trkpt lat="45.8955806" lon="11.6340555"><ele>994.0</ele><time>2026-04-19T15:01:53.776Z</time></trkpt><trkpt lat="45.8955091" lon="11.6341172"><ele>990.0000000000001</ele><time>2026-04-19T15:01:54.776Z</time></trkpt><trkpt lat="45.8954406" lon="11.6341785"><ele>986.0</ele><time>2026-04-19T15:01:55.776Z</time></trkpt><trkpt lat="45.8953654" lon="11.6342461"><ele>986.0000000000001</ele><time>2026-04-19T15:01:56.776Z</time></trkpt><trkpt lat="45.8952946" lon="11.634307"><ele>986.0</ele><time>2026-04-19T15:01:57.776Z</time></trkpt><trkpt lat="45.8952339" lon="11.6343581"><ele>986.0</ele><time>2026-04-19T15:01:58.776Z</time></trkpt><trkpt lat="45.8951298" lon="11.6344663"><ele>986.0</ele><time>2026-04-19T15:02:00.776Z</time></trkpt><trkpt lat="45.8950899" lon="11.634539"><ele>986.0000000000001</ele><time>2026-04-19T15:02:01.776Z</time></trkpt><trkpt lat="45.8950552" lon="11.6346331"><ele>986.0</ele><time>2026-04-19T15:02:02.776Z</time></trkpt><trkpt lat="45.8950226" lon="11.6347208"><ele>986.6666666666667</ele><time>2026-04-19T15:02:03.776Z</time></trkpt><trkpt lat="45.8949583" lon="11.6348687"><ele>987.3333333333334</ele><time>2026-04-19T15:02:05.776Z</time></trkpt><trkpt lat="45.8948804" lon="11.635005"><ele>988.0</ele><time>2026-04-19T15:02:07.776Z</time></trkpt><trkpt lat="45.8948467" lon="11.6350832"><ele>988.6666666666667</ele><time>2026-04-19T15:02:08.776Z</time></trkpt><trkpt lat="45.8948145" lon="11.6351652"><ele>989.3333333333334</ele><time>2026-04-19T15:02:09.776Z</time></trkpt><trkpt lat="45.8947871" lon="11.6352537"><ele>990.0</ele><time>2026-04-19T15:02:10.775Z</time></trkpt><trkpt lat="45.8947829" lon="11.6354093"><ele>988.8571428571427</ele><time>2026-04-19T15:02:12.776Z</time></trkpt><trkpt lat="45.8947906" lon="11.6355072"><ele>987.7142857142857</ele><time>2026-04-19T15:02:13.776Z</time></trkpt><trkpt lat="45.8947997" lon="11.635611"><ele>986.5714285714284</ele><time>2026-04-19T15:02:14.776Z</time></trkpt><trkpt lat="45.8948135" lon="11.6357058"><ele>985.4285714285713</ele><time>2026-04-19T15:02:15.776Z</time></trkpt><trkpt lat="45.8948275" lon="11.6358099"><ele>984.2857142857142</ele><time>2026-04-19T15:02:16.776Z</time></trkpt><trkpt lat="45.8948392" lon="11.635911"><ele>983.1428571428571</ele><time>2026-04-19T15:02:17.777Z</time></trkpt><trkpt lat="45.8948466" lon="11.6360119"><ele>982.0</ele><time>2026-04-19T15:02:18.775Z</time></trkpt><trkpt lat="45.894849" lon="11.6361157"><ele>981.4999999999999</ele><time>2026-04-19T15:02:19.776Z</time></trkpt><trkpt lat="45.8948539" lon="11.6362245"><ele>981.0</ele><time>2026-04-19T15:02:20.776Z</time></trkpt><trkpt lat="45.8948588" lon="11.6363528"><ele>980.5</ele><time>2026-04-19T15:02:21.776Z</time></trkpt><trkpt lat="45.8948636" lon="11.636482"><ele>980.0</ele><time>2026-04-19T15:02:22.775Z</time></trkpt><trkpt lat="45.8948673" lon="11.636606"><ele>979.4999999999999</ele><time>2026-04-19T15:02:23.777Z</time></trkpt><trkpt lat="45.8948711" lon="11.6367316"><ele>979.0</ele><time>2026-04-19T15:02:24.775Z</time></trkpt><trkpt lat="45.8948749" lon="11.6368628"><ele>978.4000000000001</ele><time>2026-04-19T15:02:25.776Z</time></trkpt><trkpt lat="45.8948825" lon="11.6369886"><ele>977.8000000000001</ele><time>2026-04-19T15:02:26.776Z</time></trkpt><trkpt lat="45.894892" lon="11.6371184"><ele>977.1999999999999</ele><time>2026-04-19T15:02:27.776Z</time></trkpt><trkpt lat="45.8949117" lon="11.6372435"><ele>976.5999999999999</ele><time>2026-04-19T15:02:28.776Z</time></trkpt><trkpt lat="45.8949337" lon="11.6373789"><ele>976.0</ele><time>2026-04-19T15:02:29.777Z</time></trkpt><trkpt lat="45.8949502" lon="11.6375091"><ele>976.0</ele><time>2026-04-19T15:02:30.777Z</time></trkpt><trkpt lat="45.8949649" lon="11.6376404"><ele>975.9999999999999</ele><time>2026-04-19T15:02:31.776Z</time></trkpt><trkpt lat="45.8949809" lon="11.6377812"><ele>975.9999999999999</ele><time>2026-04-19T15:02:32.776Z</time></trkpt><trkpt lat="45.8949963" lon="11.6379123"><ele>976.0</ele><time>2026-04-19T15:02:33.777Z</time></trkpt><trkpt lat="45.8950161" lon="11.6380399"><ele>976.0</ele><time>2026-04-19T15:02:34.777Z</time></trkpt><trkpt lat="45.8950349" lon="11.6381664"><ele>974.8333333333333</ele><time>2026-04-19T15:02:35.776Z</time></trkpt><trkpt lat="45.8950538" lon="11.6382911"><ele>973.6666666666666</ele><time>2026-04-19T15:02:36.777Z</time></trkpt><trkpt lat="45.895058" lon="11.6384157"><ele>972.5</ele><time>2026-04-19T15:02:37.776Z</time></trkpt><trkpt lat="45.8950585" lon="11.6385222"><ele>971.3333333333333</ele><time>2026-04-19T15:02:38.776Z</time></trkpt><trkpt lat="45.8950572" lon="11.6386374"><ele>970.1666666666666</ele><time>2026-04-19T15:02:39.777Z</time></trkpt><trkpt lat="45.8950516" lon="11.6387502"><ele>969.0</ele><time>2026-04-19T15:02:40.777Z</time></trkpt><trkpt lat="45.8950373" lon="11.6388539"><ele>966.8333333333334</ele><time>2026-04-19T15:02:41.777Z</time></trkpt><trkpt lat="45.8950166" lon="11.6389516"><ele>964.6666666666667</ele><time>2026-04-19T15:02:42.777Z</time></trkpt><trkpt lat="45.8949854" lon="11.6390519"><ele>962.5</ele><time>2026-04-19T15:02:43.777Z</time></trkpt><trkpt lat="45.8949357" lon="11.6391661"><ele>960.3333333333334</ele><time>2026-04-19T15:02:44.777Z</time></trkpt><trkpt lat="45.8948756" lon="11.6392639"><ele>958.1666666666667</ele><time>2026-04-19T15:02:45.777Z</time></trkpt><trkpt lat="45.8948005" lon="11.6393472"><ele>956.0</ele><time>2026-04-19T15:02:46.777Z</time></trkpt><trkpt lat="45.8947206" lon="11.6394112"><ele>956.0</ele><time>2026-04-19T15:02:47.776Z</time></trkpt><trkpt lat="45.8946398" lon="11.6394599"><ele>955.9999999999999</ele><time>2026-04-19T15:02:48.777Z</time></trkpt><trkpt lat="45.8945462" lon="11.6394815"><ele>955.9999999999999</ele><time>2026-04-19T15:02:49.776Z</time></trkpt><trkpt lat="45.8944482" lon="11.6394942"><ele>956.0</ele><time>2026-04-19T15:02:50.777Z</time></trkpt><trkpt lat="45.8943534" lon="11.6395013"><ele>956.0</ele><time>2026-04-19T15:02:51.777Z</time></trkpt><trkpt lat="45.8942668" lon="11.6394954"><ele>952.4</ele><time>2026-04-19T15:02:52.776Z</time></trkpt><trkpt lat="45.894179" lon="11.6394918"><ele>948.8</ele><time>2026-04-19T15:02:53.777Z</time></trkpt><trkpt lat="45.8940916" lon="11.6394876"><ele>945.1999999999999</ele><time>2026-04-19T15:02:54.777Z</time></trkpt><trkpt lat="45.8940018" lon="11.6394869"><ele>941.5999999999999</ele><time>2026-04-19T15:02:55.777Z</time></trkpt><trkpt lat="45.8939079" lon="11.6394824"><ele>938.0</ele><time>2026-04-19T15:02:56.777Z</time></trkpt><trkpt lat="45.893817" lon="11.6394702"><ele>943.2</ele><time>2026-04-19T15:02:57.776Z</time></trkpt><trkpt lat="45.8937235" lon="11.6394448"><ele>948.4</ele><time>2026-04-19T15:02:58.777Z</time></trkpt><trkpt lat="45.8936297" lon="11.6394232"><ele>953.6000000000001</ele><time>2026-04-19T15:02:59.777Z</time></trkpt><trkpt lat="45.8935358" lon="11.6394034"><ele>958.8000000000001</ele><time>2026-04-19T15:03:00.777Z</time></trkpt><trkpt lat="45.8934441" lon="11.6393745"><ele>964.0</ele><time>2026-04-19T15:03:01.776Z</time></trkpt><trkpt lat="45.8933512" lon="11.6393505"><ele>963.9999999999999</ele><time>2026-04-19T15:03:02.777Z</time></trkpt><trkpt lat="45.893262" lon="11.6393289"><ele>964.0</ele><time>2026-04-19T15:03:03.776Z</time></trkpt><trkpt lat="45.8931805" lon="11.6393361"><ele>964.0</ele><time>2026-04-19T15:03:04.777Z</time></trkpt><trkpt lat="45.8931046" lon="11.6393686"><ele>964.0</ele><time>2026-04-19T15:03:05.777Z</time></trkpt><trkpt lat="45.8930322" lon="11.6394335"><ele>963.9999999999999</ele><time>2026-04-19T15:03:06.777Z</time></trkpt><trkpt lat="45.8929732" lon="11.6395234"><ele>964.0</ele><time>2026-04-19T15:03:07.777Z</time></trkpt><trkpt lat="45.8929262" lon="11.6396321"><ele>958.2</ele><time>2026-04-19T15:03:08.777Z</time></trkpt><trkpt lat="45.8928762" lon="11.6397468"><ele>952.4000000000001</ele><time>2026-04-19T15:03:09.777Z</time></trkpt><trkpt lat="45.8928164" lon="11.6398578"><ele>946.6</ele><time>2026-04-19T15:03:10.777Z</time></trkpt><trkpt lat="45.8927495" lon="11.6399627"><ele>940.8</ele><time>2026-04-19T15:03:11.776Z</time></trkpt><trkpt lat="45.8926813" lon="11.6400601"><ele>935.0</ele><time>2026-04-19T15:03:12.776Z</time></trkpt><trkpt lat="45.8926081" lon="11.6401533"><ele>933.4</ele><time>2026-04-19T15:03:13.777Z</time></trkpt><trkpt lat="45.8925368" lon="11.6402359"><ele>931.8</ele><time>2026-04-19T15:03:14.776Z</time></trkpt><trkpt lat="45.892456" lon="11.6403228"><ele>930.2</ele><time>2026-04-19T15:03:15.777Z</time></trkpt><trkpt lat="45.8923708" lon="11.6404028"><ele>928.6</ele><time>2026-04-19T15:03:16.777Z</time></trkpt><trkpt lat="45.8922891" lon="11.6404789"><ele>927.0</ele><time>2026-04-19T15:03:17.777Z</time></trkpt><trkpt lat="45.8922061" lon="11.6405484"><ele>927.0</ele><time>2026-04-19T15:03:18.777Z</time></trkpt><trkpt lat="45.8921203" lon="11.6406156"><ele>927.0</ele><time>2026-04-19T15:03:19.776Z</time></trkpt><trkpt lat="45.8920332" lon="11.6406803"><ele>927.0</ele><time>2026-04-19T15:03:20.777Z</time></trkpt><trkpt lat="45.8919483" lon="11.6407322"><ele>927.0</ele><time>2026-04-19T15:03:21.776Z</time></trkpt><trkpt lat="45.8918559" lon="11.6407672"><ele>927.0</ele><time>2026-04-19T15:03:22.777Z</time></trkpt><trkpt lat="45.8917622" lon="11.6407897"><ele>926.4000000000001</ele><time>2026-04-19T15:03:23.778Z</time></trkpt><trkpt lat="45.8916569" lon="11.6407922"><ele>925.8000000000001</ele><time>2026-04-19T15:03:24.777Z</time></trkpt><trkpt lat="45.8915553" lon="11.6407821"><ele>925.2</ele><time>2026-04-19T15:03:25.778Z</time></trkpt><trkpt lat="45.8914534" lon="11.6407586"><ele>924.6</ele><time>2026-04-19T15:03:26.778Z</time></trkpt><trkpt lat="45.8913452" lon="11.6407241"><ele>924.0</ele><time>2026-04-19T15:03:27.778Z</time></trkpt><trkpt lat="45.8912414" lon="11.640682"><ele>924.0</ele><time>2026-04-19T15:03:28.778Z</time></trkpt><trkpt lat="45.8911479" lon="11.6406455"><ele>924.0000000000001</ele><time>2026-04-19T15:03:29.777Z</time></trkpt><trkpt lat="45.8910484" lon="11.6406328"><ele>924.0000000000001</ele><time>2026-04-19T15:03:30.777Z</time></trkpt><trkpt lat="45.8909524" lon="11.6406527"><ele>924.0</ele><time>2026-04-19T15:03:31.777Z</time></trkpt><trkpt lat="45.8908527" lon="11.6407059"><ele>924.0</ele><time>2026-04-19T15:03:32.778Z</time></trkpt><trkpt lat="45.8907554" lon="11.6407544"><ele>923.6</ele><time>2026-04-19T15:03:33.778Z</time></trkpt><trkpt lat="45.8906579" lon="11.6407947"><ele>923.2</ele><time>2026-04-19T15:03:34.778Z</time></trkpt><trkpt lat="45.8905621" lon="11.6408187"><ele>922.8000000000001</ele><time>2026-04-19T15:03:35.777Z</time></trkpt><trkpt lat="45.8904677" lon="11.6408367"><ele>922.4000000000001</ele><time>2026-04-19T15:03:36.778Z</time></trkpt><trkpt lat="45.8903573" lon="11.6408543"><ele>922.0</ele><time>2026-04-19T15:03:37.778Z</time></trkpt><trkpt lat="45.890248" lon="11.64087"><ele>922.0</ele><time>2026-04-19T15:03:38.778Z</time></trkpt><trkpt lat="45.8901419" lon="11.6408914"><ele>922.0</ele><time>2026-04-19T15:03:39.777Z</time></trkpt><trkpt lat="45.8900378" lon="11.6409218"><ele>922.0</ele><time>2026-04-19T15:03:40.778Z</time></trkpt><trkpt lat="45.8899355" lon="11.6409471"><ele>922.0</ele><time>2026-04-19T15:03:41.778Z</time></trkpt><trkpt lat="45.8898313" lon="11.6409779"><ele>922.0</ele><time>2026-04-19T15:03:42.777Z</time></trkpt><trkpt lat="45.8897286" lon="11.6410102"><ele>921.2</ele><time>2026-04-19T15:03:43.778Z</time></trkpt><trkpt lat="45.8896246" lon="11.6410383"><ele>920.4000000000001</ele><time>2026-04-19T15:03:44.778Z</time></trkpt><trkpt lat="45.8895179" lon="11.6410656"><ele>919.5999999999999</ele><time>2026-04-19T15:03:45.778Z</time></trkpt><trkpt lat="45.8894105" lon="11.6410973"><ele>918.8</ele><time>2026-04-19T15:03:46.777Z</time></trkpt><trkpt lat="45.8893072" lon="11.6411246"><ele>918.0</ele><time>2026-04-19T15:03:47.778Z</time></trkpt><trkpt lat="45.8892044" lon="11.6411548"><ele>915.2</ele><time>2026-04-19T15:03:48.778Z</time></trkpt><trkpt lat="45.8891019" lon="11.6411949"><ele>912.4</ele><time>2026-04-19T15:03:49.777Z</time></trkpt><trkpt lat="45.8890042" lon="11.6412278"><ele>909.6000000000001</ele><time>2026-04-19T15:03:50.778Z</time></trkpt><trkpt lat="45.8889106" lon="11.6412578"><ele>906.8000000000001</ele><time>2026-04-19T15:03:51.778Z</time></trkpt><trkpt lat="45.8888173" lon="11.6412941"><ele>904.0</ele><time>2026-04-19T15:03:52.778Z</time></trkpt><trkpt lat="45.8887273" lon="11.6413369"><ele>904.0</ele><time>2026-04-19T15:03:53.777Z</time></trkpt><trkpt lat="45.8886314" lon="11.6413779"><ele>904.0000000000001</ele><time>2026-04-19T15:03:54.777Z</time></trkpt><trkpt lat="45.8885398" lon="11.6414107"><ele>904.0000000000001</ele><time>2026-04-19T15:03:55.778Z</time></trkpt><trkpt lat="45.8884508" lon="11.6414365"><ele>904.0</ele><time>2026-04-19T15:03:56.777Z</time></trkpt><trkpt lat="45.8883626" lon="11.6414513"><ele>904.0</ele><time>2026-04-19T15:03:57.777Z</time></trkpt><trkpt lat="45.8882656" lon="11.6414698"><ele>904.6</ele><time>2026-04-19T15:03:58.778Z</time></trkpt><trkpt lat="45.8881721" lon="11.6414838"><ele>905.2</ele><time>2026-04-19T15:03:59.777Z</time></trkpt><trkpt lat="45.8880752" lon="11.6415013"><ele>905.8000000000001</ele><time>2026-04-19T15:04:00.778Z</time></trkpt><trkpt lat="45.8879681" lon="11.641534"><ele>906.4000000000001</ele><time>2026-04-19T15:04:01.777Z</time></trkpt><trkpt lat="45.8878703" lon="11.6415623"><ele>907.0</ele><time>2026-04-19T15:04:02.778Z</time></trkpt><trkpt lat="45.8877727" lon="11.6416073"><ele>907.0</ele><time>2026-04-19T15:04:03.777Z</time></trkpt><trkpt lat="45.88768" lon="11.6416746"><ele>907.0</ele><time>2026-04-19T15:04:04.778Z</time></trkpt><trkpt lat="45.8876033" lon="11.6417532"><ele>907.0</ele><time>2026-04-19T15:04:05.777Z</time></trkpt><trkpt lat="45.887536" lon="11.6418372"><ele>907.0</ele><time>2026-04-19T15:04:06.778Z</time></trkpt><trkpt lat="45.8874729" lon="11.6419177"><ele>907.0</ele><time>2026-04-19T15:04:07.778Z</time></trkpt><trkpt lat="45.8874108" lon="11.6419989"><ele>905.8333333333333</ele><time>2026-04-19T15:04:08.777Z</time></trkpt><trkpt lat="45.8873532" lon="11.6420762"><ele>904.6666666666666</ele><time>2026-04-19T15:04:09.778Z</time></trkpt><trkpt lat="45.8873001" lon="11.6421397"><ele>903.5</ele><time>2026-04-19T15:04:10.777Z</time></trkpt><trkpt lat="45.8872363" lon="11.6422064"><ele>902.3333333333333</ele><time>2026-04-19T15:04:11.778Z</time></trkpt><trkpt lat="45.8871562" lon="11.6422618"><ele>901.1666666666666</ele><time>2026-04-19T15:04:12.778Z</time></trkpt><trkpt lat="45.887063" lon="11.6422989"><ele>900.0</ele><time>2026-04-19T15:04:13.778Z</time></trkpt><trkpt lat="45.8869648" lon="11.642317"><ele>900.0</ele><time>2026-04-19T15:04:14.777Z</time></trkpt><trkpt lat="45.8868612" lon="11.6423318"><ele>900.0</ele><time>2026-04-19T15:04:15.777Z</time></trkpt><trkpt lat="45.8867644" lon="11.6423514"><ele>900.0</ele><time>2026-04-19T15:04:16.778Z</time></trkpt><trkpt lat="45.8866669" lon="11.6423907"><ele>900.0</ele><time>2026-04-19T15:04:17.777Z</time></trkpt><trkpt lat="45.8865754" lon="11.6424398"><ele>900.0</ele><time>2026-04-19T15:04:18.778Z</time></trkpt><trkpt lat="45.886484" lon="11.6424955"><ele>899.8</ele><time>2026-04-19T15:04:19.778Z</time></trkpt><trkpt lat="45.886397" lon="11.6425495"><ele>899.6</ele><time>2026-04-19T15:04:20.778Z</time></trkpt><trkpt lat="45.8862956" lon="11.6425974"><ele>899.4000000000001</ele><time>2026-04-19T15:04:21.779Z</time></trkpt><trkpt lat="45.886192" lon="11.6426192"><ele>899.2</ele><time>2026-04-19T15:04:22.779Z</time></trkpt><trkpt lat="45.8860938" lon="11.6426232"><ele>899.0</ele><time>2026-04-19T15:04:23.778Z</time></trkpt><trkpt lat="45.8859871" lon="11.6426238"><ele>898.2</ele><time>2026-04-19T15:04:24.779Z</time></trkpt><trkpt lat="45.8858928" lon="11.6425966"><ele>897.4000000000001</ele><time>2026-04-19T15:04:25.778Z</time></trkpt><trkpt lat="45.885794" lon="11.6425625"><ele>896.6</ele><time>2026-04-19T15:04:26.778Z</time></trkpt><trkpt lat="45.885697" lon="11.6425208"><ele>895.8</ele><time>2026-04-19T15:04:27.779Z</time></trkpt><trkpt lat="45.8855984" lon="11.6424815"><ele>895.0</ele><time>2026-04-19T15:04:28.779Z</time></trkpt><trkpt lat="45.8855001" lon="11.6424681"><ele>895.0</ele><time>2026-04-19T15:04:29.779Z</time></trkpt><trkpt lat="45.8853977" lon="11.6424751"><ele>895.0</ele><time>2026-04-19T15:04:30.779Z</time></trkpt><trkpt lat="45.885301" lon="11.6424945"><ele>895.0</ele><time>2026-04-19T15:04:31.779Z</time></trkpt><trkpt lat="45.8852041" lon="11.6425202"><ele>895.0</ele><time>2026-04-19T15:04:32.779Z</time></trkpt><trkpt lat="45.8851073" lon="11.6425511"><ele>895.0</ele><time>2026-04-19T15:04:33.779Z</time></trkpt><trkpt lat="45.8850118" lon="11.6425897"><ele>895.4</ele><time>2026-04-19T15:04:34.779Z</time></trkpt><trkpt lat="45.8849195" lon="11.6426444"><ele>895.8</ele><time>2026-04-19T15:04:35.779Z</time></trkpt><trkpt lat="45.8848279" lon="11.642704"><ele>896.2</ele><time>2026-04-19T15:04:36.779Z</time></trkpt><trkpt lat="45.884741" lon="11.6427628"><ele>896.6</ele><time>2026-04-19T15:04:37.779Z</time></trkpt><trkpt lat="45.8846521" lon="11.6428167"><ele>897.0</ele><time>2026-04-19T15:04:38.779Z</time></trkpt><trkpt lat="45.8845756" lon="11.6428595"><ele>892.6</ele><time>2026-04-19T15:04:39.778Z</time></trkpt><trkpt lat="45.8844946" lon="11.6429003"><ele>888.2</ele><time>2026-04-19T15:04:40.778Z</time></trkpt><trkpt lat="45.8843985" lon="11.6429261"><ele>883.8</ele><time>2026-04-19T15:04:41.779Z</time></trkpt><trkpt lat="45.8843018" lon="11.6429347"><ele>879.4</ele><time>2026-04-19T15:04:42.779Z</time></trkpt><trkpt lat="45.8842069" lon="11.6429414"><ele>875.0</ele><time>2026-04-19T15:04:43.779Z</time></trkpt><trkpt lat="45.8841102" lon="11.6429348"><ele>873.8333333333334</ele><time>2026-04-19T15:04:44.779Z</time></trkpt><trkpt lat="45.884021" lon="11.6429185"><ele>872.6666666666667</ele><time>2026-04-19T15:04:45.778Z</time></trkpt><trkpt lat="45.8839327" lon="11.6429014"><ele>871.5</ele><time>2026-04-19T15:04:46.779Z</time></trkpt><trkpt lat="45.8838435" lon="11.6428866"><ele>870.3333333333333</ele><time>2026-04-19T15:04:47.779Z</time></trkpt><trkpt lat="45.883754" lon="11.6428593"><ele>869.1666666666666</ele><time>2026-04-19T15:04:48.779Z</time></trkpt><trkpt lat="45.8836685" lon="11.6428357"><ele>868.0</ele><time>2026-04-19T15:04:49.779Z</time></trkpt><trkpt lat="45.8835841" lon="11.642812"><ele>867.9999999999999</ele><time>2026-04-19T15:04:50.779Z</time></trkpt><trkpt lat="45.8834922" lon="11.6428023"><ele>868.0</ele><time>2026-04-19T15:04:51.779Z</time></trkpt><trkpt lat="45.8833973" lon="11.6427913"><ele>868.0</ele><time>2026-04-19T15:04:52.779Z</time></trkpt><trkpt lat="45.8833133" lon="11.6427649"><ele>868.0</ele><time>2026-04-19T15:04:53.779Z</time></trkpt><trkpt lat="45.8832288" lon="11.6427582"><ele>867.9999999999999</ele><time>2026-04-19T15:04:54.779Z</time></trkpt><trkpt lat="45.8831467" lon="11.6427545"><ele>868.0</ele><time>2026-04-19T15:04:55.778Z</time></trkpt><trkpt lat="45.8830681" lon="11.6427456"><ele>872.0</ele><time>2026-04-19T15:04:56.779Z</time></trkpt><trkpt lat="45.8830027" lon="11.6427093"><ele>876.0</ele><time>2026-04-19T15:04:57.779Z</time></trkpt><trkpt lat="45.8829446" lon="11.6426557"><ele>880.0</ele><time>2026-04-19T15:04:58.779Z</time></trkpt><trkpt lat="45.8828745" lon="11.6425308"><ele>884.0</ele><time>2026-04-19T15:05:00.779Z</time></trkpt><trkpt lat="45.8827961" lon="11.6423892"><ele>888.0</ele><time>2026-04-19T15:05:02.779Z</time></trkpt><trkpt lat="45.8826104" lon="11.6422098"><ele>884.0</ele><time>2026-04-19T15:05:06.779Z</time></trkpt><trkpt lat="45.8825462" lon="11.6422282"><ele>880.0</ele><time>2026-04-19T15:05:07.778Z</time></trkpt><trkpt lat="45.8824786" lon="11.6422771"><ele>876.0</ele><time>2026-04-19T15:05:08.779Z</time></trkpt><trkpt lat="45.8824124" lon="11.6423417"><ele>872.0</ele><time>2026-04-19T15:05:09.779Z</time></trkpt><trkpt lat="45.8823004" lon="11.6423555"><ele>868.0</ele><time>2026-04-19T15:05:10.778Z</time></trkpt><trkpt lat="45.882209" lon="11.642386"><ele>864.0</ele><time>2026-04-19T15:05:11.779Z</time></trkpt><trkpt lat="45.8821098" lon="11.6424438"><ele>864.0</ele><time>2026-04-19T15:05:12.779Z</time></trkpt><trkpt lat="45.8820149" lon="11.6424602"><ele>864.0000000000001</ele><time>2026-04-19T15:05:13.778Z</time></trkpt><trkpt lat="45.8819235" lon="11.6424614"><ele>864.0000000000001</ele><time>2026-04-19T15:05:14.779Z</time></trkpt><trkpt lat="45.8818258" lon="11.6424497"><ele>864.0</ele><time>2026-04-19T15:05:15.779Z</time></trkpt><trkpt lat="45.8817282" lon="11.6424277"><ele>864.0</ele><time>2026-04-19T15:05:16.779Z</time></trkpt><trkpt lat="45.8816258" lon="11.6424036"><ele>860.6</ele><time>2026-04-19T15:05:17.778Z</time></trkpt><trkpt lat="45.881525" lon="11.6423627"><ele>857.2</ele><time>2026-04-19T15:05:18.779Z</time></trkpt><trkpt lat="45.881424" lon="11.6423152"><ele>853.8000000000001</ele><time>2026-04-19T15:05:19.779Z</time></trkpt><trkpt lat="45.8813239" lon="11.64226"><ele>850.4000000000001</ele><time>2026-04-19T15:05:20.78Z</time></trkpt><trkpt lat="45.881231" lon="11.6422076"><ele>847.0</ele><time>2026-04-19T15:05:21.779Z</time></trkpt><trkpt lat="45.8811428" lon="11.6421497"><ele>847.0</ele><time>2026-04-19T15:05:22.779Z</time></trkpt><trkpt lat="45.8810534" lon="11.6420875"><ele>847.0</ele><time>2026-04-19T15:05:23.78Z</time></trkpt><trkpt lat="45.8809615" lon="11.6420319"><ele>847.0</ele><time>2026-04-19T15:05:24.78Z</time></trkpt><trkpt lat="45.8808789" lon="11.6419741"><ele>847.0</ele><time>2026-04-19T15:05:25.779Z</time></trkpt><trkpt lat="45.8808016" lon="11.6419217"><ele>847.0</ele><time>2026-04-19T15:05:26.78Z</time></trkpt><trkpt lat="45.8807163" lon="11.6418805"><ele>849.9999999999999</ele><time>2026-04-19T15:05:27.78Z</time></trkpt><trkpt lat="45.8806314" lon="11.6418572"><ele>853.0</ele><time>2026-04-19T15:05:28.78Z</time></trkpt><trkpt lat="45.8805351" lon="11.641858"><ele>856.0</ele><time>2026-04-19T15:05:29.78Z</time></trkpt><trkpt lat="45.8804461" lon="11.6418835"><ele>859.0</ele><time>2026-04-19T15:05:30.779Z</time></trkpt><trkpt lat="45.880369" lon="11.6418934"><ele>861.9999999999999</ele><time>2026-04-19T15:05:31.779Z</time></trkpt><trkpt lat="45.8802945" lon="11.6419105"><ele>865.0</ele><time>2026-04-19T15:05:32.779Z</time></trkpt><trkpt lat="45.8801778" lon="11.6418671"><ele>864.9999999999999</ele><time>2026-04-19T15:05:34.78Z</time></trkpt><trkpt lat="45.8801192" lon="11.641816"><ele>865.0</ele><time>2026-04-19T15:05:35.78Z</time></trkpt><trkpt lat="45.8800581" lon="11.641749"><ele>865.0</ele><time>2026-04-19T15:05:36.779Z</time></trkpt><trkpt lat="45.8799947" lon="11.641672"><ele>865.0</ele><time>2026-04-19T15:05:37.779Z</time></trkpt><trkpt lat="45.8799278" lon="11.6416132"><ele>864.9999999999999</ele><time>2026-04-19T15:05:38.78Z</time></trkpt><trkpt lat="45.8798509" lon="11.6415636"><ele>865.0</ele><time>2026-04-19T15:05:39.779Z</time></trkpt><trkpt lat="45.8797735" lon="11.6415345"><ele>860.6666666666666</ele><time>2026-04-19T15:05:40.78Z</time></trkpt><trkpt lat="45.8796915" lon="11.6415255"><ele>856.3333333333333</ele><time>2026-04-19T15:05:41.779Z</time></trkpt><trkpt lat="45.8796139" lon="11.6415329"><ele>852.0</ele><time>2026-04-19T15:05:42.78Z</time></trkpt><trkpt lat="45.8795344" lon="11.6415574"><ele>847.6666666666667</ele><time>2026-04-19T15:05:43.78Z</time></trkpt><trkpt lat="45.8794595" lon="11.6415982"><ele>843.3333333333334</ele><time>2026-04-19T15:05:44.779Z</time></trkpt><trkpt lat="45.8793908" lon="11.6416342"><ele>839.0</ele><time>2026-04-19T15:05:45.779Z</time></trkpt><trkpt lat="45.879325" lon="11.6416504"><ele>839.0000000000001</ele><time>2026-04-19T15:05:46.78Z</time></trkpt><trkpt lat="45.8792575" lon="11.6416627"><ele>839.0</ele><time>2026-04-19T15:05:47.78Z</time></trkpt><trkpt lat="45.8791915" lon="11.6416772"><ele>839.0</ele><time>2026-04-19T15:05:48.779Z</time></trkpt><trkpt lat="45.8791314" lon="11.641707"><ele>839.0</ele><time>2026-04-19T15:05:49.78Z</time></trkpt><trkpt lat="45.8791148" lon="11.641837"><ele>839.0000000000001</ele><time>2026-04-19T15:05:51.78Z</time></trkpt><trkpt lat="45.8791957" lon="11.6419122"><ele>839.0</ele><time>2026-04-19T15:05:53.779Z</time></trkpt><trkpt lat="45.8793145" lon="11.6418715"><ele>839.0000000000001</ele><time>2026-04-19T15:05:55.78Z</time></trkpt><trkpt lat="45.879381" lon="11.6418585"><ele>839.0</ele><time>2026-04-19T15:05:56.78Z</time></trkpt><trkpt lat="45.8794457" lon="11.6418422"><ele>839.0</ele><time>2026-04-19T15:05:57.78Z</time></trkpt><trkpt lat="45.879528" lon="11.6418189"><ele>839.0</ele><time>2026-04-19T15:05:58.779Z</time></trkpt><trkpt lat="45.8796213" lon="11.6418083"><ele>839.0000000000001</ele><time>2026-04-19T15:05:59.78Z</time></trkpt><trkpt lat="45.8797111" lon="11.6418227"><ele>839.0</ele><time>2026-04-19T15:06:00.78Z</time></trkpt><trkpt lat="45.879799" lon="11.6418539"><ele>839.0000000000001</ele><time>2026-04-19T15:06:01.779Z</time></trkpt><trkpt lat="45.8798795" lon="11.6418892"><ele>839.0</ele><time>2026-04-19T15:06:02.78Z</time></trkpt><trkpt lat="45.8799496" lon="11.6419392"><ele>839.0</ele><time>2026-04-19T15:06:03.779Z</time></trkpt><trkpt lat="45.8800163" lon="11.6420002"><ele>839.0</ele><time>2026-04-19T15:06:04.779Z</time></trkpt><trkpt lat="45.8800672" lon="11.6420847"><ele>839.0000000000001</ele><time>2026-04-19T15:06:05.779Z</time></trkpt><trkpt lat="45.8800991" lon="11.6421838"><ele>839.0</ele><time>2026-04-19T15:06:06.779Z</time></trkpt><trkpt lat="45.8801198" lon="11.6422876"><ele>835.2</ele><time>2026-04-19T15:06:07.779Z</time></trkpt><trkpt lat="45.8801814" lon="11.6424397"><ele>831.4000000000001</ele><time>2026-04-19T15:06:09.779Z</time></trkpt><trkpt lat="45.880296" lon="11.6425099"><ele>827.6</ele><time>2026-04-19T15:06:11.78Z</time></trkpt><trkpt lat="45.8803646" lon="11.6425083"><ele>823.8</ele><time>2026-04-19T15:06:12.78Z</time></trkpt><trkpt lat="45.880435" lon="11.6424834"><ele>820.0</ele><time>2026-04-19T15:06:13.78Z</time></trkpt><trkpt lat="45.8805082" lon="11.6424636"><ele>819.9999999999999</ele><time>2026-04-19T15:06:14.779Z</time></trkpt><trkpt lat="45.8805842" lon="11.6424556"><ele>820.0</ele><time>2026-04-19T15:06:15.781Z</time></trkpt><trkpt lat="45.8806591" lon="11.6424623"><ele>820.0</ele><time>2026-04-19T15:06:16.78Z</time></trkpt><trkpt lat="45.8807354" lon="11.6424782"><ele>820.0</ele><time>2026-04-19T15:06:17.78Z</time></trkpt><trkpt lat="45.8808213" lon="11.6425011"><ele>819.9999999999999</ele><time>2026-04-19T15:06:18.781Z</time></trkpt><trkpt lat="45.8808947" lon="11.642547"><ele>820.0</ele><time>2026-04-19T15:06:19.781Z</time></trkpt><trkpt lat="45.8809655" lon="11.6426227"><ele>816.3333333333333</ele><time>2026-04-19T15:06:20.781Z</time></trkpt><trkpt lat="45.8810306" lon="11.6427152"><ele>812.6666666666666</ele><time>2026-04-19T15:06:21.781Z</time></trkpt><trkpt lat="45.8810904" lon="11.6427977"><ele>809.0</ele><time>2026-04-19T15:06:22.78Z</time></trkpt><trkpt lat="45.8811505" lon="11.6428595"><ele>805.3333333333333</ele><time>2026-04-19T15:06:23.781Z</time></trkpt><trkpt lat="45.8812221" lon="11.6429117"><ele>801.6666666666666</ele><time>2026-04-19T15:06:24.781Z</time></trkpt><trkpt lat="45.8812978" lon="11.6429522"><ele>798.0</ele><time>2026-04-19T15:06:25.78Z</time></trkpt><trkpt lat="45.881456" lon="11.6430195"><ele>798.0</ele><time>2026-04-19T15:06:27.781Z</time></trkpt><trkpt lat="45.8815353" lon="11.643047"><ele>798.0</ele><time>2026-04-19T15:06:28.781Z</time></trkpt><trkpt lat="45.8816133" lon="11.6430766"><ele>798.0</ele><time>2026-04-19T15:06:29.78Z</time></trkpt><trkpt lat="45.8816952" lon="11.6431002"><ele>798.0</ele><time>2026-04-19T15:06:30.781Z</time></trkpt><trkpt lat="45.8817707" lon="11.6431071"><ele>798.0</ele><time>2026-04-19T15:06:31.78Z</time></trkpt><trkpt lat="45.8818499" lon="11.6430991"><ele>798.0</ele><time>2026-04-19T15:06:32.78Z</time></trkpt><trkpt lat="45.8819352" lon="11.6430773"><ele>800.8333333333334</ele><time>2026-04-19T15:06:33.781Z</time></trkpt><trkpt lat="45.8820205" lon="11.6430502"><ele>803.6666666666667</ele><time>2026-04-19T15:06:34.781Z</time></trkpt><trkpt lat="45.8821054" lon="11.6430326"><ele>806.5</ele><time>2026-04-19T15:06:35.781Z</time></trkpt><trkpt lat="45.8821849" lon="11.6430442"><ele>809.3333333333334</ele><time>2026-04-19T15:06:36.78Z</time></trkpt><trkpt lat="45.882253" lon="11.6430892"><ele>812.1666666666667</ele><time>2026-04-19T15:06:37.781Z</time></trkpt><trkpt lat="45.8823135" lon="11.6431713"><ele>815.0</ele><time>2026-04-19T15:06:38.781Z</time></trkpt><trkpt lat="45.8823558" lon="11.6432837"><ele>815.0000000000001</ele><time>2026-04-19T15:06:39.781Z</time></trkpt><trkpt lat="45.882375" lon="11.6433998"><ele>815.0</ele><time>2026-04-19T15:06:40.781Z</time></trkpt><trkpt lat="45.8823671" lon="11.6435058"><ele>815.0</ele><time>2026-04-19T15:06:41.78Z</time></trkpt><trkpt lat="45.8823204" lon="11.6435999"><ele>815.0</ele><time>2026-04-19T15:06:42.781Z</time></trkpt><trkpt lat="45.8822674" lon="11.6437159"><ele>815.0000000000001</ele><time>2026-04-19T15:06:43.781Z</time></trkpt><trkpt lat="45.8821945" lon="11.6438022"><ele>815.0</ele><time>2026-04-19T15:06:44.781Z</time></trkpt><trkpt lat="45.8821211" lon="11.643871"><ele>818.8</ele><time>2026-04-19T15:06:45.781Z</time></trkpt><trkpt lat="45.8820444" lon="11.6439499"><ele>822.6</ele><time>2026-04-19T15:06:46.781Z</time></trkpt><trkpt lat="45.8819614" lon="11.6440367"><ele>826.4000000000001</ele><time>2026-04-19T15:06:47.781Z</time></trkpt><trkpt lat="45.8818701" lon="11.6441113"><ele>830.2</ele><time>2026-04-19T15:06:48.781Z</time></trkpt><trkpt lat="45.8817707" lon="11.644168"><ele>834.0</ele><time>2026-04-19T15:06:49.78Z</time></trkpt><trkpt lat="45.8816649" lon="11.6442173"><ele>825.2</ele><time>2026-04-19T15:06:50.781Z</time></trkpt><trkpt lat="45.8815657" lon="11.6442657"><ele>816.4000000000001</ele><time>2026-04-19T15:06:51.781Z</time></trkpt><trkpt lat="45.8814678" lon="11.6443104"><ele>807.6</ele><time>2026-04-19T15:06:52.781Z</time></trkpt><trkpt lat="45.8813681" lon="11.644351"><ele>798.8</ele><time>2026-04-19T15:06:53.78Z</time></trkpt><trkpt lat="45.8812649" lon="11.6443704"><ele>790.0</ele><time>2026-04-19T15:06:54.78Z</time></trkpt><trkpt lat="45.8811585" lon="11.6443685"><ele>790.0</ele><time>2026-04-19T15:06:55.781Z</time></trkpt><trkpt lat="45.8810541" lon="11.6443585"><ele>790.0</ele><time>2026-04-19T15:06:56.781Z</time></trkpt><trkpt lat="45.8809505" lon="11.6443607"><ele>790.0</ele><time>2026-04-19T15:06:57.78Z</time></trkpt><trkpt lat="45.880854" lon="11.6443884"><ele>790.0</ele><time>2026-04-19T15:06:58.781Z</time></trkpt><trkpt lat="45.8807559" lon="11.6444294"><ele>790.0</ele><time>2026-04-19T15:06:59.781Z</time></trkpt><trkpt lat="45.8806579" lon="11.6444824"><ele>793.6</ele><time>2026-04-19T15:07:00.781Z</time></trkpt><trkpt lat="45.8805621" lon="11.6445325"><ele>797.2</ele><time>2026-04-19T15:07:01.78Z</time></trkpt><trkpt lat="45.8804635" lon="11.644584"><ele>800.8</ele><time>2026-04-19T15:07:02.781Z</time></trkpt><trkpt lat="45.8803638" lon="11.6446332"><ele>804.4</ele><time>2026-04-19T15:07:03.78Z</time></trkpt><trkpt lat="45.8802668" lon="11.6446952"><ele>808.0</ele><time>2026-04-19T15:07:04.781Z</time></trkpt><trkpt lat="45.88018" lon="11.6447697"><ele>798.4</ele><time>2026-04-19T15:07:05.781Z</time></trkpt><trkpt lat="45.8800988" lon="11.6448431"><ele>788.8</ele><time>2026-04-19T15:07:06.781Z</time></trkpt><trkpt lat="45.88002" lon="11.6449142"><ele>779.2</ele><time>2026-04-19T15:07:07.782Z</time></trkpt><trkpt lat="45.8799475" lon="11.6449893"><ele>769.6</ele><time>2026-04-19T15:07:08.78Z</time></trkpt><trkpt lat="45.8798829" lon="11.6450707"><ele>760.0</ele><time>2026-04-19T15:07:09.781Z</time></trkpt><trkpt lat="45.8798255" lon="11.6451674"><ele>760.0</ele><time>2026-04-19T15:07:10.781Z</time></trkpt><trkpt lat="45.8797758" lon="11.6452778"><ele>760.0</ele><time>2026-04-19T15:07:11.78Z</time></trkpt><trkpt lat="45.8797262" lon="11.6453939"><ele>760.0</ele><time>2026-04-19T15:07:12.782Z</time></trkpt><trkpt lat="45.8796617" lon="11.6454915"><ele>760.0</ele><time>2026-04-19T15:07:13.782Z</time></trkpt><trkpt lat="45.8795847" lon="11.6455626"><ele>760.0</ele><time>2026-04-19T15:07:14.782Z</time></trkpt><trkpt lat="45.879511" lon="11.6456273"><ele>764.5714285714286</ele><time>2026-04-19T15:07:15.781Z</time></trkpt><trkpt lat="45.8794453" lon="11.6456963"><ele>769.1428571428571</ele><time>2026-04-19T15:07:16.782Z</time></trkpt><trkpt lat="45.8793983" lon="11.6457765"><ele>773.7142857142858</ele><time>2026-04-19T15:07:17.782Z</time></trkpt><trkpt lat="45.8793637" lon="11.6458718"><ele>778.2857142857142</ele><time>2026-04-19T15:07:18.782Z</time></trkpt><trkpt lat="45.8793448" lon="11.6459768"><ele>782.8571428571428</ele><time>2026-04-19T15:07:19.781Z</time></trkpt><trkpt lat="45.8793382" lon="11.6460734"><ele>787.4285714285714</ele><time>2026-04-19T15:07:20.782Z</time></trkpt><trkpt lat="45.8793192" lon="11.6461603"><ele>792.0</ele><time>2026-04-19T15:07:21.782Z</time></trkpt><trkpt lat="45.8792409" lon="11.6462709"><ele>792.0</ele><time>2026-04-19T15:07:23.782Z</time></trkpt><trkpt lat="45.8791722" lon="11.6462867"><ele>792.0</ele><time>2026-04-19T15:07:24.782Z</time></trkpt><trkpt lat="45.8791036" lon="11.6463028"><ele>792.0</ele><time>2026-04-19T15:07:25.781Z</time></trkpt><trkpt lat="45.8790391" lon="11.6463281"><ele>792.0</ele><time>2026-04-19T15:07:26.781Z</time></trkpt><trkpt lat="45.8789207" lon="11.6463839"><ele>792.0</ele><time>2026-04-19T15:07:28.782Z</time></trkpt><trkpt lat="45.8788562" lon="11.6464096"><ele>792.0</ele><time>2026-04-19T15:07:29.782Z</time></trkpt><trkpt lat="45.8787929" lon="11.6464306"><ele>792.0</ele><time>2026-04-19T15:07:30.781Z</time></trkpt><trkpt lat="45.8787314" lon="11.646453"><ele>792.0</ele><time>2026-04-19T15:07:31.782Z</time></trkpt><trkpt lat="45.8786294" lon="11.6465388"><ele>792.0</ele><time>2026-04-19T15:07:33.781Z</time></trkpt><trkpt lat="45.8785418" lon="11.6466476"><ele>792.0</ele><time>2026-04-19T15:07:35.782Z</time></trkpt><trkpt lat="45.8784434" lon="11.646753"><ele>792.0</ele><time>2026-04-19T15:07:37.781Z</time></trkpt><trkpt lat="45.878349" lon="11.6468494"><ele>785.5</ele><time>2026-04-19T15:07:39.782Z</time></trkpt><trkpt lat="45.8782557" lon="11.6469002"><ele>779.0</ele><time>2026-04-19T15:07:41.782Z</time></trkpt><trkpt lat="45.8781477" lon="11.6468925"><ele>772.5</ele><time>2026-04-19T15:07:43.782Z</time></trkpt><trkpt lat="45.8780864" lon="11.6468671"><ele>766.0</ele><time>2026-04-19T15:07:44.781Z</time></trkpt><trkpt lat="45.8780266" lon="11.646828"><ele>759.5</ele><time>2026-04-19T15:07:45.781Z</time></trkpt><trkpt lat="45.8779686" lon="11.646778"><ele>753.0</ele><time>2026-04-19T15:07:46.782Z</time></trkpt><trkpt lat="45.8779123" lon="11.6467287"><ele>753.0</ele><time>2026-04-19T15:07:47.782Z</time></trkpt><trkpt lat="45.877804" lon="11.6466484"><ele>753.0</ele><time>2026-04-19T15:07:49.781Z</time></trkpt><trkpt lat="45.8776855" lon="11.6466155"><ele>753.0</ele><time>2026-04-19T15:07:51.782Z</time></trkpt><trkpt lat="45.8775664" lon="11.6466395"><ele>753.0</ele><time>2026-04-19T15:07:53.781Z</time></trkpt><trkpt lat="45.8775042" lon="11.6466674"><ele>753.0</ele><time>2026-04-19T15:07:54.781Z</time></trkpt><trkpt lat="45.8774425" lon="11.6466897"><ele>754.6666666666666</ele><time>2026-04-19T15:07:55.781Z</time></trkpt><trkpt lat="45.8773761" lon="11.6467097"><ele>756.3333333333334</ele><time>2026-04-19T15:07:56.781Z</time></trkpt><trkpt lat="45.8772776" lon="11.646743"><ele>758.0</ele><time>2026-04-19T15:07:58.781Z</time></trkpt><trkpt lat="45.8772222" lon="11.6468016"><ele>759.6666666666667</ele><time>2026-04-19T15:08:52.783Z</time></trkpt><trkpt lat="45.8771618" lon="11.6468516"><ele>761.3333333333334</ele><time>2026-04-19T15:08:54.783Z</time></trkpt><trkpt lat="45.8771009" lon="11.646917"><ele>763.0</ele><time>2026-04-19T15:08:56.783Z</time></trkpt><trkpt lat="45.8770381" lon="11.6470172"><ele>763.0</ele><time>2026-04-19T15:08:58.783Z</time></trkpt><trkpt lat="45.8770074" lon="11.6471154"><ele>763.0</ele><time>2026-04-19T15:09:00.784Z</time></trkpt><trkpt lat="45.8770131" lon="11.6472116"><ele>763.0</ele><time>2026-04-19T15:09:47.784Z</time></trkpt><trkpt lat="45.8770193" lon="11.6473492"><ele>763.0</ele><time>2026-04-19T15:09:50.784Z</time></trkpt><trkpt lat="45.8770033" lon="11.6474675"><ele>763.0</ele><time>2026-04-19T15:09:52.784Z</time></trkpt><trkpt lat="45.8769711" lon="11.6475873"><ele>763.0</ele><time>2026-04-19T15:09:54.784Z</time></trkpt><trkpt lat="45.8769241" lon="11.6476763"><ele>762.5999999999999</ele><time>2026-04-19T15:09:56.785Z</time></trkpt><trkpt lat="45.8768044" lon="11.6478316"><ele>762.1999999999999</ele><time>2026-04-19T15:09:59.785Z</time></trkpt><trkpt lat="45.8767395" lon="11.6479214"><ele>761.8</ele><time>2026-04-19T15:10:00.785Z</time></trkpt><trkpt lat="45.8766718" lon="11.6479756"><ele>761.4</ele><time>2026-04-19T15:10:01.784Z</time></trkpt><trkpt lat="45.8765771" lon="11.6480092"><ele>761.0</ele><time>2026-04-19T15:10:02.785Z</time></trkpt><trkpt lat="45.8764894" lon="11.6480164"><ele>760.9999999999999</ele><time>2026-04-19T15:10:03.784Z</time></trkpt><trkpt lat="45.8764084" lon="11.6480143"><ele>761.0</ele><time>2026-04-19T15:10:04.785Z</time></trkpt><trkpt lat="45.876335" lon="11.6479849"><ele>761.0</ele><time>2026-04-19T15:10:05.785Z</time></trkpt><trkpt lat="45.8762659" lon="11.6479396"><ele>761.0</ele><time>2026-04-19T15:10:06.784Z</time></trkpt><trkpt lat="45.8762028" lon="11.6478972"><ele>761.0</ele><time>2026-04-19T15:10:07.784Z</time></trkpt><trkpt lat="45.8761383" lon="11.6478839"><ele>760.9999999999999</ele><time>2026-04-19T15:10:08.784Z</time></trkpt><trkpt lat="45.8760725" lon="11.6478966"><ele>761.0</ele><time>2026-04-19T15:10:09.785Z</time></trkpt><trkpt lat="45.8760014" lon="11.6479454"><ele>753.5999999999999</ele><time>2026-04-19T15:10:10.785Z</time></trkpt><trkpt lat="45.8759335" lon="11.6480347"><ele>746.2</ele><time>2026-04-19T15:10:11.785Z</time></trkpt><trkpt lat="45.8758854" lon="11.6481579"><ele>738.8</ele><time>2026-04-19T15:10:12.785Z</time></trkpt><trkpt lat="45.8758599" lon="11.6482863"><ele>731.4000000000001</ele><time>2026-04-19T15:10:13.785Z</time></trkpt><trkpt lat="45.8758426" lon="11.6484172"><ele>724.0</ele><time>2026-04-19T15:10:14.785Z</time></trkpt><trkpt lat="45.875822" lon="11.6485396"><ele>729.0</ele><time>2026-04-19T15:10:15.785Z</time></trkpt><trkpt lat="45.8757863" lon="11.6486295"><ele>734.0</ele><time>2026-04-19T15:10:16.784Z</time></trkpt><trkpt lat="45.8756705" lon="11.6486913"><ele>739.0</ele><time>2026-04-19T15:10:18.784Z</time></trkpt><trkpt lat="45.8755912" lon="11.648687"><ele>744.0</ele><time>2026-04-19T15:10:19.784Z</time></trkpt><trkpt lat="45.8755131" lon="11.6486771"><ele>749.0</ele><time>2026-04-19T15:10:20.785Z</time></trkpt><trkpt lat="45.8754387" lon="11.648697"><ele>754.0</ele><time>2026-04-19T15:10:21.785Z</time></trkpt><trkpt lat="45.8753615" lon="11.6487499"><ele>754.0</ele><time>2026-04-19T15:10:22.785Z</time></trkpt><trkpt lat="45.8752815" lon="11.648812"><ele>754.0</ele><time>2026-04-19T15:10:23.784Z</time></trkpt><trkpt lat="45.8752022" lon="11.6488723"><ele>754.0</ele><time>2026-04-19T15:10:24.784Z</time></trkpt><trkpt lat="45.8751323" lon="11.6489302"><ele>754.0</ele><time>2026-04-19T15:10:25.785Z</time></trkpt><trkpt lat="45.8750741" lon="11.6490022"><ele>754.0</ele><time>2026-04-19T15:10:26.785Z</time></trkpt><trkpt lat="45.8750374" lon="11.6490925"><ele>754.0</ele><time>2026-04-19T15:10:27.785Z</time></trkpt><trkpt lat="45.8750223" lon="11.6492137"><ele>753.0</ele><time>2026-04-19T15:10:28.785Z</time></trkpt><trkpt lat="45.875012" lon="11.6493425"><ele>752.0</ele><time>2026-04-19T15:10:29.785Z</time></trkpt><trkpt lat="45.8749946" lon="11.6494589"><ele>751.0</ele><time>2026-04-19T15:10:30.785Z</time></trkpt><trkpt lat="45.8749654" lon="11.6495614"><ele>750.0</ele><time>2026-04-19T15:10:31.785Z</time></trkpt><trkpt lat="45.8749271" lon="11.649644"><ele>749.0</ele><time>2026-04-19T15:10:32.784Z</time></trkpt><trkpt lat="45.8748541" lon="11.6497318"><ele>748.0</ele><time>2026-04-19T15:10:34.785Z</time></trkpt><trkpt lat="45.8748587" lon="11.6496044"><ele>748.0</ele><time>2026-04-19T15:10:37.784Z</time></trkpt><trkpt lat="45.8749454" lon="11.6494846"><ele>748.0</ele><time>2026-04-19T15:10:39.785Z</time></trkpt><trkpt lat="45.8749797" lon="11.6493983"><ele>748.0</ele><time>2026-04-19T15:10:40.785Z</time></trkpt><trkpt lat="45.8749962" lon="11.6492986"><ele>748.0</ele><time>2026-04-19T15:10:41.785Z</time></trkpt><trkpt lat="45.875008" lon="11.6491893"><ele>748.0</ele><time>2026-04-19T15:10:42.785Z</time></trkpt><trkpt lat="45.8750105" lon="11.6490851"><ele>748.0</ele><time>2026-04-19T15:10:43.785Z</time></trkpt><trkpt lat="45.8750108" lon="11.6489912"><ele>749.0</ele><time>2026-04-19T15:10:44.785Z</time></trkpt><trkpt lat="45.8750279" lon="11.6488992"><ele>750.0</ele><time>2026-04-19T15:10:45.785Z</time></trkpt><trkpt lat="45.8750637" lon="11.6488126"><ele>751.0</ele><time>2026-04-19T15:10:46.785Z</time></trkpt><trkpt lat="45.8751133" lon="11.648724"><ele>752.0</ele><time>2026-04-19T15:10:47.785Z</time></trkpt><trkpt lat="45.8751762" lon="11.6486498"><ele>753.0</ele><time>2026-04-19T15:10:48.784Z</time></trkpt><trkpt lat="45.8752462" lon="11.6485757"><ele>754.0</ele><time>2026-04-19T15:10:49.785Z</time></trkpt><trkpt lat="45.8753207" lon="11.6485002"><ele>748.0</ele><time>2026-04-19T15:10:50.784Z</time></trkpt><trkpt lat="45.8754037" lon="11.6484263"><ele>742.0</ele><time>2026-04-19T15:10:51.786Z</time></trkpt><trkpt lat="45.8754841" lon="11.6483696"><ele>736.0</ele><time>2026-04-19T15:10:52.785Z</time></trkpt><trkpt lat="45.8755736" lon="11.6483349"><ele>730.0</ele><time>2026-04-19T15:10:53.785Z</time></trkpt><trkpt lat="45.8756608" lon="11.6483047"><ele>724.0</ele><time>2026-04-19T15:10:54.786Z</time></trkpt><trkpt lat="45.8757371" lon="11.6482557"><ele>724.0</ele><time>2026-04-19T15:10:55.786Z</time></trkpt><trkpt lat="45.8757988" lon="11.6481878"><ele>724.0</ele><time>2026-04-19T15:10:56.785Z</time></trkpt><trkpt lat="45.8758509" lon="11.6480853"><ele>724.0</ele><time>2026-04-19T15:10:57.786Z</time></trkpt><trkpt lat="45.8758877" lon="11.6479671"><ele>724.0</ele><time>2026-04-19T15:10:58.785Z</time></trkpt><trkpt lat="45.8759185" lon="11.6478643"><ele>724.0</ele><time>2026-04-19T15:10:59.786Z</time></trkpt><trkpt lat="45.875944" lon="11.6477806"><ele>724.0</ele><time>2026-04-19T15:11:00.786Z</time></trkpt><trkpt lat="45.875928" lon="11.6476525"><ele>724.0</ele><time>2026-04-19T15:11:02.786Z</time></trkpt><trkpt lat="45.8758149" lon="11.6476943"><ele>724.0</ele><time>2026-04-19T15:11:04.786Z</time></trkpt><trkpt lat="45.8757793" lon="11.6477975"><ele>724.0</ele><time>2026-04-19T15:11:05.786Z</time></trkpt><trkpt lat="45.8757548" lon="11.6478827"><ele>724.0</ele><time>2026-04-19T15:11:06.786Z</time></trkpt><trkpt lat="45.8757096" lon="11.6480537"><ele>724.0</ele><time>2026-04-19T15:11:08.785Z</time></trkpt><trkpt lat="45.8756587" lon="11.6481351"><ele>724.0</ele><time>2026-04-19T15:11:09.786Z</time></trkpt><trkpt lat="45.8755953" lon="11.6482002"><ele>724.0</ele><time>2026-04-19T15:11:10.785Z</time></trkpt><trkpt lat="45.875513" lon="11.6482259"><ele>724.0</ele><time>2026-04-19T15:11:11.786Z</time></trkpt><trkpt lat="45.8754181" lon="11.6482269"><ele>724.0</ele><time>2026-04-19T15:11:12.786Z</time></trkpt><trkpt lat="45.8753343" lon="11.6482286"><ele>724.0</ele><time>2026-04-19T15:11:13.786Z</time></trkpt><trkpt lat="45.8752535" lon="11.648245"><ele>724.0</ele><time>2026-04-19T15:11:14.786Z</time></trkpt><trkpt lat="45.8751745" lon="11.6482851"><ele>714.2</ele><time>2026-04-19T15:11:15.786Z</time></trkpt><trkpt lat="45.875091" lon="11.6483365"><ele>704.4000000000001</ele><time>2026-04-19T15:11:16.786Z</time></trkpt><trkpt lat="45.8750063" lon="11.6484016"><ele>694.6</ele><time>2026-04-19T15:11:17.785Z</time></trkpt><trkpt lat="45.8749215" lon="11.6484633"><ele>684.8</ele><time>2026-04-19T15:11:18.786Z</time></trkpt><trkpt lat="45.8748399" lon="11.648526"><ele>675.0</ele><time>2026-04-19T15:11:19.786Z</time></trkpt><trkpt lat="45.874765" lon="11.648604"><ele>680.6666666666666</ele><time>2026-04-19T15:11:20.786Z</time></trkpt><trkpt lat="45.874704" lon="11.6487006"><ele>686.3333333333334</ele><time>2026-04-19T15:11:21.786Z</time></trkpt><trkpt lat="45.8746625" lon="11.6488269"><ele>692.0</ele><time>2026-04-19T15:11:22.785Z</time></trkpt><trkpt lat="45.8746383" lon="11.648951"><ele>697.6666666666667</ele><time>2026-04-19T15:11:23.785Z</time></trkpt><trkpt lat="45.8746209" lon="11.649051"><ele>703.3333333333334</ele><time>2026-04-19T15:11:24.786Z</time></trkpt><trkpt lat="45.8745921" lon="11.6491389"><ele>709.0</ele><time>2026-04-19T15:11:25.786Z</time></trkpt><trkpt lat="45.8745438" lon="11.6492092"><ele>709.0</ele><time>2026-04-19T15:11:26.786Z</time></trkpt><trkpt lat="45.8744487" lon="11.6492618"><ele>709.0</ele><time>2026-04-19T15:11:27.785Z</time></trkpt><trkpt lat="45.8743568" lon="11.6492867"><ele>709.0</ele><time>2026-04-19T15:11:28.786Z</time></trkpt><trkpt lat="45.8742666" lon="11.6493049"><ele>709.0</ele><time>2026-04-19T15:11:29.785Z</time></trkpt><trkpt lat="45.8741797" lon="11.6493428"><ele>709.0</ele><time>2026-04-19T15:11:30.786Z</time></trkpt><trkpt lat="45.8740869" lon="11.649401"><ele>707.6</ele><time>2026-04-19T15:11:31.786Z</time></trkpt><trkpt lat="45.8739977" lon="11.6494665"><ele>706.2</ele><time>2026-04-19T15:11:32.786Z</time></trkpt><trkpt lat="45.8739071" lon="11.6495499"><ele>704.8000000000001</ele><time>2026-04-19T15:11:33.785Z</time></trkpt><trkpt lat="45.8738261" lon="11.6496294"><ele>703.4000000000001</ele><time>2026-04-19T15:11:34.785Z</time></trkpt><trkpt lat="45.8737433" lon="11.6497282"><ele>702.0</ele><time>2026-04-19T15:11:35.786Z</time></trkpt><trkpt lat="45.8736633" lon="11.6498237"><ele>702.0</ele><time>2026-04-19T15:11:36.785Z</time></trkpt><trkpt lat="45.8735724" lon="11.6499121"><ele>702.0</ele><time>2026-04-19T15:11:37.785Z</time></trkpt><trkpt lat="45.8734753" lon="11.6499807"><ele>702.0</ele><time>2026-04-19T15:11:38.786Z</time></trkpt><trkpt lat="45.8733781" lon="11.6500375"><ele>702.0</ele><time>2026-04-19T15:11:39.786Z</time></trkpt><trkpt lat="45.8732982" lon="11.6500984"><ele>702.0</ele><time>2026-04-19T15:11:40.786Z</time></trkpt><trkpt lat="45.8732363" lon="11.6501729"><ele>696.6</ele><time>2026-04-19T15:11:41.787Z</time></trkpt><trkpt lat="45.8731964" lon="11.6502676"><ele>691.2</ele><time>2026-04-19T15:11:42.787Z</time></trkpt><trkpt lat="45.873178" lon="11.6503994"><ele>685.8</ele><time>2026-04-19T15:11:43.786Z</time></trkpt><trkpt lat="45.8731777" lon="11.6505352"><ele>680.4</ele><time>2026-04-19T15:11:44.786Z</time></trkpt><trkpt lat="45.873188" lon="11.6506773"><ele>675.0</ele><time>2026-04-19T15:11:45.787Z</time></trkpt><trkpt lat="45.8731944" lon="11.6508117"><ele>675.0</ele><time>2026-04-19T15:11:46.787Z</time></trkpt><trkpt lat="45.8731865" lon="11.6509415"><ele>675.0</ele><time>2026-04-19T15:11:47.787Z</time></trkpt><trkpt lat="45.8731619" lon="11.6510637"><ele>675.0</ele><time>2026-04-19T15:11:48.786Z</time></trkpt><trkpt lat="45.8731086" lon="11.6511559"><ele>675.0</ele><time>2026-04-19T15:11:49.787Z</time></trkpt><trkpt lat="45.873035" lon="11.6512215"><ele>675.0</ele><time>2026-04-19T15:11:50.787Z</time></trkpt><trkpt lat="45.8729415" lon="11.6512466"><ele>675.0</ele><time>2026-04-19T15:11:51.786Z</time></trkpt><trkpt lat="45.872833" lon="11.651232"><ele>672.0</ele><time>2026-04-19T15:11:52.786Z</time></trkpt><trkpt lat="45.8727261" lon="11.6512006"><ele>669.0</ele><time>2026-04-19T15:11:53.787Z</time></trkpt><trkpt lat="45.8726252" lon="11.6511776"><ele>666.0</ele><time>2026-04-19T15:11:54.787Z</time></trkpt><trkpt lat="45.8725376" lon="11.6511758"><ele>663.0</ele><time>2026-04-19T15:11:55.786Z</time></trkpt><trkpt lat="45.8724508" lon="11.6512152"><ele>660.0</ele><time>2026-04-19T15:11:56.786Z</time></trkpt><trkpt lat="45.8723664" lon="11.6512913"><ele>660.0</ele><time>2026-04-19T15:11:57.787Z</time></trkpt><trkpt lat="45.8722904" lon="11.6513911"><ele>660.0</ele><time>2026-04-19T15:11:58.786Z</time></trkpt><trkpt lat="45.8722144" lon="11.6515161"><ele>660.0</ele><time>2026-04-19T15:11:59.787Z</time></trkpt><trkpt lat="45.8721371" lon="11.6516419"><ele>660.0</ele><time>2026-04-19T15:12:00.787Z</time></trkpt><trkpt lat="45.8720552" lon="11.6517614"><ele>660.0</ele><time>2026-04-19T15:12:01.787Z</time></trkpt><trkpt lat="45.8719761" lon="11.6518792"><ele>660.0</ele><time>2026-04-19T15:12:02.786Z</time></trkpt><trkpt lat="45.8718947" lon="11.6520026"><ele>660.0</ele><time>2026-04-19T15:12:03.787Z</time></trkpt><trkpt lat="45.8718188" lon="11.6521228"><ele>660.0</ele><time>2026-04-19T15:12:04.787Z</time></trkpt><trkpt lat="45.8717506" lon="11.6522334"><ele>660.0</ele><time>2026-04-19T15:12:05.787Z</time></trkpt><trkpt lat="45.8737433" lon="11.6497282"><ele>659.6</ele><time>2026-04-19T15:11:35.786Z</time></trkpt><trkpt lat="45.8736633" lon="11.6498237"><ele>659.2</ele><time>2026-04-19T15:11:36.785Z</time></trkpt><trkpt lat="45.8735724" lon="11.6499121"><ele>658.8</ele><time>2026-04-19T15:11:37.785Z</time></trkpt><trkpt lat="45.8734753" lon="11.6499807"><ele>658.4</ele><time>2026-04-19T15:11:38.786Z</time></trkpt><trkpt lat="45.8733781" lon="11.6500375"><ele>658.0</ele><time>2026-04-19T15:11:39.786Z</time></trkpt><trkpt lat="45.8732982" lon="11.6500984"><ele>658.0</ele><time>2026-04-19T15:11:40.786Z</time></trkpt><trkpt lat="45.8732363" lon="11.6501729"><ele>658.0</ele><time>2026-04-19T15:11:41.787Z</time></trkpt><trkpt lat="45.8731964" lon="11.6502676"><ele>658.0</ele><time>2026-04-19T15:11:42.787Z</time></trkpt><trkpt lat="45.873178" lon="11.6503994"><ele>658.0</ele><time>2026-04-19T15:11:43.786Z</time></trkpt><trkpt lat="45.8731777" lon="11.6505352"><ele>658.0</ele><time>2026-04-19T15:11:44.786Z</time></trkpt><trkpt lat="45.873188" lon="11.6506773"><ele>658.0</ele><time>2026-04-19T15:11:45.787Z</time></trkpt><trkpt lat="45.8731944" lon="11.6508117"><ele>660.8333333333334</ele><time>2026-04-19T15:11:46.787Z</time></trkpt><trkpt lat="45.8731865" lon="11.6509415"><ele>663.6666666666667</ele><time>2026-04-19T15:11:47.787Z</time></trkpt><trkpt lat="45.8731619" lon="11.6510637"><ele>666.5</ele><time>2026-04-19T15:11:48.786Z</time></trkpt><trkpt lat="45.8731086" lon="11.6511559"><ele>669.3333333333334</ele><time>2026-04-19T15:11:49.787Z</time></trkpt><trkpt lat="45.873035" lon="11.6512215"><ele>672.1666666666666</ele><time>2026-04-19T15:11:50.787Z</time></trkpt><trkpt lat="45.8729415" lon="11.6512466"><ele>675.0</ele><time>2026-04-19T15:11:51.786Z</time></trkpt><trkpt lat="45.872833" lon="11.651232"><ele>672.0</ele><time>2026-04-19T15:11:52.786Z</time></trkpt><trkpt lat="45.8727261" lon="11.6512006"><ele>669.0</ele><time>2026-04-19T15:11:53.787Z</time></trkpt><trkpt lat="45.8726252" lon="11.6511776"><ele>666.0</ele><time>2026-04-19T15:11:54.787Z</time></trkpt><trkpt lat="45.8725376" lon="11.6511758"><ele>663.0</ele><time>2026-04-19T15:11:55.786Z</time></trkpt><trkpt lat="45.8724508" lon="11.6512152"><ele>660.0</ele><time>2026-04-19T15:11:56.786Z</time></trkpt><trkpt lat="45.8723664" lon="11.6512913"><ele>660.0</ele><time>2026-04-19T15:11:57.787Z</time></trkpt><trkpt lat="45.8722904" lon="11.6513911"><ele>660.0</ele><time>2026-04-19T15:11:58.786Z</time></trkpt><trkpt lat="45.8722144" lon="11.6515161"><ele>660.0</ele><time>2026-04-19T15:11:59.787Z</time></trkpt><trkpt lat="45.8721371" lon="11.6516419"><ele>660.0</ele><time>2026-04-19T15:12:00.787Z</time></trkpt><trkpt lat="45.8720552" lon="11.6517614"><ele>660.0</ele><time>2026-04-19T15:12:01.787Z</time></trkpt><trkpt lat="45.8719761" lon="11.6518792"><ele>660.0</ele><time>2026-04-19T15:12:02.786Z</time></trkpt><trkpt lat="45.8718947" lon="11.6520026"><ele>660.0</ele><time>2026-04-19T15:12:03.787Z</time></trkpt><trkpt lat="45.8718188" lon="11.6521228"><ele>660.0</ele><time>2026-04-19T15:12:04.787Z</time></trkpt><trkpt lat="45.8717506" lon="11.6522334"><ele>660.0</ele><time>2026-04-19T15:12:05.787Z</time></trkpt><trkpt lat="45.8716845" lon="11.6523295"><ele>655.8333333333334</ele><time>2026-04-19T15:12:06.787Z</time></trkpt><trkpt lat="45.8716168" lon="11.6524073"><ele>651.6666666666666</ele><time>2026-04-19T15:12:07.786Z</time></trkpt><trkpt lat="45.8715512" lon="11.6524662"><ele>647.5</ele><time>2026-04-19T15:12:08.786Z</time></trkpt><trkpt lat="45.8714936" lon="11.652519"><ele>643.3333333333333</ele><time>2026-04-19T15:12:09.787Z</time></trkpt><trkpt lat="45.871406" lon="11.6526007"><ele>639.1666666666666</ele><time>2026-04-19T15:12:11.787Z</time></trkpt><trkpt lat="45.871342" lon="11.6525628"><ele>635.0</ele><time>2026-04-19T15:12:13.786Z</time></trkpt><trkpt lat="45.8713866" lon="11.6524502"><ele>635.0</ele><time>2026-04-19T15:12:15.787Z</time></trkpt><trkpt lat="45.8714544" lon="11.6524029"><ele>635.0</ele><time>2026-04-19T15:12:17.787Z</time></trkpt><trkpt lat="45.8715528" lon="11.6523336"><ele>635.0</ele><time>2026-04-19T15:12:19.787Z</time></trkpt><trkpt lat="45.8716084" lon="11.6522639"><ele>635.0</ele><time>2026-04-19T15:12:20.786Z</time></trkpt><trkpt lat="45.8716643" lon="11.6521851"><ele>635.0</ele><time>2026-04-19T15:12:21.786Z</time></trkpt><trkpt lat="45.8717186" lon="11.6521032"><ele>635.0</ele><time>2026-04-19T15:12:22.786Z</time></trkpt><trkpt lat="45.8717707" lon="11.6520116"><ele>639.1666666666666</ele><time>2026-04-19T15:12:23.786Z</time></trkpt><trkpt lat="45.8718213" lon="11.651908"><ele>643.3333333333333</ele><time>2026-04-19T15:12:24.787Z</time></trkpt><trkpt lat="45.8718722" lon="11.6518003"><ele>647.5</ele><time>2026-04-19T15:12:25.787Z</time></trkpt><trkpt lat="45.8719225" lon="11.6517016"><ele>651.6666666666666</ele><time>2026-04-19T15:12:26.787Z</time></trkpt><trkpt lat="45.8719718" lon="11.6516003"><ele>655.8333333333334</ele><time>2026-04-19T15:12:27.786Z</time></trkpt><trkpt lat="45.872028" lon="11.6514866"><ele>660.0</ele><time>2026-04-19T15:12:28.787Z</time></trkpt><trkpt lat="45.8720861" lon="11.6513634"><ele>660.0</ele><time>2026-04-19T15:12:29.786Z</time></trkpt><trkpt lat="45.8721414" lon="11.6512416"><ele>660.0</ele><time>2026-04-19T15:12:30.787Z</time></trkpt><trkpt lat="45.8721909" lon="11.6511129"><ele>660.0</ele><time>2026-04-19T15:12:31.787Z</time></trkpt><trkpt lat="45.872235" lon="11.6509925"><ele>660.0</ele><time>2026-04-19T15:12:32.787Z</time></trkpt><trkpt lat="45.8722771" lon="11.6508869"><ele>660.0</ele><time>2026-04-19T15:12:33.788Z</time></trkpt><trkpt lat="45.872324" lon="11.6507955"><ele>662.1428571428572</ele><time>2026-04-19T15:12:34.788Z</time></trkpt><trkpt lat="45.8723786" lon="11.6507282"><ele>664.2857142857143</ele><time>2026-04-19T15:12:35.788Z</time></trkpt><trkpt lat="45.8724436" lon="11.6507039"><ele>666.4285714285714</ele><time>2026-04-19T15:12:36.788Z</time></trkpt><trkpt lat="45.8725103" lon="11.6507008"><ele>668.5714285714287</ele><time>2026-04-19T15:12:37.787Z</time></trkpt><trkpt lat="45.8725805" lon="11.650699"><ele>670.7142857142858</ele><time>2026-04-19T15:12:38.787Z</time></trkpt><trkpt lat="45.8726442" lon="11.6506665"><ele>672.8571428571429</ele><time>2026-04-19T15:12:39.787Z</time></trkpt><trkpt lat="45.872697" lon="11.6505937"><ele>675.0</ele><time>2026-04-19T15:12:40.788Z</time></trkpt><trkpt lat="45.8727336" lon="11.6504897"><ele>675.0</ele><time>2026-04-19T15:12:41.788Z</time></trkpt><trkpt lat="45.872749" lon="11.6503583"><ele>675.0</ele><time>2026-04-19T15:12:42.787Z</time></trkpt><trkpt lat="45.8727455" lon="11.6502443"><ele>675.0</ele><time>2026-04-19T15:12:43.788Z</time></trkpt><trkpt lat="45.8727211" lon="11.6501209"><ele>675.0</ele><time>2026-04-19T15:12:44.788Z</time></trkpt><trkpt lat="45.8727016" lon="11.6500011"><ele>675.0</ele><time>2026-04-19T15:12:45.787Z</time></trkpt><trkpt lat="45.8726765" lon="11.6498822"><ele>675.0</ele><time>2026-04-19T15:12:46.788Z</time></trkpt><trkpt lat="45.8726581" lon="11.6497738"><ele>671.6</ele><time>2026-04-19T15:12:47.788Z</time></trkpt><trkpt lat="45.8726557" lon="11.6496545"><ele>668.2</ele><time>2026-04-19T15:12:48.788Z</time></trkpt><trkpt lat="45.8726802" lon="11.6495243"><ele>664.8</ele><time>2026-04-19T15:12:49.787Z</time></trkpt><trkpt lat="45.8727233" lon="11.6494065"><ele>661.4</ele><time>2026-04-19T15:12:50.787Z</time></trkpt><trkpt lat="45.8727761" lon="11.6493009"><ele>658.0</ele><time>2026-04-19T15:12:51.788Z</time></trkpt><trkpt lat="45.8728424" lon="11.6492139"><ele>653.0</ele><time>2026-04-19T15:12:52.788Z</time></trkpt><trkpt lat="45.8729229" lon="11.6491505"><ele>648.0</ele><time>2026-04-19T15:12:53.788Z</time></trkpt><trkpt lat="45.8730104" lon="11.6491062"><ele>643.0</ele><time>2026-04-19T15:12:54.788Z</time></trkpt><trkpt lat="45.8730971" lon="11.6490662"><ele>638.0</ele><time>2026-04-19T15:12:55.787Z</time></trkpt><trkpt lat="45.8731856" lon="11.6490255"><ele>633.0</ele><time>2026-04-19T15:12:56.788Z</time></trkpt><trkpt lat="45.8732683" lon="11.6489833"><ele>633.0</ele><time>2026-04-19T15:12:57.787Z</time></trkpt><trkpt lat="45.8733488" lon="11.6489321"><ele>633.0</ele><time>2026-04-19T15:12:58.788Z</time></trkpt><trkpt lat="45.8734194" lon="11.6488751"><ele>633.0</ele><time>2026-04-19T15:12:59.788Z</time></trkpt><trkpt lat="45.8734856" lon="11.6488012"><ele>633.0</ele><time>2026-04-19T15:13:00.788Z</time></trkpt><trkpt lat="45.8735447" lon="11.6487051"><ele>633.0</ele><time>2026-04-19T15:13:01.788Z</time></trkpt><trkpt lat="45.8736012" lon="11.6486013"><ele>633.0</ele><time>2026-04-19T15:13:02.788Z</time></trkpt><trkpt lat="45.873666" lon="11.6485142"><ele>633.3333333333334</ele><time>2026-04-19T15:13:03.788Z</time></trkpt><trkpt lat="45.8737292" lon="11.6484497"><ele>633.6666666666666</ele><time>2026-04-19T15:13:04.788Z</time></trkpt><trkpt lat="45.873811" lon="11.6484061"><ele>634.0</ele><time>2026-04-19T15:13:05.787Z</time></trkpt><trkpt lat="45.8738838" lon="11.6483722"><ele>634.3333333333333</ele><time>2026-04-19T15:13:06.788Z</time></trkpt><trkpt lat="45.8739392" lon="11.6483286"><ele>634.6666666666666</ele><time>2026-04-19T15:13:07.788Z</time></trkpt><trkpt lat="45.8740144" lon="11.6482057"><ele>635.0</ele><time>2026-04-19T15:13:09.788Z</time></trkpt><trkpt lat="45.8740381" lon="11.6480487"><ele>635.0</ele><time>2026-04-19T15:13:11.787Z</time></trkpt><trkpt lat="45.8740719" lon="11.6479287"><ele>635.0</ele><time>2026-04-19T15:13:13.787Z</time></trkpt><trkpt lat="45.8740116" lon="11.6478424"><ele>635.0</ele><time>2026-04-19T15:13:16.787Z</time></trkpt><trkpt lat="45.873934" lon="11.6479396"><ele>635.0</ele><time>2026-04-19T15:13:18.788Z</time></trkpt><trkpt lat="45.873929" lon="11.6480811"><ele>635.0</ele><time>2026-04-19T15:13:20.788Z</time></trkpt><trkpt lat="45.873908" lon="11.6482403"><ele>635.0</ele><time>2026-04-19T15:13:22.789Z</time></trkpt><trkpt lat="45.8738546" lon="11.6483125"><ele>635.0</ele><time>2026-04-19T15:13:23.788Z</time></trkpt><trkpt lat="45.873789" lon="11.6483534"><ele>635.0</ele><time>2026-04-19T15:13:24.788Z</time></trkpt><trkpt lat="45.8737101" lon="11.6483716"><ele>635.0</ele><time>2026-04-19T15:13:25.789Z</time></trkpt><trkpt lat="45.8736311" lon="11.6483897"><ele>635.0</ele><time>2026-04-19T15:13:26.789Z</time></trkpt><trkpt lat="45.8735535" lon="11.6484184"><ele>635.0</ele><time>2026-04-19T15:13:27.789Z</time></trkpt><trkpt lat="45.8734763" lon="11.6484718"><ele>634.6</ele><time>2026-04-19T15:13:28.789Z</time></trkpt><trkpt lat="45.8734095" lon="11.6485519"><ele>634.2</ele><time>2026-04-19T15:13:29.789Z</time></trkpt><trkpt lat="45.8733454" lon="11.6486407"><ele>633.8</ele><time>2026-04-19T15:13:30.788Z</time></trkpt><trkpt lat="45.8732681" lon="11.6487229"><ele>633.4</ele><time>2026-04-19T15:13:31.789Z</time></trkpt><trkpt lat="45.8731851" lon="11.6487761"><ele>633.0</ele><time>2026-04-19T15:13:32.789Z</time></trkpt><trkpt lat="45.873096" lon="11.6488065"><ele>633.0</ele><time>2026-04-19T15:13:33.788Z</time></trkpt><trkpt lat="45.8730066" lon="11.6488186"><ele>633.0</ele><time>2026-04-19T15:13:34.788Z</time></trkpt><trkpt lat="45.8729207" lon="11.6488382"><ele>633.0</ele><time>2026-04-19T15:13:35.789Z</time></trkpt><trkpt lat="45.8728415" lon="11.6488587"><ele>633.0</ele><time>2026-04-19T15:13:36.789Z</time></trkpt><trkpt lat="45.8727649" lon="11.6488685"><ele>633.0</ele><time>2026-04-19T15:13:37.789Z</time></trkpt><trkpt lat="45.8726877" lon="11.6488717"><ele>633.0</ele><time>2026-04-19T15:13:38.789Z</time></trkpt><trkpt lat="45.8726093" lon="11.6488851"><ele>626.5</ele><time>2026-04-19T15:13:39.789Z</time></trkpt><trkpt lat="45.8725294" lon="11.6489073"><ele>620.0</ele><time>2026-04-19T15:13:40.789Z</time></trkpt><trkpt lat="45.8724517" lon="11.6489613"><ele>613.5</ele><time>2026-04-19T15:13:41.788Z</time></trkpt><trkpt lat="45.8723794" lon="11.6490389"><ele>607.0</ele><time>2026-04-19T15:13:42.789Z</time></trkpt><trkpt lat="45.8723159" lon="11.6491259"><ele>600.5</ele><time>2026-04-19T15:13:43.789Z</time></trkpt><trkpt lat="45.8722592" lon="11.6492217"><ele>594.0</ele><time>2026-04-19T15:13:44.789Z</time></trkpt><trkpt lat="45.8722041" lon="11.6493264"><ele>594.0</ele><time>2026-04-19T15:13:45.789Z</time></trkpt><trkpt lat="45.8721509" lon="11.649448"><ele>594.0</ele><time>2026-04-19T15:13:46.789Z</time></trkpt><trkpt lat="45.8721111" lon="11.6495753"><ele>594.0</ele><time>2026-04-19T15:13:47.788Z</time></trkpt><trkpt lat="45.8720935" lon="11.6496939"><ele>594.0</ele><time>2026-04-19T15:13:48.789Z</time></trkpt><trkpt lat="45.8721034" lon="11.6498065"><ele>594.0</ele><time>2026-04-19T15:13:49.789Z</time></trkpt><trkpt lat="45.8721061" lon="11.6499118"><ele>594.0</ele><time>2026-04-19T15:13:50.788Z</time></trkpt><trkpt lat="45.8720824" lon="11.6500057"><ele>594.6666666666666</ele><time>2026-04-19T15:13:51.789Z</time></trkpt><trkpt lat="45.8720151" lon="11.6500709"><ele>595.3333333333334</ele><time>2026-04-19T15:13:52.789Z</time></trkpt><trkpt lat="45.8719402" lon="11.6501172"><ele>596.0</ele><time>2026-04-19T15:13:53.789Z</time></trkpt><trkpt lat="45.8718616" lon="11.650148"><ele>596.6666666666667</ele><time>2026-04-19T15:13:54.788Z</time></trkpt><trkpt lat="45.8717881" lon="11.6501897"><ele>597.3333333333334</ele><time>2026-04-19T15:13:55.789Z</time></trkpt><trkpt lat="45.8717203" lon="11.6502748"><ele>598.0</ele><time>2026-04-19T15:13:56.789Z</time></trkpt><trkpt lat="45.8716577" lon="11.6503777"><ele>598.0</ele><time>2026-04-19T15:13:57.788Z</time></trkpt><trkpt lat="45.8715937" lon="11.6504809"><ele>598.0</ele><time>2026-04-19T15:13:58.789Z</time></trkpt><trkpt lat="45.8715272" lon="11.6505791"><ele>598.0</ele><time>2026-04-19T15:13:59.789Z</time></trkpt><trkpt lat="45.8714594" lon="11.6506739"><ele>598.0</ele><time>2026-04-19T15:14:00.789Z</time></trkpt><trkpt lat="45.8713908" lon="11.6507699"><ele>598.0</ele><time>2026-04-19T15:14:01.789Z</time></trkpt><trkpt lat="45.8713196" lon="11.6508648"><ele>598.0</ele><time>2026-04-19T15:14:02.789Z</time></trkpt><trkpt lat="45.8712418" lon="11.6509459"><ele>598.0</ele><time>2026-04-19T15:14:03.789Z</time></trkpt><trkpt lat="45.8711558" lon="11.6510119"><ele>598.0</ele><time>2026-04-19T15:14:04.789Z</time></trkpt><trkpt lat="45.8710687" lon="11.6510675"><ele>598.0</ele><time>2026-04-19T15:14:05.789Z</time></trkpt><trkpt lat="45.8709801" lon="11.6511157"><ele>598.0</ele><time>2026-04-19T15:14:06.789Z</time></trkpt><trkpt lat="45.8708964" lon="11.6511719"><ele>598.0</ele><time>2026-04-19T15:14:07.789Z</time></trkpt><trkpt lat="45.8708099" lon="11.6512261"><ele>598.0</ele><time>2026-04-19T15:14:08.789Z</time></trkpt><trkpt lat="45.8707201" lon="11.651272"><ele>598.0</ele><time>2026-04-19T15:14:09.789Z</time></trkpt><trkpt lat="45.8706318" lon="11.6513065"><ele>598.0</ele><time>2026-04-19T15:14:10.79Z</time></trkpt><trkpt lat="45.8705471" lon="11.6513324"><ele>598.0</ele><time>2026-04-19T15:14:11.789Z</time></trkpt><trkpt lat="45.8704634" lon="11.6513569"><ele>598.0</ele><time>2026-04-19T15:14:12.789Z</time></trkpt><trkpt lat="45.8703797" lon="11.651382"><ele>598.0</ele><time>2026-04-19T15:14:13.79Z</time></trkpt><trkpt lat="45.8703032" lon="11.6514002"><ele>598.0</ele><time>2026-04-19T15:14:14.79Z</time></trkpt><trkpt lat="45.8702376" lon="11.6514181"><ele>598.0</ele><time>2026-04-19T15:14:15.789Z</time></trkpt><trkpt lat="45.8701464" lon="11.651395"><ele>598.0</ele><time>2026-04-19T15:14:17.79Z</time></trkpt><trkpt lat="45.8701712" lon="11.6512721"><ele>598.0</ele><time>2026-04-19T15:14:19.789Z</time></trkpt><trkpt lat="45.8702766" lon="11.6512178"><ele>598.0</ele><time>2026-04-19T15:14:21.79Z</time></trkpt><trkpt lat="45.8703399" lon="11.651222"><ele>598.0</ele><time>2026-04-19T15:14:22.789Z</time></trkpt><trkpt lat="45.8704118" lon="11.6512032"><ele>598.0</ele><time>2026-04-19T15:14:23.789Z</time></trkpt><trkpt lat="45.8704903" lon="11.6511737"><ele>598.0</ele><time>2026-04-19T15:14:24.789Z</time></trkpt><trkpt lat="45.8705587" lon="11.6511423"><ele>598.0</ele><time>2026-04-19T15:14:25.789Z</time></trkpt><trkpt lat="45.8706286" lon="11.6510982"><ele>598.0</ele><time>2026-04-19T15:14:26.79Z</time></trkpt><trkpt lat="45.8706975" lon="11.6510404"><ele>598.0</ele><time>2026-04-19T15:14:27.789Z</time></trkpt><trkpt lat="45.8707714" lon="11.6509701"><ele>598.0</ele><time>2026-04-19T15:14:28.79Z</time></trkpt><trkpt lat="45.8708442" lon="11.6508975"><ele>598.0</ele><time>2026-04-19T15:14:29.79Z</time></trkpt><trkpt lat="45.8709162" lon="11.6508271"><ele>598.0</ele><time>2026-04-19T15:14:30.789Z</time></trkpt><trkpt lat="45.8709862" lon="11.6507541"><ele>598.0</ele><time>2026-04-19T15:14:31.79Z</time></trkpt><trkpt lat="45.8710523" lon="11.6506734"><ele>598.0</ele><time>2026-04-19T15:14:32.79Z</time></trkpt><trkpt lat="45.8711156" lon="11.6505789"><ele>598.0</ele><time>2026-04-19T15:14:33.79Z</time></trkpt><trkpt lat="45.8711738" lon="11.6504707"><ele>598.0</ele><time>2026-04-19T15:14:34.789Z</time></trkpt><trkpt lat="45.8712256" lon="11.6503562"><ele>598.0</ele><time>2026-04-19T15:14:35.79Z</time></trkpt><trkpt lat="45.871277" lon="11.6502375"><ele>598.0</ele><time>2026-04-19T15:14:36.79Z</time></trkpt><trkpt lat="45.8713262" lon="11.6501208"><ele>598.0</ele><time>2026-04-19T15:14:37.789Z</time></trkpt><trkpt lat="45.8713771" lon="11.650008"><ele>598.0</ele><time>2026-04-19T15:14:38.79Z</time></trkpt><trkpt lat="45.8714275" lon="11.6498982"><ele>593.5</ele><time>2026-04-19T15:14:39.79Z</time></trkpt><trkpt lat="45.8714817" lon="11.6498037"><ele>589.0</ele><time>2026-04-19T15:14:40.79Z</time></trkpt><trkpt lat="45.8715418" lon="11.6497317"><ele>584.5</ele><time>2026-04-19T15:14:41.789Z</time></trkpt><trkpt lat="45.8716004" lon="11.6496719"><ele>580.0</ele><time>2026-04-19T15:14:42.79Z</time></trkpt><trkpt lat="45.8716531" lon="11.6495242"><ele>575.5</ele><time>2026-04-19T15:14:44.789Z</time></trkpt><trkpt lat="45.8716393" lon="11.6494086"><ele>571.0</ele><time>2026-04-19T15:14:45.79Z</time></trkpt><trkpt lat="45.8716347" lon="11.6492926"><ele>570.6666666666667</ele><time>2026-04-19T15:14:46.79Z</time></trkpt><trkpt lat="45.8716456" lon="11.6491677"><ele>570.3333333333334</ele><time>2026-04-19T15:14:47.789Z</time></trkpt><trkpt lat="45.8716716" lon="11.6490452"><ele>570.0</ele><time>2026-04-19T15:14:48.79Z</time></trkpt><trkpt lat="45.8717108" lon="11.6489286"><ele>569.6666666666666</ele><time>2026-04-19T15:14:49.789Z</time></trkpt><trkpt lat="45.8717529" lon="11.6488263"><ele>569.3333333333333</ele><time>2026-04-19T15:14:50.79Z</time></trkpt><trkpt lat="45.8717918" lon="11.6487392"><ele>569.0</ele><time>2026-04-19T15:14:51.79Z</time></trkpt><trkpt lat="45.8718437" lon="11.6486002"><ele>569.0</ele><time>2026-04-19T15:14:53.79Z</time></trkpt><trkpt lat="45.8717905" lon="11.6485126"><ele>569.0</ele><time>2026-04-19T15:14:55.79Z</time></trkpt><trkpt lat="45.8716863" lon="11.6485863"><ele>569.0</ele><time>2026-04-19T15:14:57.79Z</time></trkpt><trkpt lat="45.8716364" lon="11.6487574"><ele>569.0</ele><time>2026-04-19T15:14:59.79Z</time></trkpt><trkpt lat="45.8716063" lon="11.6488599"><ele>569.0</ele><time>2026-04-19T15:15:00.79Z</time></trkpt><trkpt lat="45.8715782" lon="11.6489642"><ele>569.2857142857143</ele><time>2026-04-19T15:15:01.79Z</time></trkpt><trkpt lat="45.871547" lon="11.6490661"><ele>569.5714285714286</ele><time>2026-04-19T15:15:02.79Z</time></trkpt><trkpt lat="45.8715231" lon="11.6491665"><ele>569.8571428571429</ele><time>2026-04-19T15:15:03.791Z</time></trkpt><trkpt lat="45.871508" lon="11.6492662"><ele>570.1428571428571</ele><time>2026-04-19T15:15:04.791Z</time></trkpt><trkpt lat="45.8715017" lon="11.6493694"><ele>570.4285714285714</ele><time>2026-04-19T15:15:05.791Z</time></trkpt><trkpt lat="45.8714984" lon="11.6494679"><ele>570.7142857142858</ele><time>2026-04-19T15:15:06.791Z</time></trkpt><trkpt lat="45.8714812" lon="11.6495644"><ele>571.0</ele><time>2026-04-19T15:15:07.79Z</time></trkpt><trkpt lat="45.8714396" lon="11.6496514"><ele>571.0</ele><time>2026-04-19T15:15:08.79Z</time></trkpt><trkpt lat="45.8713692" lon="11.649722"><ele>571.0</ele><time>2026-04-19T15:15:09.791Z</time></trkpt><trkpt lat="45.8712869" lon="11.6497652"><ele>571.0</ele><time>2026-04-19T15:15:10.791Z</time></trkpt><trkpt lat="45.8712022" lon="11.6497893"><ele>571.0</ele><time>2026-04-19T15:15:11.791Z</time></trkpt><trkpt lat="45.8711251" lon="11.6498265"><ele>571.0</ele><time>2026-04-19T15:15:12.791Z</time></trkpt><trkpt lat="45.8710528" lon="11.6498946"><ele>571.0</ele><time>2026-04-19T15:15:13.791Z</time></trkpt><trkpt lat="45.8709858" lon="11.6499725"><ele>569.8333333333334</ele><time>2026-04-19T15:15:14.791Z</time></trkpt><trkpt lat="45.8709171" lon="11.6500479"><ele>568.6666666666667</ele><time>2026-04-19T15:15:15.791Z</time></trkpt><trkpt lat="45.8708494" lon="11.6501195"><ele>567.5</ele><time>2026-04-19T15:15:16.791Z</time></trkpt><trkpt lat="45.8707831" lon="11.6501975"><ele>566.3333333333334</ele><time>2026-04-19T15:15:17.791Z</time></trkpt><trkpt lat="45.8707189" lon="11.6502804"><ele>565.1666666666666</ele><time>2026-04-19T15:15:18.791Z</time></trkpt><trkpt lat="45.8706555" lon="11.6503623"><ele>564.0</ele><time>2026-04-19T15:15:19.791Z</time></trkpt><trkpt lat="45.8705905" lon="11.6504387"><ele>564.0</ele><time>2026-04-19T15:15:20.79Z</time></trkpt><trkpt lat="45.8705299" lon="11.6505079"><ele>564.0</ele><time>2026-04-19T15:15:21.791Z</time></trkpt><trkpt lat="45.8704756" lon="11.6505712"><ele>564.0</ele><time>2026-04-19T15:15:22.791Z</time></trkpt><trkpt lat="45.870402" lon="11.6505928"><ele>564.0</ele><time>2026-04-19T15:15:24.79Z</time></trkpt><trkpt lat="45.8704006" lon="11.6504693"><ele>564.0</ele><time>2026-04-19T15:15:26.791Z</time></trkpt><trkpt lat="45.8705006" lon="11.6503696"><ele>564.0</ele><time>2026-04-19T15:15:28.791Z</time></trkpt><trkpt lat="45.8706193" lon="11.6502564"><ele>559.6666666666666</ele><time>2026-04-19T15:15:30.791Z</time></trkpt><trkpt lat="45.8706711" lon="11.6501698"><ele>555.3333333333334</ele><time>2026-04-19T15:15:31.79Z</time></trkpt><trkpt lat="45.8707217" lon="11.6500828"><ele>551.0</ele><time>2026-04-19T15:15:32.79Z</time></trkpt><trkpt lat="45.8707718" lon="11.6499977"><ele>546.6666666666667</ele><time>2026-04-19T15:15:33.79Z</time></trkpt><trkpt lat="45.8708248" lon="11.6499197"><ele>542.3333333333334</ele><time>2026-04-19T15:15:34.791Z</time></trkpt><trkpt lat="45.8708802" lon="11.6498417"><ele>538.0</ele><time>2026-04-19T15:15:35.791Z</time></trkpt><trkpt lat="45.8709381" lon="11.6497706"><ele>540.3333333333334</ele><time>2026-04-19T15:15:36.791Z</time></trkpt><trkpt lat="45.8710003" lon="11.6496993"><ele>542.6666666666667</ele><time>2026-04-19T15:15:37.791Z</time></trkpt><trkpt lat="45.8710676" lon="11.6496249"><ele>545.0</ele><time>2026-04-19T15:15:38.791Z</time></trkpt><trkpt lat="45.8711369" lon="11.6495555"><ele>547.3333333333334</ele><time>2026-04-19T15:15:39.791Z</time></trkpt><trkpt lat="45.8711993" lon="11.6494874"><ele>549.6666666666666</ele><time>2026-04-19T15:15:40.791Z</time></trkpt><trkpt lat="45.8712571" lon="11.6494148"><ele>552.0</ele><time>2026-04-19T15:15:41.791Z</time></trkpt><trkpt lat="45.8712975" lon="11.6493131"><ele>552.0</ele><time>2026-04-19T15:15:42.79Z</time></trkpt><trkpt lat="45.8713173" lon="11.6491944"><ele>552.0</ele><time>2026-04-19T15:15:43.791Z</time></trkpt><trkpt lat="45.8713249" lon="11.6490652"><ele>552.0</ele><time>2026-04-19T15:15:44.791Z</time></trkpt><trkpt lat="45.871334" lon="11.6489469"><ele>552.0</ele><time>2026-04-19T15:15:45.791Z</time></trkpt><trkpt lat="45.8713572" lon="11.6488455"><ele>552.0</ele><time>2026-04-19T15:15:46.79Z</time></trkpt><trkpt lat="45.8713907" lon="11.6487515"><ele>552.0</ele><time>2026-04-19T15:15:47.791Z</time></trkpt><trkpt lat="45.8714197" lon="11.6486693"><ele>552.0</ele><time>2026-04-19T15:15:48.791Z</time></trkpt><trkpt lat="45.871434" lon="11.648537"><ele>552.0</ele><time>2026-04-19T15:15:50.791Z</time></trkpt><trkpt lat="45.871354" lon="11.6484836"><ele>552.0</ele><time>2026-04-19T15:15:52.791Z</time></trkpt><trkpt lat="45.8712745" lon="11.6485797"><ele>552.0</ele><time>2026-04-19T15:15:54.792Z</time></trkpt><trkpt lat="45.8712404" lon="11.6487291"><ele>552.0</ele><time>2026-04-19T15:15:56.791Z</time></trkpt><trkpt lat="45.8712123" lon="11.6488323"><ele>552.0</ele><time>2026-04-19T15:15:57.791Z</time></trkpt><trkpt lat="45.8711854" lon="11.6489317"><ele>552.0</ele><time>2026-04-19T15:15:58.792Z</time></trkpt><trkpt lat="45.8711654" lon="11.6490272"><ele>552.0</ele><time>2026-04-19T15:15:59.792Z</time></trkpt><trkpt lat="45.8711472" lon="11.649117"><ele>552.0</ele><time>2026-04-19T15:16:00.791Z</time></trkpt><trkpt lat="45.8711224" lon="11.6492056"><ele>552.0</ele><time>2026-04-19T15:16:01.791Z</time></trkpt><trkpt lat="45.8710893" lon="11.6492898"><ele>552.0</ele><time>2026-04-19T15:16:02.792Z</time></trkpt><trkpt lat="45.8710397" lon="11.6493527"><ele>552.0</ele><time>2026-04-19T15:16:03.792Z</time></trkpt><trkpt lat="45.8709763" lon="11.6493959"><ele>549.6666666666666</ele><time>2026-04-19T15:16:04.792Z</time></trkpt><trkpt lat="45.8709068" lon="11.649431"><ele>547.3333333333334</ele><time>2026-04-19T15:16:05.791Z</time></trkpt><trkpt lat="45.8708357" lon="11.6494617"><ele>545.0</ele><time>2026-04-19T15:16:06.792Z</time></trkpt><trkpt lat="45.8707635" lon="11.6495014"><ele>542.6666666666667</ele><time>2026-04-19T15:16:07.792Z</time></trkpt><trkpt lat="45.8706907" lon="11.6495497"><ele>540.3333333333334</ele><time>2026-04-19T15:16:08.791Z</time></trkpt><trkpt lat="45.8706186" lon="11.6496048"><ele>538.0</ele><time>2026-04-19T15:16:09.792Z</time></trkpt><trkpt lat="45.8705436" lon="11.649663"><ele>538.0</ele><time>2026-04-19T15:16:10.792Z</time></trkpt><trkpt lat="45.8704685" lon="11.6497215"><ele>538.0</ele><time>2026-04-19T15:16:11.791Z</time></trkpt><trkpt lat="45.8703935" lon="11.6497734"><ele>538.0</ele><time>2026-04-19T15:16:12.791Z</time></trkpt><trkpt lat="45.8703187" lon="11.6498271"><ele>538.0</ele><time>2026-04-19T15:16:13.792Z</time></trkpt><trkpt lat="45.8702452" lon="11.6498821"><ele>538.0</ele><time>2026-04-19T15:16:14.791Z</time></trkpt><trkpt lat="45.8701672" lon="11.6499315"><ele>538.0</ele><time>2026-04-19T15:16:15.792Z</time></trkpt><trkpt lat="45.8700832" lon="11.64997"><ele>533.6666666666667</ele><time>2026-04-19T15:16:16.792Z</time></trkpt><trkpt lat="45.8699971" lon="11.6499906"><ele>529.3333333333334</ele><time>2026-04-19T15:16:17.791Z</time></trkpt><trkpt lat="45.8699094" lon="11.6500058"><ele>525.0</ele><time>2026-04-19T15:16:18.792Z</time></trkpt><trkpt lat="45.8698261" lon="11.6500144"><ele>520.6666666666666</ele><time>2026-04-19T15:16:19.792Z</time></trkpt><trkpt lat="45.8697458" lon="11.6500235"><ele>516.3333333333333</ele><time>2026-04-19T15:16:20.792Z</time></trkpt><trkpt lat="45.8696692" lon="11.6500414"><ele>512.0</ele><time>2026-04-19T15:16:21.791Z</time></trkpt><trkpt lat="45.8695972" lon="11.6500617"><ele>512.0</ele><time>2026-04-19T15:16:22.792Z</time></trkpt><trkpt lat="45.8695267" lon="11.6500805"><ele>512.0</ele><time>2026-04-19T15:16:23.792Z</time></trkpt><trkpt lat="45.8694594" lon="11.6500941"><ele>512.0</ele><time>2026-04-19T15:16:24.792Z</time></trkpt><trkpt lat="45.8693449" lon="11.6501185"><ele>512.0</ele><time>2026-04-19T15:16:26.792Z</time></trkpt><trkpt lat="45.8692274" lon="11.6501587"><ele>512.0</ele><time>2026-04-19T15:16:28.792Z</time></trkpt><trkpt lat="45.8691307" lon="11.6502343"><ele>511.99999999999994</ele><time>2026-04-19T15:16:30.792Z</time></trkpt><trkpt lat="45.8691053" lon="11.6501392"><ele>512.0</ele><time>2026-04-19T15:16:33.792Z</time></trkpt><trkpt lat="45.8691813" lon="11.6500888"><ele>512.0</ele><time>2026-04-19T15:16:35.792Z</time></trkpt><trkpt lat="45.8692995" lon="11.6500435"><ele>512.0</ele><time>2026-04-19T15:16:37.792Z</time></trkpt><trkpt lat="45.8693647" lon="11.6500038"><ele>511.99999999999994</ele><time>2026-04-19T15:16:38.792Z</time></trkpt><trkpt lat="45.8694411" lon="11.6499631"><ele>512.0</ele><time>2026-04-19T15:16:39.791Z</time></trkpt><trkpt lat="45.8695207" lon="11.6499244"><ele>512.0</ele><time>2026-04-19T15:16:40.792Z</time></trkpt><trkpt lat="45.8696018" lon="11.6498846"><ele>512.0</ele><time>2026-04-19T15:16:41.791Z</time></trkpt><trkpt lat="45.8696896" lon="11.6498346"><ele>512.0</ele><time>2026-04-19T15:16:42.793Z</time></trkpt><trkpt lat="45.8697732" lon="11.6497704"><ele>512.0</ele><time>2026-04-19T15:16:43.793Z</time></trkpt><trkpt lat="45.8698538" lon="11.6497049"><ele>512.0</ele><time>2026-04-19T15:16:44.793Z</time></trkpt><trkpt lat="45.869927" lon="11.6496421"><ele>511.99999999999994</ele><time>2026-04-19T15:16:45.793Z</time></trkpt><trkpt lat="45.8699999" lon="11.6495788"><ele>512.0</ele><time>2026-04-19T15:16:46.793Z</time></trkpt><trkpt lat="45.8700668" lon="11.6495172"><ele>512.0</ele><time>2026-04-19T15:16:47.792Z</time></trkpt><trkpt lat="45.8701325" lon="11.6494519"><ele>512.0</ele><time>2026-04-19T15:16:48.793Z</time></trkpt><trkpt lat="45.8701992" lon="11.6493899"><ele>511.99999999999994</ele><time>2026-04-19T15:16:49.793Z</time></trkpt><trkpt lat="45.870265" lon="11.6493327"><ele>512.0</ele><time>2026-04-19T15:16:50.793Z</time></trkpt><trkpt lat="45.8703265" lon="11.6492809"><ele>512.0</ele><time>2026-04-19T15:16:51.793Z</time></trkpt><trkpt lat="45.8703875" lon="11.6492363"><ele>511.99999999999994</ele><time>2026-04-19T15:16:52.792Z</time></trkpt><trkpt lat="45.8704465" lon="11.6491947"><ele>512.0</ele><time>2026-04-19T15:16:53.793Z</time></trkpt><trkpt lat="45.8705051" lon="11.6491596"><ele>512.0</ele><time>2026-04-19T15:16:54.793Z</time></trkpt><trkpt lat="45.8705665" lon="11.6491274"><ele>511.99999999999994</ele><time>2026-04-19T15:16:55.793Z</time></trkpt><trkpt lat="45.87063" lon="11.6490904"><ele>512.0</ele><time>2026-04-19T15:16:56.792Z</time></trkpt><trkpt lat="45.8706872" lon="11.6490458"><ele>512.0</ele><time>2026-04-19T15:16:57.793Z</time></trkpt><trkpt lat="45.8707384" lon="11.6489831"><ele>511.99999999999994</ele><time>2026-04-19T15:16:58.792Z</time></trkpt><trkpt lat="45.8707831" lon="11.6489091"><ele>512.0</ele><time>2026-04-19T15:16:59.792Z</time></trkpt><trkpt lat="45.8708045" lon="11.6488162"><ele>512.0</ele><time>2026-04-19T15:17:00.793Z</time></trkpt><trkpt lat="45.8708067" lon="11.6487107"><ele>512.0</ele><time>2026-04-19T15:17:01.793Z</time></trkpt><trkpt lat="45.8707896" lon="11.6485809"><ele>511.99999999999994</ele><time>2026-04-19T15:17:02.793Z</time></trkpt><trkpt lat="45.870767" lon="11.6484696"><ele>512.0</ele><time>2026-04-19T15:17:03.793Z</time></trkpt><trkpt lat="45.8707557" lon="11.6483683"><ele>507.40000000000003</ele><time>2026-04-19T15:17:04.793Z</time></trkpt><trkpt lat="45.8707595" lon="11.6482631"><ele>502.80000000000007</ele><time>2026-04-19T15:17:05.793Z</time></trkpt><trkpt lat="45.8707788" lon="11.6481749"><ele>498.2</ele><time>2026-04-19T15:17:06.792Z</time></trkpt><trkpt lat="45.8708392" lon="11.648048"><ele>493.6</ele><time>2026-04-19T15:17:08.793Z</time></trkpt><trkpt lat="45.8709206" lon="11.6479816"><ele>489.0</ele><time>2026-04-19T15:17:10.793Z</time></trkpt><trkpt lat="45.8710337" lon="11.6479489"><ele>490.3333333333333</ele><time>2026-04-19T15:17:12.792Z</time></trkpt><trkpt lat="45.8711446" lon="11.6478996"><ele>491.66666666666663</ele><time>2026-04-19T15:17:14.792Z</time></trkpt><trkpt lat="45.8712231" lon="11.6478512"><ele>493.0</ele><time>2026-04-19T15:17:15.793Z</time></trkpt><trkpt lat="45.8712841" lon="11.6477864"><ele>494.3333333333333</ele><time>2026-04-19T15:17:16.792Z</time></trkpt><trkpt lat="45.8713384" lon="11.647715"><ele>495.66666666666663</ele><time>2026-04-19T15:17:17.793Z</time></trkpt><trkpt lat="45.8713866" lon="11.6476312"><ele>497.0</ele><time>2026-04-19T15:17:18.793Z</time></trkpt><trkpt lat="45.8714365" lon="11.6475472"><ele>496.99999999999994</ele><time>2026-04-19T15:17:19.793Z</time></trkpt><trkpt lat="45.8714867" lon="11.6474617"><ele>497.0</ele><time>2026-04-19T15:17:20.793Z</time></trkpt><trkpt lat="45.8715288" lon="11.647368"><ele>497.0</ele><time>2026-04-19T15:17:21.793Z</time></trkpt><trkpt lat="45.8715594" lon="11.6472606"><ele>497.0</ele><time>2026-04-19T15:17:22.793Z</time></trkpt><trkpt lat="45.8715874" lon="11.6471546"><ele>496.99999999999994</ele><time>2026-04-19T15:17:23.793Z</time></trkpt><trkpt lat="45.871622" lon="11.6470737"><ele>497.0</ele><time>2026-04-19T15:17:24.793Z</time></trkpt><trkpt lat="45.8716762" lon="11.6470109"><ele>496.99999999999994</ele><time>2026-04-19T15:17:25.793Z</time></trkpt><trkpt lat="45.871748" lon="11.6469793"><ele>497.0</ele><time>2026-04-19T15:17:26.792Z</time></trkpt><trkpt lat="45.8718296" lon="11.6469614"><ele>497.0</ele><time>2026-04-19T15:17:27.793Z</time></trkpt><trkpt lat="45.8719134" lon="11.6469603"><ele>497.0</ele><time>2026-04-19T15:17:28.793Z</time></trkpt><trkpt lat="45.8719894" lon="11.6469646"><ele>496.99999999999994</ele><time>2026-04-19T15:17:29.793Z</time></trkpt><trkpt lat="45.8720611" lon="11.6469729"><ele>497.0</ele><time>2026-04-19T15:17:30.793Z</time></trkpt><trkpt lat="45.8721424" lon="11.6469855"><ele>493.49999999999994</ele><time>2026-04-19T15:17:31.793Z</time></trkpt><trkpt lat="45.8722197" lon="11.6470019"><ele>490.0</ele><time>2026-04-19T15:17:32.793Z</time></trkpt><trkpt lat="45.8722939" lon="11.6470156"><ele>486.5</ele><time>2026-04-19T15:17:33.793Z</time></trkpt><trkpt lat="45.8724056" lon="11.6470498"><ele>483.0</ele><time>2026-04-19T15:17:35.794Z</time></trkpt><trkpt lat="45.8724565" lon="11.646943"><ele>479.49999999999994</ele><time>2026-04-19T15:17:37.794Z</time></trkpt><trkpt lat="45.8724202" lon="11.6468632"><ele>476.0</ele><time>2026-04-19T15:17:38.793Z</time></trkpt><trkpt lat="45.8722985" lon="11.6468278"><ele>475.99999999999994</ele><time>2026-04-19T15:17:40.794Z</time></trkpt><trkpt lat="45.8722324" lon="11.6468278"><ele>476.0</ele><time>2026-04-19T15:17:41.794Z</time></trkpt><trkpt lat="45.8721044" lon="11.6468077"><ele>476.0</ele><time>2026-04-19T15:17:43.794Z</time></trkpt><trkpt lat="45.8720326" lon="11.6467986"><ele>476.0</ele><time>2026-04-19T15:17:44.793Z</time></trkpt><trkpt lat="45.8719615" lon="11.6467924"><ele>475.99999999999994</ele><time>2026-04-19T15:17:45.794Z</time></trkpt><trkpt lat="45.8718926" lon="11.6467906"><ele>476.0</ele><time>2026-04-19T15:17:46.794Z</time></trkpt><trkpt lat="45.8718264" lon="11.6467869"><ele>479.0</ele><time>2026-04-19T15:17:47.794Z</time></trkpt><trkpt lat="45.8717551" lon="11.646778"><ele>482.0</ele><time>2026-04-19T15:17:48.793Z</time></trkpt><trkpt lat="45.8716797" lon="11.6467667"><ele>485.0</ele><time>2026-04-19T15:17:49.794Z</time></trkpt><trkpt lat="45.8716055" lon="11.64676"><ele>488.0</ele><time>2026-04-19T15:17:50.794Z</time></trkpt><trkpt lat="45.8715379" lon="11.6467743"><ele>491.0</ele><time>2026-04-19T15:17:51.793Z</time></trkpt><trkpt lat="45.8714773" lon="11.6468155"><ele>494.0</ele><time>2026-04-19T15:17:52.794Z</time></trkpt><trkpt lat="45.8714233" lon="11.6468894"><ele>497.0</ele><time>2026-04-19T15:17:53.794Z</time></trkpt><trkpt lat="45.8713868" lon="11.6469965"><ele>497.0</ele><time>2026-04-19T15:17:54.793Z</time></trkpt><trkpt lat="45.8713476" lon="11.6471104"><ele>497.00000000000006</ele><time>2026-04-19T15:17:55.794Z</time></trkpt><trkpt lat="45.871295" lon="11.6472268"><ele>497.00000000000006</ele><time>2026-04-19T15:17:56.794Z</time></trkpt><trkpt lat="45.8712298" lon="11.6473191"><ele>497.0</ele><time>2026-04-19T15:17:57.793Z</time></trkpt><trkpt lat="45.8711566" lon="11.6473987"><ele>497.0</ele><time>2026-04-19T15:17:58.794Z</time></trkpt><trkpt lat="45.8710906" lon="11.6474752"><ele>496.99999999999994</ele><time>2026-04-19T15:17:59.794Z</time></trkpt><trkpt lat="45.8710294" lon="11.6475549"><ele>497.0</ele><time>2026-04-19T15:18:00.794Z</time></trkpt><trkpt lat="45.8709664" lon="11.6476196"><ele>497.0</ele><time>2026-04-19T15:18:01.794Z</time></trkpt><trkpt lat="45.8708968" lon="11.6476577"><ele>497.0</ele><time>2026-04-19T15:18:02.794Z</time></trkpt><trkpt lat="45.8708171" lon="11.6476637"><ele>496.99999999999994</ele><time>2026-04-19T15:18:03.794Z</time></trkpt><trkpt lat="45.8707305" lon="11.6476494"><ele>497.0</ele><time>2026-04-19T15:18:04.794Z</time></trkpt><trkpt lat="45.870639" lon="11.6476383"><ele>495.66666666666663</ele><time>2026-04-19T15:18:05.794Z</time></trkpt><trkpt lat="45.8705485" lon="11.6476633"><ele>494.3333333333333</ele><time>2026-04-19T15:18:06.794Z</time></trkpt><trkpt lat="45.8704783" lon="11.6477164"><ele>493.0</ele><time>2026-04-19T15:18:07.793Z</time></trkpt><trkpt lat="45.8704224" lon="11.6477987"><ele>491.66666666666663</ele><time>2026-04-19T15:18:08.794Z</time></trkpt><trkpt lat="45.8703839" lon="11.647901"><ele>490.3333333333333</ele><time>2026-04-19T15:18:09.794Z</time></trkpt><trkpt lat="45.8703518" lon="11.6480214"><ele>489.0</ele><time>2026-04-19T15:18:10.793Z</time></trkpt><trkpt lat="45.8703171" lon="11.6481437"><ele>489.0</ele><time>2026-04-19T15:18:11.794Z</time></trkpt><trkpt lat="45.8702839" lon="11.6482686"><ele>489.0</ele><time>2026-04-19T15:18:12.794Z</time></trkpt><trkpt lat="45.870254" lon="11.6483818"><ele>489.0</ele><time>2026-04-19T15:18:13.794Z</time></trkpt><trkpt lat="45.8702202" lon="11.6484929"><ele>489.0</ele><time>2026-04-19T15:18:14.794Z</time></trkpt><trkpt lat="45.8701602" lon="11.6485801"><ele>489.0</ele><time>2026-04-19T15:18:15.794Z</time></trkpt><trkpt lat="45.8700801" lon="11.6486497"><ele>489.0</ele><time>2026-04-19T15:18:16.794Z</time></trkpt><trkpt lat="45.8699936" lon="11.648692"><ele>488.0</ele><time>2026-04-19T15:18:17.794Z</time></trkpt><trkpt lat="45.8699026" lon="11.648721"><ele>487.0</ele><time>2026-04-19T15:18:18.794Z</time></trkpt><trkpt lat="45.8698106" lon="11.6487428"><ele>486.0</ele><time>2026-04-19T15:18:19.795Z</time></trkpt><trkpt lat="45.8697126" lon="11.6487458"><ele>485.0</ele><time>2026-04-19T15:18:20.794Z</time></trkpt><trkpt lat="45.8696108" lon="11.6487397"><ele>484.0</ele><time>2026-04-19T15:18:21.793Z</time></trkpt><trkpt lat="45.8695164" lon="11.6487272"><ele>484.0</ele><time>2026-04-19T15:18:22.795Z</time></trkpt><trkpt lat="45.8694228" lon="11.6487253"><ele>484.0</ele><time>2026-04-19T15:18:23.793Z</time></trkpt><trkpt lat="45.8693312" lon="11.648737"><ele>484.0</ele><time>2026-04-19T15:18:24.795Z</time></trkpt><trkpt lat="45.8692357" lon="11.6487698"><ele>484.0</ele><time>2026-04-19T15:18:25.795Z</time></trkpt><trkpt lat="45.8691469" lon="11.6488305"><ele>484.0</ele><time>2026-04-19T15:18:26.795Z</time></trkpt><trkpt lat="45.8690584" lon="11.6488986"><ele>479.6</ele><time>2026-04-19T15:18:27.795Z</time></trkpt><trkpt lat="45.8689706" lon="11.6489755"><ele>475.2</ele><time>2026-04-19T15:18:28.795Z</time></trkpt><trkpt lat="45.8688897" lon="11.649058"><ele>470.80000000000007</ele><time>2026-04-19T15:18:29.795Z</time></trkpt><trkpt lat="45.8688197" lon="11.6491253"><ele>466.40000000000003</ele><time>2026-04-19T15:18:30.795Z</time></trkpt><trkpt lat="45.8687434" lon="11.6491886"><ele>462.0</ele><time>2026-04-19T15:18:31.795Z</time></trkpt><trkpt lat="45.8686577" lon="11.6492248"><ele>462.0</ele><time>2026-04-19T15:18:32.795Z</time></trkpt><trkpt lat="45.8685724" lon="11.6492479"><ele>462.0</ele><time>2026-04-19T15:18:33.795Z</time></trkpt><trkpt lat="45.8685031" lon="11.6492839"><ele>462.0</ele><time>2026-04-19T15:18:34.794Z</time></trkpt><trkpt lat="45.8684498" lon="11.649348"><ele>462.0</ele><time>2026-04-19T15:18:35.795Z</time></trkpt><trkpt lat="45.8684096" lon="11.6494426"><ele>462.0</ele><time>2026-04-19T15:18:36.795Z</time></trkpt><trkpt lat="45.8683703" lon="11.6495575"><ele>462.0</ele><time>2026-04-19T15:18:37.795Z</time></trkpt><trkpt lat="45.8683242" lon="11.6496556"><ele>459.2857142857143</ele><time>2026-04-19T15:18:38.794Z</time></trkpt><trkpt lat="45.8682725" lon="11.649743"><ele>456.57142857142856</ele><time>2026-04-19T15:18:39.794Z</time></trkpt><trkpt lat="45.8682349" lon="11.6498386"><ele>453.8571428571429</ele><time>2026-04-19T15:18:40.795Z</time></trkpt><trkpt lat="45.8682195" lon="11.6499393"><ele>451.1428571428571</ele><time>2026-04-19T15:18:41.795Z</time></trkpt><trkpt lat="45.8682242" lon="11.6500352"><ele>448.42857142857144</ele><time>2026-04-19T15:18:42.795Z</time></trkpt><trkpt lat="45.8682234" lon="11.6501374"><ele>445.7142857142857</ele><time>2026-04-19T15:18:44.794Z</time></trkpt><trkpt lat="45.8681802" lon="11.6500681"><ele>443.0</ele><time>2026-04-19T15:18:46.794Z</time></trkpt><trkpt lat="45.8682286" lon="11.6499076"><ele>443.0</ele><time>2026-04-19T15:18:48.795Z</time></trkpt><trkpt lat="45.8682504" lon="11.6498216"><ele>443.0</ele><time>2026-04-19T15:18:49.795Z</time></trkpt><trkpt lat="45.8682681" lon="11.6497341"><ele>443.0</ele><time>2026-04-19T15:18:50.795Z</time></trkpt><trkpt lat="45.8682944" lon="11.6496445"><ele>443.0</ele><time>2026-04-19T15:18:51.795Z</time></trkpt><trkpt lat="45.8683344" lon="11.6495592"><ele>443.0</ele><time>2026-04-19T15:18:52.794Z</time></trkpt><trkpt lat="45.8683768" lon="11.6494761"><ele>443.0</ele><time>2026-04-19T15:18:53.794Z</time></trkpt><trkpt lat="45.8684188" lon="11.6493886"><ele>443.0</ele><time>2026-04-19T15:18:54.795Z</time></trkpt><trkpt lat="45.8684563" lon="11.6492882"><ele>446.16666666666663</ele><time>2026-04-19T15:18:55.795Z</time></trkpt><trkpt lat="45.8684914" lon="11.6491867"><ele>449.3333333333333</ele><time>2026-04-19T15:18:56.795Z</time></trkpt><trkpt lat="45.8685336" lon="11.6490983"><ele>452.5</ele><time>2026-04-19T15:18:57.795Z</time></trkpt><trkpt lat="45.8685927" lon="11.6490286"><ele>455.66666666666663</ele><time>2026-04-19T15:18:58.795Z</time></trkpt><trkpt lat="45.8686666" lon="11.6489785"><ele>458.8333333333333</ele><time>2026-04-19T15:18:59.795Z</time></trkpt><trkpt lat="45.8687395" lon="11.6489277"><ele>462.0</ele><time>2026-04-19T15:19:00.794Z</time></trkpt><trkpt lat="45.8688058" lon="11.6488454"><ele>462.0</ele><time>2026-04-19T15:19:01.795Z</time></trkpt><trkpt lat="45.8688616" lon="11.6487521"><ele>462.0</ele><time>2026-04-19T15:19:02.795Z</time></trkpt><trkpt lat="45.8689125" lon="11.6486583"><ele>462.0</ele><time>2026-04-19T15:19:03.794Z</time></trkpt><trkpt lat="45.8689709" lon="11.648567"><ele>462.0</ele><time>2026-04-19T15:19:04.794Z</time></trkpt><trkpt lat="45.869044" lon="11.6484853"><ele>462.0</ele><time>2026-04-19T15:19:05.795Z</time></trkpt><trkpt lat="45.8691189" lon="11.6484028"><ele>462.0</ele><time>2026-04-19T15:19:06.795Z</time></trkpt><trkpt lat="45.8691927" lon="11.6483296"><ele>459.3333333333333</ele><time>2026-04-19T15:19:07.795Z</time></trkpt><trkpt lat="45.869257" lon="11.6482706"><ele>456.66666666666663</ele><time>2026-04-19T15:19:08.795Z</time></trkpt><trkpt lat="45.8693335" lon="11.6482141"><ele>454.0</ele><time>2026-04-19T15:19:09.795Z</time></trkpt><trkpt lat="45.8694077" lon="11.6481846"><ele>451.3333333333333</ele><time>2026-04-19T15:19:10.796Z</time></trkpt><trkpt lat="45.8694863" lon="11.6481831"><ele>448.66666666666663</ele><time>2026-04-19T15:19:11.795Z</time></trkpt><trkpt lat="45.8695644" lon="11.6482041"><ele>446.0</ele><time>2026-04-19T15:19:12.795Z</time></trkpt><trkpt lat="45.869631" lon="11.6482405"><ele>445.99999999999994</ele><time>2026-04-19T15:19:13.794Z</time></trkpt><trkpt lat="45.8696908" lon="11.6482837"><ele>446.0</ele><time>2026-04-19T15:19:14.794Z</time></trkpt><trkpt lat="45.869775" lon="11.6482852"><ele>446.0</ele><time>2026-04-19T15:19:16.796Z</time></trkpt><trkpt lat="45.8697275" lon="11.6481874"><ele>446.0</ele><time>2026-04-19T15:19:18.795Z</time></trkpt><trkpt lat="45.8696023" lon="11.6481494"><ele>445.99999999999994</ele><time>2026-04-19T15:19:20.795Z</time></trkpt><trkpt lat="45.8695227" lon="11.6481428"><ele>446.0</ele><time>2026-04-19T15:19:21.795Z</time></trkpt><trkpt lat="45.8694422" lon="11.6481328"><ele>445.99999999999994</ele><time>2026-04-19T15:19:22.796Z</time></trkpt><trkpt lat="45.8693594" lon="11.6481055"><ele>446.0</ele><time>2026-04-19T15:19:23.796Z</time></trkpt><trkpt lat="45.8692789" lon="11.6480861"><ele>446.0</ele><time>2026-04-19T15:19:24.796Z</time></trkpt><trkpt lat="45.8692023" lon="11.6480847"><ele>446.0</ele><time>2026-04-19T15:19:25.796Z</time></trkpt><trkpt lat="45.8691312" lon="11.6481034"><ele>445.99999999999994</ele><time>2026-04-19T15:19:26.796Z</time></trkpt><trkpt lat="45.869055" lon="11.6481395"><ele>446.0</ele><time>2026-04-19T15:19:27.796Z</time></trkpt><trkpt lat="45.8689754" lon="11.6481851"><ele>441.6</ele><time>2026-04-19T15:19:28.796Z</time></trkpt><trkpt lat="45.8688953" lon="11.6482359"><ele>437.20000000000005</ele><time>2026-04-19T15:19:29.795Z</time></trkpt><trkpt lat="45.8688128" lon="11.6483032"><ele>432.79999999999995</ele><time>2026-04-19T15:19:30.796Z</time></trkpt><trkpt lat="45.8687359" lon="11.6483727"><ele>428.4</ele><time>2026-04-19T15:19:31.795Z</time></trkpt><trkpt lat="45.8686622" lon="11.648453"><ele>424.0</ele><time>2026-04-19T15:19:32.796Z</time></trkpt><trkpt lat="45.8685873" lon="11.6485418"><ele>422.4</ele><time>2026-04-19T15:19:33.796Z</time></trkpt><trkpt lat="45.8685054" lon="11.6486314"><ele>420.79999999999995</ele><time>2026-04-19T15:19:34.796Z</time></trkpt><trkpt lat="45.8684193" lon="11.6487109"><ele>419.20000000000005</ele><time>2026-04-19T15:19:35.796Z</time></trkpt><trkpt lat="45.8683382" lon="11.6487897"><ele>417.6</ele><time>2026-04-19T15:19:36.796Z</time></trkpt><trkpt lat="45.8682613" lon="11.6488714"><ele>416.0</ele><time>2026-04-19T15:19:37.796Z</time></trkpt><trkpt lat="45.8681862" lon="11.6489628"><ele>415.99999999999994</ele><time>2026-04-19T15:19:38.795Z</time></trkpt><trkpt lat="45.868114" lon="11.6490545"><ele>416.0</ele><time>2026-04-19T15:19:39.795Z</time></trkpt><trkpt lat="45.8680458" lon="11.6491385"><ele>416.0</ele><time>2026-04-19T15:19:40.795Z</time></trkpt><trkpt lat="45.8679791" lon="11.6492155"><ele>416.0</ele><time>2026-04-19T15:19:41.796Z</time></trkpt><trkpt lat="45.8679135" lon="11.6492944"><ele>415.99999999999994</ele><time>2026-04-19T15:19:42.796Z</time></trkpt><trkpt lat="45.8678566" lon="11.6493785"><ele>416.0</ele><time>2026-04-19T15:19:43.796Z</time></trkpt><trkpt lat="45.8678154" lon="11.6494764"><ele>420.49999999999994</ele><time>2026-04-19T15:19:44.795Z</time></trkpt><trkpt lat="45.8677915" lon="11.6495978"><ele>425.0</ele><time>2026-04-19T15:19:45.796Z</time></trkpt><trkpt lat="45.867782" lon="11.6497319"><ele>429.5</ele><time>2026-04-19T15:19:46.796Z</time></trkpt><trkpt lat="45.8677689" lon="11.6498526"><ele>434.0</ele><time>2026-04-19T15:19:47.796Z</time></trkpt><trkpt lat="45.867741" lon="11.6499391"><ele>438.49999999999994</ele><time>2026-04-19T15:19:48.796Z</time></trkpt><trkpt lat="45.8676585" lon="11.6500316"><ele>443.0</ele><time>2026-04-19T15:19:50.796Z</time></trkpt><trkpt lat="45.8675962" lon="11.6499639"><ele>442.99999999999994</ele><time>2026-04-19T15:19:53.796Z</time></trkpt><trkpt lat="45.8676498" lon="11.6498842"><ele>443.0</ele><time>2026-04-19T15:19:55.796Z</time></trkpt><trkpt lat="45.8677478" lon="11.6498248"><ele>443.0</ele><time>2026-04-19T15:19:57.796Z</time></trkpt><trkpt lat="45.8677921" lon="11.6497579"><ele>443.0</ele><time>2026-04-19T15:19:58.795Z</time></trkpt><trkpt lat="45.8678154" lon="11.6496685"><ele>442.99999999999994</ele><time>2026-04-19T15:19:59.796Z</time></trkpt><trkpt lat="45.8678229" lon="11.64957"><ele>443.0</ele><time>2026-04-19T15:20:00.795Z</time></trkpt><trkpt lat="45.8678297" lon="11.6494718"><ele>438.49999999999994</ele><time>2026-04-19T15:20:01.795Z</time></trkpt><trkpt lat="45.8678445" lon="11.6493729"><ele>434.0</ele><time>2026-04-19T15:20:02.796Z</time></trkpt><trkpt lat="45.8678728" lon="11.6492711"><ele>429.5</ele><time>2026-04-19T15:20:03.796Z</time></trkpt><trkpt lat="45.8679095" lon="11.6491649"><ele>425.0</ele><time>2026-04-19T15:20:04.796Z</time></trkpt><trkpt lat="45.8679665" lon="11.6490729"><ele>420.49999999999994</ele><time>2026-04-19T15:20:05.796Z</time></trkpt><trkpt lat="45.8680286" lon="11.6489859"><ele>416.0</ele><time>2026-04-19T15:20:06.797Z</time></trkpt><trkpt lat="45.8680898" lon="11.6489069"><ele>416.0</ele><time>2026-04-19T15:20:07.797Z</time></trkpt><trkpt lat="45.8681563" lon="11.6488155"><ele>416.0</ele><time>2026-04-19T15:20:08.797Z</time></trkpt><trkpt lat="45.8682157" lon="11.6487171"><ele>416.0</ele><time>2026-04-19T15:20:09.797Z</time></trkpt><trkpt lat="45.8682679" lon="11.648615"><ele>416.0</ele><time>2026-04-19T15:20:10.797Z</time></trkpt><trkpt lat="45.8683278" lon="11.6485111"><ele>416.0</ele><time>2026-04-19T15:20:11.797Z</time></trkpt><trkpt lat="45.8683829" lon="11.64841"><ele>417.3333333333333</ele><time>2026-04-19T15:20:12.796Z</time></trkpt><trkpt lat="45.8684393" lon="11.6483135"><ele>418.66666666666663</ele><time>2026-04-19T15:20:13.796Z</time></trkpt><trkpt lat="45.868485" lon="11.6482201"><ele>420.0</ele><time>2026-04-19T15:20:14.797Z</time></trkpt><trkpt lat="45.8685289" lon="11.6481142"><ele>421.33333333333337</ele><time>2026-04-19T15:20:15.797Z</time></trkpt><trkpt lat="45.8685659" lon="11.6480037"><ele>422.6666666666667</ele><time>2026-04-19T15:20:16.797Z</time></trkpt><trkpt lat="45.868605" lon="11.6478889"><ele>424.0</ele><time>2026-04-19T15:20:17.796Z</time></trkpt><trkpt lat="45.8686418" lon="11.6477758"><ele>418.0</ele><time>2026-04-19T15:20:18.797Z</time></trkpt><trkpt lat="45.8686764" lon="11.6476784"><ele>412.0</ele><time>2026-04-19T15:20:19.796Z</time></trkpt><trkpt lat="45.8687105" lon="11.6475912"><ele>406.0</ele><time>2026-04-19T15:20:20.797Z</time></trkpt><trkpt lat="45.8687608" lon="11.6475286"><ele>400.0</ele><time>2026-04-19T15:20:21.797Z</time></trkpt><trkpt lat="45.8688309" lon="11.6474978"><ele>394.0</ele><time>2026-04-19T15:20:22.797Z</time></trkpt><trkpt lat="45.8689092" lon="11.6474854"><ele>388.0</ele><time>2026-04-19T15:20:23.796Z</time></trkpt><trkpt lat="45.8689905" lon="11.6474724"><ele>382.0</ele><time>2026-04-19T15:20:24.797Z</time></trkpt><trkpt lat="45.8690719" lon="11.6474609"><ele>382.0</ele><time>2026-04-19T15:20:25.797Z</time></trkpt><trkpt lat="45.8691587" lon="11.6474582"><ele>382.0</ele><time>2026-04-19T15:20:26.797Z</time></trkpt><trkpt lat="45.8692449" lon="11.647472"><ele>382.0</ele><time>2026-04-19T15:20:27.797Z</time></trkpt><trkpt lat="45.8693195" lon="11.6474922"><ele>382.0</ele><time>2026-04-19T15:20:28.797Z</time></trkpt><trkpt lat="45.8694387" lon="11.6475212"><ele>382.0</ele><time>2026-04-19T15:20:30.797Z</time></trkpt><trkpt lat="45.8695365" lon="11.6474921"><ele>382.0</ele><time>2026-04-19T15:20:32.797Z</time></trkpt><trkpt lat="45.8695512" lon="11.6473749"><ele>382.0</ele><time>2026-04-19T15:20:34.797Z</time></trkpt><trkpt lat="45.8694622" lon="11.647309"><ele>382.0</ele><time>2026-04-19T15:20:36.797Z</time></trkpt><trkpt lat="45.8693515" lon="11.6473237"><ele>382.0</ele><time>2026-04-19T15:20:38.797Z</time></trkpt><trkpt lat="45.8692836" lon="11.6473311"><ele>382.0</ele><time>2026-04-19T15:20:39.797Z</time></trkpt><trkpt lat="45.8692124" lon="11.6473232"><ele>382.0</ele><time>2026-04-19T15:20:40.797Z</time></trkpt><trkpt lat="45.8691309" lon="11.6473081"><ele>382.0</ele><time>2026-04-19T15:20:41.797Z</time></trkpt><trkpt lat="45.869051" lon="11.6473018"><ele>382.0</ele><time>2026-04-19T15:20:42.797Z</time></trkpt><trkpt lat="45.8689688" lon="11.6473084"><ele>382.0</ele><time>2026-04-19T15:20:43.797Z</time></trkpt><trkpt lat="45.8688866" lon="11.6473184"><ele>382.0</ele><time>2026-04-19T15:20:44.797Z</time></trkpt><trkpt lat="45.8688049" lon="11.6473234"><ele>382.0</ele><time>2026-04-19T15:20:45.797Z</time></trkpt><trkpt lat="45.8687208" lon="11.6473208"><ele>382.0</ele><time>2026-04-19T15:20:46.797Z</time></trkpt><trkpt lat="45.8686376" lon="11.6473181"><ele>382.0</ele><time>2026-04-19T15:20:47.797Z</time></trkpt><trkpt lat="45.8685596" lon="11.647317"><ele>382.0</ele><time>2026-04-19T15:20:48.796Z</time></trkpt><trkpt lat="45.8684915" lon="11.6473311"><ele>382.0</ele><time>2026-04-19T15:20:49.797Z</time></trkpt><trkpt lat="45.8683986" lon="11.6474543"><ele>382.0</ele><time>2026-04-19T15:20:51.797Z</time></trkpt><trkpt lat="45.8683625" lon="11.6475499"><ele>382.0</ele><time>2026-04-19T15:20:52.797Z</time></trkpt><trkpt lat="45.8683228" lon="11.6476534"><ele>382.0</ele><time>2026-04-19T15:20:53.797Z</time></trkpt><trkpt lat="45.8682724" lon="11.6477704"><ele>381.0</ele><time>2026-04-19T15:20:54.796Z</time></trkpt><trkpt lat="45.8682114" lon="11.6478642"><ele>380.0</ele><time>2026-04-19T15:20:55.796Z</time></trkpt><trkpt lat="45.8681438" lon="11.647961"><ele>379.0</ele><time>2026-04-19T15:20:56.797Z</time></trkpt><trkpt lat="45.8680725" lon="11.6480528"><ele>378.0</ele><time>2026-04-19T15:20:57.798Z</time></trkpt><trkpt lat="45.8680038" lon="11.6481422"><ele>377.0</ele><time>2026-04-19T15:20:58.798Z</time></trkpt><trkpt lat="45.8679355" lon="11.6482352"><ele>377.0</ele><time>2026-04-19T15:20:59.798Z</time></trkpt><trkpt lat="45.867867" lon="11.6483312"><ele>377.0</ele><time>2026-04-19T15:21:00.798Z</time></trkpt><trkpt lat="45.867797" lon="11.6484403"><ele>377.0</ele><time>2026-04-19T15:21:01.798Z</time></trkpt><trkpt lat="45.8677236" lon="11.6485518"><ele>377.0</ele><time>2026-04-19T15:21:02.798Z</time></trkpt><trkpt lat="45.8676484" lon="11.6486629"><ele>377.0</ele><time>2026-04-19T15:21:03.797Z</time></trkpt><trkpt lat="45.8675782" lon="11.6487665"><ele>371.83333333333337</ele><time>2026-04-19T15:21:04.798Z</time></trkpt><trkpt lat="45.8675157" lon="11.6488593"><ele>366.6666666666667</ele><time>2026-04-19T15:21:05.798Z</time></trkpt><trkpt lat="45.8674599" lon="11.6489549"><ele>361.5</ele><time>2026-04-19T15:21:06.798Z</time></trkpt><trkpt lat="45.8674184" lon="11.6490639"><ele>356.3333333333333</ele><time>2026-04-19T15:21:07.797Z</time></trkpt><trkpt lat="45.8673905" lon="11.6491781"><ele>351.16666666666663</ele><time>2026-04-19T15:21:08.798Z</time></trkpt><trkpt lat="45.8673668" lon="11.6492755"><ele>346.0</ele><time>2026-04-19T15:21:09.797Z</time></trkpt><trkpt lat="45.86733" lon="11.6493546"><ele>346.0</ele><time>2026-04-19T15:21:10.798Z</time></trkpt><trkpt lat="45.8672753" lon="11.6494077"><ele>346.0</ele><time>2026-04-19T15:21:11.798Z</time></trkpt><trkpt lat="45.8672119" lon="11.6494312"><ele>346.0</ele><time>2026-04-19T15:21:12.798Z</time></trkpt><trkpt lat="45.8671451" lon="11.6494418"><ele>346.0</ele><time>2026-04-19T15:21:13.798Z</time></trkpt><trkpt lat="45.8670566" lon="11.6495413"><ele>346.0</ele><time>2026-04-19T15:21:15.798Z</time></trkpt><trkpt lat="45.8670449" lon="11.6496393"><ele>346.0</ele><time>2026-04-19T15:21:16.798Z</time></trkpt><trkpt lat="45.8670389" lon="11.6497622"><ele>351.66666666666663</ele><time>2026-04-19T15:21:17.798Z</time></trkpt><trkpt lat="45.867036" lon="11.6498856"><ele>357.3333333333333</ele><time>2026-04-19T15:21:18.798Z</time></trkpt><trkpt lat="45.8670292" lon="11.6499896"><ele>363.0</ele><time>2026-04-19T15:21:19.798Z</time></trkpt><trkpt lat="45.867025" lon="11.6500838"><ele>368.6666666666667</ele><time>2026-04-19T15:21:20.798Z</time></trkpt><trkpt lat="45.8670043" lon="11.6502336"><ele>374.33333333333337</ele><time>2026-04-19T15:21:22.798Z</time></trkpt><trkpt lat="45.8669216" lon="11.6502968"><ele>380.0</ele><time>2026-04-19T15:21:24.797Z</time></trkpt><trkpt lat="45.8667956" lon="11.6502896"><ele>377.5</ele><time>2026-04-19T15:21:26.798Z</time></trkpt><trkpt lat="45.8667291" lon="11.650297"><ele>375.0</ele><time>2026-04-19T15:21:27.798Z</time></trkpt><trkpt lat="45.8666613" lon="11.6502982"><ele>372.5</ele><time>2026-04-19T15:21:28.797Z</time></trkpt><trkpt lat="45.8665868" lon="11.6503085"><ele>370.0</ele><time>2026-04-19T15:21:29.797Z</time></trkpt><trkpt lat="45.8665069" lon="11.650333"><ele>367.5</ele><time>2026-04-19T15:21:30.798Z</time></trkpt><trkpt lat="45.8664276" lon="11.6503928"><ele>365.0</ele><time>2026-04-19T15:21:31.798Z</time></trkpt><trkpt lat="45.8663606" lon="11.6504814"><ele>365.0</ele><time>2026-04-19T15:21:32.798Z</time></trkpt><trkpt lat="45.8662999" lon="11.650585"><ele>365.0</ele><time>2026-04-19T15:21:33.798Z</time></trkpt><trkpt lat="45.8662374" lon="11.6506849"><ele>365.0</ele><time>2026-04-19T15:21:34.797Z</time></trkpt><trkpt lat="45.8661802" lon="11.6507685"><ele>365.0</ele><time>2026-04-19T15:21:35.798Z</time></trkpt><trkpt lat="45.8661252" lon="11.6508359"><ele>365.0</ele><time>2026-04-19T15:21:36.798Z</time></trkpt><trkpt lat="45.8660558" lon="11.6508809"><ele>365.0</ele><time>2026-04-19T15:21:37.797Z</time></trkpt><trkpt lat="45.8659713" lon="11.6509019"><ele>357.33333333333337</ele><time>2026-04-19T15:21:38.798Z</time></trkpt><trkpt lat="45.8658857" lon="11.6509272"><ele>349.6666666666667</ele><time>2026-04-19T15:21:39.797Z</time></trkpt><trkpt lat="45.8657976" lon="11.6509612"><ele>342.0</ele><time>2026-04-19T15:21:40.798Z</time></trkpt><trkpt lat="45.8657141" lon="11.651008"><ele>334.3333333333333</ele><time>2026-04-19T15:21:41.798Z</time></trkpt><trkpt lat="45.8656373" lon="11.6510525"><ele>326.66666666666663</ele><time>2026-04-19T15:21:42.798Z</time></trkpt><trkpt lat="45.8655615" lon="11.6510817"><ele>319.0</ele><time>2026-04-19T15:21:43.798Z</time></trkpt><trkpt lat="45.8654821" lon="11.6511112"><ele>326.66666666666663</ele><time>2026-04-19T15:21:44.798Z</time></trkpt><trkpt lat="45.8654091" lon="11.6511408"><ele>334.3333333333333</ele><time>2026-04-19T15:21:45.798Z</time></trkpt><trkpt lat="45.8653533" lon="11.6511858"><ele>342.0</ele><time>2026-04-19T15:21:46.797Z</time></trkpt><trkpt lat="45.865304" lon="11.6513478"><ele>349.6666666666667</ele><time>2026-04-19T15:21:48.798Z</time></trkpt><trkpt lat="45.8652999" lon="11.6514475"><ele>357.33333333333337</ele><time>2026-04-19T15:21:49.799Z</time></trkpt><trkpt lat="45.8652292" lon="11.6515677"><ele>365.0</ele><time>2026-04-19T15:21:51.799Z</time></trkpt><trkpt lat="45.8651634" lon="11.651557"><ele>359.83333333333337</ele><time>2026-04-19T15:21:52.799Z</time></trkpt><trkpt lat="45.8650943" lon="11.6515461"><ele>354.6666666666667</ele><time>2026-04-19T15:21:53.799Z</time></trkpt><trkpt lat="45.8650283" lon="11.6515382"><ele>349.5</ele><time>2026-04-19T15:21:54.799Z</time></trkpt><trkpt lat="45.8649606" lon="11.6515514"><ele>344.3333333333333</ele><time>2026-04-19T15:21:55.799Z</time></trkpt><trkpt lat="45.8648897" lon="11.6516024"><ele>339.16666666666663</ele><time>2026-04-19T15:21:56.799Z</time></trkpt><trkpt lat="45.8648211" lon="11.6516696"><ele>334.0</ele><time>2026-04-19T15:21:57.799Z</time></trkpt><trkpt lat="45.8647417" lon="11.6517196"><ele>334.0</ele><time>2026-04-19T15:21:58.798Z</time></trkpt><trkpt lat="45.8646583" lon="11.6517258"><ele>334.0</ele><time>2026-04-19T15:21:59.799Z</time></trkpt><trkpt lat="45.8645775" lon="11.6517011"><ele>334.0</ele><time>2026-04-19T15:22:00.799Z</time></trkpt><trkpt lat="45.8645076" lon="11.6517112"><ele>334.0</ele><time>2026-04-19T15:22:01.799Z</time></trkpt><trkpt lat="45.8644535" lon="11.6517683"><ele>334.0</ele><time>2026-04-19T15:22:02.799Z</time></trkpt><trkpt lat="45.8644079" lon="11.6518631"><ele>334.0</ele><time>2026-04-19T15:22:03.799Z</time></trkpt><trkpt lat="45.8643695" lon="11.6519716"><ele>332.66666666666663</ele><time>2026-04-19T15:22:04.798Z</time></trkpt><trkpt lat="45.8643355" lon="11.652071"><ele>331.3333333333333</ele><time>2026-04-19T15:22:05.799Z</time></trkpt><trkpt lat="45.8642935" lon="11.6521439"><ele>330.0</ele><time>2026-04-19T15:22:06.799Z</time></trkpt><trkpt lat="45.8642303" lon="11.6521788"><ele>328.6666666666667</ele><time>2026-04-19T15:22:07.799Z</time></trkpt><trkpt lat="45.8641588" lon="11.6521814"><ele>327.33333333333337</ele><time>2026-04-19T15:22:08.799Z</time></trkpt><trkpt lat="45.8640926" lon="11.6521885"><ele>326.0</ele><time>2026-04-19T15:22:09.799Z</time></trkpt><trkpt lat="45.8640029" lon="11.6522781"><ele>326.0</ele><time>2026-04-19T15:22:11.798Z</time></trkpt><trkpt lat="45.8639487" lon="11.6523363"><ele>326.0</ele><time>2026-04-19T15:22:13.798Z</time></trkpt><trkpt lat="45.8639625" lon="11.6522202"><ele>326.0</ele><time>2026-04-19T15:22:15.798Z</time></trkpt><trkpt lat="45.864051" lon="11.6521336"><ele>326.0</ele><time>2026-04-19T15:22:17.798Z</time></trkpt><trkpt lat="45.864151" lon="11.6520698"><ele>326.0</ele><time>2026-04-19T15:22:19.799Z</time></trkpt><trkpt lat="45.8642713" lon="11.6520268"><ele>327.33333333333337</ele><time>2026-04-19T15:22:21.799Z</time></trkpt><trkpt lat="45.8643373" lon="11.6519908"><ele>328.6666666666667</ele><time>2026-04-19T15:22:22.799Z</time></trkpt><trkpt lat="45.8643902" lon="11.6519094"><ele>330.0</ele><time>2026-04-19T15:22:23.799Z</time></trkpt><trkpt lat="45.8644075" lon="11.6517993"><ele>331.3333333333333</ele><time>2026-04-19T15:22:24.799Z</time></trkpt><trkpt lat="45.8644231" lon="11.6517004"><ele>332.66666666666663</ele><time>2026-04-19T15:22:25.799Z</time></trkpt><trkpt lat="45.8644807" lon="11.6515602"><ele>334.0</ele><time>2026-04-19T15:22:27.799Z</time></trkpt><trkpt lat="45.8645962" lon="11.6514826"><ele>334.0</ele><time>2026-04-19T15:22:29.799Z</time></trkpt><trkpt lat="45.8646638" lon="11.651452"><ele>334.0</ele><time>2026-04-19T15:22:30.798Z</time></trkpt><trkpt lat="45.8647347" lon="11.651415"><ele>334.0</ele><time>2026-04-19T15:22:31.799Z</time></trkpt><trkpt lat="45.8648133" lon="11.6513701"><ele>334.0</ele><time>2026-04-19T15:22:32.799Z</time></trkpt><trkpt lat="45.8648879" lon="11.6513245"><ele>334.0</ele><time>2026-04-19T15:22:33.799Z</time></trkpt><trkpt lat="45.8649709" lon="11.6512933"><ele>334.0</ele><time>2026-04-19T15:22:34.798Z</time></trkpt><trkpt lat="45.865056" lon="11.6512784"><ele>331.5</ele><time>2026-04-19T15:22:35.798Z</time></trkpt><trkpt lat="45.8651229" lon="11.6512547"><ele>329.0</ele><time>2026-04-19T15:22:36.799Z</time></trkpt><trkpt lat="45.8651756" lon="11.651192"><ele>326.5</ele><time>2026-04-19T15:22:37.799Z</time></trkpt><trkpt lat="45.8652084" lon="11.6510998"><ele>324.0</ele><time>2026-04-19T15:22:38.799Z</time></trkpt><trkpt lat="45.8652289" lon="11.6509963"><ele>321.5</ele><time>2026-04-19T15:22:39.8Z</time></trkpt><trkpt lat="45.8652615" lon="11.6509106"><ele>319.0</ele><time>2026-04-19T15:22:40.799Z</time></trkpt><trkpt lat="45.865377" lon="11.6508276"><ele>319.0</ele><time>2026-04-19T15:22:42.8Z</time></trkpt><trkpt lat="45.8654511" lon="11.6508104"><ele>319.0</ele><time>2026-04-19T15:22:43.8Z</time></trkpt><trkpt lat="45.8655313" lon="11.6507901"><ele>319.0</ele><time>2026-04-19T15:22:44.8Z</time></trkpt><trkpt lat="45.8656074" lon="11.6507655"><ele>319.0</ele><time>2026-04-19T15:22:45.8Z</time></trkpt><trkpt lat="45.865678" lon="11.6507197"><ele>319.0</ele><time>2026-04-19T15:22:46.799Z</time></trkpt><trkpt lat="45.8657494" lon="11.6506668"><ele>319.0</ele><time>2026-04-19T15:22:47.8Z</time></trkpt><trkpt lat="45.8658283" lon="11.6506046"><ele>319.0</ele><time>2026-04-19T15:22:48.799Z</time></trkpt><trkpt lat="45.8659026" lon="11.6505292"><ele>319.0</ele><time>2026-04-19T15:22:49.8Z</time></trkpt><trkpt lat="45.8659682" lon="11.6504498"><ele>319.0</ele><time>2026-04-19T15:22:50.799Z</time></trkpt><trkpt lat="45.8660442" lon="11.6503381"><ele>319.0</ele><time>2026-04-19T15:22:51.799Z</time></trkpt><trkpt lat="45.8661212" lon="11.6502259"><ele>319.0</ele><time>2026-04-19T15:22:52.8Z</time></trkpt><trkpt lat="45.8661856" lon="11.6501266"><ele>319.2</ele><time>2026-04-19T15:22:53.8Z</time></trkpt><trkpt lat="45.8662456" lon="11.6500339"><ele>319.4</ele><time>2026-04-19T15:22:54.8Z</time></trkpt><trkpt lat="45.8663037" lon="11.6499453"><ele>319.6</ele><time>2026-04-19T15:22:55.8Z</time></trkpt><trkpt lat="45.8663867" lon="11.6498076"><ele>319.8</ele><time>2026-04-19T15:22:57.8Z</time></trkpt><trkpt lat="45.8664567" lon="11.6497671"><ele>320.0</ele><time>2026-04-19T15:22:58.799Z</time></trkpt><trkpt lat="45.8665316" lon="11.6497421"><ele>320.0</ele><time>2026-04-19T15:22:59.8Z</time></trkpt><trkpt lat="45.8665871" lon="11.6496991"><ele>320.0</ele><time>2026-04-19T15:23:00.8Z</time></trkpt><trkpt lat="45.8666234" lon="11.6495546"><ele>320.0</ele><time>2026-04-19T15:23:02.8Z</time></trkpt><trkpt lat="45.8665988" lon="11.649434"><ele>320.0</ele><time>2026-04-19T15:23:03.8Z</time></trkpt><trkpt lat="45.8665798" lon="11.6493094"><ele>320.0</ele><time>2026-04-19T15:23:04.799Z</time></trkpt><trkpt lat="45.8665851" lon="11.6492162"><ele>320.0</ele><time>2026-04-19T15:23:05.799Z</time></trkpt><trkpt lat="45.8666448" lon="11.6490687"><ele>324.33333333333337</ele><time>2026-04-19T15:23:07.8Z</time></trkpt><trkpt lat="45.8667004" lon="11.6490128"><ele>328.6666666666667</ele><time>2026-04-19T15:23:08.8Z</time></trkpt><trkpt lat="45.8667613" lon="11.6489556"><ele>333.0</ele><time>2026-04-19T15:23:09.8Z</time></trkpt><trkpt lat="45.8668257" lon="11.6488908"><ele>337.3333333333333</ele><time>2026-04-19T15:23:10.8Z</time></trkpt><trkpt lat="45.8668879" lon="11.6488241"><ele>341.66666666666663</ele><time>2026-04-19T15:23:11.799Z</time></trkpt><trkpt lat="45.8669573" lon="11.6487676"><ele>346.0</ele><time>2026-04-19T15:23:12.8Z</time></trkpt><trkpt lat="45.8670272" lon="11.648714"><ele>346.0</ele><time>2026-04-19T15:23:13.8Z</time></trkpt><trkpt lat="45.8670826" lon="11.6486397"><ele>346.0</ele><time>2026-04-19T15:23:14.8Z</time></trkpt><trkpt lat="45.867112" lon="11.6485396"><ele>346.0</ele><time>2026-04-19T15:23:15.799Z</time></trkpt><trkpt lat="45.8671234" lon="11.6484195"><ele>346.0</ele><time>2026-04-19T15:23:16.8Z</time></trkpt><trkpt lat="45.8671268" lon="11.6483028"><ele>346.0</ele><time>2026-04-19T15:23:17.799Z</time></trkpt><trkpt lat="45.8671444" lon="11.6482054"><ele>346.0</ele><time>2026-04-19T15:23:18.8Z</time></trkpt><trkpt lat="45.8671921" lon="11.6481329"><ele>340.3333333333333</ele><time>2026-04-19T15:23:19.8Z</time></trkpt><trkpt lat="45.8672517" lon="11.6480695"><ele>334.66666666666663</ele><time>2026-04-19T15:23:20.799Z</time></trkpt><trkpt lat="45.8673082" lon="11.6479871"><ele>329.0</ele><time>2026-04-19T15:23:21.8Z</time></trkpt><trkpt lat="45.8673303" lon="11.6478738"><ele>323.3333333333333</ele><time>2026-04-19T15:23:22.801Z</time></trkpt><trkpt lat="45.8673295" lon="11.6477366"><ele>317.6666666666667</ele><time>2026-04-19T15:23:23.799Z</time></trkpt><trkpt lat="45.8673373" lon="11.6476075"><ele>312.0</ele><time>2026-04-19T15:23:24.8Z</time></trkpt><trkpt lat="45.8673618" lon="11.6474929"><ele>306.5</ele><time>2026-04-19T15:23:25.799Z</time></trkpt><trkpt lat="45.8673812" lon="11.6473781"><ele>301.0</ele><time>2026-04-19T15:23:26.8Z</time></trkpt><trkpt lat="45.8673755" lon="11.6472739"><ele>295.5</ele><time>2026-04-19T15:23:27.799Z</time></trkpt><trkpt lat="45.8673678" lon="11.6471646"><ele>290.0</ele><time>2026-04-19T15:23:28.8Z</time></trkpt><trkpt lat="45.8673685" lon="11.6470639"><ele>284.5</ele><time>2026-04-19T15:23:29.8Z</time></trkpt><trkpt lat="45.8673635" lon="11.6469391"><ele>279.0</ele><time>2026-04-19T15:23:31.801Z</time></trkpt><trkpt lat="45.8672882" lon="11.6469961"><ele>279.0</ele><time>2026-04-19T15:23:33.801Z</time></trkpt><trkpt lat="45.8672318" lon="11.6471379"><ele>279.0</ele><time>2026-04-19T15:23:35.801Z</time></trkpt><trkpt lat="45.8672299" lon="11.6472344"><ele>279.0</ele><time>2026-04-19T15:23:36.801Z</time></trkpt><trkpt lat="45.8672425" lon="11.647333"><ele>279.0</ele><time>2026-04-19T15:23:37.8Z</time></trkpt><trkpt lat="45.867264" lon="11.6474371"><ele>279.0</ele><time>2026-04-19T15:23:38.8Z</time></trkpt><trkpt lat="45.8672698" lon="11.6475596"><ele>279.0</ele><time>2026-04-19T15:23:39.801Z</time></trkpt><trkpt lat="45.8672402" lon="11.6476716"><ele>278.99999999999994</ele><time>2026-04-19T15:23:40.801Z</time></trkpt><trkpt lat="45.8671926" lon="11.6477751"><ele>279.0</ele><time>2026-04-19T15:23:41.801Z</time></trkpt><trkpt lat="45.8671645" lon="11.647875"><ele>279.0</ele><time>2026-04-19T15:23:42.801Z</time></trkpt><trkpt lat="45.8671518" lon="11.6479895"><ele>279.0</ele><time>2026-04-19T15:23:43.8Z</time></trkpt><trkpt lat="45.8671375" lon="11.6480992"><ele>279.0</ele><time>2026-04-19T15:23:44.801Z</time></trkpt><trkpt lat="45.8671078" lon="11.6481821"><ele>278.99999999999994</ele><time>2026-04-19T15:23:45.801Z</time></trkpt><trkpt lat="45.8670666" lon="11.6482515"><ele>279.0</ele><time>2026-04-19T15:23:46.8Z</time></trkpt><trkpt lat="45.8669822" lon="11.6483755"><ele>278.0</ele><time>2026-04-19T15:23:48.8Z</time></trkpt><trkpt lat="45.8669189" lon="11.6485192"><ele>277.0</ele><time>2026-04-19T15:23:50.801Z</time></trkpt><trkpt lat="45.8668875" lon="11.6486077"><ele>276.0</ele><time>2026-04-19T15:23:51.8Z</time></trkpt><trkpt lat="45.8668497" lon="11.6486919"><ele>275.0</ele><time>2026-04-19T15:23:52.801Z</time></trkpt><trkpt lat="45.8667972" lon="11.6487683"><ele>274.0</ele><time>2026-04-19T15:23:53.801Z</time></trkpt><trkpt lat="45.8667279" lon="11.6488198"><ele>273.0</ele><time>2026-04-19T15:23:54.801Z</time></trkpt><trkpt lat="45.8666501" lon="11.6488497"><ele>273.0</ele><time>2026-04-19T15:23:55.801Z</time></trkpt><trkpt lat="45.8665729" lon="11.648881"><ele>273.0</ele><time>2026-04-19T15:23:56.801Z</time></trkpt><trkpt lat="45.8664986" lon="11.6489143"><ele>273.0</ele><time>2026-04-19T15:23:57.801Z</time></trkpt><trkpt lat="45.8664266" lon="11.6489611"><ele>273.0</ele><time>2026-04-19T15:23:58.801Z</time></trkpt><trkpt lat="45.8663669" lon="11.6490269"><ele>273.0</ele><time>2026-04-19T15:23:59.801Z</time></trkpt><trkpt lat="45.8663268" lon="11.6491219"><ele>273.0</ele><time>2026-04-19T15:24:00.801Z</time></trkpt><trkpt lat="45.8663071" lon="11.6492275"><ele>273.0</ele><time>2026-04-19T15:24:01.801Z</time></trkpt><trkpt lat="45.866296" lon="11.6493479"><ele>273.0</ele><time>2026-04-19T15:24:02.801Z</time></trkpt><trkpt lat="45.8662624" lon="11.6494597"><ele>273.0</ele><time>2026-04-19T15:24:03.801Z</time></trkpt><trkpt lat="45.8662008" lon="11.6495215"><ele>273.0</ele><time>2026-04-19T15:24:04.801Z</time></trkpt><trkpt lat="45.8661287" lon="11.6495472"><ele>273.0</ele><time>2026-04-19T15:24:05.8Z</time></trkpt><trkpt lat="45.8660553" lon="11.6495667"><ele>273.0</ele><time>2026-04-19T15:24:06.801Z</time></trkpt><trkpt lat="45.8659959" lon="11.6496175"><ele>270.8333333333333</ele><time>2026-04-19T15:24:07.801Z</time></trkpt><trkpt lat="45.8659506" lon="11.6496941"><ele>268.6666666666667</ele><time>2026-04-19T15:24:08.801Z</time></trkpt><trkpt lat="45.8659079" lon="11.6497847"><ele>266.5</ele><time>2026-04-19T15:24:09.801Z</time></trkpt><trkpt lat="45.8658697" lon="11.6498757"><ele>264.33333333333337</ele><time>2026-04-19T15:24:10.801Z</time></trkpt><trkpt lat="45.8658348" lon="11.6499614"><ele>262.1666666666667</ele><time>2026-04-19T15:24:11.801Z</time></trkpt><trkpt lat="45.8657724" lon="11.6500111"><ele>260.0</ele><time>2026-04-19T15:24:13.801Z</time></trkpt><trkpt lat="45.8658085" lon="11.6498732"><ele>260.0</ele><time>2026-04-19T15:24:15.801Z</time></trkpt><trkpt lat="45.8658786" lon="11.6497476"><ele>260.0</ele><time>2026-04-19T15:24:17.801Z</time></trkpt><trkpt lat="45.8659172" lon="11.6496686"><ele>260.0</ele><time>2026-04-19T15:24:18.801Z</time></trkpt><trkpt lat="45.865958" lon="11.649579"><ele>260.0</ele><time>2026-04-19T15:24:19.801Z</time></trkpt><trkpt lat="45.8660049" lon="11.6494845"><ele>260.0</ele><time>2026-04-19T15:24:20.802Z</time></trkpt><trkpt lat="45.8660613" lon="11.649389"><ele>260.0</ele><time>2026-04-19T15:24:21.802Z</time></trkpt><trkpt lat="45.8661239" lon="11.6493043"><ele>262.6</ele><time>2026-04-19T15:24:22.801Z</time></trkpt><trkpt lat="45.8661858" lon="11.64921"><ele>265.2</ele><time>2026-04-19T15:24:23.802Z</time></trkpt><trkpt lat="45.8662463" lon="11.6490994"><ele>267.8</ele><time>2026-04-19T15:24:24.801Z</time></trkpt><trkpt lat="45.8662887" lon="11.6489748"><ele>270.4</ele><time>2026-04-19T15:24:25.802Z</time></trkpt><trkpt lat="45.866323" lon="11.6488493"><ele>273.0</ele><time>2026-04-19T15:24:26.802Z</time></trkpt><trkpt lat="45.8663596" lon="11.6487313"><ele>273.0</ele><time>2026-04-19T15:24:27.802Z</time></trkpt><trkpt lat="45.8664126" lon="11.6486469"><ele>273.0</ele><time>2026-04-19T15:24:28.802Z</time></trkpt><trkpt lat="45.8664767" lon="11.6485857"><ele>273.0</ele><time>2026-04-19T15:24:29.801Z</time></trkpt><trkpt lat="45.8665446" lon="11.6485266"><ele>273.0</ele><time>2026-04-19T15:24:30.802Z</time></trkpt><trkpt lat="45.8666108" lon="11.6484459"><ele>273.0</ele><time>2026-04-19T15:24:31.802Z</time></trkpt><trkpt lat="45.8666607" lon="11.6483471"><ele>273.0</ele><time>2026-04-19T15:24:32.802Z</time></trkpt><trkpt lat="45.8667059" lon="11.6482303"><ele>274.2</ele><time>2026-04-19T15:24:33.801Z</time></trkpt><trkpt lat="45.8667498" lon="11.6481258"><ele>275.4</ele><time>2026-04-19T15:24:34.801Z</time></trkpt><trkpt lat="45.8667972" lon="11.6480168"><ele>276.59999999999997</ele><time>2026-04-19T15:24:35.802Z</time></trkpt><trkpt lat="45.8668284" lon="11.6478857"><ele>277.8</ele><time>2026-04-19T15:24:36.801Z</time></trkpt><trkpt lat="45.8668523" lon="11.6477484"><ele>279.0</ele><time>2026-04-19T15:24:37.802Z</time></trkpt><trkpt lat="45.8668746" lon="11.6476028"><ele>279.0</ele><time>2026-04-19T15:24:38.802Z</time></trkpt><trkpt lat="45.8668955" lon="11.6474531"><ele>279.0</ele><time>2026-04-19T15:24:39.802Z</time></trkpt><trkpt lat="45.8669129" lon="11.6473062"><ele>279.0</ele><time>2026-04-19T15:24:40.801Z</time></trkpt><trkpt lat="45.8669175" lon="11.6471722"><ele>279.0</ele><time>2026-04-19T15:24:41.802Z</time></trkpt><trkpt lat="45.8669231" lon="11.6470472"><ele>279.0</ele><time>2026-04-19T15:24:42.802Z</time></trkpt><trkpt lat="45.8669303" lon="11.6469273"><ele>273.6666666666667</ele><time>2026-04-19T15:24:43.802Z</time></trkpt><trkpt lat="45.8669409" lon="11.6468095"><ele>268.3333333333333</ele><time>2026-04-19T15:24:44.802Z</time></trkpt><trkpt lat="45.8669426" lon="11.6466929"><ele>263.0</ele><time>2026-04-19T15:24:45.802Z</time></trkpt><trkpt lat="45.8669356" lon="11.6465878"><ele>257.66666666666663</ele><time>2026-04-19T15:24:46.802Z</time></trkpt><trkpt lat="45.8668839" lon="11.6464628"><ele>252.33333333333331</ele><time>2026-04-19T15:24:48.801Z</time></trkpt><trkpt lat="45.8667914" lon="11.6464658"><ele>247.0</ele><time>2026-04-19T15:24:50.802Z</time></trkpt><trkpt lat="45.8667428" lon="11.6465361"><ele>244.66666666666666</ele><time>2026-04-19T15:24:51.801Z</time></trkpt><trkpt lat="45.8667089" lon="11.6466307"><ele>242.33333333333331</ele><time>2026-04-19T15:24:52.802Z</time></trkpt><trkpt lat="45.866664" lon="11.6468039"><ele>240.0</ele><time>2026-04-19T15:24:54.801Z</time></trkpt><trkpt lat="45.8666288" lon="11.6469062"><ele>237.66666666666669</ele><time>2026-04-19T15:24:55.801Z</time></trkpt><trkpt lat="45.8665862" lon="11.6469949"><ele>235.33333333333334</ele><time>2026-04-19T15:24:56.802Z</time></trkpt><trkpt lat="45.8665363" lon="11.6470565"><ele>233.0</ele><time>2026-04-19T15:24:57.802Z</time></trkpt><trkpt lat="45.866443" lon="11.6471749"><ele>232.66666666666669</ele><time>2026-04-19T15:24:59.802Z</time></trkpt><trkpt lat="45.8663506" lon="11.6472995"><ele>232.33333333333334</ele><time>2026-04-19T15:25:01.801Z</time></trkpt><trkpt lat="45.8663116" lon="11.6473788"><ele>232.0</ele><time>2026-04-19T15:25:02.802Z</time></trkpt><trkpt lat="45.8662845" lon="11.6474671"><ele>231.66666666666669</ele><time>2026-04-19T15:25:03.801Z</time></trkpt><trkpt lat="45.8662611" lon="11.647563"><ele>231.33333333333334</ele><time>2026-04-19T15:25:04.802Z</time></trkpt><trkpt lat="45.8662472" lon="11.6476612"><ele>231.0</ele><time>2026-04-19T15:25:05.802Z</time></trkpt><trkpt lat="45.8662272" lon="11.6477603"><ele>232.0</ele><time>2026-04-19T15:25:06.803Z</time></trkpt><trkpt lat="45.8661682" lon="11.6479179"><ele>233.0</ele><time>2026-04-19T15:25:08.802Z</time></trkpt><trkpt lat="45.8661192" lon="11.6479865"><ele>234.0</ele><time>2026-04-19T15:25:09.802Z</time></trkpt><trkpt lat="45.8660615" lon="11.6480496"><ele>235.0</ele><time>2026-04-19T15:25:10.802Z</time></trkpt><trkpt lat="45.8659958" lon="11.6481185"><ele>236.0</ele><time>2026-04-19T15:25:11.802Z</time></trkpt><trkpt lat="45.8659396" lon="11.6481869"><ele>237.0</ele><time>2026-04-19T15:25:12.802Z</time></trkpt><trkpt lat="45.8658984" lon="11.6482691"><ele>237.0</ele><time>2026-04-19T15:25:13.803Z</time></trkpt><trkpt lat="45.8658581" lon="11.6483722"><ele>237.0</ele><time>2026-04-19T15:25:14.803Z</time></trkpt><trkpt lat="45.8658126" lon="11.648484"><ele>237.0</ele><time>2026-04-19T15:25:15.803Z</time></trkpt><trkpt lat="45.8657742" lon="11.6485839"><ele>237.0</ele><time>2026-04-19T15:25:16.803Z</time></trkpt><trkpt lat="45.8657308" lon="11.6486808"><ele>237.0</ele><time>2026-04-19T15:25:17.802Z</time></trkpt><trkpt lat="45.8656775" lon="11.6487642"><ele>237.0</ele><time>2026-04-19T15:25:18.803Z</time></trkpt><trkpt lat="45.865626" lon="11.6488367"><ele>235.28571428571425</ele><time>2026-04-19T15:25:19.802Z</time></trkpt><trkpt lat="45.865578" lon="11.6489101"><ele>233.57142857142856</ele><time>2026-04-19T15:25:20.803Z</time></trkpt><trkpt lat="45.8655318" lon="11.6489863"><ele>231.85714285714286</ele><time>2026-04-19T15:25:21.802Z</time></trkpt><trkpt lat="45.8654874" lon="11.6490681"><ele>230.14285714285714</ele><time>2026-04-19T15:25:22.802Z</time></trkpt><trkpt lat="45.8654416" lon="11.6491434"><ele>228.42857142857144</ele><time>2026-04-19T15:25:23.803Z</time></trkpt><trkpt lat="45.8653888" lon="11.6492204"><ele>226.71428571428575</ele><time>2026-04-19T15:25:24.803Z</time></trkpt><trkpt lat="45.8653296" lon="11.6492783"><ele>225.00000000000003</ele><time>2026-04-19T15:25:25.803Z</time></trkpt><trkpt lat="45.8652604" lon="11.6493254"><ele>225.0</ele><time>2026-04-19T15:25:26.802Z</time></trkpt><trkpt lat="45.8651858" lon="11.6493568"><ele>225.0</ele><time>2026-04-19T15:25:27.802Z</time></trkpt><trkpt lat="45.8651097" lon="11.6493882"><ele>225.0</ele><time>2026-04-19T15:25:28.803Z</time></trkpt><trkpt lat="45.8650172" lon="11.649409"><ele>225.0</ele><time>2026-04-19T15:25:29.803Z</time></trkpt><trkpt lat="45.8649288" lon="11.6494235"><ele>225.0</ele><time>2026-04-19T15:25:30.803Z</time></trkpt><trkpt lat="45.8648417" lon="11.6494416"><ele>225.0</ele><time>2026-04-19T15:25:31.802Z</time></trkpt><trkpt lat="45.8647485" lon="11.6494664"><ele>225.33333333333334</ele><time>2026-04-19T15:25:32.803Z</time></trkpt><trkpt lat="45.8646591" lon="11.6494938"><ele>225.66666666666669</ele><time>2026-04-19T15:25:33.803Z</time></trkpt><trkpt lat="45.8645708" lon="11.6495218"><ele>226.0</ele><time>2026-04-19T15:25:34.803Z</time></trkpt><trkpt lat="45.8644841" lon="11.6495452"><ele>226.33333333333334</ele><time>2026-04-19T15:25:35.802Z</time></trkpt><trkpt lat="45.8644002" lon="11.649574"><ele>226.66666666666669</ele><time>2026-04-19T15:25:36.803Z</time></trkpt><trkpt lat="45.8643133" lon="11.6496072"><ele>227.0</ele><time>2026-04-19T15:25:37.803Z</time></trkpt><trkpt lat="45.8642304" lon="11.649653"><ele>227.0</ele><time>2026-04-19T15:25:38.803Z</time></trkpt><trkpt lat="45.8641503" lon="11.6497169"><ele>227.0</ele><time>2026-04-19T15:25:39.803Z</time></trkpt><trkpt lat="45.8640729" lon="11.6497962"><ele>227.0</ele><time>2026-04-19T15:25:40.803Z</time></trkpt><trkpt lat="45.8639973" lon="11.6498797"><ele>227.0</ele><time>2026-04-19T15:25:41.802Z</time></trkpt><trkpt lat="45.8639269" lon="11.6499586"><ele>227.0</ele><time>2026-04-19T15:25:42.803Z</time></trkpt><trkpt lat="45.8638589" lon="11.6500496"><ele>227.00000000000003</ele><time>2026-04-19T15:25:43.803Z</time></trkpt><trkpt lat="45.8637942" lon="11.6501465"><ele>227.0</ele><time>2026-04-19T15:25:44.803Z</time></trkpt><trkpt lat="45.8637353" lon="11.6502338"><ele>227.0</ele><time>2026-04-19T15:25:45.803Z</time></trkpt><trkpt lat="45.8636763" lon="11.6503208"><ele>227.0</ele><time>2026-04-19T15:25:46.803Z</time></trkpt><trkpt lat="45.8636119" lon="11.6504072"><ele>227.00000000000003</ele><time>2026-04-19T15:25:47.803Z</time></trkpt><trkpt lat="45.8635461" lon="11.6504938"><ele>227.0</ele><time>2026-04-19T15:25:48.803Z</time></trkpt><trkpt lat="45.8634778" lon="11.6505835"><ele>225.0</ele><time>2026-04-19T15:25:49.803Z</time></trkpt><trkpt lat="45.8634139" lon="11.6506761"><ele>223.0</ele><time>2026-04-19T15:25:50.803Z</time></trkpt><trkpt lat="45.8633435" lon="11.6507666"><ele>221.0</ele><time>2026-04-19T15:25:51.803Z</time></trkpt><trkpt lat="45.863272" lon="11.650856"><ele>219.0</ele><time>2026-04-19T15:25:52.803Z</time></trkpt><trkpt lat="45.8632014" lon="11.6509297"><ele>217.0</ele><time>2026-04-19T15:25:53.803Z</time></trkpt><trkpt lat="45.8631262" lon="11.6509988"><ele>217.0</ele><time>2026-04-19T15:25:54.802Z</time></trkpt><trkpt lat="45.863035" lon="11.6510496"><ele>217.0</ele><time>2026-04-19T15:25:55.803Z</time></trkpt><trkpt lat="45.8629561" lon="11.6511177"><ele>217.0</ele><time>2026-04-19T15:25:56.803Z</time></trkpt><trkpt lat="45.862878" lon="11.6511985"><ele>217.0</ele><time>2026-04-19T15:25:57.803Z</time></trkpt><trkpt lat="45.8628002" lon="11.6512657"><ele>217.0</ele><time>2026-04-19T15:25:58.802Z</time></trkpt><trkpt lat="45.8627178" lon="11.6513419"><ele>216.6</ele><time>2026-04-19T15:25:59.803Z</time></trkpt><trkpt lat="45.8626352" lon="11.6514359"><ele>216.2</ele><time>2026-04-19T15:26:00.803Z</time></trkpt><trkpt lat="45.8625552" lon="11.6515209"><ele>215.8</ele><time>2026-04-19T15:26:01.803Z</time></trkpt><trkpt lat="45.8624727" lon="11.6516053"><ele>215.4</ele><time>2026-04-19T15:26:02.803Z</time></trkpt><trkpt lat="45.8623881" lon="11.6517"><ele>215.0</ele><time>2026-04-19T15:26:03.804Z</time></trkpt><trkpt lat="45.8623043" lon="11.651789"><ele>215.0</ele><time>2026-04-19T15:26:04.803Z</time></trkpt><trkpt lat="45.8622177" lon="11.651869"><ele>215.0</ele><time>2026-04-19T15:26:05.804Z</time></trkpt><trkpt lat="45.8621309" lon="11.6519511"><ele>215.0</ele><time>2026-04-19T15:26:06.804Z</time></trkpt><trkpt lat="45.8620415" lon="11.6520485"><ele>215.0</ele><time>2026-04-19T15:26:07.804Z</time></trkpt><trkpt lat="45.8619662" lon="11.6521473"><ele>215.0</ele><time>2026-04-19T15:26:08.804Z</time></trkpt><trkpt lat="45.8618988" lon="11.6522455"><ele>214.2</ele><time>2026-04-19T15:26:09.804Z</time></trkpt><trkpt lat="45.8618371" lon="11.6523527"><ele>213.4</ele><time>2026-04-19T15:26:10.804Z</time></trkpt><trkpt lat="45.8617871" lon="11.6524867"><ele>212.60000000000002</ele><time>2026-04-19T15:26:11.803Z</time></trkpt><trkpt lat="45.8617463" lon="11.6526352"><ele>211.8</ele><time>2026-04-19T15:26:12.803Z</time></trkpt><trkpt lat="45.8617236" lon="11.6527728"><ele>211.0</ele><time>2026-04-19T15:26:13.803Z</time></trkpt><trkpt lat="45.8617002" lon="11.6529143"><ele>207.60000000000002</ele><time>2026-04-19T15:26:14.804Z</time></trkpt><trkpt lat="45.861673" lon="11.6530544"><ele>204.2</ele><time>2026-04-19T15:26:15.804Z</time></trkpt><trkpt lat="45.8616448" lon="11.6531926"><ele>200.8</ele><time>2026-04-19T15:26:16.803Z</time></trkpt><trkpt lat="45.8616187" lon="11.6533265"><ele>197.39999999999998</ele><time>2026-04-19T15:26:17.804Z</time></trkpt><trkpt lat="45.8615978" lon="11.6534576"><ele>194.0</ele><time>2026-04-19T15:26:18.803Z</time></trkpt><trkpt lat="45.8615804" lon="11.6535844"><ele>194.00000000000003</ele><time>2026-04-19T15:26:19.804Z</time></trkpt><trkpt lat="45.8615659" lon="11.653709"><ele>194.0</ele><time>2026-04-19T15:26:20.803Z</time></trkpt><trkpt lat="45.8615557" lon="11.653829"><ele>194.0</ele><time>2026-04-19T15:26:21.803Z</time></trkpt><trkpt lat="45.861545" lon="11.6539478"><ele>194.0</ele><time>2026-04-19T15:26:22.804Z</time></trkpt><trkpt lat="45.8615318" lon="11.6540599"><ele>194.00000000000003</ele><time>2026-04-19T15:26:23.804Z</time></trkpt><trkpt lat="45.8615162" lon="11.6541712"><ele>194.0</ele><time>2026-04-19T15:26:24.803Z</time></trkpt><trkpt lat="45.8614968" lon="11.6542885"><ele>194.00000000000003</ele><time>2026-04-19T15:26:25.804Z</time></trkpt><trkpt lat="45.8614808" lon="11.6543912"><ele>194.0</ele><time>2026-04-19T15:26:26.803Z</time></trkpt><trkpt lat="45.8614621" lon="11.6544896"><ele>194.0</ele><time>2026-04-19T15:26:27.804Z</time></trkpt><trkpt lat="45.8614358" lon="11.6545813"><ele>194.0</ele><time>2026-04-19T15:26:28.804Z</time></trkpt><trkpt lat="45.8613931" lon="11.6546548"><ele>194.00000000000003</ele><time>2026-04-19T15:26:29.804Z</time></trkpt><trkpt lat="45.8613432" lon="11.6547135"><ele>194.0</ele><time>2026-04-19T15:26:30.804Z</time></trkpt><trkpt lat="45.8612461" lon="11.654819"><ele>193.83333333333334</ele><time>2026-04-19T15:26:32.804Z</time></trkpt><trkpt lat="45.8611786" lon="11.6549693"><ele>193.66666666666669</ele><time>2026-04-19T15:26:34.804Z</time></trkpt><trkpt lat="45.8611566" lon="11.6550607"><ele>193.5</ele><time>2026-04-19T15:26:35.804Z</time></trkpt><trkpt lat="45.8611392" lon="11.6551557"><ele>193.33333333333331</ele><time>2026-04-19T15:26:36.804Z</time></trkpt><trkpt lat="45.8611247" lon="11.6552515"><ele>193.16666666666666</ele><time>2026-04-19T15:26:37.804Z</time></trkpt><trkpt lat="45.8611104" lon="11.6553479"><ele>193.0</ele><time>2026-04-19T15:26:38.804Z</time></trkpt><trkpt lat="45.861095" lon="11.6554471"><ele>192.99999999999997</ele><time>2026-04-19T15:26:39.804Z</time></trkpt><trkpt lat="45.8610775" lon="11.6555456"><ele>193.0</ele><time>2026-04-19T15:26:40.804Z</time></trkpt><trkpt lat="45.8610551" lon="11.6556448"><ele>193.0</ele><time>2026-04-19T15:26:41.803Z</time></trkpt><trkpt lat="45.8610156" lon="11.6557304"><ele>193.0</ele><time>2026-04-19T15:26:42.804Z</time></trkpt><trkpt lat="45.8609625" lon="11.6558034"><ele>192.99999999999997</ele><time>2026-04-19T15:26:43.805Z</time></trkpt><trkpt lat="45.8608961" lon="11.6558716"><ele>193.0</ele><time>2026-04-19T15:26:44.804Z</time></trkpt><trkpt lat="45.8608263" lon="11.655928"><ele>191.49999999999997</ele><time>2026-04-19T15:26:45.804Z</time></trkpt><trkpt lat="45.8607579" lon="11.6559785"><ele>190.0</ele><time>2026-04-19T15:26:46.804Z</time></trkpt><trkpt lat="45.8606899" lon="11.6560289"><ele>188.5</ele><time>2026-04-19T15:26:47.804Z</time></trkpt><trkpt lat="45.8606208" lon="11.6560832"><ele>187.0</ele><time>2026-04-19T15:26:48.804Z</time></trkpt><trkpt lat="45.8605488" lon="11.6561446"><ele>185.5</ele><time>2026-04-19T15:26:49.804Z</time></trkpt><trkpt lat="45.8604758" lon="11.6562076"><ele>184.0</ele><time>2026-04-19T15:26:50.804Z</time></trkpt><trkpt lat="45.8604053" lon="11.656272"><ele>182.0</ele><time>2026-04-19T15:26:51.805Z</time></trkpt><trkpt lat="45.8603368" lon="11.6563347"><ele>180.0</ele><time>2026-04-19T15:26:52.803Z</time></trkpt><trkpt lat="45.8602679" lon="11.6563933"><ele>178.0</ele><time>2026-04-19T15:26:53.805Z</time></trkpt><trkpt lat="45.8602008" lon="11.6564463"><ele>176.0</ele><time>2026-04-19T15:26:54.805Z</time></trkpt><trkpt lat="45.8601367" lon="11.6564894"><ele>174.0</ele><time>2026-04-19T15:26:55.805Z</time></trkpt><trkpt lat="45.860071" lon="11.656526"><ele>172.0</ele><time>2026-04-19T15:26:56.805Z</time></trkpt><trkpt lat="45.8600001" lon="11.6565567"><ele>171.83333333333334</ele><time>2026-04-19T15:26:57.805Z</time></trkpt><trkpt lat="45.8599254" lon="11.6565861"><ele>171.66666666666669</ele><time>2026-04-19T15:26:58.805Z</time></trkpt><trkpt lat="45.8598498" lon="11.6566172"><ele>171.5</ele><time>2026-04-19T15:26:59.805Z</time></trkpt><trkpt lat="45.8597724" lon="11.6566547"><ele>171.33333333333334</ele><time>2026-04-19T15:27:00.805Z</time></trkpt><trkpt lat="45.8596948" lon="11.6567047"><ele>171.16666666666666</ele><time>2026-04-19T15:27:01.805Z</time></trkpt><trkpt lat="45.8596219" lon="11.656772"><ele>171.0</ele><time>2026-04-19T15:27:02.805Z</time></trkpt><trkpt lat="45.8595582" lon="11.6568504"><ele>171.0</ele><time>2026-04-19T15:27:03.805Z</time></trkpt><trkpt lat="45.8595107" lon="11.6569446"><ele>171.0</ele><time>2026-04-19T15:27:04.805Z</time></trkpt><trkpt lat="45.8594652" lon="11.6570513"><ele>171.0</ele><time>2026-04-19T15:27:05.805Z</time></trkpt><trkpt lat="45.8594226" lon="11.6571516"><ele>171.0</ele><time>2026-04-19T15:27:06.804Z</time></trkpt><trkpt lat="45.859381" lon="11.6572509"><ele>171.0</ele><time>2026-04-19T15:27:07.805Z</time></trkpt><trkpt lat="45.8593415" lon="11.6573539"><ele>171.0</ele><time>2026-04-19T15:27:08.805Z</time></trkpt><trkpt lat="45.8593004" lon="11.6574568"><ele>171.83333333333334</ele><time>2026-04-19T15:27:09.805Z</time></trkpt><trkpt lat="45.8592558" lon="11.6575596"><ele>172.66666666666666</ele><time>2026-04-19T15:27:10.805Z</time></trkpt><trkpt lat="45.8591995" lon="11.6576511"><ele>173.5</ele><time>2026-04-19T15:27:11.804Z</time></trkpt><trkpt lat="45.8591283" lon="11.6577126"><ele>174.33333333333331</ele><time>2026-04-19T15:27:12.805Z</time></trkpt><trkpt lat="45.8590591" lon="11.6577659"><ele>175.16666666666666</ele><time>2026-04-19T15:27:13.805Z</time></trkpt><trkpt lat="45.8589902" lon="11.6578103"><ele>176.0</ele><time>2026-04-19T15:27:14.805Z</time></trkpt><trkpt lat="45.8589226" lon="11.6578385"><ele>173.20000000000002</ele><time>2026-04-19T15:27:15.804Z</time></trkpt><trkpt lat="45.8588589" lon="11.6578519"><ele>170.4</ele><time>2026-04-19T15:27:16.805Z</time></trkpt><trkpt lat="45.8587386" lon="11.6578751"><ele>167.6</ele><time>2026-04-19T15:27:18.805Z</time></trkpt><trkpt lat="45.8586377" lon="11.6579019"><ele>164.8</ele><time>2026-04-19T15:27:20.805Z</time></trkpt><trkpt lat="45.8585427" lon="11.6579258"><ele>162.0</ele><time>2026-04-19T15:27:22.805Z</time></trkpt><trkpt lat="45.8584442" lon="11.6579635"><ele>162.0</ele><time>2026-04-19T15:27:24.805Z</time></trkpt><trkpt lat="45.8583422" lon="11.6579973"><ele>162.0</ele><time>2026-04-19T15:27:26.804Z</time></trkpt><trkpt lat="45.8582281" lon="11.6580238"><ele>162.0</ele><time>2026-04-19T15:27:28.805Z</time></trkpt><trkpt lat="45.8581136" lon="11.6580569"><ele>162.0</ele><time>2026-04-19T15:27:30.805Z</time></trkpt><trkpt lat="45.8579938" lon="11.6580934"><ele>162.0</ele><time>2026-04-19T15:27:32.805Z</time></trkpt><trkpt lat="45.8579296" lon="11.6581121"><ele>162.0</ele><time>2026-04-19T15:27:33.805Z</time></trkpt><trkpt lat="45.8578645" lon="11.6581308"><ele>162.0</ele><time>2026-04-19T15:27:34.804Z</time></trkpt><trkpt lat="45.8578008" lon="11.6581531"><ele>162.0</ele><time>2026-04-19T15:27:35.804Z</time></trkpt><trkpt lat="45.8577385" lon="11.6581803"><ele>162.0</ele><time>2026-04-19T15:27:36.805Z</time></trkpt><trkpt lat="45.8576773" lon="11.6582141"><ele>162.0</ele><time>2026-04-19T15:27:37.805Z</time></trkpt><trkpt lat="45.8576177" lon="11.6582521"><ele>162.0</ele><time>2026-04-19T15:27:38.805Z</time></trkpt><trkpt lat="45.8575591" lon="11.6582962"><ele>163.85714285714286</ele><time>2026-04-19T15:27:39.805Z</time></trkpt><trkpt lat="45.8575018" lon="11.6583348"><ele>165.71428571428572</ele><time>2026-04-19T15:27:40.805Z</time></trkpt><trkpt lat="45.8574434" lon="11.6583739"><ele>167.57142857142856</ele><time>2026-04-19T15:27:41.806Z</time></trkpt><trkpt lat="45.8573814" lon="11.6584089"><ele>169.42857142857144</ele><time>2026-04-19T15:27:42.805Z</time></trkpt><trkpt lat="45.8573188" lon="11.6584387"><ele>171.28571428571428</ele><time>2026-04-19T15:27:43.805Z</time></trkpt><trkpt lat="45.8572563" lon="11.6584692"><ele>173.14285714285714</ele><time>2026-04-19T15:27:44.805Z</time></trkpt><trkpt lat="45.8571928" lon="11.6585014"><ele>175.0</ele><time>2026-04-19T15:27:45.806Z</time></trkpt><trkpt lat="45.8571255" lon="11.6585404"><ele>175.0</ele><time>2026-04-19T15:27:46.805Z</time></trkpt><trkpt lat="45.8570559" lon="11.6585742"><ele>175.0</ele><time>2026-04-19T15:27:47.806Z</time></trkpt><trkpt lat="45.856987" lon="11.6586077"><ele>175.0</ele><time>2026-04-19T15:27:48.806Z</time></trkpt><trkpt lat="45.8569143" lon="11.6586498"><ele>175.0</ele><time>2026-04-19T15:27:49.805Z</time></trkpt><trkpt lat="45.8568503" lon="11.6587148"><ele>175.0</ele><time>2026-04-19T15:27:50.806Z</time></trkpt><trkpt lat="45.856797" lon="11.6587952"><ele>175.0</ele><time>2026-04-19T15:27:51.805Z</time></trkpt><trkpt lat="45.8567492" lon="11.6588858"><ele>174.83333333333334</ele><time>2026-04-19T15:27:52.806Z</time></trkpt><trkpt lat="45.8566991" lon="11.6589738"><ele>174.66666666666669</ele><time>2026-04-19T15:27:53.806Z</time></trkpt><trkpt lat="45.8566447" lon="11.6590689"><ele>174.5</ele><time>2026-04-19T15:27:54.805Z</time></trkpt><trkpt lat="45.8565905" lon="11.65916"><ele>174.33333333333334</ele><time>2026-04-19T15:27:55.806Z</time></trkpt><trkpt lat="45.8565405" lon="11.6592469"><ele>174.16666666666666</ele><time>2026-04-19T15:27:56.806Z</time></trkpt><trkpt lat="45.8564936" lon="11.6593498"><ele>174.0</ele><time>2026-04-19T15:27:57.806Z</time></trkpt><trkpt lat="45.8564598" lon="11.659459"><ele>170.83333333333334</ele><time>2026-04-19T15:27:58.806Z</time></trkpt><trkpt lat="45.856439" lon="11.6595772"><ele>167.66666666666666</ele><time>2026-04-19T15:27:59.805Z</time></trkpt><trkpt lat="45.8564228" lon="11.6596902"><ele>164.5</ele><time>2026-04-19T15:28:00.805Z</time></trkpt><trkpt lat="45.856407" lon="11.6597958"><ele>161.33333333333331</ele><time>2026-04-19T15:28:01.806Z</time></trkpt><trkpt lat="45.8563899" lon="11.6599004"><ele>158.16666666666666</ele><time>2026-04-19T15:28:02.806Z</time></trkpt><trkpt lat="45.8563716" lon="11.6600069"><ele>155.0</ele><time>2026-04-19T15:28:03.806Z</time></trkpt><trkpt lat="45.8563499" lon="11.6601132"><ele>155.0</ele><time>2026-04-19T15:28:04.806Z</time></trkpt><trkpt lat="45.8563193" lon="11.6602062"><ele>155.0</ele><time>2026-04-19T15:28:05.806Z</time></trkpt><trkpt lat="45.8562475" lon="11.6603551"><ele>155.0</ele><time>2026-04-19T15:28:07.806Z</time></trkpt><trkpt lat="45.8562076" lon="11.6604294"><ele>155.0</ele><time>2026-04-19T15:28:08.806Z</time></trkpt><trkpt lat="45.856166" lon="11.660507"><ele>155.0</ele><time>2026-04-19T15:28:09.806Z</time></trkpt><trkpt lat="45.8561246" lon="11.6605862"><ele>155.0</ele><time>2026-04-19T15:28:10.806Z</time></trkpt><trkpt lat="45.8560804" lon="11.6606657"><ele>154.57142857142858</ele><time>2026-04-19T15:28:11.806Z</time></trkpt><trkpt lat="45.8560349" lon="11.6607475"><ele>154.14285714285714</ele><time>2026-04-19T15:28:12.806Z</time></trkpt><trkpt lat="45.8559862" lon="11.6608307"><ele>153.71428571428572</ele><time>2026-04-19T15:28:13.805Z</time></trkpt><trkpt lat="45.8559363" lon="11.660914"><ele>153.28571428571428</ele><time>2026-04-19T15:28:14.806Z</time></trkpt><trkpt lat="45.8558833" lon="11.6609934"><ele>152.85714285714286</ele><time>2026-04-19T15:28:15.806Z</time></trkpt><trkpt lat="45.8558334" lon="11.6610617"><ele>152.42857142857142</ele><time>2026-04-19T15:28:16.806Z</time></trkpt><trkpt lat="45.8557805" lon="11.6611117"><ele>152.0</ele><time>2026-04-19T15:28:17.806Z</time></trkpt><trkpt lat="45.8557181" lon="11.6611436"><ele>152.0</ele><time>2026-04-19T15:28:18.806Z</time></trkpt><trkpt lat="45.8556489" lon="11.6611676"><ele>152.0</ele><time>2026-04-19T15:28:19.806Z</time></trkpt><trkpt lat="45.8555706" lon="11.6611939"><ele>152.0</ele><time>2026-04-19T15:28:20.806Z</time></trkpt><trkpt lat="45.8554944" lon="11.6612202"><ele>152.0</ele><time>2026-04-19T15:28:21.806Z</time></trkpt><trkpt lat="45.8554231" lon="11.6612417"><ele>152.0</ele><time>2026-04-19T15:28:22.805Z</time></trkpt><trkpt lat="45.8553508" lon="11.6612658"><ele>152.0</ele><time>2026-04-19T15:28:23.806Z</time></trkpt><trkpt lat="45.8552791" lon="11.6612894"><ele>152.0</ele><time>2026-04-19T15:28:24.806Z</time></trkpt><trkpt lat="45.8552048" lon="11.6613187"><ele>152.0</ele><time>2026-04-19T15:28:25.805Z</time></trkpt><trkpt lat="45.8551284" lon="11.6613611"><ele>152.0</ele><time>2026-04-19T15:28:26.805Z</time></trkpt><trkpt lat="45.8550532" lon="11.661417"><ele>152.0</ele><time>2026-04-19T15:28:27.806Z</time></trkpt><trkpt lat="45.8549819" lon="11.6614736"><ele>152.0</ele><time>2026-04-19T15:28:28.805Z</time></trkpt><trkpt lat="45.8549134" lon="11.6615388"><ele>152.0</ele><time>2026-04-19T15:28:29.806Z</time></trkpt><trkpt lat="45.8548485" lon="11.6616076"><ele>151.5</ele><time>2026-04-19T15:28:30.806Z</time></trkpt><trkpt lat="45.8547796" lon="11.6616768"><ele>151.0</ele><time>2026-04-19T15:28:31.806Z</time></trkpt><trkpt lat="45.8547148" lon="11.6617448"><ele>150.5</ele><time>2026-04-19T15:28:32.806Z</time></trkpt><trkpt lat="45.8546548" lon="11.6618104"><ele>150.0</ele><time>2026-04-19T15:28:33.806Z</time></trkpt><trkpt lat="45.8546058" lon="11.66188"><ele>149.5</ele><time>2026-04-19T15:28:34.806Z</time></trkpt><trkpt lat="45.8545777" lon="11.661982"><ele>149.0</ele><time>2026-04-19T15:28:35.806Z</time></trkpt><trkpt lat="45.8545811" lon="11.6621031"><ele>149.0</ele><time>2026-04-19T15:28:36.806Z</time></trkpt><trkpt lat="45.8546097" lon="11.6622241"><ele>149.0</ele><time>2026-04-19T15:28:37.807Z</time></trkpt><trkpt lat="45.8546615" lon="11.6623221"><ele>149.0</ele><time>2026-04-19T15:28:38.807Z</time></trkpt><trkpt lat="45.8547363" lon="11.6623895"><ele>149.0</ele><time>2026-04-19T15:28:39.807Z</time></trkpt><trkpt lat="45.8548249" lon="11.6624067"><ele>149.0</ele><time>2026-04-19T15:28:40.807Z</time></trkpt><trkpt lat="45.854917" lon="11.6624022"><ele>149.0</ele><time>2026-04-19T15:28:41.807Z</time></trkpt><trkpt lat="45.8550133" lon="11.6623801"><ele>149.0</ele><time>2026-04-19T15:28:42.806Z</time></trkpt><trkpt lat="45.8551076" lon="11.6623599"><ele>149.0</ele><time>2026-04-19T15:28:43.807Z</time></trkpt><trkpt lat="45.8551879" lon="11.6623458"><ele>149.0</ele><time>2026-04-19T15:28:44.806Z</time></trkpt><trkpt lat="45.8552572" lon="11.6623321"><ele>149.0</ele><time>2026-04-19T15:28:45.807Z</time></trkpt><trkpt lat="45.8553494" lon="11.6623295"><ele>149.0</ele><time>2026-04-19T15:28:47.807Z</time></trkpt><trkpt lat="45.8553185" lon="11.662421"><ele>149.0</ele><time>2026-04-19T15:29:10.807Z</time></trkpt><trkpt lat="45.855238" lon="11.662475"><ele>149.0</ele><time>2026-04-19T15:29:13.806Z</time></trkpt><trkpt lat="45.8551721" lon="11.6625191"><ele>149.0</ele><time>2026-04-19T15:29:15.807Z</time></trkpt><trkpt lat="45.8550967" lon="11.6625685"><ele>149.0</ele><time>2026-04-19T15:29:17.806Z</time></trkpt><trkpt lat="45.8550301" lon="11.6626306"><ele>149.0</ele><time>2026-04-19T15:29:19.807Z</time></trkpt><trkpt lat="45.8549528" lon="11.6626903"><ele>149.0</ele><time>2026-04-19T15:29:21.807Z</time></trkpt><trkpt lat="45.8548774" lon="11.6627471"><ele>149.0</ele><time>2026-04-19T15:29:23.807Z</time></trkpt><trkpt lat="45.8548086" lon="11.662802"><ele>148.66666666666666</ele><time>2026-04-19T15:29:25.806Z</time></trkpt><trkpt lat="45.8547348" lon="11.6628594"><ele>148.33333333333331</ele><time>2026-04-19T15:29:27.857Z</time></trkpt><trkpt lat="45.8546631" lon="11.6629047"><ele>148.0</ele><time>2026-04-19T15:29:29.816Z</time></trkpt><trkpt lat="45.8545887" lon="11.6629599"><ele>147.66666666666666</ele><time>2026-04-19T15:29:31.883Z</time></trkpt><trkpt lat="45.8545198" lon="11.6630211"><ele>147.33333333333334</ele><time>2026-04-19T15:29:33.896Z</time></trkpt><trkpt lat="45.8544591" lon="11.6630739"><ele>147.0</ele><time>2026-04-19T15:29:35.763Z</time></trkpt><trkpt lat="45.854393" lon="11.6631352"><ele>147.0</ele><time>2026-04-19T15:29:37.82Z</time></trkpt><trkpt lat="45.8543188" lon="11.6631951"><ele>147.0</ele><time>2026-04-19T15:29:39.834Z</time></trkpt><trkpt lat="45.8542407" lon="11.6632498"><ele>147.0</ele><time>2026-04-19T15:29:41.845Z</time></trkpt><trkpt lat="45.8541686" lon="11.6632946"><ele>147.0</ele><time>2026-04-19T15:29:43.808Z</time></trkpt><trkpt lat="45.8540942" lon="11.6633567"><ele>147.0</ele><time>2026-04-19T15:29:45.808Z</time></trkpt><trkpt lat="45.8540242" lon="11.6634107"><ele>147.0</ele><time>2026-04-19T15:29:47.808Z</time></trkpt><trkpt lat="45.8539549" lon="11.6634651"><ele>146.66666666666666</ele><time>2026-04-19T15:29:49.808Z</time></trkpt><trkpt lat="45.8538869" lon="11.6635241"><ele>146.33333333333334</ele><time>2026-04-19T15:29:51.808Z</time></trkpt><trkpt lat="45.8538087" lon="11.6635795"><ele>146.0</ele><time>2026-04-19T15:29:53.808Z</time></trkpt><trkpt lat="45.8537304" lon="11.6636334"><ele>145.66666666666669</ele><time>2026-04-19T15:29:55.808Z</time></trkpt><trkpt lat="45.8536516" lon="11.663697"><ele>145.33333333333334</ele><time>2026-04-19T15:29:57.807Z</time></trkpt><trkpt lat="45.8535655" lon="11.663767"><ele>145.0</ele><time>2026-04-19T15:29:59.808Z</time></trkpt><trkpt lat="45.8534809" lon="11.6638335"><ele>145.8</ele><time>2026-04-19T15:30:01.808Z</time></trkpt><trkpt lat="45.8534022" lon="11.6639078"><ele>146.6</ele><time>2026-04-19T15:30:03.807Z</time></trkpt><trkpt lat="45.8533251" lon="11.6639849"><ele>147.4</ele><time>2026-04-19T15:30:05.808Z</time></trkpt><trkpt lat="45.8532458" lon="11.6640664"><ele>148.2</ele><time>2026-04-19T15:30:07.808Z</time></trkpt><trkpt lat="45.8531885" lon="11.6641595"><ele>149.0</ele><time>2026-04-19T15:30:09.808Z</time></trkpt><trkpt lat="45.8531256" lon="11.66428"><ele>149.0</ele><time>2026-04-19T15:30:11.808Z</time></trkpt><trkpt lat="45.8530574" lon="11.6643958"><ele>149.0</ele><time>2026-04-19T15:30:13.807Z</time></trkpt><trkpt lat="45.8529929" lon="11.6645155"><ele>149.0</ele><time>2026-04-19T15:30:15.808Z</time></trkpt><trkpt lat="45.8529369" lon="11.6646342"><ele>149.0</ele><time>2026-04-19T15:30:17.808Z</time></trkpt><trkpt lat="45.8528577" lon="11.6647028"><ele>149.0</ele><time>2026-04-19T15:30:19.807Z</time></trkpt><trkpt lat="45.8527666" lon="11.6647794"><ele>148.8</ele><time>2026-04-19T15:30:21.808Z</time></trkpt><trkpt lat="45.8526753" lon="11.6648441"><ele>148.60000000000002</ele><time>2026-04-19T15:30:23.808Z</time></trkpt><trkpt lat="45.8525707" lon="11.6649087"><ele>148.4</ele><time>2026-04-19T15:30:25.808Z</time></trkpt><trkpt lat="45.8524717" lon="11.6649708"><ele>148.20000000000002</ele><time>2026-04-19T15:30:27.809Z</time></trkpt><trkpt lat="45.8523884" lon="11.6650193"><ele>148.0</ele><time>2026-04-19T15:30:29.808Z</time></trkpt><trkpt lat="45.8523089" lon="11.6650745"><ele>148.33333333333334</ele><time>2026-04-19T15:30:31.809Z</time></trkpt><trkpt lat="45.8522492" lon="11.6651037"><ele>148.66666666666669</ele><time>2026-04-19T15:30:32.809Z</time></trkpt><trkpt lat="45.8521502" lon="11.6651484"><ele>149.0</ele><time>2026-04-19T15:30:34.809Z</time></trkpt><trkpt lat="45.8520719" lon="11.6651899"><ele>149.33333333333334</ele><time>2026-04-19T15:30:36.809Z</time></trkpt><trkpt lat="45.8519818" lon="11.6652375"><ele>149.66666666666666</ele><time>2026-04-19T15:30:38.809Z</time></trkpt><trkpt lat="45.8518963" lon="11.6652885"><ele>150.0</ele><time>2026-04-19T15:30:40.808Z</time></trkpt><trkpt lat="45.8518115" lon="11.6653432"><ele>149.83333333333334</ele><time>2026-04-19T15:30:42.809Z</time></trkpt><trkpt lat="45.851725" lon="11.6654048"><ele>149.66666666666666</ele><time>2026-04-19T15:30:44.809Z</time></trkpt><trkpt lat="45.8516453" lon="11.6654584"><ele>149.5</ele><time>2026-04-19T15:30:46.808Z</time></trkpt><trkpt lat="45.8515798" lon="11.6655155"><ele>149.33333333333331</ele><time>2026-04-19T15:30:48.809Z</time></trkpt><trkpt lat="45.8515014" lon="11.6655648"><ele>149.16666666666666</ele><time>2026-04-19T15:30:50.808Z</time></trkpt><trkpt lat="45.8514089" lon="11.6656162"><ele>149.0</ele><time>2026-04-19T15:30:52.808Z</time></trkpt><trkpt lat="45.8513282" lon="11.6656712"><ele>149.0</ele><time>2026-04-19T15:30:54.809Z</time></trkpt><trkpt lat="45.8512408" lon="11.6657218"><ele>149.0</ele><time>2026-04-19T15:30:56.809Z</time></trkpt><trkpt lat="45.8511527" lon="11.6657854"><ele>149.0</ele><time>2026-04-19T15:30:58.809Z</time></trkpt><trkpt lat="45.8510629" lon="11.6658527"><ele>149.0</ele><time>2026-04-19T15:31:00.809Z</time></trkpt><trkpt lat="45.8509804" lon="11.6659303"><ele>149.0</ele><time>2026-04-19T15:31:02.809Z</time></trkpt><trkpt lat="45.8509075" lon="11.6659869"><ele>149.14285714285714</ele><time>2026-04-19T15:31:04.808Z</time></trkpt><trkpt lat="45.8508408" lon="11.666048"><ele>149.28571428571428</ele><time>2026-04-19T15:31:06.809Z</time></trkpt><trkpt lat="45.8507715" lon="11.6660999"><ele>149.42857142857142</ele><time>2026-04-19T15:31:08.809Z</time></trkpt><trkpt lat="45.8507086" lon="11.6661554"><ele>149.57142857142856</ele><time>2026-04-19T15:31:10.809Z</time></trkpt><trkpt lat="45.8506503" lon="11.6662125"><ele>149.71428571428572</ele><time>2026-04-19T15:31:12.808Z</time></trkpt><trkpt lat="45.8505949" lon="11.6662606"><ele>149.85714285714283</ele><time>2026-04-19T15:31:14.809Z</time></trkpt><trkpt lat="45.8505364" lon="11.6663134"><ele>150.0</ele><time>2026-04-19T15:31:16.809Z</time></trkpt><trkpt lat="45.8504721" lon="11.6663713"><ele>149.4</ele><time>2026-04-19T15:31:18.809Z</time></trkpt><trkpt lat="45.850397" lon="11.6664289"><ele>148.8</ele><time>2026-04-19T15:31:20.81Z</time></trkpt><trkpt lat="45.8503195" lon="11.6664873"><ele>148.2</ele><time>2026-04-19T15:31:22.81Z</time></trkpt><trkpt lat="45.850242" lon="11.6665532"><ele>147.6</ele><time>2026-04-19T15:31:24.809Z</time></trkpt><trkpt lat="45.850163" lon="11.6666155"><ele>147.0</ele><time>2026-04-19T15:31:26.81Z</time></trkpt><trkpt lat="45.8500724" lon="11.6666723"><ele>147.16666666666666</ele><time>2026-04-19T15:31:28.809Z</time></trkpt><trkpt lat="45.8499952" lon="11.6667363"><ele>147.33333333333334</ele><time>2026-04-19T15:31:30.81Z</time></trkpt><trkpt lat="45.8499236" lon="11.6668013"><ele>147.5</ele><time>2026-04-19T15:31:32.81Z</time></trkpt><trkpt lat="45.8498464" lon="11.666849"><ele>147.66666666666669</ele><time>2026-04-19T15:31:34.809Z</time></trkpt><trkpt lat="45.8497613" lon="11.6669072"><ele>147.83333333333334</ele><time>2026-04-19T15:31:36.81Z</time></trkpt><trkpt lat="45.8496934" lon="11.6669511"><ele>148.0</ele><time>2026-04-19T15:31:38.81Z</time></trkpt><trkpt lat="45.8496173" lon="11.666987"><ele>148.0</ele><time>2026-04-19T15:31:40.81Z</time></trkpt><trkpt lat="45.8495485" lon="11.6670312"><ele>148.0</ele><time>2026-04-19T15:31:42.81Z</time></trkpt><trkpt lat="45.8494612" lon="11.6670576"><ele>148.0</ele><time>2026-04-19T15:31:44.81Z</time></trkpt><trkpt lat="45.8493788" lon="11.6670582"><ele>148.0</ele><time>2026-04-19T15:31:46.809Z</time></trkpt><trkpt lat="45.8492978" lon="11.6670637"><ele>148.0</ele><time>2026-04-19T15:31:48.809Z</time></trkpt><trkpt lat="45.8492185" lon="11.6670598"><ele>148.0</ele><time>2026-04-19T15:31:50.809Z</time></trkpt><trkpt lat="45.8491374" lon="11.6670265"><ele>149.0</ele><time>2026-04-19T15:31:52.809Z</time></trkpt><trkpt lat="45.8490584" lon="11.6670215"><ele>150.0</ele><time>2026-04-19T15:31:54.81Z</time></trkpt><trkpt lat="45.8489735" lon="11.6670164"><ele>151.0</ele><time>2026-04-19T15:31:56.81Z</time></trkpt><trkpt lat="45.8488712" lon="11.6669965"><ele>152.0</ele><time>2026-04-19T15:31:58.81Z</time></trkpt><trkpt lat="45.8487745" lon="11.666987"><ele>153.0</ele><time>2026-04-19T15:32:00.809Z</time></trkpt><trkpt lat="45.8486724" lon="11.6669547"><ele>152.6</ele><time>2026-04-19T15:32:02.81Z</time></trkpt><trkpt lat="45.8485794" lon="11.6669361"><ele>152.20000000000002</ele><time>2026-04-19T15:32:04.809Z</time></trkpt><trkpt lat="45.8484859" lon="11.6669388"><ele>151.8</ele><time>2026-04-19T15:32:06.81Z</time></trkpt><trkpt lat="45.8483796" lon="11.6669661"><ele>151.4</ele><time>2026-04-19T15:32:08.81Z</time></trkpt><trkpt lat="45.8482897" lon="11.6670139"><ele>151.0</ele><time>2026-04-19T15:32:10.809Z</time></trkpt><trkpt lat="45.8481934" lon="11.667068"><ele>151.0</ele><time>2026-04-19T15:32:12.811Z</time></trkpt><trkpt lat="45.848103" lon="11.6671208"><ele>151.0</ele><time>2026-04-19T15:32:14.811Z</time></trkpt><trkpt lat="45.8480124" lon="11.6671798"><ele>151.0</ele><time>2026-04-19T15:32:16.811Z</time></trkpt><trkpt lat="45.8479253" lon="11.6672481"><ele>151.0</ele><time>2026-04-19T15:32:18.81Z</time></trkpt><trkpt lat="45.8478345" lon="11.6673065"><ele>151.0</ele><time>2026-04-19T15:32:20.811Z</time></trkpt><trkpt lat="45.8477471" lon="11.6673647"><ele>151.0</ele><time>2026-04-19T15:32:22.811Z</time></trkpt><trkpt lat="45.8476453" lon="11.6674407"><ele>151.0</ele><time>2026-04-19T15:32:24.811Z</time></trkpt><trkpt lat="45.8475488" lon="11.6675067"><ele>151.0</ele><time>2026-04-19T15:32:26.811Z</time></trkpt><trkpt lat="45.8474476" lon="11.6675622"><ele>151.0</ele><time>2026-04-19T15:32:28.811Z</time></trkpt><trkpt lat="45.8473356" lon="11.6676344"><ele>151.66666666666669</ele><time>2026-04-19T15:32:30.811Z</time></trkpt><trkpt lat="45.8472189" lon="11.6677032"><ele>152.33333333333334</ele><time>2026-04-19T15:32:32.81Z</time></trkpt><trkpt lat="45.8471572" lon="11.6677327"><ele>153.0</ele><time>2026-04-19T15:32:33.811Z</time></trkpt><trkpt lat="45.8470932" lon="11.6677605"><ele>153.66666666666666</ele><time>2026-04-19T15:32:34.811Z</time></trkpt><trkpt lat="45.8470297" lon="11.6677826"><ele>154.33333333333331</ele><time>2026-04-19T15:32:35.811Z</time></trkpt><trkpt lat="45.8469637" lon="11.6677882"><ele>155.0</ele><time>2026-04-19T15:32:36.811Z</time></trkpt><trkpt lat="45.8468892" lon="11.6677561"><ele>155.0</ele><time>2026-04-19T15:32:37.81Z</time></trkpt><trkpt lat="45.8468118" lon="11.6677025"><ele>155.0</ele><time>2026-04-19T15:32:38.811Z</time></trkpt><trkpt lat="45.8467382" lon="11.6676562"><ele>155.0</ele><time>2026-04-19T15:32:39.81Z</time></trkpt><trkpt lat="45.846661" lon="11.6676293"><ele>155.0</ele><time>2026-04-19T15:32:40.811Z</time></trkpt><trkpt lat="45.8465869" lon="11.6676212"><ele>155.0</ele><time>2026-04-19T15:32:41.811Z</time></trkpt><trkpt lat="45.8465115" lon="11.6676306"><ele>155.0</ele><time>2026-04-19T15:32:42.81Z</time></trkpt><trkpt lat="45.8464381" lon="11.6676532"><ele>155.6</ele><time>2026-04-19T15:32:43.811Z</time></trkpt><trkpt lat="45.8463747" lon="11.6676922"><ele>156.2</ele><time>2026-04-19T15:32:44.81Z</time></trkpt><trkpt lat="45.8463013" lon="11.6678334"><ele>156.8</ele><time>2026-04-19T15:32:46.811Z</time></trkpt><trkpt lat="45.8463038" lon="11.6679322"><ele>157.4</ele><time>2026-04-19T15:32:47.811Z</time></trkpt><trkpt lat="45.8463232" lon="11.6680338"><ele>158.0</ele><time>2026-04-19T15:32:48.81Z</time></trkpt><trkpt lat="45.8463519" lon="11.6682021"><ele>155.6</ele><time>2026-04-19T15:32:50.811Z</time></trkpt><trkpt lat="45.8463631" lon="11.6683597"><ele>153.20000000000002</ele><time>2026-04-19T15:32:52.81Z</time></trkpt><trkpt lat="45.8463779" lon="11.6685159"><ele>150.8</ele><time>2026-04-19T15:32:54.81Z</time></trkpt><trkpt lat="45.8463914" lon="11.6686685"><ele>148.4</ele><time>2026-04-19T15:32:56.811Z</time></trkpt><trkpt lat="45.8464039" lon="11.6688158"><ele>146.0</ele><time>2026-04-19T15:32:58.811Z</time></trkpt><trkpt lat="45.8464141" lon="11.6689584"><ele>146.0</ele><time>2026-04-19T15:33:00.811Z</time></trkpt><trkpt lat="45.8464239" lon="11.6690915"><ele>146.0</ele><time>2026-04-19T15:33:02.811Z</time></trkpt><trkpt lat="45.8464323" lon="11.6692389"><ele>146.0</ele><time>2026-04-19T15:33:04.811Z</time></trkpt><trkpt lat="45.8464331" lon="11.6693718"><ele>146.0</ele><time>2026-04-19T15:33:06.812Z</time></trkpt><trkpt lat="45.8464026" lon="11.6694785"><ele>146.0</ele><time>2026-04-19T15:33:08.812Z</time></trkpt><trkpt lat="45.8463235" lon="11.6695424"><ele>145.71428571428572</ele><time>2026-04-19T15:33:10.812Z</time></trkpt><trkpt lat="45.846245" lon="11.6695881"><ele>145.42857142857144</ele><time>2026-04-19T15:33:12.812Z</time></trkpt><trkpt lat="45.8461813" lon="11.6696254"><ele>145.14285714285717</ele><time>2026-04-19T15:33:14.812Z</time></trkpt><trkpt lat="45.8461178" lon="11.6696535"><ele>144.85714285714286</ele><time>2026-04-19T15:33:16.812Z</time></trkpt><trkpt lat="45.846052" lon="11.6696671"><ele>144.57142857142858</ele><time>2026-04-19T15:33:18.812Z</time></trkpt><trkpt lat="45.8459858" lon="11.6696993"><ele>144.2857142857143</ele><time>2026-04-19T15:33:20.812Z</time></trkpt><trkpt lat="45.845913" lon="11.6697318"><ele>144.0</ele><time>2026-04-19T15:33:22.812Z</time></trkpt><trkpt lat="45.8458352" lon="11.6697918"><ele>145.2</ele><time>2026-04-19T15:33:24.811Z</time></trkpt><trkpt lat="45.8457554" lon="11.6698669"><ele>146.4</ele><time>2026-04-19T15:33:26.812Z</time></trkpt><trkpt lat="45.8456807" lon="11.6699434"><ele>147.6</ele><time>2026-04-19T15:33:28.812Z</time></trkpt><trkpt lat="45.8456197" lon="11.6700356"><ele>148.8</ele><time>2026-04-19T15:33:30.812Z</time></trkpt><trkpt lat="45.8455509" lon="11.6701233"><ele>150.0</ele><time>2026-04-19T15:33:32.812Z</time></trkpt><trkpt lat="45.8454811" lon="11.6702115"><ele>149.6</ele><time>2026-04-19T15:33:34.811Z</time></trkpt><trkpt lat="45.8454042" lon="11.6702817"><ele>149.2</ele><time>2026-04-19T15:33:36.812Z</time></trkpt><trkpt lat="45.8453244" lon="11.6703534"><ele>148.8</ele><time>2026-04-19T15:33:38.811Z</time></trkpt><trkpt lat="45.8452416" lon="11.6704191"><ele>148.4</ele><time>2026-04-19T15:33:40.811Z</time></trkpt><trkpt lat="45.845181" lon="11.6705018"><ele>148.0</ele><time>2026-04-19T15:33:42.812Z</time></trkpt><trkpt lat="45.8451094" lon="11.6705986"><ele>148.0</ele><time>2026-04-19T15:33:44.812Z</time></trkpt><trkpt lat="45.8450333" lon="11.6706879"><ele>148.0</ele><time>2026-04-19T15:33:46.812Z</time></trkpt><trkpt lat="45.8449619" lon="11.6707742"><ele>148.0</ele><time>2026-04-19T15:33:48.812Z</time></trkpt><trkpt lat="45.8448903" lon="11.6708537"><ele>148.0</ele><time>2026-04-19T15:33:50.812Z</time></trkpt><trkpt lat="45.8448342" lon="11.670938"><ele>148.0</ele><time>2026-04-19T15:33:52.812Z</time></trkpt><trkpt lat="45.8447693" lon="11.6710027"><ele>148.0</ele><time>2026-04-19T15:33:54.813Z</time></trkpt><trkpt lat="45.8446972" lon="11.671097"><ele>147.83333333333334</ele><time>2026-04-19T15:33:56.813Z</time></trkpt><trkpt lat="45.844625" lon="11.6711936"><ele>147.66666666666669</ele><time>2026-04-19T15:33:58.813Z</time></trkpt><trkpt lat="45.8445512" lon="11.6712881"><ele>147.5</ele><time>2026-04-19T15:34:00.812Z</time></trkpt><trkpt lat="45.844489" lon="11.6713728"><ele>147.33333333333334</ele><time>2026-04-19T15:34:02.812Z</time></trkpt><trkpt lat="45.8444361" lon="11.671443"><ele>147.16666666666666</ele><time>2026-04-19T15:34:04.813Z</time></trkpt><trkpt lat="45.8443706" lon="11.671507"><ele>147.0</ele><time>2026-04-19T15:34:06.813Z</time></trkpt><trkpt lat="45.8443171" lon="11.6715766"><ele>147.0</ele><time>2026-04-19T15:34:08.813Z</time></trkpt><trkpt lat="45.8442545" lon="11.6716551"><ele>147.0</ele><time>2026-04-19T15:34:10.813Z</time></trkpt><trkpt lat="45.8441799" lon="11.6717395"><ele>147.0</ele><time>2026-04-19T15:34:12.813Z</time></trkpt><trkpt lat="45.8441032" lon="11.6718287"><ele>147.0</ele><time>2026-04-19T15:34:14.813Z</time></trkpt><trkpt lat="45.8440238" lon="11.6719035"><ele>147.0</ele><time>2026-04-19T15:34:16.813Z</time></trkpt><trkpt lat="45.843952" lon="11.6719797"><ele>147.0</ele><time>2026-04-19T15:34:18.813Z</time></trkpt><trkpt lat="45.8438838" lon="11.672059"><ele>147.0</ele><time>2026-04-19T15:34:20.813Z</time></trkpt><trkpt lat="45.8438128" lon="11.6721457"><ele>147.0</ele><time>2026-04-19T15:34:22.813Z</time></trkpt><trkpt lat="45.8437276" lon="11.6722265"><ele>147.0</ele><time>2026-04-19T15:34:24.813Z</time></trkpt><trkpt lat="45.8436394" lon="11.6723178"><ele>147.0</ele><time>2026-04-19T15:34:26.813Z</time></trkpt><trkpt lat="45.8435574" lon="11.6724212"><ele>147.0</ele><time>2026-04-19T15:34:28.812Z</time></trkpt><trkpt lat="45.8434887" lon="11.6725366"><ele>147.0</ele><time>2026-04-19T15:34:30.813Z</time></trkpt><trkpt lat="45.8434264" lon="11.6726547"><ele>147.0</ele><time>2026-04-19T15:34:32.813Z</time></trkpt><trkpt lat="45.8433657" lon="11.6727569"><ele>147.0</ele><time>2026-04-19T15:34:34.813Z</time></trkpt><trkpt lat="45.8433061" lon="11.6728849"><ele>147.0</ele><time>2026-04-19T15:34:36.813Z</time></trkpt><trkpt lat="45.8432601" lon="11.6730161"><ele>146.6</ele><time>2026-04-19T15:34:38.813Z</time></trkpt><trkpt lat="45.8432227" lon="11.6731565"><ele>146.2</ele><time>2026-04-19T15:34:40.813Z</time></trkpt><trkpt lat="45.8431833" lon="11.673296"><ele>145.8</ele><time>2026-04-19T15:34:42.813Z</time></trkpt><trkpt lat="45.8431314" lon="11.6734291"><ele>145.4</ele><time>2026-04-19T15:34:44.813Z</time></trkpt><trkpt lat="45.8430667" lon="11.6735693"><ele>145.0</ele><time>2026-04-19T15:34:46.813Z</time></trkpt><trkpt lat="45.842995" lon="11.6737211"><ele>144.71428571428572</ele><time>2026-04-19T15:34:48.814Z</time></trkpt><trkpt lat="45.842962" lon="11.6738034"><ele>144.42857142857144</ele><time>2026-04-19T15:34:49.814Z</time></trkpt><trkpt lat="45.842932" lon="11.6738877"><ele>144.14285714285714</ele><time>2026-04-19T15:34:50.813Z</time></trkpt><trkpt lat="45.8429042" lon="11.6739758"><ele>143.85714285714286</ele><time>2026-04-19T15:34:51.813Z</time></trkpt><trkpt lat="45.8428785" lon="11.6740632"><ele>143.57142857142856</ele><time>2026-04-19T15:34:52.814Z</time></trkpt><trkpt lat="45.842859" lon="11.6741565"><ele>143.28571428571428</ele><time>2026-04-19T15:34:53.813Z</time></trkpt><trkpt lat="45.8428415" lon="11.6742567"><ele>143.0</ele><time>2026-04-19T15:34:54.814Z</time></trkpt><trkpt lat="45.8428243" lon="11.6743553"><ele>142.7142857142857</ele><time>2026-04-19T15:34:55.813Z</time></trkpt><trkpt lat="45.8428061" lon="11.6744538"><ele>142.42857142857142</ele><time>2026-04-19T15:34:56.814Z</time></trkpt><trkpt lat="45.8427868" lon="11.674552"><ele>142.14285714285714</ele><time>2026-04-19T15:34:57.813Z</time></trkpt><trkpt lat="45.8427658" lon="11.6746469"><ele>141.85714285714283</ele><time>2026-04-19T15:34:58.813Z</time></trkpt><trkpt lat="45.8427445" lon="11.6747404"><ele>141.57142857142856</ele><time>2026-04-19T15:34:59.814Z</time></trkpt><trkpt lat="45.8427255" lon="11.6748309"><ele>141.28571428571428</ele><time>2026-04-19T15:35:00.814Z</time></trkpt><trkpt lat="45.8427071" lon="11.6749217"><ele>141.0</ele><time>2026-04-19T15:35:01.814Z</time></trkpt><trkpt lat="45.8426836" lon="11.6750064"><ele>141.2</ele><time>2026-04-19T15:35:02.814Z</time></trkpt><trkpt lat="45.842616" lon="11.6751558"><ele>141.39999999999998</ele><time>2026-04-19T15:35:04.814Z</time></trkpt><trkpt lat="45.8425419" lon="11.6753019"><ele>141.6</ele><time>2026-04-19T15:35:06.813Z</time></trkpt><trkpt lat="45.8425041" lon="11.6753754"><ele>141.79999999999998</ele><time>2026-04-19T15:35:07.814Z</time></trkpt><trkpt lat="45.8424354" lon="11.675523"><ele>142.0</ele><time>2026-04-19T15:35:09.814Z</time></trkpt><trkpt lat="45.8423967" lon="11.6756013"><ele>142.0</ele><time>2026-04-19T15:35:10.813Z</time></trkpt><trkpt lat="45.8423581" lon="11.6756844"><ele>142.0</ele><time>2026-04-19T15:35:11.814Z</time></trkpt><trkpt lat="45.8423168" lon="11.6757761"><ele>142.0</ele><time>2026-04-19T15:35:12.814Z</time></trkpt><trkpt lat="45.8422763" lon="11.6758726"><ele>142.0</ele><time>2026-04-19T15:35:13.813Z</time></trkpt><trkpt lat="45.8422308" lon="11.6759691"><ele>142.0</ele><time>2026-04-19T15:35:14.814Z</time></trkpt><trkpt lat="45.8421863" lon="11.6760688"><ele>142.0</ele><time>2026-04-19T15:35:15.814Z</time></trkpt><trkpt lat="45.8421439" lon="11.6761653"><ele>141.66666666666669</ele><time>2026-04-19T15:35:16.814Z</time></trkpt><trkpt lat="45.8421073" lon="11.6762611"><ele>141.33333333333334</ele><time>2026-04-19T15:35:17.814Z</time></trkpt><trkpt lat="45.8420845" lon="11.676359"><ele>141.0</ele><time>2026-04-19T15:35:18.814Z</time></trkpt><trkpt lat="45.8420682" lon="11.6764641"><ele>140.66666666666666</ele><time>2026-04-19T15:35:19.814Z</time></trkpt><trkpt lat="45.842054" lon="11.6765732"><ele>140.33333333333331</ele><time>2026-04-19T15:35:20.814Z</time></trkpt><trkpt lat="45.8420386" lon="11.676682"><ele>140.0</ele><time>2026-04-19T15:35:21.814Z</time></trkpt><trkpt lat="45.8420259" lon="11.6767901"><ele>140.0</ele><time>2026-04-19T15:35:22.813Z</time></trkpt><trkpt lat="45.8420154" lon="11.676896"><ele>140.0</ele><time>2026-04-19T15:35:23.814Z</time></trkpt><trkpt lat="45.8420039" lon="11.6770006"><ele>140.0</ele><time>2026-04-19T15:35:24.814Z</time></trkpt><trkpt lat="45.8419927" lon="11.677106"><ele>140.0</ele><time>2026-04-19T15:35:25.814Z</time></trkpt><trkpt lat="45.8419802" lon="11.6772093"><ele>140.0</ele><time>2026-04-19T15:35:26.814Z</time></trkpt><trkpt lat="45.841971" lon="11.6773126"><ele>140.0</ele><time>2026-04-19T15:35:27.814Z</time></trkpt><trkpt lat="45.841965" lon="11.6774157"><ele>140.0</ele><time>2026-04-19T15:35:28.814Z</time></trkpt><trkpt lat="45.8419609" lon="11.6775203"><ele>140.14285714285714</ele><time>2026-04-19T15:35:29.814Z</time></trkpt><trkpt lat="45.8419544" lon="11.6776238"><ele>140.28571428571428</ele><time>2026-04-19T15:35:30.814Z</time></trkpt><trkpt lat="45.8419398" lon="11.6777276"><ele>140.42857142857144</ele><time>2026-04-19T15:35:31.814Z</time></trkpt><trkpt lat="45.8419136" lon="11.6778237"><ele>140.57142857142856</ele><time>2026-04-19T15:35:32.814Z</time></trkpt><trkpt lat="45.8418748" lon="11.6779149"><ele>140.71428571428572</ele><time>2026-04-19T15:35:33.814Z</time></trkpt><trkpt lat="45.8418369" lon="11.6780083"><ele>140.85714285714286</ele><time>2026-04-19T15:35:34.814Z</time></trkpt><trkpt lat="45.8418025" lon="11.6781052"><ele>141.0</ele><time>2026-04-19T15:35:35.814Z</time></trkpt><trkpt lat="45.8417721" lon="11.6782017"><ele>141.14285714285714</ele><time>2026-04-19T15:35:36.814Z</time></trkpt><trkpt lat="45.8417419" lon="11.6782952"><ele>141.28571428571428</ele><time>2026-04-19T15:35:37.814Z</time></trkpt><trkpt lat="45.8417139" lon="11.6783918"><ele>141.42857142857142</ele><time>2026-04-19T15:35:38.813Z</time></trkpt><trkpt lat="45.8416847" lon="11.6784818"><ele>141.57142857142856</ele><time>2026-04-19T15:35:39.815Z</time></trkpt><trkpt lat="45.8416557" lon="11.6785706"><ele>141.7142857142857</ele><time>2026-04-19T15:35:40.815Z</time></trkpt><trkpt lat="45.8416269" lon="11.6786586"><ele>141.85714285714286</ele><time>2026-04-19T15:35:41.815Z</time></trkpt><trkpt lat="45.8415977" lon="11.6787481"><ele>142.0</ele><time>2026-04-19T15:35:42.815Z</time></trkpt><trkpt lat="45.8415698" lon="11.6788381"><ele>142.0</ele><time>2026-04-19T15:35:43.815Z</time></trkpt><trkpt lat="45.8415414" lon="11.6789309"><ele>142.0</ele><time>2026-04-19T15:35:44.815Z</time></trkpt><trkpt lat="45.8415124" lon="11.6790219"><ele>142.0</ele><time>2026-04-19T15:35:45.815Z</time></trkpt><trkpt lat="45.8414826" lon="11.6791075"><ele>142.0</ele><time>2026-04-19T15:35:46.815Z</time></trkpt><trkpt lat="45.8414517" lon="11.6791923"><ele>142.0</ele><time>2026-04-19T15:35:47.815Z</time></trkpt><trkpt lat="45.8414221" lon="11.6792746"><ele>142.0</ele><time>2026-04-19T15:35:48.815Z</time></trkpt><trkpt lat="45.84137" lon="11.6794412"><ele>141.33333333333334</ele><time>2026-04-19T15:35:50.815Z</time></trkpt><trkpt lat="45.84134" lon="11.6795283"><ele>140.66666666666669</ele><time>2026-04-19T15:35:51.815Z</time></trkpt><trkpt lat="45.8413112" lon="11.6796139"><ele>140.0</ele><time>2026-04-19T15:35:52.815Z</time></trkpt><trkpt lat="45.8412828" lon="11.6797058"><ele>139.33333333333334</ele><time>2026-04-19T15:35:53.815Z</time></trkpt><trkpt lat="45.8412553" lon="11.6797945"><ele>138.66666666666666</ele><time>2026-04-19T15:35:54.815Z</time></trkpt><trkpt lat="45.8411976" lon="11.679946"><ele>138.0</ele><time>2026-04-19T15:35:56.814Z</time></trkpt><trkpt lat="45.8411714" lon="11.6800314"><ele>138.0</ele><time>2026-04-19T15:35:57.815Z</time></trkpt><trkpt lat="45.8411521" lon="11.6801296"><ele>138.0</ele><time>2026-04-19T15:35:58.814Z</time></trkpt><trkpt lat="45.8411341" lon="11.6802292"><ele>138.0</ele><time>2026-04-19T15:35:59.815Z</time></trkpt><trkpt lat="45.8411126" lon="11.6803272"><ele>138.0</ele><time>2026-04-19T15:36:00.814Z</time></trkpt><trkpt lat="45.8410888" lon="11.6804233"><ele>138.0</ele><time>2026-04-19T15:36:01.815Z</time></trkpt><trkpt lat="45.8410658" lon="11.6805181"><ele>138.0</ele><time>2026-04-19T15:36:02.814Z</time></trkpt><trkpt lat="45.8410442" lon="11.6806116"><ele>138.0</ele><time>2026-04-19T15:36:03.815Z</time></trkpt><trkpt lat="45.8410229" lon="11.6807046"><ele>137.57142857142858</ele><time>2026-04-19T15:36:04.815Z</time></trkpt><trkpt lat="45.8410008" lon="11.6807982"><ele>137.14285714285717</ele><time>2026-04-19T15:36:05.815Z</time></trkpt><trkpt lat="45.8409788" lon="11.6808912"><ele>136.71428571428572</ele><time>2026-04-19T15:36:06.814Z</time></trkpt><trkpt lat="45.8409574" lon="11.6809844"><ele>136.28571428571428</ele><time>2026-04-19T15:36:07.815Z</time></trkpt><trkpt lat="45.8409371" lon="11.6810794"><ele>135.85714285714283</ele><time>2026-04-19T15:36:08.814Z</time></trkpt><trkpt lat="45.8409192" lon="11.6811718"><ele>135.42857142857142</ele><time>2026-04-19T15:36:09.814Z</time></trkpt><trkpt lat="45.8408993" lon="11.6812621"><ele>135.0</ele><time>2026-04-19T15:36:10.814Z</time></trkpt><trkpt lat="45.8408794" lon="11.6813528"><ele>135.28571428571428</ele><time>2026-04-19T15:36:11.814Z</time></trkpt><trkpt lat="45.8408607" lon="11.6814445"><ele>135.57142857142856</ele><time>2026-04-19T15:36:12.815Z</time></trkpt><trkpt lat="45.8408412" lon="11.6815357"><ele>135.85714285714286</ele><time>2026-04-19T15:36:13.815Z</time></trkpt><trkpt lat="45.8408189" lon="11.6816274"><ele>136.14285714285714</ele><time>2026-04-19T15:36:14.815Z</time></trkpt><trkpt lat="45.8407958" lon="11.6817187"><ele>136.42857142857144</ele><time>2026-04-19T15:36:15.815Z</time></trkpt><trkpt lat="45.8407732" lon="11.6818111"><ele>136.71428571428572</ele><time>2026-04-19T15:36:16.814Z</time></trkpt><trkpt lat="45.8407493" lon="11.6818998"><ele>137.0</ele><time>2026-04-19T15:36:17.815Z</time></trkpt><trkpt lat="45.8407262" lon="11.6819926"><ele>137.00000000000003</ele><time>2026-04-19T15:36:18.815Z</time></trkpt><trkpt lat="45.8407008" lon="11.682081"><ele>137.0</ele><time>2026-04-19T15:36:19.815Z</time></trkpt><trkpt lat="45.840671" lon="11.6821632"><ele>137.0</ele><time>2026-04-19T15:36:20.815Z</time></trkpt><trkpt lat="45.8406372" lon="11.6822411"><ele>137.0</ele><time>2026-04-19T15:36:21.815Z</time></trkpt><trkpt lat="45.8405987" lon="11.6823133"><ele>137.0</ele><time>2026-04-19T15:36:22.815Z</time></trkpt><trkpt lat="45.8405523" lon="11.6823954"><ele>137.00000000000003</ele><time>2026-04-19T15:36:23.815Z</time></trkpt><trkpt lat="45.8405056" lon="11.6824674"><ele>137.0</ele><time>2026-04-19T15:36:24.814Z</time></trkpt><trkpt lat="45.840457" lon="11.6825359"><ele>137.0</ele><time>2026-04-19T15:36:25.815Z</time></trkpt><trkpt lat="45.8404091" lon="11.6826018"><ele>137.0</ele><time>2026-04-19T15:36:26.815Z</time></trkpt><trkpt lat="45.840361" lon="11.6826679"><ele>137.0</ele><time>2026-04-19T15:36:27.815Z</time></trkpt><trkpt lat="45.8403145" lon="11.6827335"><ele>137.0</ele><time>2026-04-19T15:36:28.815Z</time></trkpt><trkpt lat="45.8402701" lon="11.6827986"><ele>137.0</ele><time>2026-04-19T15:36:29.815Z</time></trkpt><trkpt lat="45.8401859" lon="11.6829317"><ele>137.0</ele><time>2026-04-19T15:36:31.815Z</time></trkpt><trkpt lat="45.8401027" lon="11.6830598"><ele>137.6</ele><time>2026-04-19T15:36:33.816Z</time></trkpt><trkpt lat="45.8400169" lon="11.68319"><ele>138.2</ele><time>2026-04-19T15:36:35.816Z</time></trkpt><trkpt lat="45.8399352" lon="11.6833171"><ele>138.8</ele><time>2026-04-19T15:36:37.816Z</time></trkpt><trkpt lat="45.8398501" lon="11.6834408"><ele>139.4</ele><time>2026-04-19T15:36:39.816Z</time></trkpt><trkpt lat="45.8398039" lon="11.6835047"><ele>140.0</ele><time>2026-04-19T15:36:40.815Z</time></trkpt><trkpt lat="45.8397567" lon="11.6835709"><ele>139.66666666666666</ele><time>2026-04-19T15:36:41.816Z</time></trkpt><trkpt lat="45.8397085" lon="11.6836375"><ele>139.33333333333331</ele><time>2026-04-19T15:36:42.816Z</time></trkpt><trkpt lat="45.8396624" lon="11.6837017"><ele>139.0</ele><time>2026-04-19T15:36:43.815Z</time></trkpt><trkpt lat="45.8396146" lon="11.6837696"><ele>138.66666666666666</ele><time>2026-04-19T15:36:44.816Z</time></trkpt><trkpt lat="45.8395687" lon="11.6838339"><ele>138.33333333333334</ele><time>2026-04-19T15:36:45.815Z</time></trkpt><trkpt lat="45.8395247" lon="11.6839002"><ele>138.0</ele><time>2026-04-19T15:36:46.815Z</time></trkpt><trkpt lat="45.8394352" lon="11.684028"><ele>138.0</ele><time>2026-04-19T15:36:48.815Z</time></trkpt><trkpt lat="45.8393874" lon="11.6840966"><ele>138.0</ele><time>2026-04-19T15:36:49.816Z</time></trkpt><trkpt lat="45.8393389" lon="11.6841722"><ele>138.0</ele><time>2026-04-19T15:36:50.816Z</time></trkpt><trkpt lat="45.8392903" lon="11.6842463"><ele>138.0</ele><time>2026-04-19T15:36:51.816Z</time></trkpt><trkpt lat="45.8392459" lon="11.684315"><ele>138.0</ele><time>2026-04-19T15:36:52.816Z</time></trkpt><trkpt lat="45.8392036" lon="11.684382"><ele>138.0</ele><time>2026-04-19T15:36:53.816Z</time></trkpt><trkpt lat="45.8391611" lon="11.6844489"><ele>138.0</ele><time>2026-04-19T15:36:54.816Z</time></trkpt><trkpt lat="45.8391211" lon="11.6845196"><ele>138.20000000000002</ele><time>2026-04-19T15:36:55.815Z</time></trkpt><trkpt lat="45.8390768" lon="11.6845892"><ele>138.4</ele><time>2026-04-19T15:36:56.815Z</time></trkpt><trkpt lat="45.8390334" lon="11.6846574"><ele>138.60000000000002</ele><time>2026-04-19T15:36:57.815Z</time></trkpt><trkpt lat="45.838949" lon="11.6847892"><ele>138.8</ele><time>2026-04-19T15:36:59.816Z</time></trkpt><trkpt lat="45.8388676" lon="11.6849168"><ele>139.0</ele><time>2026-04-19T15:37:01.816Z</time></trkpt><trkpt lat="45.8387923" lon="11.6850272"><ele>139.0</ele><time>2026-04-19T15:37:03.816Z</time></trkpt><trkpt lat="45.8387197" lon="11.685147"><ele>139.0</ele><time>2026-04-19T15:37:05.816Z</time></trkpt><trkpt lat="45.8386531" lon="11.6852579"><ele>139.0</ele><time>2026-04-19T15:37:07.816Z</time></trkpt><trkpt lat="45.8385923" lon="11.6853648"><ele>139.0</ele><time>2026-04-19T15:37:09.816Z</time></trkpt><trkpt lat="45.8385398" lon="11.6854794"><ele>139.0</ele><time>2026-04-19T15:37:11.817Z</time></trkpt><trkpt lat="45.8384828" lon="11.6855875"><ele>139.0</ele><time>2026-04-19T15:37:13.816Z</time></trkpt><trkpt lat="45.8384245" lon="11.6856865"><ele>139.0</ele><time>2026-04-19T15:37:15.816Z</time></trkpt><trkpt lat="45.8383702" lon="11.6858059"><ele>139.0</ele><time>2026-04-19T15:37:17.816Z</time></trkpt><trkpt lat="45.8383151" lon="11.6859123"><ele>139.0</ele><time>2026-04-19T15:37:19.816Z</time></trkpt><trkpt lat="45.8382611" lon="11.6860231"><ele>139.0</ele><time>2026-04-19T15:37:21.815Z</time></trkpt><trkpt lat="45.8382031" lon="11.6861307"><ele>139.0</ele><time>2026-04-19T15:37:23.816Z</time></trkpt><trkpt lat="45.8381402" lon="11.6862403"><ele>139.0</ele><time>2026-04-19T15:37:25.816Z</time></trkpt><trkpt lat="45.838076" lon="11.6863548"><ele>139.0</ele><time>2026-04-19T15:37:27.816Z</time></trkpt><trkpt lat="45.8380088" lon="11.6864844"><ele>139.0</ele><time>2026-04-19T15:37:29.817Z</time></trkpt><trkpt lat="45.8379374" lon="11.6866231"><ele>139.0</ele><time>2026-04-19T15:37:31.817Z</time></trkpt><trkpt lat="45.8378984" lon="11.6866957"><ele>139.0</ele><time>2026-04-19T15:37:32.816Z</time></trkpt><trkpt lat="45.837859" lon="11.6867714"><ele>139.0</ele><time>2026-04-19T15:37:33.817Z</time></trkpt><trkpt lat="45.837818" lon="11.6868495"><ele>139.0</ele><time>2026-04-19T15:37:34.816Z</time></trkpt><trkpt lat="45.8377769" lon="11.6869302"><ele>139.0</ele><time>2026-04-19T15:37:35.817Z</time></trkpt><trkpt lat="45.8377345" lon="11.6870126"><ele>139.0</ele><time>2026-04-19T15:37:36.817Z</time></trkpt><trkpt lat="45.8376918" lon="11.6870964"><ele>139.0</ele><time>2026-04-19T15:37:37.816Z</time></trkpt><trkpt lat="45.8376477" lon="11.6871788"><ele>139.0</ele><time>2026-04-19T15:37:38.817Z</time></trkpt><trkpt lat="45.8376051" lon="11.6872585"><ele>138.57142857142856</ele><time>2026-04-19T15:37:39.817Z</time></trkpt><trkpt lat="45.837565" lon="11.6873347"><ele>138.14285714285714</ele><time>2026-04-19T15:37:40.817Z</time></trkpt><trkpt lat="45.8375242" lon="11.6874125"><ele>137.71428571428572</ele><time>2026-04-19T15:37:41.817Z</time></trkpt><trkpt lat="45.8374843" lon="11.6874877"><ele>137.28571428571428</ele><time>2026-04-19T15:37:42.816Z</time></trkpt><trkpt lat="45.8374453" lon="11.6875626"><ele>136.85714285714286</ele><time>2026-04-19T15:37:43.816Z</time></trkpt><trkpt lat="45.837408" lon="11.6876378"><ele>136.42857142857142</ele><time>2026-04-19T15:37:44.817Z</time></trkpt><trkpt lat="45.8373698" lon="11.6877118"><ele>136.0</ele><time>2026-04-19T15:37:45.817Z</time></trkpt><trkpt lat="45.83733" lon="11.6877852"><ele>135.99999999999997</ele><time>2026-04-19T15:37:46.817Z</time></trkpt><trkpt lat="45.8372911" lon="11.687864"><ele>136.0</ele><time>2026-04-19T15:37:47.816Z</time></trkpt><trkpt lat="45.8372517" lon="11.6879428"><ele>136.0</ele><time>2026-04-19T15:37:48.817Z</time></trkpt><trkpt lat="45.8372117" lon="11.6880189"><ele>136.0</ele><time>2026-04-19T15:37:49.816Z</time></trkpt><trkpt lat="45.8371723" lon="11.6880945"><ele>136.0</ele><time>2026-04-19T15:37:50.817Z</time></trkpt><trkpt lat="45.8371338" lon="11.6881711"><ele>135.99999999999997</ele><time>2026-04-19T15:37:51.817Z</time></trkpt><trkpt lat="45.8370933" lon="11.6882506"><ele>136.0</ele><time>2026-04-19T15:37:52.817Z</time></trkpt><trkpt lat="45.8370517" lon="11.6883265"><ele>135.99999999999997</ele><time>2026-04-19T15:37:53.817Z</time></trkpt><trkpt lat="45.8370056" lon="11.688405"><ele>136.0</ele><time>2026-04-19T15:37:54.817Z</time></trkpt><trkpt lat="45.836958" lon="11.688478"><ele>136.0</ele><time>2026-04-19T15:37:55.817Z</time></trkpt><trkpt lat="45.83691" lon="11.688548"><ele>136.0</ele><time>2026-04-19T15:37:56.816Z</time></trkpt><trkpt lat="45.8368608" lon="11.6886136"><ele>136.0</ele><time>2026-04-19T15:37:57.817Z</time></trkpt><trkpt lat="45.8368101" lon="11.6886776"><ele>135.99999999999997</ele><time>2026-04-19T15:37:58.817Z</time></trkpt><trkpt lat="45.8367599" lon="11.6887446"><ele>136.0</ele><time>2026-04-19T15:37:59.817Z</time></trkpt><trkpt lat="45.8367101" lon="11.6888143"><ele>136.7142857142857</ele><time>2026-04-19T15:38:00.816Z</time></trkpt><trkpt lat="45.8366596" lon="11.6888842"><ele>137.42857142857142</ele><time>2026-04-19T15:38:01.817Z</time></trkpt><trkpt lat="45.8366068" lon="11.6889537"><ele>138.14285714285714</ele><time>2026-04-19T15:38:02.817Z</time></trkpt><trkpt lat="45.8365547" lon="11.6890221"><ele>138.85714285714283</ele><time>2026-04-19T15:38:03.817Z</time></trkpt><trkpt lat="45.8365043" lon="11.6890892"><ele>139.57142857142856</ele><time>2026-04-19T15:38:04.816Z</time></trkpt><trkpt lat="45.836454" lon="11.6891586"><ele>140.28571428571428</ele><time>2026-04-19T15:38:05.817Z</time></trkpt><trkpt lat="45.836405" lon="11.6892253"><ele>141.0</ele><time>2026-04-19T15:38:06.817Z</time></trkpt><trkpt lat="45.8363552" lon="11.6892904"><ele>141.0</ele><time>2026-04-19T15:38:07.816Z</time></trkpt><trkpt lat="45.836306" lon="11.6893525"><ele>141.0</ele><time>2026-04-19T15:38:08.817Z</time></trkpt><trkpt lat="45.8362579" lon="11.6894151"><ele>141.0</ele><time>2026-04-19T15:38:09.817Z</time></trkpt><trkpt lat="45.8362092" lon="11.6894836"><ele>141.0</ele><time>2026-04-19T15:38:10.817Z</time></trkpt><trkpt lat="45.8361617" lon="11.6895522"><ele>141.0</ele><time>2026-04-19T15:38:11.817Z</time></trkpt><trkpt lat="45.8361143" lon="11.6896171"><ele>141.0</ele><time>2026-04-19T15:38:12.816Z</time></trkpt><trkpt lat="45.8360668" lon="11.6896808"><ele>141.0</ele><time>2026-04-19T15:38:13.817Z</time></trkpt><trkpt lat="45.8360207" lon="11.6897462"><ele>141.0</ele><time>2026-04-19T15:38:14.817Z</time></trkpt><trkpt lat="45.8359761" lon="11.6898103"><ele>141.0</ele><time>2026-04-19T15:38:15.817Z</time></trkpt><trkpt lat="45.8358849" lon="11.6899319"><ele>141.0</ele><time>2026-04-19T15:38:17.818Z</time></trkpt><trkpt lat="45.8357951" lon="11.6900562"><ele>141.0</ele><time>2026-04-19T15:38:19.818Z</time></trkpt><trkpt lat="45.8357502" lon="11.6901215"><ele>141.0</ele><time>2026-04-19T15:38:20.818Z</time></trkpt><trkpt lat="45.8356677" lon="11.6902426"><ele>140.4</ele><time>2026-04-19T15:38:22.818Z</time></trkpt><trkpt lat="45.8355852" lon="11.6903648"><ele>139.8</ele><time>2026-04-19T15:38:24.817Z</time></trkpt><trkpt lat="45.8355042" lon="11.6904912"><ele>139.20000000000002</ele><time>2026-04-19T15:38:26.818Z</time></trkpt><trkpt lat="45.8354238" lon="11.6906222"><ele>138.6</ele><time>2026-04-19T15:38:28.818Z</time></trkpt><trkpt lat="45.8353828" lon="11.690691"><ele>138.0</ele><time>2026-04-19T15:38:29.818Z</time></trkpt><trkpt lat="45.8353392" lon="11.6907596"><ele>138.0</ele><time>2026-04-19T15:38:30.817Z</time></trkpt><trkpt lat="45.8352957" lon="11.6908259"><ele>138.0</ele><time>2026-04-19T15:38:31.818Z</time></trkpt><trkpt lat="45.8352104" lon="11.6909589"><ele>138.0</ele><time>2026-04-19T15:38:33.818Z</time></trkpt><trkpt lat="45.8351315" lon="11.6910949"><ele>138.0</ele><time>2026-04-19T15:38:35.817Z</time></trkpt><trkpt lat="45.8350898" lon="11.6911628"><ele>138.0</ele><time>2026-04-19T15:38:36.818Z</time></trkpt><trkpt lat="45.8350037" lon="11.6912902"><ele>137.8</ele><time>2026-04-19T15:38:38.817Z</time></trkpt><trkpt lat="45.8349223" lon="11.6914241"><ele>137.60000000000002</ele><time>2026-04-19T15:38:40.818Z</time></trkpt><trkpt lat="45.8348436" lon="11.6915643"><ele>137.39999999999998</ele><time>2026-04-19T15:38:42.818Z</time></trkpt><trkpt lat="45.834768" lon="11.6917058"><ele>137.2</ele><time>2026-04-19T15:38:44.818Z</time></trkpt><trkpt lat="45.8347305" lon="11.6917813"><ele>137.0</ele><time>2026-04-19T15:38:45.817Z</time></trkpt><trkpt lat="45.8346597" lon="11.6919261"><ele>136.85714285714286</ele><time>2026-04-19T15:38:47.818Z</time></trkpt><trkpt lat="45.8346248" lon="11.6920063"><ele>136.71428571428572</ele><time>2026-04-19T15:38:48.817Z</time></trkpt><trkpt lat="45.8345912" lon="11.6920874"><ele>136.57142857142856</ele><time>2026-04-19T15:38:49.818Z</time></trkpt><trkpt lat="45.8345562" lon="11.6921669"><ele>136.42857142857144</ele><time>2026-04-19T15:38:50.817Z</time></trkpt><trkpt lat="45.8345192" lon="11.6922465"><ele>136.28571428571428</ele><time>2026-04-19T15:38:51.818Z</time></trkpt><trkpt lat="45.8344817" lon="11.6923234"><ele>136.14285714285714</ele><time>2026-04-19T15:38:52.818Z</time></trkpt><trkpt lat="45.8344458" lon="11.692403"><ele>136.0</ele><time>2026-04-19T15:38:53.818Z</time></trkpt><trkpt lat="45.8344116" lon="11.692487"><ele>135.99999999999997</ele><time>2026-04-19T15:38:54.817Z</time></trkpt><trkpt lat="45.8343766" lon="11.6925727"><ele>136.0</ele><time>2026-04-19T15:38:55.818Z</time></trkpt><trkpt lat="45.8343415" lon="11.6926558"><ele>136.0</ele><time>2026-04-19T15:38:56.818Z</time></trkpt><trkpt lat="45.8343065" lon="11.692738"><ele>136.0</ele><time>2026-04-19T15:38:57.818Z</time></trkpt><trkpt lat="45.8342714" lon="11.6928174"><ele>136.0</ele><time>2026-04-19T15:38:58.818Z</time></trkpt><trkpt lat="45.8342368" lon="11.6929002"><ele>135.99999999999997</ele><time>2026-04-19T15:38:59.818Z</time></trkpt><trkpt lat="45.8342015" lon="11.6929846"><ele>136.0</ele><time>2026-04-19T15:39:00.819Z</time></trkpt><trkpt lat="45.8341667" lon="11.6930698"><ele>135.85714285714283</ele><time>2026-04-19T15:39:01.818Z</time></trkpt><trkpt lat="45.8341318" lon="11.6931528"><ele>135.71428571428572</ele><time>2026-04-19T15:39:02.818Z</time></trkpt><trkpt lat="45.8340976" lon="11.6932358"><ele>135.57142857142856</ele><time>2026-04-19T15:39:03.817Z</time></trkpt><trkpt lat="45.8340608" lon="11.6933242"><ele>135.42857142857142</ele><time>2026-04-19T15:39:04.818Z</time></trkpt><trkpt lat="45.8340218" lon="11.6934137"><ele>135.28571428571428</ele><time>2026-04-19T15:39:05.819Z</time></trkpt><trkpt lat="45.8339803" lon="11.693505"><ele>135.14285714285714</ele><time>2026-04-19T15:39:06.818Z</time></trkpt><trkpt lat="45.8339383" lon="11.6935992"><ele>135.0</ele><time>2026-04-19T15:39:07.819Z</time></trkpt><trkpt lat="45.8338984" lon="11.6936977"><ele>135.0</ele><time>2026-04-19T15:39:08.819Z</time></trkpt><trkpt lat="45.8338587" lon="11.6937941"><ele>135.0</ele><time>2026-04-19T15:39:09.818Z</time></trkpt><trkpt lat="45.8338158" lon="11.6938867"><ele>135.0</ele><time>2026-04-19T15:39:10.818Z</time></trkpt><trkpt lat="45.8337693" lon="11.6939756"><ele>135.0</ele><time>2026-04-19T15:39:11.818Z</time></trkpt><trkpt lat="45.8337219" lon="11.6940654"><ele>135.0</ele><time>2026-04-19T15:39:12.819Z</time></trkpt><trkpt lat="45.8336779" lon="11.694158"><ele>135.0</ele><time>2026-04-19T15:39:13.819Z</time></trkpt><trkpt lat="45.8336365" lon="11.6942523"><ele>135.0</ele><time>2026-04-19T15:39:14.819Z</time></trkpt><trkpt lat="45.8335953" lon="11.6943449"><ele>135.0</ele><time>2026-04-19T15:39:15.818Z</time></trkpt><trkpt lat="45.8335544" lon="11.6944394"><ele>135.0</ele><time>2026-04-19T15:39:16.818Z</time></trkpt><trkpt lat="45.8335138" lon="11.6945321"><ele>135.0</ele><time>2026-04-19T15:39:17.818Z</time></trkpt><trkpt lat="45.833473" lon="11.694628"><ele>135.0</ele><time>2026-04-19T15:39:18.818Z</time></trkpt><trkpt lat="45.8334345" lon="11.6947211"><ele>135.0</ele><time>2026-04-19T15:39:19.819Z</time></trkpt><trkpt lat="45.8333985" lon="11.6948102"><ele>135.2</ele><time>2026-04-19T15:39:20.819Z</time></trkpt><trkpt lat="45.8333649" lon="11.6948932"><ele>135.4</ele><time>2026-04-19T15:39:21.819Z</time></trkpt><trkpt lat="45.8333325" lon="11.694973"><ele>135.6</ele><time>2026-04-19T15:39:22.819Z</time></trkpt><trkpt lat="45.8332689" lon="11.6951277"><ele>135.8</ele><time>2026-04-19T15:39:24.819Z</time></trkpt><trkpt lat="45.8332097" lon="11.6952751"><ele>136.0</ele><time>2026-04-19T15:39:26.819Z</time></trkpt><trkpt lat="45.8331462" lon="11.6954129"><ele>136.0</ele><time>2026-04-19T15:39:28.818Z</time></trkpt><trkpt lat="45.8330765" lon="11.6955495"><ele>136.0</ele><time>2026-04-19T15:39:30.818Z</time></trkpt><trkpt lat="45.8330015" lon="11.6956935"><ele>136.0</ele><time>2026-04-19T15:39:32.819Z</time></trkpt><trkpt lat="45.8329584" lon="11.6957635"><ele>136.0</ele><time>2026-04-19T15:39:33.819Z</time></trkpt><trkpt lat="45.8329112" lon="11.6958318"><ele>136.0</ele><time>2026-04-19T15:39:34.819Z</time></trkpt><trkpt lat="45.8328646" lon="11.6958974"><ele>136.0</ele><time>2026-04-19T15:39:35.819Z</time></trkpt><trkpt lat="45.8328176" lon="11.6959631"><ele>136.0</ele><time>2026-04-19T15:39:36.819Z</time></trkpt><trkpt lat="45.8327712" lon="11.696025"><ele>136.0</ele><time>2026-04-19T15:39:37.819Z</time></trkpt><trkpt lat="45.8327226" lon="11.6960828"><ele>136.0</ele><time>2026-04-19T15:39:38.819Z</time></trkpt><trkpt lat="45.8326718" lon="11.6961412"><ele>136.0</ele><time>2026-04-19T15:39:39.818Z</time></trkpt><trkpt lat="45.8326211" lon="11.6961977"><ele>136.0</ele><time>2026-04-19T15:39:40.818Z</time></trkpt><trkpt lat="45.8325232" lon="11.6963032"><ele>136.0</ele><time>2026-04-19T15:39:42.819Z</time></trkpt><trkpt lat="45.8324235" lon="11.6964087"><ele>136.14285714285714</ele><time>2026-04-19T15:39:44.818Z</time></trkpt><trkpt lat="45.8323684" lon="11.6964622"><ele>136.28571428571428</ele><time>2026-04-19T15:39:45.819Z</time></trkpt><trkpt lat="45.8323142" lon="11.696516"><ele>136.42857142857144</ele><time>2026-04-19T15:39:46.818Z</time></trkpt><trkpt lat="45.8322609" lon="11.6965713"><ele>136.57142857142856</ele><time>2026-04-19T15:39:47.819Z</time></trkpt><trkpt lat="45.8322086" lon="11.6966264"><ele>136.71428571428572</ele><time>2026-04-19T15:39:48.819Z</time></trkpt><trkpt lat="45.8321551" lon="11.6966815"><ele>136.85714285714286</ele><time>2026-04-19T15:39:49.819Z</time></trkpt><trkpt lat="45.8321014" lon="11.6967378"><ele>137.0</ele><time>2026-04-19T15:39:50.819Z</time></trkpt><trkpt lat="45.8320466" lon="11.696795"><ele>137.0</ele><time>2026-04-19T15:39:51.818Z</time></trkpt><trkpt lat="45.8319934" lon="11.6968507"><ele>137.0</ele><time>2026-04-19T15:39:52.818Z</time></trkpt><trkpt lat="45.831939" lon="11.6969053"><ele>137.0</ele><time>2026-04-19T15:39:53.818Z</time></trkpt><trkpt lat="45.8318843" lon="11.696956"><ele>137.0</ele><time>2026-04-19T15:39:54.819Z</time></trkpt><trkpt lat="45.8318299" lon="11.6970058"><ele>137.0</ele><time>2026-04-19T15:39:55.82Z</time></trkpt><trkpt lat="45.8317257" lon="11.6971077"><ele>137.0</ele><time>2026-04-19T15:39:57.818Z</time></trkpt><trkpt lat="45.8316224" lon="11.6972097"><ele>136.75</ele><time>2026-04-19T15:39:59.819Z</time></trkpt><trkpt lat="45.8315201" lon="11.6973104"><ele>136.5</ele><time>2026-04-19T15:40:01.819Z</time></trkpt><trkpt lat="45.8314239" lon="11.6974077"><ele>136.25</ele><time>2026-04-19T15:40:03.82Z</time></trkpt><trkpt lat="45.8313227" lon="11.6975092"><ele>136.0</ele><time>2026-04-19T15:40:05.819Z</time></trkpt><trkpt lat="45.8312253" lon="11.6976046"><ele>136.0</ele><time>2026-04-19T15:40:07.82Z</time></trkpt><trkpt lat="45.8311311" lon="11.6976943"><ele>136.0</ele><time>2026-04-19T15:40:09.82Z</time></trkpt><trkpt lat="45.8310353" lon="11.6977875"><ele>136.0</ele><time>2026-04-19T15:40:11.82Z</time></trkpt><trkpt lat="45.8309434" lon="11.6978738"><ele>136.0</ele><time>2026-04-19T15:40:13.82Z</time></trkpt><trkpt lat="45.8308569" lon="11.697964"><ele>136.0</ele><time>2026-04-19T15:40:15.82Z</time></trkpt><trkpt lat="45.8307741" lon="11.6980458"><ele>136.6</ele><time>2026-04-19T15:40:17.82Z</time></trkpt><trkpt lat="45.8306947" lon="11.6981301"><ele>137.2</ele><time>2026-04-19T15:40:19.819Z</time></trkpt><trkpt lat="45.8306145" lon="11.6982135"><ele>137.8</ele><time>2026-04-19T15:40:21.82Z</time></trkpt><trkpt lat="45.8305355" lon="11.6982816"><ele>138.4</ele><time>2026-04-19T15:40:23.82Z</time></trkpt><trkpt lat="45.8304704" lon="11.6983579"><ele>139.0</ele><time>2026-04-19T15:40:25.82Z</time></trkpt><trkpt lat="45.8303946" lon="11.6984403"><ele>139.0</ele><time>2026-04-19T15:40:27.82Z</time></trkpt><trkpt lat="45.8303211" lon="11.6985072"><ele>139.0</ele><time>2026-04-19T15:40:29.82Z</time></trkpt><trkpt lat="45.8302589" lon="11.698565"><ele>139.0</ele><time>2026-04-19T15:40:31.82Z</time></trkpt><trkpt lat="45.8301887" lon="11.698639"><ele>139.0</ele><time>2026-04-19T15:40:33.82Z</time></trkpt><trkpt lat="45.8301093" lon="11.6987123"><ele>139.0</ele><time>2026-04-19T15:40:35.82Z</time></trkpt><trkpt lat="45.8300284" lon="11.6987858"><ele>139.0</ele><time>2026-04-19T15:40:37.82Z</time></trkpt><trkpt lat="45.829944" lon="11.6988782"><ele>140.0</ele><time>2026-04-19T15:40:39.82Z</time></trkpt><trkpt lat="45.8298546" lon="11.6989476"><ele>141.0</ele><time>2026-04-19T15:40:41.819Z</time></trkpt><trkpt lat="45.8297753" lon="11.6990356"><ele>142.0</ele><time>2026-04-19T15:40:43.82Z</time></trkpt><trkpt lat="45.8296983" lon="11.6991171"><ele>143.0</ele><time>2026-04-19T15:40:45.82Z</time></trkpt><trkpt lat="45.8296197" lon="11.6991843"><ele>144.0</ele><time>2026-04-19T15:40:47.82Z</time></trkpt><trkpt lat="45.8295397" lon="11.6992452"><ele>144.0</ele><time>2026-04-19T15:40:49.819Z</time></trkpt><trkpt lat="45.8294635" lon="11.6993138"><ele>144.0</ele><time>2026-04-19T15:40:51.82Z</time></trkpt><trkpt lat="45.8293876" lon="11.6993828"><ele>144.0</ele><time>2026-04-19T15:40:53.82Z</time></trkpt><trkpt lat="45.8293181" lon="11.6994469"><ele>144.0</ele><time>2026-04-19T15:40:55.82Z</time></trkpt><trkpt lat="45.8292383" lon="11.6995182"><ele>144.0</ele><time>2026-04-19T15:40:57.821Z</time></trkpt><trkpt lat="45.8291582" lon="11.6995865"><ele>143.5</ele><time>2026-04-19T15:40:59.82Z</time></trkpt><trkpt lat="45.8290785" lon="11.6996456"><ele>143.0</ele><time>2026-04-19T15:41:01.821Z</time></trkpt><trkpt lat="45.8289968" lon="11.6997221"><ele>142.5</ele><time>2026-04-19T15:41:03.82Z</time></trkpt><trkpt lat="45.8289355" lon="11.6997712"><ele>142.0</ele><time>2026-04-19T15:41:05.821Z</time></trkpt><trkpt lat="45.8288793" lon="11.6998318"><ele>141.5</ele><time>2026-04-19T15:41:07.821Z</time></trkpt><trkpt lat="45.8288193" lon="11.699873"><ele>141.0</ele><time>2026-04-19T15:41:09.821Z</time></trkpt><trkpt lat="45.8287452" lon="11.6999219"><ele>141.0</ele><time>2026-04-19T15:41:11.821Z</time></trkpt><trkpt lat="45.8286765" lon="11.6999644"><ele>141.0</ele><time>2026-04-19T15:41:13.821Z</time></trkpt><trkpt lat="45.8286133" lon="11.7000246"><ele>141.0</ele><time>2026-04-19T15:41:15.82Z</time></trkpt><trkpt lat="45.8285244" lon="11.7001047"><ele>141.0</ele><time>2026-04-19T15:41:17.82Z</time></trkpt><trkpt lat="45.8284241" lon="11.7002058"><ele>141.0</ele><time>2026-04-19T15:41:19.821Z</time></trkpt><trkpt lat="45.8283179" lon="11.7002983"><ele>140.4</ele><time>2026-04-19T15:41:21.821Z</time></trkpt><trkpt lat="45.8282609" lon="11.7003419"><ele>139.8</ele><time>2026-04-19T15:41:22.821Z</time></trkpt><trkpt lat="45.8282049" lon="11.7003892"><ele>139.20000000000002</ele><time>2026-04-19T15:41:23.821Z</time></trkpt><trkpt lat="45.828107" lon="11.7004808"><ele>138.6</ele><time>2026-04-19T15:41:25.821Z</time></trkpt><trkpt lat="45.8280227" lon="11.7005928"><ele>138.0</ele><time>2026-04-19T15:41:27.82Z</time></trkpt><trkpt lat="45.8279318" lon="11.7007077"><ele>138.0</ele><time>2026-04-19T15:41:29.821Z</time></trkpt><trkpt lat="45.8278384" lon="11.7008267"><ele>138.0</ele><time>2026-04-19T15:41:31.821Z</time></trkpt><trkpt lat="45.8277558" lon="11.7009549"><ele>138.0</ele><time>2026-04-19T15:41:33.821Z</time></trkpt><trkpt lat="45.827671" lon="11.7010775"><ele>138.0</ele><time>2026-04-19T15:41:35.821Z</time></trkpt><trkpt lat="45.8275889" lon="11.7011934"><ele>138.25</ele><time>2026-04-19T15:41:37.822Z</time></trkpt><trkpt lat="45.8275085" lon="11.7013084"><ele>138.5</ele><time>2026-04-19T15:41:39.821Z</time></trkpt><trkpt lat="45.8274221" lon="11.7014177"><ele>138.75</ele><time>2026-04-19T15:41:41.82Z</time></trkpt><trkpt lat="45.8273468" lon="11.7015339"><ele>139.0</ele><time>2026-04-19T15:41:43.822Z</time></trkpt><trkpt lat="45.827267" lon="11.7016539"><ele>139.0</ele><time>2026-04-19T15:41:45.822Z</time></trkpt><trkpt lat="45.8271968" lon="11.7017915"><ele>139.0</ele><time>2026-04-19T15:41:47.821Z</time></trkpt><trkpt lat="45.8271232" lon="11.7019313"><ele>139.0</ele><time>2026-04-19T15:41:49.822Z</time></trkpt><trkpt lat="45.8270886" lon="11.7020101"><ele>139.0</ele><time>2026-04-19T15:41:50.822Z</time></trkpt><trkpt lat="45.8270147" lon="11.7021642"><ele>139.0</ele><time>2026-04-19T15:41:52.822Z</time></trkpt><trkpt lat="45.8269835" lon="11.7022516"><ele>138.85714285714286</ele><time>2026-04-19T15:41:53.822Z</time></trkpt><trkpt lat="45.8269554" lon="11.7023396"><ele>138.71428571428572</ele><time>2026-04-19T15:41:54.821Z</time></trkpt><trkpt lat="45.8269248" lon="11.7024238"><ele>138.57142857142858</ele><time>2026-04-19T15:41:55.822Z</time></trkpt><trkpt lat="45.8268888" lon="11.7025053"><ele>138.42857142857144</ele><time>2026-04-19T15:41:56.822Z</time></trkpt><trkpt lat="45.8268484" lon="11.7025851"><ele>138.2857142857143</ele><time>2026-04-19T15:41:57.822Z</time></trkpt><trkpt lat="45.8268041" lon="11.70266"><ele>138.14285714285714</ele><time>2026-04-19T15:41:58.821Z</time></trkpt><trkpt lat="45.8267585" lon="11.7027336"><ele>138.0</ele><time>2026-04-19T15:41:59.821Z</time></trkpt><trkpt lat="45.8267115" lon="11.7028056"><ele>137.57142857142858</ele><time>2026-04-19T15:42:00.822Z</time></trkpt><trkpt lat="45.8266611" lon="11.702875"><ele>137.14285714285717</ele><time>2026-04-19T15:42:01.822Z</time></trkpt><trkpt lat="45.8266066" lon="11.7029407"><ele>136.71428571428572</ele><time>2026-04-19T15:42:02.821Z</time></trkpt><trkpt lat="45.8265502" lon="11.703002"><ele>136.28571428571428</ele><time>2026-04-19T15:42:03.822Z</time></trkpt><trkpt lat="45.8264956" lon="11.7030617"><ele>135.85714285714283</ele><time>2026-04-19T15:42:04.822Z</time></trkpt><trkpt lat="45.8264415" lon="11.7031185"><ele>135.42857142857142</ele><time>2026-04-19T15:42:05.821Z</time></trkpt><trkpt lat="45.8263874" lon="11.7031756"><ele>135.0</ele><time>2026-04-19T15:42:06.822Z</time></trkpt><trkpt lat="45.8263334" lon="11.7032331"><ele>135.0</ele><time>2026-04-19T15:42:07.822Z</time></trkpt><trkpt lat="45.8262804" lon="11.7032878"><ele>135.0</ele><time>2026-04-19T15:42:08.821Z</time></trkpt><trkpt lat="45.8262299" lon="11.7033461"><ele>135.0</ele><time>2026-04-19T15:42:09.822Z</time></trkpt><trkpt lat="45.8261344" lon="11.7034579"><ele>135.0</ele><time>2026-04-19T15:42:11.822Z</time></trkpt><trkpt lat="45.8260849" lon="11.7035152"><ele>135.0</ele><time>2026-04-19T15:42:12.822Z</time></trkpt><trkpt lat="45.8260353" lon="11.7035734"><ele>135.0</ele><time>2026-04-19T15:42:13.822Z</time></trkpt><trkpt lat="45.8259851" lon="11.703635"><ele>135.0</ele><time>2026-04-19T15:42:14.821Z</time></trkpt><trkpt lat="45.8259319" lon="11.7037013"><ele>134.66666666666666</ele><time>2026-04-19T15:42:15.822Z</time></trkpt><trkpt lat="45.8258798" lon="11.703767"><ele>134.33333333333334</ele><time>2026-04-19T15:42:16.822Z</time></trkpt><trkpt lat="45.8258293" lon="11.7038333"><ele>134.0</ele><time>2026-04-19T15:42:17.822Z</time></trkpt><trkpt lat="45.8257807" lon="11.7039014"><ele>133.66666666666669</ele><time>2026-04-19T15:42:18.822Z</time></trkpt><trkpt lat="45.8257327" lon="11.7039682"><ele>133.33333333333334</ele><time>2026-04-19T15:42:19.822Z</time></trkpt><trkpt lat="45.8256839" lon="11.7040303"><ele>133.0</ele><time>2026-04-19T15:42:20.822Z</time></trkpt><trkpt lat="45.8255911" lon="11.7041452"><ele>133.0</ele><time>2026-04-19T15:42:22.822Z</time></trkpt><trkpt lat="45.8255014" lon="11.704263"><ele>133.0</ele><time>2026-04-19T15:42:24.821Z</time></trkpt><trkpt lat="45.8254048" lon="11.7043841"><ele>133.0</ele><time>2026-04-19T15:42:26.821Z</time></trkpt><trkpt lat="45.8253543" lon="11.7044462"><ele>133.0</ele><time>2026-04-19T15:42:27.822Z</time></trkpt><trkpt lat="45.8253062" lon="11.7045085"><ele>133.0</ele><time>2026-04-19T15:42:28.822Z</time></trkpt><trkpt lat="45.8252587" lon="11.7045698"><ele>133.0</ele><time>2026-04-19T15:42:29.822Z</time></trkpt><trkpt lat="45.8252114" lon="11.7046326"><ele>133.14285714285714</ele><time>2026-04-19T15:42:30.823Z</time></trkpt><trkpt lat="45.825163" lon="11.7047"><ele>133.28571428571428</ele><time>2026-04-19T15:42:31.822Z</time></trkpt><trkpt lat="45.8251144" lon="11.7047658"><ele>133.42857142857144</ele><time>2026-04-19T15:42:32.822Z</time></trkpt><trkpt lat="45.8250652" lon="11.7048301"><ele>133.57142857142856</ele><time>2026-04-19T15:42:33.822Z</time></trkpt><trkpt lat="45.8250171" lon="11.7048934"><ele>133.71428571428572</ele><time>2026-04-19T15:42:34.823Z</time></trkpt><trkpt lat="45.8249687" lon="11.7049575"><ele>133.85714285714286</ele><time>2026-04-19T15:42:35.823Z</time></trkpt><trkpt lat="45.8249189" lon="11.7050228"><ele>134.0</ele><time>2026-04-19T15:42:36.823Z</time></trkpt><trkpt lat="45.8248682" lon="11.7050858"><ele>134.0</ele><time>2026-04-19T15:42:37.823Z</time></trkpt><trkpt lat="45.8248199" lon="11.705148"><ele>134.0</ele><time>2026-04-19T15:42:38.823Z</time></trkpt><trkpt lat="45.8247715" lon="11.7052115"><ele>134.0</ele><time>2026-04-19T15:42:39.823Z</time></trkpt><trkpt lat="45.8247204" lon="11.7052776"><ele>134.0</ele><time>2026-04-19T15:42:40.822Z</time></trkpt><trkpt lat="45.8246707" lon="11.7053385"><ele>134.0</ele><time>2026-04-19T15:42:41.822Z</time></trkpt><trkpt lat="45.8246236" lon="11.7053995"><ele>134.0</ele><time>2026-04-19T15:42:42.823Z</time></trkpt><trkpt lat="45.8245763" lon="11.7054618"><ele>134.0</ele><time>2026-04-19T15:42:43.823Z</time></trkpt><trkpt lat="45.8244851" lon="11.7055771"><ele>134.2</ele><time>2026-04-19T15:42:45.822Z</time></trkpt><trkpt lat="45.8244354" lon="11.7056329"><ele>134.4</ele><time>2026-04-19T15:42:46.823Z</time></trkpt><trkpt lat="45.8243351" lon="11.7057378"><ele>134.6</ele><time>2026-04-19T15:42:48.823Z</time></trkpt><trkpt lat="45.8242348" lon="11.7058244"><ele>134.8</ele><time>2026-04-19T15:42:50.822Z</time></trkpt><trkpt lat="45.8241309" lon="11.7059145"><ele>135.0</ele><time>2026-04-19T15:42:52.823Z</time></trkpt><trkpt lat="45.8240298" lon="11.706007"><ele>134.66666666666666</ele><time>2026-04-19T15:42:54.823Z</time></trkpt><trkpt lat="45.8239282" lon="11.7061045"><ele>134.33333333333334</ele><time>2026-04-19T15:42:56.823Z</time></trkpt><trkpt lat="45.8238743" lon="11.7061615"><ele>134.0</ele><time>2026-04-19T15:42:57.823Z</time></trkpt><trkpt lat="45.8238176" lon="11.7062188"><ele>133.66666666666669</ele><time>2026-04-19T15:42:58.823Z</time></trkpt><trkpt lat="45.8237624" lon="11.7062724"><ele>133.33333333333334</ele><time>2026-04-19T15:42:59.823Z</time></trkpt><trkpt lat="45.8237133" lon="11.7063305"><ele>133.0</ele><time>2026-04-19T15:43:00.823Z</time></trkpt><trkpt lat="45.8236195" lon="11.7064425"><ele>133.0</ele><time>2026-04-19T15:43:02.823Z</time></trkpt><trkpt lat="45.8235234" lon="11.7065546"><ele>133.0</ele><time>2026-04-19T15:43:04.822Z</time></trkpt><trkpt lat="45.8234272" lon="11.7066705"><ele>133.0</ele><time>2026-04-19T15:43:06.823Z</time></trkpt><trkpt lat="45.8233799" lon="11.7067311"><ele>133.0</ele><time>2026-04-19T15:43:07.823Z</time></trkpt><trkpt lat="45.8233313" lon="11.706792"><ele>133.0</ele><time>2026-04-19T15:43:08.822Z</time></trkpt><trkpt lat="45.8232802" lon="11.7068535"><ele>133.0</ele><time>2026-04-19T15:43:09.823Z</time></trkpt><trkpt lat="45.823228" lon="11.7069139"><ele>132.71428571428572</ele><time>2026-04-19T15:43:10.823Z</time></trkpt><trkpt lat="45.8231774" lon="11.7069735"><ele>132.42857142857144</ele><time>2026-04-19T15:43:11.823Z</time></trkpt><trkpt lat="45.8231267" lon="11.7070336"><ele>132.14285714285714</ele><time>2026-04-19T15:43:12.823Z</time></trkpt><trkpt lat="45.823074" lon="11.7070943"><ele>131.85714285714286</ele><time>2026-04-19T15:43:13.823Z</time></trkpt><trkpt lat="45.8230244" lon="11.7071532"><ele>131.57142857142858</ele><time>2026-04-19T15:43:14.822Z</time></trkpt><trkpt lat="45.8229744" lon="11.7072125"><ele>131.28571428571428</ele><time>2026-04-19T15:43:15.822Z</time></trkpt><trkpt lat="45.8229239" lon="11.7072748"><ele>131.0</ele><time>2026-04-19T15:43:16.823Z</time></trkpt><trkpt lat="45.8228724" lon="11.7073351"><ele>131.0</ele><time>2026-04-19T15:43:17.823Z</time></trkpt><trkpt lat="45.8228203" lon="11.7073941"><ele>131.0</ele><time>2026-04-19T15:43:18.823Z</time></trkpt><trkpt lat="45.8227696" lon="11.7074521"><ele>131.0</ele><time>2026-04-19T15:43:19.823Z</time></trkpt><trkpt lat="45.8226648" lon="11.7075502"><ele>131.0</ele><time>2026-04-19T15:43:21.823Z</time></trkpt><trkpt lat="45.8225625" lon="11.7076476"><ele>131.0</ele><time>2026-04-19T15:43:23.823Z</time></trkpt><trkpt lat="45.82251" lon="11.7077003"><ele>131.0</ele><time>2026-04-19T15:43:24.822Z</time></trkpt><trkpt lat="45.8224585" lon="11.7077551"><ele>130.42857142857144</ele><time>2026-04-19T15:43:25.824Z</time></trkpt><trkpt lat="45.822404" lon="11.7078116"><ele>129.85714285714286</ele><time>2026-04-19T15:43:26.824Z</time></trkpt><trkpt lat="45.8223475" lon="11.7078697"><ele>129.28571428571428</ele><time>2026-04-19T15:43:27.824Z</time></trkpt><trkpt lat="45.8222895" lon="11.7079319"><ele>128.71428571428572</ele><time>2026-04-19T15:43:28.823Z</time></trkpt><trkpt lat="45.8222298" lon="11.7079946"><ele>128.14285714285714</ele><time>2026-04-19T15:43:29.824Z</time></trkpt><trkpt lat="45.8221751" lon="11.7080544"><ele>127.57142857142858</ele><time>2026-04-19T15:43:30.824Z</time></trkpt><trkpt lat="45.8221216" lon="11.7081127"><ele>127.0</ele><time>2026-04-19T15:43:31.824Z</time></trkpt><trkpt lat="45.8220678" lon="11.7081698"><ele>127.0</ele><time>2026-04-19T15:43:32.823Z</time></trkpt><trkpt lat="45.8220125" lon="11.7082291"><ele>127.0</ele><time>2026-04-19T15:43:33.824Z</time></trkpt><trkpt lat="45.8219595" lon="11.7082869"><ele>127.0</ele><time>2026-04-19T15:43:34.824Z</time></trkpt><trkpt lat="45.8219062" lon="11.7083454"><ele>127.0</ele><time>2026-04-19T15:43:35.824Z</time></trkpt><trkpt lat="45.821852" lon="11.7084062"><ele>127.0</ele><time>2026-04-19T15:43:36.824Z</time></trkpt><trkpt lat="45.8217995" lon="11.7084648"><ele>127.0</ele><time>2026-04-19T15:43:37.824Z</time></trkpt><trkpt lat="45.8217468" lon="11.7085226"><ele>127.0</ele><time>2026-04-19T15:43:38.824Z</time></trkpt><trkpt lat="45.8216932" lon="11.7085829"><ele>126.71428571428572</ele><time>2026-04-19T15:43:39.824Z</time></trkpt><trkpt lat="45.8216391" lon="11.7086465"><ele>126.42857142857142</ele><time>2026-04-19T15:43:40.824Z</time></trkpt><trkpt lat="45.8215855" lon="11.7087127"><ele>126.14285714285714</ele><time>2026-04-19T15:43:41.824Z</time></trkpt><trkpt lat="45.8215305" lon="11.7087797"><ele>125.85714285714286</ele><time>2026-04-19T15:43:42.824Z</time></trkpt><trkpt lat="45.8214766" lon="11.7088449"><ele>125.57142857142858</ele><time>2026-04-19T15:43:43.824Z</time></trkpt><trkpt lat="45.8214232" lon="11.7089095"><ele>125.28571428571428</ele><time>2026-04-19T15:43:44.823Z</time></trkpt><trkpt lat="45.8213704" lon="11.7089763"><ele>125.0</ele><time>2026-04-19T15:43:45.824Z</time></trkpt><trkpt lat="45.821321" lon="11.7090449"><ele>125.0</ele><time>2026-04-19T15:43:46.823Z</time></trkpt><trkpt lat="45.8212717" lon="11.7091206"><ele>125.0</ele><time>2026-04-19T15:43:47.823Z</time></trkpt><trkpt lat="45.8212228" lon="11.7091989"><ele>125.0</ele><time>2026-04-19T15:43:48.823Z</time></trkpt><trkpt lat="45.8211757" lon="11.7092725"><ele>125.0</ele><time>2026-04-19T15:43:49.824Z</time></trkpt><trkpt lat="45.82113" lon="11.7093416"><ele>125.0</ele><time>2026-04-19T15:43:50.824Z</time></trkpt><trkpt lat="45.8210858" lon="11.709411"><ele>125.0</ele><time>2026-04-19T15:43:51.824Z</time></trkpt><trkpt lat="45.8210417" lon="11.7094808"><ele>125.0</ele><time>2026-04-19T15:43:52.823Z</time></trkpt><trkpt lat="45.8210001" lon="11.7095529"><ele>126.5</ele><time>2026-04-19T15:43:53.824Z</time></trkpt><trkpt lat="45.8209273" lon="11.7096779"><ele>128.0</ele><time>2026-04-19T15:43:55.824Z</time></trkpt><trkpt lat="45.8208542" lon="11.7098062"><ele>129.5</ele><time>2026-04-19T15:43:57.824Z</time></trkpt><trkpt lat="45.8207727" lon="11.7099303"><ele>131.0</ele><time>2026-04-19T15:43:59.823Z</time></trkpt><trkpt lat="45.8206887" lon="11.71004"><ele>131.0</ele><time>2026-04-19T15:44:01.824Z</time></trkpt><trkpt lat="45.8205979" lon="11.7101485"><ele>131.0</ele><time>2026-04-19T15:44:03.823Z</time></trkpt><trkpt lat="45.8205073" lon="11.7102437"><ele>131.0</ele><time>2026-04-19T15:44:05.824Z</time></trkpt><trkpt lat="45.8204289" lon="11.7103393"><ele>131.0</ele><time>2026-04-19T15:44:07.824Z</time></trkpt><trkpt lat="45.8203461" lon="11.7104337"><ele>131.0</ele><time>2026-04-19T15:44:09.824Z</time></trkpt><trkpt lat="45.8202529" lon="11.7105365"><ele>132.33333333333331</ele><time>2026-04-19T15:44:11.823Z</time></trkpt><trkpt lat="45.8202032" lon="11.7105949"><ele>133.66666666666666</ele><time>2026-04-19T15:44:12.824Z</time></trkpt><trkpt lat="45.8201505" lon="11.7106511"><ele>135.0</ele><time>2026-04-19T15:44:13.825Z</time></trkpt><trkpt lat="45.8200601" lon="11.7107534"><ele>136.33333333333334</ele><time>2026-04-19T15:44:15.823Z</time></trkpt><trkpt lat="45.8199589" lon="11.7108595"><ele>137.66666666666669</ele><time>2026-04-19T15:44:17.824Z</time></trkpt><trkpt lat="45.8199072" lon="11.7109115"><ele>139.0</ele><time>2026-04-19T15:44:18.825Z</time></trkpt><trkpt lat="45.8198055" lon="11.7110148"><ele>135.25</ele><time>2026-04-19T15:44:20.825Z</time></trkpt><trkpt lat="45.8197078" lon="11.7111098"><ele>131.5</ele><time>2026-04-19T15:44:22.825Z</time></trkpt><trkpt lat="45.8196092" lon="11.7112037"><ele>127.75</ele><time>2026-04-19T15:44:24.825Z</time></trkpt><trkpt lat="45.8195138" lon="11.7113033"><ele>124.0</ele><time>2026-04-19T15:44:26.825Z</time></trkpt><trkpt lat="45.8194224" lon="11.7114099"><ele>124.0</ele><time>2026-04-19T15:44:28.824Z</time></trkpt><trkpt lat="45.8193313" lon="11.7115057"><ele>124.0</ele><time>2026-04-19T15:44:30.825Z</time></trkpt><trkpt lat="45.8192394" lon="11.7116051"><ele>124.0</ele><time>2026-04-19T15:44:32.825Z</time></trkpt><trkpt lat="45.819152" lon="11.7117001"><ele>124.0</ele><time>2026-04-19T15:44:34.825Z</time></trkpt><trkpt lat="45.8190784" lon="11.7118084"><ele>124.0</ele><time>2026-04-19T15:44:36.825Z</time></trkpt><trkpt lat="45.8190215" lon="11.7119312"><ele>125.2</ele><time>2026-04-19T15:44:38.825Z</time></trkpt><trkpt lat="45.8189599" lon="11.7120571"><ele>126.4</ele><time>2026-04-19T15:44:40.825Z</time></trkpt><trkpt lat="45.8188881" lon="11.7121761"><ele>127.6</ele><time>2026-04-19T15:44:42.825Z</time></trkpt><trkpt lat="45.818817" lon="11.7122837"><ele>128.8</ele><time>2026-04-19T15:44:44.825Z</time></trkpt><trkpt lat="45.8187264" lon="11.7123972"><ele>130.0</ele><time>2026-04-19T15:44:46.825Z</time></trkpt><trkpt lat="45.8186368" lon="11.7124926"><ele>130.0</ele><time>2026-04-19T15:44:48.824Z</time></trkpt><trkpt lat="45.8185523" lon="11.7125752"><ele>130.0</ele><time>2026-04-19T15:44:50.825Z</time></trkpt><trkpt lat="45.818468" lon="11.7126586"><ele>130.0</ele><time>2026-04-19T15:44:52.825Z</time></trkpt><trkpt lat="45.81839" lon="11.7127467"><ele>130.0</ele><time>2026-04-19T15:44:54.825Z</time></trkpt><trkpt lat="45.818305" lon="11.7128284"><ele>130.0</ele><time>2026-04-19T15:44:56.824Z</time></trkpt><trkpt lat="45.818226" lon="11.7129102"><ele>130.0</ele><time>2026-04-19T15:44:58.824Z</time></trkpt><trkpt lat="45.8181465" lon="11.7130031"><ele>130.0</ele><time>2026-04-19T15:45:00.824Z</time></trkpt><trkpt lat="45.8180625" lon="11.713086"><ele>130.0</ele><time>2026-04-19T15:45:02.825Z</time></trkpt><trkpt lat="45.8179833" lon="11.7131838"><ele>130.0</ele><time>2026-04-19T15:45:04.825Z</time></trkpt><trkpt lat="45.8178938" lon="11.7132449"><ele>130.0</ele><time>2026-04-19T15:45:06.824Z</time></trkpt><trkpt lat="45.8178174" lon="11.7133182"><ele>130.0</ele><time>2026-04-19T15:45:08.824Z</time></trkpt><trkpt lat="45.8177423" lon="11.7133977"><ele>130.0</ele><time>2026-04-19T15:45:10.826Z</time></trkpt><trkpt lat="45.8176646" lon="11.7134727"><ele>130.0</ele><time>2026-04-19T15:45:12.825Z</time></trkpt><trkpt lat="45.8175844" lon="11.7135536"><ele>130.0</ele><time>2026-04-19T15:45:14.826Z</time></trkpt><trkpt lat="45.8175032" lon="11.7136398"><ele>130.0</ele><time>2026-04-19T15:45:16.826Z</time></trkpt><trkpt lat="45.8174217" lon="11.7137077"><ele>130.2</ele><time>2026-04-19T15:45:18.826Z</time></trkpt><trkpt lat="45.8173352" lon="11.7137676"><ele>130.4</ele><time>2026-04-19T15:45:20.826Z</time></trkpt><trkpt lat="45.817279" lon="11.7138185"><ele>130.6</ele><time>2026-04-19T15:45:22.851Z</time></trkpt><trkpt lat="45.8171938" lon="11.7138682"><ele>130.8</ele><time>2026-04-19T15:45:24.808Z</time></trkpt><trkpt lat="45.8171013" lon="11.7139158"><ele>131.0</ele><time>2026-04-19T15:45:26.875Z</time></trkpt><trkpt lat="45.8170081" lon="11.7139687"><ele>131.0</ele><time>2026-04-19T15:45:28.888Z</time></trkpt><trkpt lat="45.8168992" lon="11.7140365"><ele>131.0</ele><time>2026-04-19T15:45:30.826Z</time></trkpt><trkpt lat="45.816804" lon="11.714113"><ele>131.0</ele><time>2026-04-19T15:45:33.895Z</time></trkpt><trkpt lat="45.8167" lon="11.7141533"><ele>131.0</ele><time>2026-04-19T15:45:35.907Z</time></trkpt><trkpt lat="45.8166146" lon="11.7141862"><ele>131.0</ele><time>2026-04-19T15:45:37.73Z</time></trkpt><trkpt lat="45.8165015" lon="11.7142205"><ele>134.6</ele><time>2026-04-19T15:45:39.825Z</time></trkpt><trkpt lat="45.8163976" lon="11.7142541"><ele>138.2</ele><time>2026-04-19T15:45:41.825Z</time></trkpt><trkpt lat="45.8162961" lon="11.7142801"><ele>141.8</ele><time>2026-04-19T15:45:43.826Z</time></trkpt><trkpt lat="45.8161995" lon="11.7142983"><ele>145.4</ele><time>2026-04-19T15:45:45.826Z</time></trkpt><trkpt lat="45.8160982" lon="11.714313"><ele>149.0</ele><time>2026-04-19T15:45:47.825Z</time></trkpt><trkpt lat="45.8160016" lon="11.714322"><ele>150.83333333333331</ele><time>2026-04-19T15:45:49.825Z</time></trkpt><trkpt lat="45.815914" lon="11.7143413"><ele>152.66666666666666</ele><time>2026-04-19T15:45:51.826Z</time></trkpt><trkpt lat="45.8158283" lon="11.7143597"><ele>154.5</ele><time>2026-04-19T15:45:53.826Z</time></trkpt><trkpt lat="45.8157502" lon="11.7143716"><ele>156.33333333333334</ele><time>2026-04-19T15:45:55.826Z</time></trkpt><trkpt lat="45.8156645" lon="11.7143757"><ele>158.16666666666669</ele><time>2026-04-19T15:45:57.826Z</time></trkpt><trkpt lat="45.815582" lon="11.7143907"><ele>160.0</ele><time>2026-04-19T15:45:59.827Z</time></trkpt><trkpt lat="45.8155096" lon="11.714398"><ele>160.0</ele><time>2026-04-19T15:46:01.847Z</time></trkpt><trkpt lat="45.8154329" lon="11.7143986"><ele>160.0</ele><time>2026-04-19T15:46:03.859Z</time></trkpt><trkpt lat="45.8153601" lon="11.714397"><ele>160.0</ele><time>2026-04-19T15:46:05.871Z</time></trkpt><trkpt lat="45.8152946" lon="11.7144145"><ele>160.0</ele><time>2026-04-19T15:46:08.89Z</time></trkpt><trkpt lat="45.8153516" lon="11.7144576"><ele>160.0</ele><time>2026-04-19T15:46:11.91Z</time></trkpt><trkpt lat="45.8154349" lon="11.7144578"><ele>160.0</ele><time>2026-04-19T15:46:16.84Z</time></trkpt><trkpt lat="45.8155053" lon="11.7144567"><ele>160.0</ele><time>2026-04-19T15:46:20.866Z</time></trkpt><trkpt lat="45.8154181" lon="11.7144103"><ele>160.0</ele><time>2026-04-19T15:46:42.918Z</time></trkpt><trkpt lat="45.8153302" lon="11.7143952"><ele>160.0</ele><time>2026-04-19T15:46:45.837Z</time></trkpt><trkpt lat="45.8152624" lon="11.7143618"><ele>160.0</ele><time>2026-04-19T15:46:47.85Z</time></trkpt><trkpt lat="45.8151954" lon="11.7143358"><ele>160.0</ele><time>2026-04-19T15:46:49.863Z</time></trkpt><trkpt lat="45.8151311" lon="11.7143106"><ele>160.0</ele><time>2026-04-19T15:46:51.875Z</time></trkpt><trkpt lat="45.815065" lon="11.7142882"><ele>160.0</ele><time>2026-04-19T15:46:53.92Z</time></trkpt><trkpt lat="45.815001" lon="11.7142657"><ele>160.0</ele><time>2026-04-19T15:46:55.901Z</time></trkpt><trkpt lat="45.8149334" lon="11.7142423"><ele>158.85714285714286</ele><time>2026-04-19T15:46:57.914Z</time></trkpt><trkpt lat="45.8148668" lon="11.7142256"><ele>157.71428571428572</ele><time>2026-04-19T15:46:59.828Z</time></trkpt><trkpt lat="45.8147987" lon="11.7142005"><ele>156.57142857142856</ele><time>2026-04-19T15:47:01.828Z</time></trkpt><trkpt lat="45.8147249" lon="11.7141849"><ele>155.42857142857144</ele><time>2026-04-19T15:47:03.827Z</time></trkpt><trkpt lat="45.8146484" lon="11.7141635"><ele>154.2857142857143</ele><time>2026-04-19T15:47:05.827Z</time></trkpt><trkpt lat="45.8145751" lon="11.7141376"><ele>153.14285714285714</ele><time>2026-04-19T15:47:07.827Z</time></trkpt><trkpt lat="45.8145039" lon="11.7141203"><ele>152.0</ele><time>2026-04-19T15:47:09.828Z</time></trkpt><trkpt lat="45.8144306" lon="11.7140985"><ele>152.0</ele><time>2026-04-19T15:47:11.828Z</time></trkpt><trkpt lat="45.8143564" lon="11.7140761"><ele>152.0</ele><time>2026-04-19T15:47:13.828Z</time></trkpt><trkpt lat="45.8142809" lon="11.7140538"><ele>152.0</ele><time>2026-04-19T15:47:15.827Z</time></trkpt><trkpt lat="45.8142041" lon="11.7140291"><ele>152.0</ele><time>2026-04-19T15:47:17.828Z</time></trkpt><trkpt lat="45.814128" lon="11.7140071"><ele>152.0</ele><time>2026-04-19T15:47:19.828Z</time></trkpt><trkpt lat="45.8140538" lon="11.7139857"><ele>152.0</ele><time>2026-04-19T15:47:21.828Z</time></trkpt><trkpt lat="45.8139833" lon="11.7139709"><ele>150.33333333333331</ele><time>2026-04-19T15:47:23.827Z</time></trkpt><trkpt lat="45.8139107" lon="11.7139596"><ele>148.66666666666666</ele><time>2026-04-19T15:47:25.827Z</time></trkpt><trkpt lat="45.8138376" lon="11.7139422"><ele>147.0</ele><time>2026-04-19T15:47:27.828Z</time></trkpt><trkpt lat="45.8137666" lon="11.7139269"><ele>145.33333333333334</ele><time>2026-04-19T15:47:29.827Z</time></trkpt><trkpt lat="45.8136927" lon="11.7139105"><ele>143.66666666666669</ele><time>2026-04-19T15:47:31.828Z</time></trkpt><trkpt lat="45.8136157" lon="11.7138884"><ele>142.0</ele><time>2026-04-19T15:47:33.827Z</time></trkpt><trkpt lat="45.8135386" lon="11.7138661"><ele>141.0</ele><time>2026-04-19T15:47:35.828Z</time></trkpt><trkpt lat="45.8134577" lon="11.7138496"><ele>140.0</ele><time>2026-04-19T15:47:37.828Z</time></trkpt><trkpt lat="45.8133798" lon="11.7138324"><ele>139.0</ele><time>2026-04-19T15:47:39.828Z</time></trkpt><trkpt lat="45.8133071" lon="11.71381"><ele>138.0</ele><time>2026-04-19T15:47:41.827Z</time></trkpt><trkpt lat="45.813233" lon="11.713786"><ele>137.0</ele><time>2026-04-19T15:47:43.828Z</time></trkpt><trkpt lat="45.8131569" lon="11.7137629"><ele>136.0</ele><time>2026-04-19T15:47:45.828Z</time></trkpt><trkpt lat="45.8130833" lon="11.7137432"><ele>136.0</ele><time>2026-04-19T15:47:47.828Z</time></trkpt><trkpt lat="45.8130058" lon="11.713728"><ele>136.0</ele><time>2026-04-19T15:47:49.828Z</time></trkpt><trkpt lat="45.8129169" lon="11.7136975"><ele>136.0</ele><time>2026-04-19T15:47:51.829Z</time></trkpt><trkpt lat="45.8128194" lon="11.7136672"><ele>136.0</ele><time>2026-04-19T15:47:53.829Z</time></trkpt><trkpt lat="45.8127203" lon="11.7136446"><ele>136.0</ele><time>2026-04-19T15:47:55.828Z</time></trkpt><trkpt lat="45.8126207" lon="11.7136189"><ele>135.4</ele><time>2026-04-19T15:47:57.828Z</time></trkpt><trkpt lat="45.8125273" lon="11.713585"><ele>134.8</ele><time>2026-04-19T15:47:59.829Z</time></trkpt><trkpt lat="45.812437" lon="11.7135455"><ele>134.20000000000002</ele><time>2026-04-19T15:48:01.829Z</time></trkpt><trkpt lat="45.8123444" lon="11.713517"><ele>133.6</ele><time>2026-04-19T15:48:03.829Z</time></trkpt><trkpt lat="45.8122535" lon="11.7134912"><ele>133.0</ele><time>2026-04-19T15:48:05.829Z</time></trkpt><trkpt lat="45.8121653" lon="11.7134635"><ele>133.16666666666669</ele><time>2026-04-19T15:48:07.829Z</time></trkpt><trkpt lat="45.8120781" lon="11.7134338"><ele>133.33333333333334</ele><time>2026-04-19T15:48:09.829Z</time></trkpt><trkpt lat="45.8119953" lon="11.7134106"><ele>133.5</ele><time>2026-04-19T15:48:11.829Z</time></trkpt><trkpt lat="45.8119233" lon="11.7133653"><ele>133.66666666666666</ele><time>2026-04-19T15:48:13.829Z</time></trkpt><trkpt lat="45.8118386" lon="11.7133471"><ele>133.83333333333331</ele><time>2026-04-19T15:48:15.829Z</time></trkpt><trkpt lat="45.8117491" lon="11.7133242"><ele>134.0</ele><time>2026-04-19T15:48:17.829Z</time></trkpt><trkpt lat="45.8116631" lon="11.7132905"><ele>134.0</ele><time>2026-04-19T15:48:19.828Z</time></trkpt><trkpt lat="45.8115831" lon="11.7132643"><ele>134.0</ele><time>2026-04-19T15:48:21.828Z</time></trkpt><trkpt lat="45.8114961" lon="11.7132468"><ele>134.0</ele><time>2026-04-19T15:48:23.828Z</time></trkpt><trkpt lat="45.8114073" lon="11.7132108"><ele>134.0</ele><time>2026-04-19T15:48:25.829Z</time></trkpt><trkpt lat="45.811323" lon="11.7131788"><ele>134.0</ele><time>2026-04-19T15:48:27.829Z</time></trkpt><trkpt lat="45.811243" lon="11.7131576"><ele>134.0</ele><time>2026-04-19T15:48:29.829Z</time></trkpt><trkpt lat="45.8111629" lon="11.7131339"><ele>134.0</ele><time>2026-04-19T15:48:31.829Z</time></trkpt><trkpt lat="45.8110849" lon="11.7131104"><ele>134.0</ele><time>2026-04-19T15:48:33.829Z</time></trkpt><trkpt lat="45.8110112" lon="11.7130763"><ele>134.0</ele><time>2026-04-19T15:48:35.829Z</time></trkpt><trkpt lat="45.8109406" lon="11.7130589"><ele>134.0</ele><time>2026-04-19T15:48:37.829Z</time></trkpt><trkpt lat="45.8108644" lon="11.7130315"><ele>134.0</ele><time>2026-04-19T15:48:39.828Z</time></trkpt><trkpt lat="45.8107814" lon="11.7130046"><ele>134.0</ele><time>2026-04-19T15:48:41.829Z</time></trkpt><trkpt lat="45.8106981" lon="11.7129738"><ele>133.8</ele><time>2026-04-19T15:48:43.829Z</time></trkpt><trkpt lat="45.8106131" lon="11.7129472"><ele>133.60000000000002</ele><time>2026-04-19T15:48:45.83Z</time></trkpt><trkpt lat="45.8105242" lon="11.7129241"><ele>133.4</ele><time>2026-04-19T15:48:47.83Z</time></trkpt><trkpt lat="45.8104327" lon="11.712892"><ele>133.20000000000002</ele><time>2026-04-19T15:48:49.83Z</time></trkpt><trkpt lat="45.8103403" lon="11.7128686"><ele>133.0</ele><time>2026-04-19T15:48:51.829Z</time></trkpt><trkpt lat="45.8102506" lon="11.7128481"><ele>133.0</ele><time>2026-04-19T15:48:53.829Z</time></trkpt><trkpt lat="45.8101631" lon="11.712813"><ele>133.0</ele><time>2026-04-19T15:48:55.83Z</time></trkpt><trkpt lat="45.8100731" lon="11.7127835"><ele>133.0</ele><time>2026-04-19T15:48:57.83Z</time></trkpt><trkpt lat="45.8099912" lon="11.7127522"><ele>133.0</ele><time>2026-04-19T15:48:59.83Z</time></trkpt><trkpt lat="45.8099048" lon="11.712731"><ele>133.0</ele><time>2026-04-19T15:49:01.83Z</time></trkpt><trkpt lat="45.8098086" lon="11.7126963"><ele>134.0</ele><time>2026-04-19T15:49:03.829Z</time></trkpt><trkpt lat="45.8097282" lon="11.712673"><ele>135.0</ele><time>2026-04-19T15:49:05.83Z</time></trkpt><trkpt lat="45.809641" lon="11.7126491"><ele>136.0</ele><time>2026-04-19T15:49:07.829Z</time></trkpt><trkpt lat="45.8095456" lon="11.7126227"><ele>137.0</ele><time>2026-04-19T15:49:09.829Z</time></trkpt><trkpt lat="45.8094537" lon="11.7125928"><ele>138.0</ele><time>2026-04-19T15:49:11.83Z</time></trkpt><trkpt lat="45.8093594" lon="11.7125597"><ele>138.0</ele><time>2026-04-19T15:49:13.83Z</time></trkpt><trkpt lat="45.8092598" lon="11.712534"><ele>138.0</ele><time>2026-04-19T15:49:15.83Z</time></trkpt><trkpt lat="45.8091616" lon="11.712501"><ele>138.0</ele><time>2026-04-19T15:49:17.829Z</time></trkpt><trkpt lat="45.8090704" lon="11.7124668"><ele>138.0</ele><time>2026-04-19T15:49:19.829Z</time></trkpt><trkpt lat="45.8089642" lon="11.7124383"><ele>138.0</ele><time>2026-04-19T15:49:21.83Z</time></trkpt><trkpt lat="45.8088576" lon="11.7124044"><ele>138.0</ele><time>2026-04-19T15:49:23.829Z</time></trkpt><trkpt lat="45.808761" lon="11.7123763"><ele>138.0</ele><time>2026-04-19T15:49:25.83Z</time></trkpt><trkpt lat="45.8086769" lon="11.7123457"><ele>138.0</ele><time>2026-04-19T15:49:27.83Z</time></trkpt><trkpt lat="45.8085918" lon="11.7123187"><ele>138.0</ele><time>2026-04-19T15:49:29.83Z</time></trkpt><trkpt lat="45.8084902" lon="11.712297"><ele>138.0</ele><time>2026-04-19T15:49:31.831Z</time></trkpt><trkpt lat="45.8083976" lon="11.7122667"><ele>137.16666666666666</ele><time>2026-04-19T15:49:33.83Z</time></trkpt><trkpt lat="45.8083115" lon="11.7122394"><ele>136.33333333333334</ele><time>2026-04-19T15:49:35.83Z</time></trkpt><trkpt lat="45.8082242" lon="11.7122159"><ele>135.5</ele><time>2026-04-19T15:49:37.831Z</time></trkpt><trkpt lat="45.8081411" lon="11.7121923"><ele>134.66666666666669</ele><time>2026-04-19T15:49:39.831Z</time></trkpt><trkpt lat="45.8080711" lon="11.7121694"><ele>133.83333333333334</ele><time>2026-04-19T15:49:41.831Z</time></trkpt><trkpt lat="45.8079942" lon="11.7121427"><ele>133.0</ele><time>2026-04-19T15:49:43.831Z</time></trkpt><trkpt lat="45.8079223" lon="11.7121181"><ele>133.0</ele><time>2026-04-19T15:49:45.83Z</time></trkpt><trkpt lat="45.8078535" lon="11.7120951"><ele>133.0</ele><time>2026-04-19T15:49:47.831Z</time></trkpt><trkpt lat="45.8077883" lon="11.7120748"><ele>133.0</ele><time>2026-04-19T15:49:49.831Z</time></trkpt><trkpt lat="45.8077214" lon="11.7120511"><ele>133.0</ele><time>2026-04-19T15:49:51.83Z</time></trkpt><trkpt lat="45.8076387" lon="11.7120239"><ele>133.0</ele><time>2026-04-19T15:49:53.831Z</time></trkpt><trkpt lat="45.8075502" lon="11.7119954"><ele>133.0</ele><time>2026-04-19T15:49:55.831Z</time></trkpt><trkpt lat="45.8074709" lon="11.7119741"><ele>133.0</ele><time>2026-04-19T15:49:57.831Z</time></trkpt><trkpt lat="45.8073892" lon="11.7119597"><ele>133.0</ele><time>2026-04-19T15:49:59.83Z</time></trkpt><trkpt lat="45.8072986" lon="11.711927"><ele>133.0</ele><time>2026-04-19T15:50:01.83Z</time></trkpt><trkpt lat="45.8071994" lon="11.7119015"><ele>133.0</ele><time>2026-04-19T15:50:03.831Z</time></trkpt><trkpt lat="45.8071068" lon="11.7118816"><ele>133.0</ele><time>2026-04-19T15:50:05.831Z</time></trkpt><trkpt lat="45.8070214" lon="11.7118515"><ele>133.6</ele><time>2026-04-19T15:50:07.831Z</time></trkpt><trkpt lat="45.806928" lon="11.711833"><ele>134.20000000000002</ele><time>2026-04-19T15:50:09.831Z</time></trkpt><trkpt lat="45.8068311" lon="11.7118097"><ele>134.8</ele><time>2026-04-19T15:50:11.83Z</time></trkpt><trkpt lat="45.8067282" lon="11.711776"><ele>135.4</ele><time>2026-04-19T15:50:13.831Z</time></trkpt><trkpt lat="45.8066262" lon="11.711745"><ele>136.0</ele><time>2026-04-19T15:50:15.831Z</time></trkpt><trkpt lat="45.8065344" lon="11.7116897"><ele>136.0</ele><time>2026-04-19T15:50:17.83Z</time></trkpt><trkpt lat="45.8064479" lon="11.7116189"><ele>136.0</ele><time>2026-04-19T15:50:19.83Z</time></trkpt><trkpt lat="45.8063684" lon="11.7115458"><ele>136.0</ele><time>2026-04-19T15:50:21.831Z</time></trkpt><trkpt lat="45.8062821" lon="11.7114735"><ele>136.0</ele><time>2026-04-19T15:50:23.83Z</time></trkpt><trkpt lat="45.8061928" lon="11.7114"><ele>136.0</ele><time>2026-04-19T15:50:25.831Z</time></trkpt><trkpt lat="45.8061144" lon="11.7113154"><ele>136.0</ele><time>2026-04-19T15:50:27.83Z</time></trkpt><trkpt lat="45.8060337" lon="11.7112293"><ele>136.0</ele><time>2026-04-19T15:50:29.832Z</time></trkpt><trkpt lat="45.8059505" lon="11.7111662"><ele>136.0</ele><time>2026-04-19T15:50:31.832Z</time></trkpt><trkpt lat="45.8058669" lon="11.7111063"><ele>136.0</ele><time>2026-04-19T15:50:33.832Z</time></trkpt><trkpt lat="45.8057831" lon="11.71104"><ele>136.0</ele><time>2026-04-19T15:50:35.832Z</time></trkpt><trkpt lat="45.8056826" lon="11.7109951"><ele>135.66666666666669</ele><time>2026-04-19T15:50:37.831Z</time></trkpt><trkpt lat="45.8055635" lon="11.7110005"><ele>135.33333333333334</ele><time>2026-04-19T15:50:39.831Z</time></trkpt><trkpt lat="45.8055007" lon="11.7110178"><ele>135.0</ele><time>2026-04-19T15:50:40.832Z</time></trkpt><trkpt lat="45.8054379" lon="11.7110391"><ele>134.66666666666666</ele><time>2026-04-19T15:50:41.832Z</time></trkpt><trkpt lat="45.8053219" lon="11.7110905"><ele>134.33333333333331</ele><time>2026-04-19T15:50:43.832Z</time></trkpt><trkpt lat="45.805262" lon="11.7111192"><ele>134.0</ele><time>2026-04-19T15:50:44.831Z</time></trkpt><trkpt lat="45.805198" lon="11.7111547"><ele>133.57142857142858</ele><time>2026-04-19T15:50:45.832Z</time></trkpt><trkpt lat="45.8051392" lon="11.7111943"><ele>133.14285714285714</ele><time>2026-04-19T15:50:46.831Z</time></trkpt><trkpt lat="45.8050788" lon="11.7112323"><ele>132.71428571428572</ele><time>2026-04-19T15:50:47.832Z</time></trkpt><trkpt lat="45.8050145" lon="11.7112707"><ele>132.28571428571428</ele><time>2026-04-19T15:50:48.832Z</time></trkpt><trkpt lat="45.8049514" lon="11.7113076"><ele>131.85714285714286</ele><time>2026-04-19T15:50:49.832Z</time></trkpt><trkpt lat="45.8048873" lon="11.7113431"><ele>131.42857142857144</ele><time>2026-04-19T15:50:50.831Z</time></trkpt><trkpt lat="45.8048246" lon="11.7113753"><ele>131.0</ele><time>2026-04-19T15:50:51.832Z</time></trkpt><trkpt lat="45.8047618" lon="11.7114132"><ele>131.0</ele><time>2026-04-19T15:50:52.832Z</time></trkpt><trkpt lat="45.8047018" lon="11.7114534"><ele>131.0</ele><time>2026-04-19T15:50:53.832Z</time></trkpt><trkpt lat="45.8046415" lon="11.7114982"><ele>131.0</ele><time>2026-04-19T15:50:54.832Z</time></trkpt><trkpt lat="45.8045797" lon="11.7115464"><ele>131.0</ele><time>2026-04-19T15:50:55.832Z</time></trkpt><trkpt lat="45.8045158" lon="11.7115918"><ele>131.0</ele><time>2026-04-19T15:50:56.832Z</time></trkpt><trkpt lat="45.8044461" lon="11.7116359"><ele>131.0</ele><time>2026-04-19T15:50:57.832Z</time></trkpt><trkpt lat="45.8043909" lon="11.7116904"><ele>131.0</ele><time>2026-04-19T15:50:58.832Z</time></trkpt><trkpt lat="45.8043279" lon="11.7117469"><ele>131.0</ele><time>2026-04-19T15:50:59.832Z</time></trkpt><trkpt lat="45.8042623" lon="11.711792"><ele>131.0</ele><time>2026-04-19T15:51:00.833Z</time></trkpt><trkpt lat="45.8041987" lon="11.7118415"><ele>131.0</ele><time>2026-04-19T15:51:01.831Z</time></trkpt><trkpt lat="45.8041426" lon="11.7118894"><ele>131.0</ele><time>2026-04-19T15:51:02.832Z</time></trkpt><trkpt lat="45.8040326" lon="11.7119626"><ele>131.0</ele><time>2026-04-19T15:51:04.832Z</time></trkpt><trkpt lat="45.8039723" lon="11.7119889"><ele>131.0</ele><time>2026-04-19T15:51:05.832Z</time></trkpt><trkpt lat="45.8039017" lon="11.7120116"><ele>131.0</ele><time>2026-04-19T15:51:06.832Z</time></trkpt><trkpt lat="45.8038347" lon="11.7120215"><ele>131.0</ele><time>2026-04-19T15:51:07.831Z</time></trkpt><trkpt lat="45.8037687" lon="11.7120235"><ele>131.0</ele><time>2026-04-19T15:51:08.832Z</time></trkpt><trkpt lat="45.8036549" lon="11.7120035"><ele>131.0</ele><time>2026-04-19T15:51:10.832Z</time></trkpt><trkpt lat="45.80354" lon="11.7119861"><ele>131.0</ele><time>2026-04-19T15:51:12.833Z</time></trkpt><trkpt lat="45.8034289" lon="11.7119573"><ele>131.0</ele><time>2026-04-19T15:51:14.833Z</time></trkpt><trkpt lat="45.8033126" lon="11.7119195"><ele>131.0</ele><time>2026-04-19T15:51:16.831Z</time></trkpt><trkpt lat="45.8031976" lon="11.711866"><ele>131.0</ele><time>2026-04-19T15:51:18.833Z</time></trkpt><trkpt lat="45.8030855" lon="11.7118026"><ele>131.0</ele><time>2026-04-19T15:51:20.832Z</time></trkpt><trkpt lat="45.8029758" lon="11.711728"><ele>131.0</ele><time>2026-04-19T15:51:22.833Z</time></trkpt><trkpt lat="45.8028675" lon="11.7116522"><ele>131.0</ele><time>2026-04-19T15:51:24.833Z</time></trkpt><trkpt lat="45.8027591" lon="11.7115761"><ele>131.0</ele><time>2026-04-19T15:51:26.833Z</time></trkpt><trkpt lat="45.8026516" lon="11.7114977"><ele>131.0</ele><time>2026-04-19T15:51:28.833Z</time></trkpt><trkpt lat="45.8025388" lon="11.7114158"><ele>131.0</ele><time>2026-04-19T15:51:30.833Z</time></trkpt><trkpt lat="45.8024798" lon="11.7113732"><ele>131.0</ele><time>2026-04-19T15:51:31.833Z</time></trkpt><trkpt lat="45.8024216" lon="11.7113328"><ele>131.0</ele><time>2026-04-19T15:51:32.833Z</time></trkpt><trkpt lat="45.8023646" lon="11.7112922"><ele>131.0</ele><time>2026-04-19T15:51:33.833Z</time></trkpt><trkpt lat="45.8022518" lon="11.7112141"><ele>131.0</ele><time>2026-04-19T15:51:35.833Z</time></trkpt><trkpt lat="45.8021407" lon="11.7111385"><ele>131.0</ele><time>2026-04-19T15:51:37.832Z</time></trkpt><trkpt lat="45.8020316" lon="11.7110679"><ele>131.0</ele><time>2026-04-19T15:51:39.833Z</time></trkpt><trkpt lat="45.8019172" lon="11.7110028"><ele>131.0</ele><time>2026-04-19T15:51:41.833Z</time></trkpt><trkpt lat="45.8018565" lon="11.7109768"><ele>131.0</ele><time>2026-04-19T15:51:42.833Z</time></trkpt><trkpt lat="45.8017347" lon="11.7109449"><ele>131.0</ele><time>2026-04-19T15:51:44.833Z</time></trkpt><trkpt lat="45.8016713" lon="11.7109418"><ele>131.0</ele><time>2026-04-19T15:51:45.833Z</time></trkpt><trkpt lat="45.8016029" lon="11.7109561"><ele>131.0</ele><time>2026-04-19T15:51:46.833Z</time></trkpt><trkpt lat="45.8015301" lon="11.7109725"><ele>130.85714285714286</ele><time>2026-04-19T15:51:47.833Z</time></trkpt><trkpt lat="45.8014647" lon="11.7109896"><ele>130.71428571428572</ele><time>2026-04-19T15:51:48.833Z</time></trkpt><trkpt lat="45.8014012" lon="11.711008"><ele>130.57142857142858</ele><time>2026-04-19T15:51:49.833Z</time></trkpt><trkpt lat="45.8013351" lon="11.7110281"><ele>130.42857142857144</ele><time>2026-04-19T15:51:50.832Z</time></trkpt><trkpt lat="45.8012689" lon="11.7110472"><ele>130.28571428571428</ele><time>2026-04-19T15:51:51.833Z</time></trkpt><trkpt lat="45.8012043" lon="11.7110632"><ele>130.14285714285717</ele><time>2026-04-19T15:51:52.833Z</time></trkpt><trkpt lat="45.8011378" lon="11.7110813"><ele>130.0</ele><time>2026-04-19T15:51:53.833Z</time></trkpt><trkpt lat="45.8010719" lon="11.7110988"><ele>129.71428571428572</ele><time>2026-04-19T15:51:54.833Z</time></trkpt><trkpt lat="45.8010064" lon="11.7111162"><ele>129.42857142857144</ele><time>2026-04-19T15:51:55.833Z</time></trkpt><trkpt lat="45.8009417" lon="11.711134"><ele>129.14285714285714</ele><time>2026-04-19T15:51:56.832Z</time></trkpt><trkpt lat="45.8008751" lon="11.7111543"><ele>128.85714285714286</ele><time>2026-04-19T15:51:57.833Z</time></trkpt><trkpt lat="45.8008096" lon="11.7111743"><ele>128.57142857142856</ele><time>2026-04-19T15:51:58.832Z</time></trkpt><trkpt lat="45.8007461" lon="11.7111933"><ele>128.28571428571428</ele><time>2026-04-19T15:51:59.833Z</time></trkpt><trkpt lat="45.8006835" lon="11.7112104"><ele>128.0</ele><time>2026-04-19T15:52:00.833Z</time></trkpt><trkpt lat="45.8005611" lon="11.7112446"><ele>127.99999999999999</ele><time>2026-04-19T15:52:02.832Z</time></trkpt><trkpt lat="45.8004973" lon="11.7112605"><ele>128.0</ele><time>2026-04-19T15:52:03.833Z</time></trkpt><trkpt lat="45.8004341" lon="11.7112776"><ele>128.0</ele><time>2026-04-19T15:52:04.832Z</time></trkpt><trkpt lat="45.8003106" lon="11.7113116"><ele>128.0</ele><time>2026-04-19T15:52:06.833Z</time></trkpt><trkpt lat="45.8001929" lon="11.7113413"><ele>127.99999999999999</ele><time>2026-04-19T15:52:08.833Z</time></trkpt><trkpt lat="45.8001308" lon="11.7113588"><ele>128.0</ele><time>2026-04-19T15:52:09.832Z</time></trkpt><trkpt lat="45.8000672" lon="11.7113764"><ele>127.60000000000001</ele><time>2026-04-19T15:52:10.833Z</time></trkpt><trkpt lat="45.7999447" lon="11.7114125"><ele>127.20000000000002</ele><time>2026-04-19T15:52:12.833Z</time></trkpt><trkpt lat="45.7998233" lon="11.7114466"><ele>126.8</ele><time>2026-04-19T15:52:14.834Z</time></trkpt><trkpt lat="45.7997017" lon="11.7114841"><ele>126.4</ele><time>2026-04-19T15:52:16.834Z</time></trkpt><trkpt lat="45.7996384" lon="11.7115035"><ele>126.0</ele><time>2026-04-19T15:52:17.833Z</time></trkpt><trkpt lat="45.7995746" lon="11.71152"><ele>126.0</ele><time>2026-04-19T15:52:18.834Z</time></trkpt><trkpt lat="45.7995099" lon="11.7115327"><ele>126.0</ele><time>2026-04-19T15:52:19.833Z</time></trkpt><trkpt lat="45.7994407" lon="11.7115519"><ele>126.0</ele><time>2026-04-19T15:52:20.833Z</time></trkpt><trkpt lat="45.7993716" lon="11.7115741"><ele>126.0</ele><time>2026-04-19T15:52:21.833Z</time></trkpt><trkpt lat="45.7992986" lon="11.7116085"><ele>126.0</ele><time>2026-04-19T15:52:22.833Z</time></trkpt><trkpt lat="45.7992266" lon="11.7116455"><ele>126.0</ele><time>2026-04-19T15:52:23.834Z</time></trkpt><trkpt lat="45.7991546" lon="11.7116832"><ele>126.0</ele><time>2026-04-19T15:52:24.833Z</time></trkpt><trkpt lat="45.7990809" lon="11.7117223"><ele>125.33333333333333</ele><time>2026-04-19T15:52:25.833Z</time></trkpt><trkpt lat="45.7990073" lon="11.7117606"><ele>124.66666666666666</ele><time>2026-04-19T15:52:26.834Z</time></trkpt><trkpt lat="45.7989315" lon="11.7118001"><ele>124.0</ele><time>2026-04-19T15:52:27.834Z</time></trkpt><trkpt lat="45.7988542" lon="11.7118431"><ele>123.33333333333333</ele><time>2026-04-19T15:52:28.834Z</time></trkpt><trkpt lat="45.7987789" lon="11.7118847"><ele>122.66666666666666</ele><time>2026-04-19T15:52:29.834Z</time></trkpt><trkpt lat="45.7987055" lon="11.7119248"><ele>122.0</ele><time>2026-04-19T15:52:30.833Z</time></trkpt><trkpt lat="45.7986305" lon="11.7119606"><ele>121.99999999999999</ele><time>2026-04-19T15:52:31.834Z</time></trkpt><trkpt lat="45.7985555" lon="11.7119954"><ele>122.0</ele><time>2026-04-19T15:52:32.834Z</time></trkpt><trkpt lat="45.7984819" lon="11.7120321"><ele>122.0</ele><time>2026-04-19T15:52:33.834Z</time></trkpt><trkpt lat="45.7984102" lon="11.7120742"><ele>122.0</ele><time>2026-04-19T15:52:34.833Z</time></trkpt><trkpt lat="45.7983391" lon="11.7121125"><ele>121.99999999999999</ele><time>2026-04-19T15:52:35.834Z</time></trkpt><trkpt lat="45.7982693" lon="11.7121469"><ele>122.0</ele><time>2026-04-19T15:52:36.834Z</time></trkpt><trkpt lat="45.7981992" lon="11.7121838"><ele>121.66666666666666</ele><time>2026-04-19T15:52:37.834Z</time></trkpt><trkpt lat="45.7981294" lon="11.7122217"><ele>121.33333333333333</ele><time>2026-04-19T15:52:38.834Z</time></trkpt><trkpt lat="45.7980609" lon="11.7122578"><ele>121.0</ele><time>2026-04-19T15:52:39.833Z</time></trkpt><trkpt lat="45.7979932" lon="11.7122944"><ele>120.66666666666666</ele><time>2026-04-19T15:52:40.834Z</time></trkpt><trkpt lat="45.7979281" lon="11.7123265"><ele>120.33333333333333</ele><time>2026-04-19T15:52:41.834Z</time></trkpt><trkpt lat="45.7978635" lon="11.712361"><ele>120.0</ele><time>2026-04-19T15:52:42.833Z</time></trkpt><trkpt lat="45.7977534" lon="11.7124291"><ele>124.0</ele><time>2026-04-19T15:52:44.833Z</time></trkpt><trkpt lat="45.7976481" lon="11.7124849"><ele>128.0</ele><time>2026-04-19T15:52:46.834Z</time></trkpt><trkpt lat="45.7975487" lon="11.7125622"><ele>132.0</ele><time>2026-04-19T15:52:48.833Z</time></trkpt><trkpt lat="45.7974448" lon="11.7126373"><ele>136.0</ele><time>2026-04-19T15:52:50.833Z</time></trkpt><trkpt lat="45.7973407" lon="11.7127048"><ele>132.75</ele><time>2026-04-19T15:52:52.834Z</time></trkpt><trkpt lat="45.7972446" lon="11.712775"><ele>129.5</ele><time>2026-04-19T15:52:54.834Z</time></trkpt><trkpt lat="45.7971456" lon="11.7128555"><ele>126.25</ele><time>2026-04-19T15:52:56.833Z</time></trkpt><trkpt lat="45.7970516" lon="11.712942"><ele>123.0</ele><time>2026-04-19T15:52:58.834Z</time></trkpt><trkpt lat="45.79695" lon="11.7130383"><ele>123.0</ele><time>2026-04-19T15:53:00.834Z</time></trkpt><trkpt lat="45.7968952" lon="11.7130857"><ele>123.0</ele><time>2026-04-19T15:53:01.834Z</time></trkpt><trkpt lat="45.7968417" lon="11.7131391"><ele>123.0</ele><time>2026-04-19T15:53:02.834Z</time></trkpt><trkpt lat="45.796787" lon="11.713188"><ele>123.0</ele><time>2026-04-19T15:53:03.833Z</time></trkpt><trkpt lat="45.7966796" lon="11.7132914"><ele>123.0</ele><time>2026-04-19T15:53:05.835Z</time></trkpt><trkpt lat="45.7966276" lon="11.7133493"><ele>123.0</ele><time>2026-04-19T15:53:06.835Z</time></trkpt><trkpt lat="45.7965787" lon="11.713422"><ele>124.33333333333333</ele><time>2026-04-19T15:53:07.835Z</time></trkpt><trkpt lat="45.7965301" lon="11.713483"><ele>125.66666666666666</ele><time>2026-04-19T15:53:08.835Z</time></trkpt><trkpt lat="45.7964408" lon="11.7135579"><ele>127.0</ele><time>2026-04-19T15:53:10.835Z</time></trkpt><trkpt lat="45.7963743" lon="11.713606"><ele>128.33333333333331</ele><time>2026-04-19T15:53:11.835Z</time></trkpt><trkpt lat="45.7962993" lon="11.7136657"><ele>129.66666666666666</ele><time>2026-04-19T15:53:12.835Z</time></trkpt><trkpt lat="45.7962275" lon="11.7137115"><ele>131.0</ele><time>2026-04-19T15:53:13.835Z</time></trkpt><trkpt lat="45.7961631" lon="11.7137334"><ele>128.4</ele><time>2026-04-19T15:53:14.834Z</time></trkpt><trkpt lat="45.7961004" lon="11.713748"><ele>125.8</ele><time>2026-04-19T15:53:15.835Z</time></trkpt><trkpt lat="45.7959753" lon="11.7137748"><ele>123.20000000000002</ele><time>2026-04-19T15:53:17.835Z</time></trkpt><trkpt lat="45.7958701" lon="11.7138044"><ele>120.60000000000001</ele><time>2026-04-19T15:53:19.835Z</time></trkpt><trkpt lat="45.7957759" lon="11.7138406"><ele>118.0</ele><time>2026-04-19T15:53:21.835Z</time></trkpt><trkpt lat="45.7956869" lon="11.7138672"><ele>118.0</ele><time>2026-04-19T15:53:23.835Z</time></trkpt><trkpt lat="45.7956004" lon="11.7138917"><ele>118.00000000000001</ele><time>2026-04-19T15:53:25.835Z</time></trkpt><trkpt lat="45.7955066" lon="11.7139323"><ele>118.00000000000001</ele><time>2026-04-19T15:53:27.835Z</time></trkpt><trkpt lat="45.7954126" lon="11.7139523"><ele>118.0</ele><time>2026-04-19T15:53:29.835Z</time></trkpt><trkpt lat="45.7953223" lon="11.7139628"><ele>118.0</ele><time>2026-04-19T15:53:31.835Z</time></trkpt><trkpt lat="45.795243" lon="11.7139748"><ele>119.50000000000001</ele><time>2026-04-19T15:53:33.835Z</time></trkpt><trkpt lat="45.795163" lon="11.7139982"><ele>121.0</ele><time>2026-04-19T15:53:35.835Z</time></trkpt><trkpt lat="45.7950857" lon="11.714036"><ele>122.5</ele><time>2026-04-19T15:53:37.835Z</time></trkpt><trkpt lat="45.795" lon="11.7140485"><ele>124.0</ele><time>2026-04-19T15:53:39.834Z</time></trkpt><trkpt lat="45.794916" lon="11.7140653"><ele>125.50000000000001</ele><time>2026-04-19T15:53:41.835Z</time></trkpt><trkpt lat="45.7948367" lon="11.7141022"><ele>127.0</ele><time>2026-04-19T15:53:43.835Z</time></trkpt><trkpt lat="45.7947475" lon="11.7141335"><ele>127.0</ele><time>2026-04-19T15:53:45.835Z</time></trkpt><trkpt lat="45.7946483" lon="11.7141606"><ele>126.99999999999999</ele><time>2026-04-19T15:53:47.835Z</time></trkpt><trkpt lat="45.7945428" lon="11.714188"><ele>126.99999999999999</ele><time>2026-04-19T15:53:49.835Z</time></trkpt><trkpt lat="45.7944407" lon="11.7142138"><ele>127.0</ele><time>2026-04-19T15:53:51.834Z</time></trkpt><trkpt lat="45.7943427" lon="11.7142395"><ele>127.0</ele><time>2026-04-19T15:53:53.834Z</time></trkpt><trkpt lat="45.7942427" lon="11.7142647"><ele>125.0</ele><time>2026-04-19T15:53:55.835Z</time></trkpt><trkpt lat="45.7941401" lon="11.7143007"><ele>122.99999999999999</ele><time>2026-04-19T15:53:57.836Z</time></trkpt><trkpt lat="45.7940354" lon="11.7143375"><ele>120.99999999999999</ele><time>2026-04-19T15:53:59.836Z</time></trkpt><trkpt lat="45.7939249" lon="11.7143771"><ele>119.0</ele><time>2026-04-19T15:54:01.836Z</time></trkpt><trkpt lat="45.7938189" lon="11.7144083"><ele>117.0</ele><time>2026-04-19T15:54:03.836Z</time></trkpt><trkpt lat="45.7937108" lon="11.7144442"><ele>117.0</ele><time>2026-04-19T15:54:05.835Z</time></trkpt><trkpt lat="45.7935985" lon="11.7144881"><ele>117.0</ele><time>2026-04-19T15:54:07.836Z</time></trkpt><trkpt lat="45.7934869" lon="11.7145379"><ele>117.0</ele><time>2026-04-19T15:54:09.836Z</time></trkpt><trkpt lat="45.7933781" lon="11.7145802"><ele>117.0</ele><time>2026-04-19T15:54:11.836Z</time></trkpt><trkpt lat="45.7932428" lon="11.7146127"><ele>117.16666666666667</ele><time>2026-04-19T15:54:13.836Z</time></trkpt><trkpt lat="45.7931742" lon="11.7146293"><ele>117.33333333333334</ele><time>2026-04-19T15:54:14.836Z</time></trkpt><trkpt lat="45.7931087" lon="11.7146504"><ele>117.5</ele><time>2026-04-19T15:54:15.836Z</time></trkpt><trkpt lat="45.7930418" lon="11.7146727"><ele>117.66666666666667</ele><time>2026-04-19T15:54:16.836Z</time></trkpt><trkpt lat="45.7929778" lon="11.7146869"><ele>117.83333333333334</ele><time>2026-04-19T15:54:17.836Z</time></trkpt><trkpt lat="45.792858" lon="11.7147159"><ele>118.0</ele><time>2026-04-19T15:54:19.835Z</time></trkpt><trkpt lat="45.7927347" lon="11.7147427"><ele>118.4</ele><time>2026-04-19T15:54:21.836Z</time></trkpt><trkpt lat="45.7926182" lon="11.714772"><ele>118.80000000000001</ele><time>2026-04-19T15:54:23.836Z</time></trkpt><trkpt lat="45.7924989" lon="11.7148004"><ele>119.2</ele><time>2026-04-19T15:54:25.836Z</time></trkpt><trkpt lat="45.7924358" lon="11.7148141"><ele>119.6</ele><time>2026-04-19T15:54:26.836Z</time></trkpt><trkpt lat="45.7923174" lon="11.7148529"><ele>120.0</ele><time>2026-04-19T15:54:28.836Z</time></trkpt><trkpt lat="45.7922022" lon="11.714893"><ele>120.0</ele><time>2026-04-19T15:54:30.836Z</time></trkpt><trkpt lat="45.7920911" lon="11.7149228"><ele>120.0</ele><time>2026-04-19T15:54:32.836Z</time></trkpt><trkpt lat="45.7919881" lon="11.7149689"><ele>120.0</ele><time>2026-04-19T15:54:34.836Z</time></trkpt><trkpt lat="45.7918891" lon="11.7150145"><ele>120.0</ele><time>2026-04-19T15:54:36.836Z</time></trkpt><trkpt lat="45.7917971" lon="11.7150602"><ele>120.0</ele><time>2026-04-19T15:54:38.835Z</time></trkpt><trkpt lat="45.7916978" lon="11.7151221"><ele>119.33333333333333</ele><time>2026-04-19T15:54:40.835Z</time></trkpt><trkpt lat="45.7916092" lon="11.715181"><ele>118.66666666666666</ele><time>2026-04-19T15:54:42.836Z</time></trkpt><trkpt lat="45.7915312" lon="11.7152446"><ele>118.0</ele><time>2026-04-19T15:54:44.836Z</time></trkpt><trkpt lat="45.7914598" lon="11.7153061"><ele>117.33333333333333</ele><time>2026-04-19T15:54:46.835Z</time></trkpt><trkpt lat="45.79139" lon="11.7153733"><ele>116.66666666666666</ele><time>2026-04-19T15:54:48.836Z</time></trkpt><trkpt lat="45.7913109" lon="11.7154291"><ele>116.0</ele><time>2026-04-19T15:54:50.837Z</time></trkpt><trkpt lat="45.7912369" lon="11.7154795"><ele>115.99999999999999</ele><time>2026-04-19T15:54:52.837Z</time></trkpt><trkpt lat="45.7911621" lon="11.7155361"><ele>116.0</ele><time>2026-04-19T15:54:54.836Z</time></trkpt><trkpt lat="45.7910919" lon="11.7155959"><ele>116.0</ele><time>2026-04-19T15:54:56.837Z</time></trkpt><trkpt lat="45.7910175" lon="11.7156462"><ele>116.0</ele><time>2026-04-19T15:54:58.837Z</time></trkpt><trkpt lat="45.7909454" lon="11.715705"><ele>115.99999999999999</ele><time>2026-04-19T15:55:00.837Z</time></trkpt><trkpt lat="45.7908784" lon="11.7157604"><ele>116.0</ele><time>2026-04-19T15:55:02.837Z</time></trkpt><trkpt lat="45.7908171" lon="11.7158085"><ele>115.99999999999999</ele><time>2026-04-19T15:55:04.837Z</time></trkpt><trkpt lat="45.7907471" lon="11.7158719"><ele>116.0</ele><time>2026-04-19T15:55:07.836Z</time></trkpt><trkpt lat="45.7906829" lon="11.7159264"><ele>116.0</ele><time>2026-04-19T15:55:09.837Z</time></trkpt><trkpt lat="45.7906164" lon="11.715984"><ele>116.0</ele><time>2026-04-19T15:55:11.837Z</time></trkpt><trkpt lat="45.7905542" lon="11.7160527"><ele>115.99999999999999</ele><time>2026-04-19T15:55:13.837Z</time></trkpt><trkpt lat="45.7904899" lon="11.7161204"><ele>116.0</ele><time>2026-04-19T15:55:15.837Z</time></trkpt><trkpt lat="45.7904366" lon="11.7161869"><ele>115.99999999999999</ele><time>2026-04-19T15:55:17.836Z</time></trkpt><trkpt lat="45.7903781" lon="11.7162712"><ele>116.0</ele><time>2026-04-19T15:55:19.836Z</time></trkpt><trkpt lat="45.7903179" lon="11.7163816"><ele>116.0</ele><time>2026-04-19T15:55:21.836Z</time></trkpt><trkpt lat="45.7902594" lon="11.716488"><ele>116.0</ele><time>2026-04-19T15:55:23.837Z</time></trkpt><trkpt lat="45.7902038" lon="11.7165717"><ele>115.99999999999999</ele><time>2026-04-19T15:55:25.837Z</time></trkpt><trkpt lat="45.790141" lon="11.7166534"><ele>116.0</ele><time>2026-04-19T15:55:27.837Z</time></trkpt><trkpt lat="45.7900801" lon="11.7167387"><ele>116.33333333333333</ele><time>2026-04-19T15:55:29.837Z</time></trkpt><trkpt lat="45.7900178" lon="11.7168254"><ele>116.66666666666666</ele><time>2026-04-19T15:55:31.837Z</time></trkpt><trkpt lat="45.7899511" lon="11.7169043"><ele>117.0</ele><time>2026-04-19T15:55:33.837Z</time></trkpt><trkpt lat="45.7898831" lon="11.7169878"><ele>117.33333333333334</ele><time>2026-04-19T15:55:35.836Z</time></trkpt><trkpt lat="45.7898307" lon="11.7170462"><ele>117.66666666666667</ele><time>2026-04-19T15:55:37.836Z</time></trkpt><trkpt lat="45.7897753" lon="11.7171001"><ele>118.0</ele><time>2026-04-19T15:56:23.837Z</time></trkpt><trkpt lat="45.7897057" lon="11.7171914"><ele>118.00000000000001</ele><time>2026-04-19T15:56:26.838Z</time></trkpt><trkpt lat="45.7896339" lon="11.7172751"><ele>118.0</ele><time>2026-04-19T15:56:28.837Z</time></trkpt><trkpt lat="45.7895772" lon="11.7173672"><ele>118.0</ele><time>2026-04-19T15:56:30.838Z</time></trkpt><trkpt lat="45.7895081" lon="11.7174643"><ele>118.0</ele><time>2026-04-19T15:56:32.838Z</time></trkpt><trkpt lat="45.7894334" lon="11.7175394"><ele>118.00000000000001</ele><time>2026-04-19T15:56:34.838Z</time></trkpt><trkpt lat="45.7893645" lon="11.7175977"><ele>118.0</ele><time>2026-04-19T15:56:36.839Z</time></trkpt><trkpt lat="45.7892751" lon="11.717655"><ele>118.4</ele><time>2026-04-19T15:56:38.839Z</time></trkpt><trkpt lat="45.7892016" lon="11.7177301"><ele>118.80000000000001</ele><time>2026-04-19T15:56:40.838Z</time></trkpt><trkpt lat="45.7891097" lon="11.7177886"><ele>119.2</ele><time>2026-04-19T15:56:42.838Z</time></trkpt><trkpt lat="45.7890223" lon="11.7178427"><ele>119.6</ele><time>2026-04-19T15:56:44.838Z</time></trkpt><trkpt lat="45.7889338" lon="11.7178987"><ele>120.0</ele><time>2026-04-19T15:56:46.838Z</time></trkpt><trkpt lat="45.7888466" lon="11.7179461"><ele>120.0</ele><time>2026-04-19T15:56:48.839Z</time></trkpt><trkpt lat="45.7887535" lon="11.7180007"><ele>120.0</ele><time>2026-04-19T15:56:50.839Z</time></trkpt><trkpt lat="45.7886659" lon="11.7180388"><ele>120.0</ele><time>2026-04-19T15:56:52.838Z</time></trkpt><trkpt lat="45.788599" lon="11.7180549"><ele>120.0</ele><time>2026-04-19T15:56:54.839Z</time></trkpt><trkpt lat="45.7885155" lon="11.7180728"><ele>120.0</ele><time>2026-04-19T15:56:56.839Z</time></trkpt><trkpt lat="45.7884327" lon="11.7181231"><ele>120.0</ele><time>2026-04-19T15:56:58.838Z</time></trkpt><trkpt lat="45.788353" lon="11.7181833"><ele>121.0</ele><time>2026-04-19T15:57:00.839Z</time></trkpt><trkpt lat="45.7882713" lon="11.7182471"><ele>122.0</ele><time>2026-04-19T15:57:02.839Z</time></trkpt><trkpt lat="45.7881952" lon="11.7182975"><ele>123.0</ele><time>2026-04-19T15:57:04.838Z</time></trkpt><trkpt lat="45.7881174" lon="11.7183425"><ele>124.0</ele><time>2026-04-19T15:57:06.839Z</time></trkpt><trkpt lat="45.7880245" lon="11.718408"><ele>125.0</ele><time>2026-04-19T15:57:08.838Z</time></trkpt><trkpt lat="45.7879276" lon="11.7184926"><ele>125.4</ele><time>2026-04-19T15:57:10.839Z</time></trkpt><trkpt lat="45.7878437" lon="11.718585"><ele>125.8</ele><time>2026-04-19T15:57:12.839Z</time></trkpt><trkpt lat="45.78776" lon="11.7186861"><ele>126.19999999999999</ele><time>2026-04-19T15:57:14.838Z</time></trkpt><trkpt lat="45.7876927" lon="11.7187846"><ele>126.6</ele><time>2026-04-19T15:57:16.839Z</time></trkpt><trkpt lat="45.7876254" lon="11.7189102"><ele>127.0</ele><time>2026-04-19T15:57:18.838Z</time></trkpt><trkpt lat="45.787564" lon="11.7190484"><ele>127.0</ele><time>2026-04-19T15:57:20.839Z</time></trkpt><trkpt lat="45.7875117" lon="11.7191834"><ele>126.99999999999999</ele><time>2026-04-19T15:57:22.839Z</time></trkpt><trkpt lat="45.7874638" lon="11.7193251"><ele>126.99999999999999</ele><time>2026-04-19T15:57:24.839Z</time></trkpt><trkpt lat="45.7874161" lon="11.7194628"><ele>127.0</ele><time>2026-04-19T15:57:26.84Z</time></trkpt><trkpt lat="45.7873691" lon="11.7196081"><ele>127.0</ele><time>2026-04-19T15:57:28.839Z</time></trkpt><trkpt lat="45.7873234" lon="11.7197457"><ele>125.8</ele><time>2026-04-19T15:57:30.839Z</time></trkpt><trkpt lat="45.7872768" lon="11.719886"><ele>124.6</ele><time>2026-04-19T15:57:32.839Z</time></trkpt><trkpt lat="45.7872298" lon="11.7200254"><ele>123.39999999999999</ele><time>2026-04-19T15:57:34.839Z</time></trkpt><trkpt lat="45.7871789" lon="11.7201499"><ele>122.19999999999999</ele><time>2026-04-19T15:57:36.84Z</time></trkpt><trkpt lat="45.787126" lon="11.7202717"><ele>121.0</ele><time>2026-04-19T15:57:38.84Z</time></trkpt><trkpt lat="45.7870671" lon="11.7203959"><ele>120.4</ele><time>2026-04-19T15:57:40.84Z</time></trkpt><trkpt lat="45.7869957" lon="11.7205066"><ele>119.8</ele><time>2026-04-19T15:57:42.84Z</time></trkpt><trkpt lat="45.7869172" lon="11.72061"><ele>119.20000000000002</ele><time>2026-04-19T15:57:44.84Z</time></trkpt><trkpt lat="45.7868166" lon="11.7206934"><ele>118.60000000000001</ele><time>2026-04-19T15:57:46.84Z</time></trkpt><trkpt lat="45.7867077" lon="11.720763"><ele>118.0</ele><time>2026-04-19T15:57:48.84Z</time></trkpt><trkpt lat="45.7865904" lon="11.7208074"><ele>119.75</ele><time>2026-04-19T15:57:50.84Z</time></trkpt><trkpt lat="45.7864734" lon="11.7208443"><ele>121.5</ele><time>2026-04-19T15:57:52.839Z</time></trkpt><trkpt lat="45.7863576" lon="11.7208679"><ele>123.25</ele><time>2026-04-19T15:57:54.84Z</time></trkpt><trkpt lat="45.7862401" lon="11.7208955"><ele>125.0</ele><time>2026-04-19T15:57:56.84Z</time></trkpt><trkpt lat="45.7861216" lon="11.7209342"><ele>125.6</ele><time>2026-04-19T15:57:58.84Z</time></trkpt><trkpt lat="45.7860097" lon="11.7209634"><ele>126.2</ele><time>2026-04-19T15:58:00.84Z</time></trkpt><trkpt lat="45.7859016" lon="11.7209869"><ele>126.80000000000001</ele><time>2026-04-19T15:58:02.839Z</time></trkpt><trkpt lat="45.7857889" lon="11.72101"><ele>127.4</ele><time>2026-04-19T15:58:04.839Z</time></trkpt><trkpt lat="45.7856851" lon="11.721038"><ele>128.0</ele><time>2026-04-19T15:58:06.84Z</time></trkpt><trkpt lat="45.7855768" lon="11.7210723"><ele>126.75</ele><time>2026-04-19T15:58:08.84Z</time></trkpt><trkpt lat="45.7854674" lon="11.7211305"><ele>125.5</ele><time>2026-04-19T15:58:10.839Z</time></trkpt><trkpt lat="45.7853585" lon="11.7212094"><ele>124.25</ele><time>2026-04-19T15:58:12.84Z</time></trkpt><trkpt lat="45.7852549" lon="11.7212773"><ele>123.0</ele><time>2026-04-19T15:58:14.84Z</time></trkpt><trkpt lat="45.7851478" lon="11.7213394"><ele>123.0</ele><time>2026-04-19T15:58:16.841Z</time></trkpt><trkpt lat="45.7850282" lon="11.7213888"><ele>123.00000000000001</ele><time>2026-04-19T15:58:18.841Z</time></trkpt><trkpt lat="45.7849647" lon="11.7214072"><ele>123.00000000000001</ele><time>2026-04-19T15:58:19.841Z</time></trkpt><trkpt lat="45.7848422" lon="11.7214313"><ele>123.0</ele><time>2026-04-19T15:58:21.84Z</time></trkpt><trkpt lat="45.7847302" lon="11.7214263"><ele>123.0</ele><time>2026-04-19T15:58:23.84Z</time></trkpt><trkpt lat="45.7846251" lon="11.7214061"><ele>123.0</ele><time>2026-04-19T15:58:25.841Z</time></trkpt><trkpt lat="45.7845287" lon="11.7213804"><ele>123.00000000000001</ele><time>2026-04-19T15:58:27.84Z</time></trkpt><trkpt lat="45.784437" lon="11.7213614"><ele>123.00000000000001</ele><time>2026-04-19T15:58:29.84Z</time></trkpt><trkpt lat="45.7843454" lon="11.7213409"><ele>123.0</ele><time>2026-04-19T15:58:31.84Z</time></trkpt><trkpt lat="45.7842551" lon="11.7213287"><ele>123.0</ele><time>2026-04-19T15:58:33.841Z</time></trkpt><trkpt lat="45.7841661" lon="11.7213187"><ele>123.16666666666667</ele><time>2026-04-19T15:58:35.841Z</time></trkpt><trkpt lat="45.7840768" lon="11.7213018"><ele>123.33333333333334</ele><time>2026-04-19T15:58:37.841Z</time></trkpt><trkpt lat="45.784012" lon="11.7212837"><ele>123.5</ele><time>2026-04-19T15:58:39.937Z</time></trkpt><trkpt lat="45.7839499" lon="11.7213135"><ele>123.66666666666667</ele><time>2026-04-19T15:58:41.849Z</time></trkpt><trkpt lat="45.7838004" lon="11.7212457"><ele>123.83333333333334</ele><time>2026-04-19T15:58:43.862Z</time></trkpt><trkpt lat="45.7837328" lon="11.7212367"><ele>124.0</ele><time>2026-04-19T15:58:45.874Z</time></trkpt><trkpt lat="45.7836484" lon="11.7212143"><ele>124.0</ele><time>2026-04-19T15:58:47.886Z</time></trkpt><trkpt lat="45.7835737" lon="11.7212077"><ele>124.00000000000001</ele><time>2026-04-19T15:58:49.9Z</time></trkpt><trkpt lat="45.7834958" lon="11.721198"><ele>124.0</ele><time>2026-04-19T15:58:51.913Z</time></trkpt><trkpt lat="45.7834168" lon="11.7211915"><ele>124.0</ele><time>2026-04-19T15:58:53.926Z</time></trkpt><trkpt lat="45.7833436" lon="11.7211803"><ele>124.00000000000001</ele><time>2026-04-19T15:58:55.841Z</time></trkpt><trkpt lat="45.7832741" lon="11.7211689"><ele>124.0</ele><time>2026-04-19T15:58:57.777Z</time></trkpt><trkpt lat="45.7832019" lon="11.7211542"><ele>124.0</ele><time>2026-04-19T15:58:59.862Z</time></trkpt><trkpt lat="45.783137" lon="11.7211453"><ele>124.16666666666667</ele><time>2026-04-19T15:59:01.875Z</time></trkpt><trkpt lat="45.7830675" lon="11.7211276"><ele>124.33333333333334</ele><time>2026-04-19T15:59:03.888Z</time></trkpt><trkpt lat="45.7829899" lon="11.7211239"><ele>124.5</ele><time>2026-04-19T15:59:05.901Z</time></trkpt><trkpt lat="45.7829087" lon="11.7211199"><ele>124.66666666666666</ele><time>2026-04-19T15:59:07.925Z</time></trkpt><trkpt lat="45.7828298" lon="11.7211174"><ele>124.83333333333333</ele><time>2026-04-19T15:59:09.927Z</time></trkpt><trkpt lat="45.7827512" lon="11.7211079"><ele>125.0</ele><time>2026-04-19T15:59:11.762Z</time></trkpt><trkpt lat="45.7826611" lon="11.7210968"><ele>125.4</ele><time>2026-04-19T15:59:13.85Z</time></trkpt><trkpt lat="45.7825755" lon="11.7210833"><ele>125.8</ele><time>2026-04-19T15:59:15.785Z</time></trkpt><trkpt lat="45.7824838" lon="11.7210752"><ele>126.19999999999999</ele><time>2026-04-19T15:59:17.876Z</time></trkpt><trkpt lat="45.7823926" lon="11.7210654"><ele>126.6</ele><time>2026-04-19T15:59:19.89Z</time></trkpt><trkpt lat="45.7823025" lon="11.7210554"><ele>127.0</ele><time>2026-04-19T15:59:21.902Z</time></trkpt><trkpt lat="45.7822101" lon="11.7210421"><ele>127.39999999999999</ele><time>2026-04-19T15:59:23.915Z</time></trkpt><trkpt lat="45.7821208" lon="11.7210336"><ele>127.79999999999998</ele><time>2026-04-19T15:59:25.841Z</time></trkpt><trkpt lat="45.7820255" lon="11.7210193"><ele>128.2</ele><time>2026-04-19T15:59:27.842Z</time></trkpt><trkpt lat="45.7819303" lon="11.7210075"><ele>128.6</ele><time>2026-04-19T15:59:29.842Z</time></trkpt><trkpt lat="45.7818312" lon="11.7209985"><ele>129.0</ele><time>2026-04-19T15:59:31.842Z</time></trkpt><trkpt lat="45.7817255" lon="11.7209852"><ele>129.2</ele><time>2026-04-19T15:59:33.842Z</time></trkpt><trkpt lat="45.7816328" lon="11.7209779"><ele>129.4</ele><time>2026-04-19T15:59:35.842Z</time></trkpt><trkpt lat="45.7815367" lon="11.7209744"><ele>129.6</ele><time>2026-04-19T15:59:37.842Z</time></trkpt><trkpt lat="45.781437" lon="11.7209763"><ele>129.8</ele><time>2026-04-19T15:59:39.841Z</time></trkpt><trkpt lat="45.7813365" lon="11.7209886"><ele>130.0</ele><time>2026-04-19T15:59:41.842Z</time></trkpt><trkpt lat="45.7812326" lon="11.7210168"><ele>130.0</ele><time>2026-04-19T15:59:43.842Z</time></trkpt><trkpt lat="45.7811285" lon="11.7210502"><ele>130.0</ele><time>2026-04-19T15:59:45.842Z</time></trkpt><trkpt lat="45.7810271" lon="11.7210837"><ele>130.0</ele><time>2026-04-19T15:59:47.842Z</time></trkpt><trkpt lat="45.780928" lon="11.7211266"><ele>130.0</ele><time>2026-04-19T15:59:49.842Z</time></trkpt><trkpt lat="45.7808423" lon="11.7211688"><ele>130.0</ele><time>2026-04-19T15:59:51.841Z</time></trkpt><trkpt lat="45.7807444" lon="11.7212097"><ele>129.5</ele><time>2026-04-19T15:59:53.841Z</time></trkpt><trkpt lat="45.7806368" lon="11.7212471"><ele>129.0</ele><time>2026-04-19T15:59:55.842Z</time></trkpt><trkpt lat="45.7805348" lon="11.7212762"><ele>128.5</ele><time>2026-04-19T15:59:57.841Z</time></trkpt><trkpt lat="45.7804211" lon="11.7213163"><ele>128.0</ele><time>2026-04-19T15:59:59.842Z</time></trkpt><trkpt lat="45.7803055" lon="11.7213649"><ele>128.0</ele><time>2026-04-19T16:00:01.842Z</time></trkpt><trkpt lat="45.7801913" lon="11.7214325"><ele>128.0</ele><time>2026-04-19T16:00:03.842Z</time></trkpt><trkpt lat="45.7800845" lon="11.7214979"><ele>128.0</ele><time>2026-04-19T16:00:05.842Z</time></trkpt><trkpt lat="45.7799759" lon="11.7215777"><ele>128.0</ele><time>2026-04-19T16:00:07.842Z</time></trkpt><trkpt lat="45.7799217" lon="11.7216266"><ele>128.0</ele><time>2026-04-19T16:00:08.842Z</time></trkpt><trkpt lat="45.7798678" lon="11.721675"><ele>127.66666666666666</ele><time>2026-04-19T16:00:09.843Z</time></trkpt><trkpt lat="45.7798139" lon="11.7217254"><ele>127.33333333333333</ele><time>2026-04-19T16:00:10.843Z</time></trkpt><trkpt lat="45.7797604" lon="11.721782"><ele>127.0</ele><time>2026-04-19T16:00:11.843Z</time></trkpt><trkpt lat="45.7797096" lon="11.7218416"><ele>126.66666666666666</ele><time>2026-04-19T16:00:12.843Z</time></trkpt><trkpt lat="45.7796141" lon="11.7219603"><ele>126.33333333333333</ele><time>2026-04-19T16:00:14.843Z</time></trkpt><trkpt lat="45.7795662" lon="11.7220197"><ele>126.0</ele><time>2026-04-19T16:00:15.843Z</time></trkpt><trkpt lat="45.7794748" lon="11.7221378"><ele>126.0</ele><time>2026-04-19T16:00:17.843Z</time></trkpt><trkpt lat="45.7793833" lon="11.7222513"><ele>126.0</ele><time>2026-04-19T16:00:19.842Z</time></trkpt><trkpt lat="45.7792903" lon="11.7223665"><ele>126.0</ele><time>2026-04-19T16:00:21.843Z</time></trkpt><trkpt lat="45.779199" lon="11.7224828"><ele>126.0</ele><time>2026-04-19T16:00:23.843Z</time></trkpt><trkpt lat="45.7791076" lon="11.7226003"><ele>125.5</ele><time>2026-04-19T16:00:25.843Z</time></trkpt><trkpt lat="45.7790124" lon="11.722721"><ele>125.0</ele><time>2026-04-19T16:00:27.843Z</time></trkpt><trkpt lat="45.7789634" lon="11.7227819"><ele>124.5</ele><time>2026-04-19T16:00:28.843Z</time></trkpt><trkpt lat="45.7789135" lon="11.7228436"><ele>124.0</ele><time>2026-04-19T16:00:29.843Z</time></trkpt><trkpt lat="45.7788625" lon="11.7229063"><ele>123.5</ele><time>2026-04-19T16:00:30.843Z</time></trkpt><trkpt lat="45.7788127" lon="11.7229699"><ele>123.0</ele><time>2026-04-19T16:00:31.843Z</time></trkpt><trkpt lat="45.7787638" lon="11.7230327"><ele>123.00000000000001</ele><time>2026-04-19T16:00:32.843Z</time></trkpt><trkpt lat="45.7787157" lon="11.7230931"><ele>123.0</ele><time>2026-04-19T16:00:33.843Z</time></trkpt><trkpt lat="45.7786681" lon="11.7231536"><ele>123.00000000000001</ele><time>2026-04-19T16:00:34.843Z</time></trkpt><trkpt lat="45.7786205" lon="11.7232136"><ele>123.00000000000001</ele><time>2026-04-19T16:00:35.842Z</time></trkpt><trkpt lat="45.7785724" lon="11.723272"><ele>123.0</ele><time>2026-04-19T16:00:36.843Z</time></trkpt><trkpt lat="45.7785247" lon="11.7233324"><ele>123.00000000000001</ele><time>2026-04-19T16:00:37.842Z</time></trkpt><trkpt lat="45.7784312" lon="11.72345"><ele>123.00000000000001</ele><time>2026-04-19T16:00:39.843Z</time></trkpt><trkpt lat="45.7783358" lon="11.7235637"><ele>122.25</ele><time>2026-04-19T16:00:41.843Z</time></trkpt><trkpt lat="45.7782441" lon="11.7236844"><ele>121.5</ele><time>2026-04-19T16:00:43.842Z</time></trkpt><trkpt lat="45.7781527" lon="11.7238015"><ele>120.75</ele><time>2026-04-19T16:00:45.843Z</time></trkpt><trkpt lat="45.7780619" lon="11.7239158"><ele>120.0</ele><time>2026-04-19T16:00:47.843Z</time></trkpt><trkpt lat="45.7779693" lon="11.7240297"><ele>120.0</ele><time>2026-04-19T16:00:49.843Z</time></trkpt><trkpt lat="45.7778797" lon="11.7241487"><ele>120.0</ele><time>2026-04-19T16:00:51.843Z</time></trkpt><trkpt lat="45.7777878" lon="11.724266"><ele>120.0</ele><time>2026-04-19T16:00:53.842Z</time></trkpt><trkpt lat="45.7777389" lon="11.724323"><ele>120.0</ele><time>2026-04-19T16:00:54.842Z</time></trkpt><trkpt lat="45.7776901" lon="11.7243811"><ele>120.0</ele><time>2026-04-19T16:00:55.843Z</time></trkpt><trkpt lat="45.7775966" lon="11.7244965"><ele>120.4</ele><time>2026-04-19T16:00:57.844Z</time></trkpt><trkpt lat="45.7775024" lon="11.7246128"><ele>120.8</ele><time>2026-04-19T16:00:59.844Z</time></trkpt><trkpt lat="45.777455" lon="11.7246741"><ele>121.19999999999999</ele><time>2026-04-19T16:01:00.844Z</time></trkpt><trkpt lat="45.7773609" lon="11.7247902"><ele>121.6</ele><time>2026-04-19T16:01:02.843Z</time></trkpt><trkpt lat="45.7772682" lon="11.7248989"><ele>122.0</ele><time>2026-04-19T16:01:04.844Z</time></trkpt><trkpt lat="45.7771769" lon="11.7250158"><ele>122.0</ele><time>2026-04-19T16:01:06.844Z</time></trkpt><trkpt lat="45.7770821" lon="11.7251248"><ele>122.0</ele><time>2026-04-19T16:01:08.844Z</time></trkpt><trkpt lat="45.7769993" lon="11.72524"><ele>122.0</ele><time>2026-04-19T16:01:10.844Z</time></trkpt><trkpt lat="45.7769084" lon="11.7253441"><ele>122.0</ele><time>2026-04-19T16:01:12.844Z</time></trkpt><trkpt lat="45.7768175" lon="11.7254602"><ele>121.75</ele><time>2026-04-19T16:01:14.844Z</time></trkpt><trkpt lat="45.7767243" lon="11.7255782"><ele>121.5</ele><time>2026-04-19T16:01:16.844Z</time></trkpt><trkpt lat="45.7766329" lon="11.7256928"><ele>121.25</ele><time>2026-04-19T16:01:18.843Z</time></trkpt><trkpt lat="45.7765437" lon="11.7258144"><ele>121.0</ele><time>2026-04-19T16:01:20.843Z</time></trkpt><trkpt lat="45.7764571" lon="11.7259324"><ele>121.0</ele><time>2026-04-19T16:01:22.844Z</time></trkpt><trkpt lat="45.7763613" lon="11.7260475"><ele>121.0</ele><time>2026-04-19T16:01:24.844Z</time></trkpt><trkpt lat="45.7762685" lon="11.7261564"><ele>121.0</ele><time>2026-04-19T16:01:26.844Z</time></trkpt><trkpt lat="45.7761768" lon="11.7262727"><ele>121.0</ele><time>2026-04-19T16:01:28.844Z</time></trkpt><trkpt lat="45.7760847" lon="11.7263939"><ele>120.50000000000001</ele><time>2026-04-19T16:01:30.844Z</time></trkpt><trkpt lat="45.7759911" lon="11.7265132"><ele>120.0</ele><time>2026-04-19T16:01:32.844Z</time></trkpt><trkpt lat="45.775896" lon="11.7266343"><ele>119.5</ele><time>2026-04-19T16:01:34.843Z</time></trkpt><trkpt lat="45.7758459" lon="11.7266928"><ele>119.0</ele><time>2026-04-19T16:01:35.844Z</time></trkpt><trkpt lat="45.7757959" lon="11.7267521"><ele>118.50000000000001</ele><time>2026-04-19T16:01:36.843Z</time></trkpt><trkpt lat="45.7757463" lon="11.7268124"><ele>118.0</ele><time>2026-04-19T16:01:37.843Z</time></trkpt><trkpt lat="45.7756969" lon="11.7268731"><ele>118.14285714285714</ele><time>2026-04-19T16:01:38.843Z</time></trkpt><trkpt lat="45.7756453" lon="11.7269348"><ele>118.28571428571429</ele><time>2026-04-19T16:01:39.843Z</time></trkpt><trkpt lat="45.7755964" lon="11.7269977"><ele>118.42857142857143</ele><time>2026-04-19T16:01:40.844Z</time></trkpt><trkpt lat="45.7755477" lon="11.7270602"><ele>118.57142857142857</ele><time>2026-04-19T16:01:41.844Z</time></trkpt><trkpt lat="45.7755001" lon="11.7271238"><ele>118.71428571428572</ele><time>2026-04-19T16:01:42.844Z</time></trkpt><trkpt lat="45.7754509" lon="11.7271866"><ele>118.85714285714286</ele><time>2026-04-19T16:01:43.844Z</time></trkpt><trkpt lat="45.7754029" lon="11.727245"><ele>119.0</ele><time>2026-04-19T16:01:44.844Z</time></trkpt><trkpt lat="45.775354" lon="11.7273052"><ele>119.0</ele><time>2026-04-19T16:01:45.843Z</time></trkpt><trkpt lat="45.7753053" lon="11.72737"><ele>119.0</ele><time>2026-04-19T16:01:46.844Z</time></trkpt><trkpt lat="45.7752559" lon="11.7274332"><ele>119.0</ele><time>2026-04-19T16:01:47.843Z</time></trkpt><trkpt lat="45.7752056" lon="11.7274945"><ele>119.0</ele><time>2026-04-19T16:01:48.844Z</time></trkpt><trkpt lat="45.7751548" lon="11.7275539"><ele>119.0</ele><time>2026-04-19T16:01:49.844Z</time></trkpt><trkpt lat="45.7751035" lon="11.7276128"><ele>119.0</ele><time>2026-04-19T16:01:50.844Z</time></trkpt><trkpt lat="45.7750534" lon="11.7276747"><ele>119.0</ele><time>2026-04-19T16:01:51.843Z</time></trkpt><trkpt lat="45.7750011" lon="11.7277415"><ele>118.85714285714286</ele><time>2026-04-19T16:01:52.843Z</time></trkpt><trkpt lat="45.7749488" lon="11.727808"><ele>118.71428571428572</ele><time>2026-04-19T16:01:53.843Z</time></trkpt><trkpt lat="45.7748968" lon="11.727872"><ele>118.57142857142857</ele><time>2026-04-19T16:01:54.843Z</time></trkpt><trkpt lat="45.7748455" lon="11.727936"><ele>118.42857142857143</ele><time>2026-04-19T16:01:55.844Z</time></trkpt><trkpt lat="45.7747974" lon="11.7279997"><ele>118.28571428571429</ele><time>2026-04-19T16:01:56.844Z</time></trkpt><trkpt lat="45.7747478" lon="11.7280638"><ele>118.14285714285714</ele><time>2026-04-19T16:01:57.844Z</time></trkpt><trkpt lat="45.774698" lon="11.7281247"><ele>118.0</ele><time>2026-04-19T16:01:58.843Z</time></trkpt><trkpt lat="45.7746468" lon="11.7281828"><ele>118.0</ele><time>2026-04-19T16:01:59.844Z</time></trkpt><trkpt lat="45.7745918" lon="11.728246"><ele>118.0</ele><time>2026-04-19T16:02:00.844Z</time></trkpt><trkpt lat="45.7745369" lon="11.7283131"><ele>118.0</ele><time>2026-04-19T16:02:01.844Z</time></trkpt><trkpt lat="45.7744864" lon="11.7283764"><ele>118.0</ele><time>2026-04-19T16:02:02.844Z</time></trkpt><trkpt lat="45.774435" lon="11.7284443"><ele>118.0</ele><time>2026-04-19T16:02:03.845Z</time></trkpt><trkpt lat="45.7743835" lon="11.7285092"><ele>118.0</ele><time>2026-04-19T16:02:04.843Z</time></trkpt><trkpt lat="45.7743313" lon="11.728572"><ele>118.0</ele><time>2026-04-19T16:02:05.844Z</time></trkpt><trkpt lat="45.7742794" lon="11.72863"><ele>117.50000000000001</ele><time>2026-04-19T16:02:06.843Z</time></trkpt><trkpt lat="45.7742216" lon="11.7286868"><ele>117.0</ele><time>2026-04-19T16:02:07.845Z</time></trkpt><trkpt lat="45.7741638" lon="11.7287305"><ele>116.5</ele><time>2026-04-19T16:02:08.845Z</time></trkpt><trkpt lat="45.7740436" lon="11.7287758"><ele>116.0</ele><time>2026-04-19T16:02:10.845Z</time></trkpt><trkpt lat="45.7739798" lon="11.7287894"><ele>115.50000000000001</ele><time>2026-04-19T16:02:11.845Z</time></trkpt><trkpt lat="45.773856" lon="11.7287901"><ele>115.0</ele><time>2026-04-19T16:02:13.845Z</time></trkpt><trkpt lat="45.7737859" lon="11.7287651"><ele>115.0</ele><time>2026-04-19T16:02:14.845Z</time></trkpt><trkpt lat="45.7736614" lon="11.7287399"><ele>115.0</ele><time>2026-04-19T16:02:16.845Z</time></trkpt><trkpt lat="45.7735422" lon="11.72874"><ele>115.0</ele><time>2026-04-19T16:02:18.845Z</time></trkpt><trkpt lat="45.7734294" lon="11.7287349"><ele>115.0</ele><time>2026-04-19T16:02:20.845Z</time></trkpt><trkpt lat="45.7733249" lon="11.7287361"><ele>115.2</ele><time>2026-04-19T16:02:22.845Z</time></trkpt><trkpt lat="45.773213" lon="11.7287338"><ele>115.4</ele><time>2026-04-19T16:02:24.845Z</time></trkpt><trkpt lat="45.7731082" lon="11.7287273"><ele>115.6</ele><time>2026-04-19T16:02:26.845Z</time></trkpt><trkpt lat="45.7729974" lon="11.7287191"><ele>115.8</ele><time>2026-04-19T16:02:28.845Z</time></trkpt><trkpt lat="45.7728811" lon="11.7287045"><ele>116.0</ele><time>2026-04-19T16:02:30.844Z</time></trkpt><trkpt lat="45.7728178" lon="11.7287009"><ele>115.99999999999999</ele><time>2026-04-19T16:02:31.845Z</time></trkpt><trkpt lat="45.7727541" lon="11.7287009"><ele>116.0</ele><time>2026-04-19T16:02:32.845Z</time></trkpt><trkpt lat="45.7726283" lon="11.7286998"><ele>116.0</ele><time>2026-04-19T16:02:34.845Z</time></trkpt><trkpt lat="45.7725623" lon="11.7286995"><ele>116.0</ele><time>2026-04-19T16:02:35.845Z</time></trkpt><trkpt lat="45.7724977" lon="11.7286977"><ele>115.99999999999999</ele><time>2026-04-19T16:02:36.844Z</time></trkpt><trkpt lat="45.772373" lon="11.7286939"><ele>116.0</ele><time>2026-04-19T16:02:38.845Z</time></trkpt><trkpt lat="45.7722477" lon="11.7286933"><ele>115.25</ele><time>2026-04-19T16:02:40.845Z</time></trkpt><trkpt lat="45.7721213" lon="11.7286831"><ele>114.5</ele><time>2026-04-19T16:02:42.845Z</time></trkpt><trkpt lat="45.7720063" lon="11.728664"><ele>113.75</ele><time>2026-04-19T16:02:44.844Z</time></trkpt><trkpt lat="45.7718953" lon="11.7286483"><ele>113.0</ele><time>2026-04-19T16:02:46.845Z</time></trkpt><trkpt lat="45.7717826" lon="11.728631"><ele>112.80000000000001</ele><time>2026-04-19T16:02:48.845Z</time></trkpt><trkpt lat="45.7716709" lon="11.7286049"><ele>112.60000000000001</ele><time>2026-04-19T16:02:50.845Z</time></trkpt><trkpt lat="45.7715613" lon="11.7285838"><ele>112.39999999999999</ele><time>2026-04-19T16:02:52.844Z</time></trkpt><trkpt lat="45.7714623" lon="11.7285595"><ele>112.19999999999999</ele><time>2026-04-19T16:02:54.844Z</time></trkpt><trkpt lat="45.7713531" lon="11.7285307"><ele>112.0</ele><time>2026-04-19T16:02:56.845Z</time></trkpt><trkpt lat="45.7712352" lon="11.7285017"><ele>112.00000000000001</ele><time>2026-04-19T16:02:58.844Z</time></trkpt><trkpt lat="45.77111" lon="11.7284771"><ele>112.0</ele><time>2026-04-19T16:03:00.845Z</time></trkpt><trkpt lat="45.7710453" lon="11.7284629"><ele>112.0</ele><time>2026-04-19T16:03:01.845Z</time></trkpt><trkpt lat="45.7709811" lon="11.7284424"><ele>112.0</ele><time>2026-04-19T16:03:02.845Z</time></trkpt><trkpt lat="45.7709186" lon="11.7284238"><ele>112.00000000000001</ele><time>2026-04-19T16:03:03.845Z</time></trkpt><trkpt lat="45.7707929" lon="11.7283965"><ele>112.0</ele><time>2026-04-19T16:03:05.846Z</time></trkpt><trkpt lat="45.7707294" lon="11.7283851"><ele>112.0</ele><time>2026-04-19T16:03:06.846Z</time></trkpt><trkpt lat="45.7706636" lon="11.7283715"><ele>111.99999999999999</ele><time>2026-04-19T16:03:07.845Z</time></trkpt><trkpt lat="45.7705484" lon="11.728342"><ele>111.99999999999999</ele><time>2026-04-19T16:03:09.846Z</time></trkpt><trkpt lat="45.7704374" lon="11.7283133"><ele>112.0</ele><time>2026-04-19T16:03:11.846Z</time></trkpt><trkpt lat="45.7703747" lon="11.7282997"><ele>112.0</ele><time>2026-04-19T16:03:12.846Z</time></trkpt><trkpt lat="45.7702539" lon="11.7282737"><ele>112.0</ele><time>2026-04-19T16:03:14.846Z</time></trkpt><trkpt lat="45.7701387" lon="11.7282474"><ele>112.0</ele><time>2026-04-19T16:03:16.846Z</time></trkpt><trkpt lat="45.7700212" lon="11.7282308"><ele>112.0</ele><time>2026-04-19T16:03:18.846Z</time></trkpt><trkpt lat="45.769905" lon="11.7282077"><ele>112.0</ele><time>2026-04-19T16:03:20.845Z</time></trkpt><trkpt lat="45.7697972" lon="11.7281808"><ele>112.0</ele><time>2026-04-19T16:03:22.845Z</time></trkpt><trkpt lat="45.7696831" lon="11.7281553"><ele>112.0</ele><time>2026-04-19T16:03:24.846Z</time></trkpt><trkpt lat="45.7695711" lon="11.7281278"><ele>112.0</ele><time>2026-04-19T16:03:26.846Z</time></trkpt><trkpt lat="45.7694636" lon="11.7280994"><ele>112.0</ele><time>2026-04-19T16:03:28.846Z</time></trkpt><trkpt lat="45.7693499" lon="11.7280671"><ele>111.8</ele><time>2026-04-19T16:03:30.846Z</time></trkpt><trkpt lat="45.769238" lon="11.7280478"><ele>111.6</ele><time>2026-04-19T16:03:32.845Z</time></trkpt><trkpt lat="45.7691333" lon="11.7280369"><ele>111.39999999999999</ele><time>2026-04-19T16:03:34.846Z</time></trkpt><trkpt lat="45.7690197" lon="11.7280022"><ele>111.19999999999999</ele><time>2026-04-19T16:03:36.846Z</time></trkpt><trkpt lat="45.7689579" lon="11.7279805"><ele>111.0</ele><time>2026-04-19T16:03:37.846Z</time></trkpt><trkpt lat="45.7688375" lon="11.7279533"><ele>111.0</ele><time>2026-04-19T16:03:39.846Z</time></trkpt><trkpt lat="45.7687134" lon="11.7279334"><ele>111.0</ele><time>2026-04-19T16:03:41.846Z</time></trkpt><trkpt lat="45.7686509" lon="11.7279207"><ele>111.0</ele><time>2026-04-19T16:03:42.846Z</time></trkpt><trkpt lat="45.7685427" lon="11.7278613"><ele>111.0</ele><time>2026-04-19T16:03:44.846Z</time></trkpt><trkpt lat="45.7684618" lon="11.7278326"><ele>111.0</ele><time>2026-04-19T16:03:46.845Z</time></trkpt><trkpt lat="45.7683706" lon="11.7278361"><ele>111.6</ele><time>2026-04-19T16:03:48.846Z</time></trkpt><trkpt lat="45.7682602" lon="11.7278202"><ele>112.19999999999999</ele><time>2026-04-19T16:03:50.845Z</time></trkpt><trkpt lat="45.7681697" lon="11.7278001"><ele>112.80000000000001</ele><time>2026-04-19T16:03:52.846Z</time></trkpt><trkpt lat="45.768062" lon="11.7277863"><ele>113.4</ele><time>2026-04-19T16:03:54.846Z</time></trkpt><trkpt lat="45.7679725" lon="11.7277697"><ele>114.0</ele><time>2026-04-19T16:03:56.846Z</time></trkpt><trkpt lat="45.7678971" lon="11.7277519"><ele>113.83333333333333</ele><time>2026-04-19T16:03:58.845Z</time></trkpt><trkpt lat="45.7678253" lon="11.7277246"><ele>113.66666666666666</ele><time>2026-04-19T16:04:00.846Z</time></trkpt><trkpt lat="45.7677622" lon="11.7277052"><ele>113.5</ele><time>2026-04-19T16:04:02.847Z</time></trkpt><trkpt lat="45.7676765" lon="11.7277076"><ele>113.33333333333333</ele><time>2026-04-19T16:04:05.846Z</time></trkpt><trkpt lat="45.7676088" lon="11.7276471"><ele>113.16666666666666</ele><time>2026-04-19T16:04:08.846Z</time></trkpt><trkpt lat="45.7675194" lon="11.7276261"><ele>113.0</ele><time>2026-04-19T16:04:11.847Z</time></trkpt><trkpt lat="45.7674375" lon="11.7276346"><ele>112.80000000000001</ele><time>2026-04-19T16:04:13.847Z</time></trkpt><trkpt lat="45.7673337" lon="11.7276285"><ele>112.60000000000001</ele><time>2026-04-19T16:04:15.847Z</time></trkpt><trkpt lat="45.7672208" lon="11.7276107"><ele>112.39999999999999</ele><time>2026-04-19T16:04:17.847Z</time></trkpt><trkpt lat="45.7671178" lon="11.7275638"><ele>112.19999999999999</ele><time>2026-04-19T16:04:19.847Z</time></trkpt><trkpt lat="45.7670164" lon="11.7275393"><ele>112.0</ele><time>2026-04-19T16:04:21.847Z</time></trkpt><trkpt lat="45.7669148" lon="11.7275176"><ele>112.0</ele><time>2026-04-19T16:04:23.847Z</time></trkpt><trkpt lat="45.7668125" lon="11.727491"><ele>111.99999999999999</ele><time>2026-04-19T16:04:25.847Z</time></trkpt><trkpt lat="45.7666989" lon="11.7274624"><ele>111.99999999999999</ele><time>2026-04-19T16:04:27.846Z</time></trkpt><trkpt lat="45.7665943" lon="11.7274431"><ele>112.0</ele><time>2026-04-19T16:04:29.846Z</time></trkpt><trkpt lat="45.766484" lon="11.7274154"><ele>112.0</ele><time>2026-04-19T16:04:31.846Z</time></trkpt><trkpt lat="45.7663723" lon="11.7273898"><ele>112.0</ele><time>2026-04-19T16:04:33.846Z</time></trkpt><trkpt lat="45.766267" lon="11.7273722"><ele>111.99999999999999</ele><time>2026-04-19T16:04:35.847Z</time></trkpt><trkpt lat="45.7661661" lon="11.7273517"><ele>111.99999999999999</ele><time>2026-04-19T16:04:37.846Z</time></trkpt><trkpt lat="45.7660625" lon="11.7273308"><ele>112.0</ele><time>2026-04-19T16:04:39.846Z</time></trkpt><trkpt lat="45.7659728" lon="11.7273085"><ele>112.0</ele><time>2026-04-19T16:04:41.847Z</time></trkpt><trkpt lat="45.7659331" lon="11.727205"><ele>112.19999999999999</ele><time>2026-04-19T16:04:43.847Z</time></trkpt><trkpt lat="45.7659025" lon="11.7270697"><ele>112.39999999999999</ele><time>2026-04-19T16:04:45.847Z</time></trkpt><trkpt lat="45.765829" lon="11.726944"><ele>112.60000000000001</ele><time>2026-04-19T16:04:47.847Z</time></trkpt><trkpt lat="45.7657158" lon="11.7269226"><ele>112.80000000000001</ele><time>2026-04-19T16:04:49.847Z</time></trkpt><trkpt lat="45.7656586" lon="11.726969"><ele>113.0</ele><time>2026-04-19T16:04:50.847Z</time></trkpt><trkpt lat="45.765617" lon="11.7270382"><ele>113.0</ele><time>2026-04-19T16:04:51.847Z</time></trkpt><trkpt lat="45.7655907" lon="11.7271218"><ele>113.00000000000001</ele><time>2026-04-19T16:04:52.847Z</time></trkpt><trkpt lat="45.765579" lon="11.7272952"><ele>113.00000000000001</ele><time>2026-04-19T16:04:54.846Z</time></trkpt><trkpt lat="45.7655597" lon="11.7274445"><ele>113.0</ele><time>2026-04-19T16:04:56.848Z</time></trkpt><trkpt lat="45.7655187" lon="11.727574"><ele>113.0</ele><time>2026-04-19T16:04:58.848Z</time></trkpt><trkpt lat="45.7654727" lon="11.7277049"><ele>113.2</ele><time>2026-04-19T16:05:00.848Z</time></trkpt><trkpt lat="45.7654299" lon="11.7278393"><ele>113.4</ele><time>2026-04-19T16:05:02.847Z</time></trkpt><trkpt lat="45.7653937" lon="11.7279581"><ele>113.60000000000001</ele><time>2026-04-19T16:05:04.848Z</time></trkpt><trkpt lat="45.765346" lon="11.7280934"><ele>113.80000000000001</ele><time>2026-04-19T16:05:06.847Z</time></trkpt><trkpt lat="45.7652954" lon="11.7282103"><ele>114.0</ele><time>2026-04-19T16:05:08.847Z</time></trkpt><trkpt lat="45.7652423" lon="11.728328"><ele>113.4</ele><time>2026-04-19T16:05:10.848Z</time></trkpt><trkpt lat="45.7651834" lon="11.7284451"><ele>112.80000000000001</ele><time>2026-04-19T16:05:12.848Z</time></trkpt><trkpt lat="45.7651339" lon="11.7285669"><ele>112.19999999999999</ele><time>2026-04-19T16:05:14.847Z</time></trkpt><trkpt lat="45.7650809" lon="11.7286943"><ele>111.6</ele><time>2026-04-19T16:05:16.848Z</time></trkpt><trkpt lat="45.7650275" lon="11.7288164"><ele>111.0</ele><time>2026-04-19T16:05:18.848Z</time></trkpt><trkpt lat="45.7649788" lon="11.7289373"><ele>110.8</ele><time>2026-04-19T16:05:20.848Z</time></trkpt><trkpt lat="45.7649269" lon="11.7290572"><ele>110.6</ele><time>2026-04-19T16:05:22.848Z</time></trkpt><trkpt lat="45.7648793" lon="11.7291749"><ele>110.4</ele><time>2026-04-19T16:05:24.848Z</time></trkpt><trkpt lat="45.7648291" lon="11.7292964"><ele>110.2</ele><time>2026-04-19T16:05:26.848Z</time></trkpt><trkpt lat="45.7647781" lon="11.7294189"><ele>110.0</ele><time>2026-04-19T16:05:28.847Z</time></trkpt><trkpt lat="45.764732" lon="11.7295348"><ele>108.8</ele><time>2026-04-19T16:05:30.848Z</time></trkpt><trkpt lat="45.7646844" lon="11.7296553"><ele>107.6</ele><time>2026-04-19T16:05:32.848Z</time></trkpt><trkpt lat="45.7646341" lon="11.72977"><ele>106.4</ele><time>2026-04-19T16:05:34.847Z</time></trkpt><trkpt lat="45.7645817" lon="11.7298851"><ele>105.2</ele><time>2026-04-19T16:05:36.848Z</time></trkpt><trkpt lat="45.7645339" lon="11.7300114"><ele>104.0</ele><time>2026-04-19T16:05:38.848Z</time></trkpt><trkpt lat="45.7644866" lon="11.7301304"><ele>105.0</ele><time>2026-04-19T16:05:40.848Z</time></trkpt><trkpt lat="45.7644368" lon="11.7302551"><ele>106.0</ele><time>2026-04-19T16:05:42.848Z</time></trkpt><trkpt lat="45.7643814" lon="11.7303785"><ele>107.0</ele><time>2026-04-19T16:05:44.848Z</time></trkpt><trkpt lat="45.7643272" lon="11.730502"><ele>108.0</ele><time>2026-04-19T16:05:46.848Z</time></trkpt><trkpt lat="45.7642744" lon="11.730624"><ele>109.0</ele><time>2026-04-19T16:05:48.848Z</time></trkpt><trkpt lat="45.7642217" lon="11.7307378"><ele>109.6</ele><time>2026-04-19T16:05:50.848Z</time></trkpt><trkpt lat="45.7641703" lon="11.7308533"><ele>110.2</ele><time>2026-04-19T16:05:52.849Z</time></trkpt><trkpt lat="45.7641172" lon="11.7309846"><ele>110.79999999999998</ele><time>2026-04-19T16:05:54.849Z</time></trkpt><trkpt lat="45.7640611" lon="11.7311018"><ele>111.39999999999999</ele><time>2026-04-19T16:05:56.849Z</time></trkpt><trkpt lat="45.7640166" lon="11.731198"><ele>112.0</ele><time>2026-04-19T16:05:58.848Z</time></trkpt><trkpt lat="45.7639611" lon="11.7313113"><ele>112.8</ele><time>2026-04-19T16:06:00.849Z</time></trkpt><trkpt lat="45.7639013" lon="11.7314217"><ele>113.6</ele><time>2026-04-19T16:06:02.849Z</time></trkpt><trkpt lat="45.7638368" lon="11.7315329"><ele>114.39999999999999</ele><time>2026-04-19T16:06:04.849Z</time></trkpt><trkpt lat="45.7637668" lon="11.7316367"><ele>115.19999999999999</ele><time>2026-04-19T16:06:06.848Z</time></trkpt><trkpt lat="45.7636867" lon="11.7317205"><ele>116.0</ele><time>2026-04-19T16:06:08.848Z</time></trkpt><trkpt lat="45.763602" lon="11.7317688"><ele>116.19999999999999</ele><time>2026-04-19T16:06:10.849Z</time></trkpt><trkpt lat="45.763507" lon="11.7317956"><ele>116.39999999999999</ele><time>2026-04-19T16:06:12.849Z</time></trkpt><trkpt lat="45.7634035" lon="11.7318036"><ele>116.6</ele><time>2026-04-19T16:06:14.849Z</time></trkpt><trkpt lat="45.7632928" lon="11.7318015"><ele>116.8</ele><time>2026-04-19T16:06:16.849Z</time></trkpt><trkpt lat="45.7631865" lon="11.7318119"><ele>117.0</ele><time>2026-04-19T16:06:18.848Z</time></trkpt><trkpt lat="45.7630683" lon="11.7318098"><ele>117.0</ele><time>2026-04-19T16:06:20.849Z</time></trkpt><trkpt lat="45.7629449" lon="11.7317999"><ele>117.0</ele><time>2026-04-19T16:06:22.848Z</time></trkpt><trkpt lat="45.7628269" lon="11.7317938"><ele>117.0</ele><time>2026-04-19T16:06:24.849Z</time></trkpt><trkpt lat="45.7627088" lon="11.7317862"><ele>117.0</ele><time>2026-04-19T16:06:26.849Z</time></trkpt><trkpt lat="45.7625881" lon="11.7317908"><ele>116.5</ele><time>2026-04-19T16:06:28.848Z</time></trkpt><trkpt lat="45.7624702" lon="11.7317968"><ele>116.0</ele><time>2026-04-19T16:06:30.849Z</time></trkpt><trkpt lat="45.7623436" lon="11.731794"><ele>115.5</ele><time>2026-04-19T16:06:32.848Z</time></trkpt><trkpt lat="45.7622771" lon="11.7317915"><ele>115.0</ele><time>2026-04-19T16:06:33.849Z</time></trkpt><trkpt lat="45.762212" lon="11.7317906"><ele>114.5</ele><time>2026-04-19T16:06:34.849Z</time></trkpt><trkpt lat="45.7621467" lon="11.7317912"><ele>114.0</ele><time>2026-04-19T16:06:35.848Z</time></trkpt><trkpt lat="45.7620241" lon="11.7317871"><ele>114.0</ele><time>2026-04-19T16:06:37.849Z</time></trkpt><trkpt lat="45.7618983" lon="11.7317788"><ele>113.99999999999999</ele><time>2026-04-19T16:06:39.849Z</time></trkpt><trkpt lat="45.7618338" lon="11.7317796"><ele>114.0</ele><time>2026-04-19T16:06:40.849Z</time></trkpt><trkpt lat="45.7617682" lon="11.7317848"><ele>114.0</ele><time>2026-04-19T16:06:41.849Z</time></trkpt><trkpt lat="45.7617026" lon="11.7317887"><ele>113.99999999999999</ele><time>2026-04-19T16:06:42.849Z</time></trkpt><trkpt lat="45.761639" lon="11.7317879"><ele>114.0</ele><time>2026-04-19T16:06:43.848Z</time></trkpt><trkpt lat="45.761576" lon="11.7317821"><ele>114.0</ele><time>2026-04-19T16:06:44.85Z</time></trkpt><trkpt lat="45.7615094" lon="11.731777"><ele>113.42857142857142</ele><time>2026-04-19T16:06:45.85Z</time></trkpt><trkpt lat="45.761444" lon="11.7317732"><ele>112.85714285714285</ele><time>2026-04-19T16:06:46.849Z</time></trkpt><trkpt lat="45.7613782" lon="11.7317706"><ele>112.28571428571428</ele><time>2026-04-19T16:06:47.85Z</time></trkpt><trkpt lat="45.7613119" lon="11.7317708"><ele>111.71428571428571</ele><time>2026-04-19T16:06:48.85Z</time></trkpt><trkpt lat="45.761244" lon="11.7317689"><ele>111.14285714285714</ele><time>2026-04-19T16:06:49.849Z</time></trkpt><trkpt lat="45.7611772" lon="11.7317625"><ele>110.57142857142856</ele><time>2026-04-19T16:06:50.85Z</time></trkpt><trkpt lat="45.7611117" lon="11.7317569"><ele>110.0</ele><time>2026-04-19T16:06:51.85Z</time></trkpt><trkpt lat="45.7610466" lon="11.731754"><ele>109.99999999999999</ele><time>2026-04-19T16:06:52.85Z</time></trkpt><trkpt lat="45.7609797" lon="11.7317478"><ele>110.0</ele><time>2026-04-19T16:06:53.849Z</time></trkpt><trkpt lat="45.760916" lon="11.7317428"><ele>110.0</ele><time>2026-04-19T16:06:54.85Z</time></trkpt><trkpt lat="45.7608106" lon="11.7317344"><ele>110.0</ele><time>2026-04-19T16:06:56.85Z</time></trkpt><trkpt lat="45.7607197" lon="11.7317326"><ele>109.99999999999999</ele><time>2026-04-19T16:06:58.85Z</time></trkpt><trkpt lat="45.7606221" lon="11.7317133"><ele>110.0</ele><time>2026-04-19T16:07:00.849Z</time></trkpt><trkpt lat="45.7605223" lon="11.7316421"><ele>109.99999999999999</ele><time>2026-04-19T16:07:02.85Z</time></trkpt><trkpt lat="45.7604127" lon="11.73158"><ele>110.0</ele><time>2026-04-19T16:07:04.85Z</time></trkpt><trkpt lat="45.7603498" lon="11.7315761"><ele>110.0</ele><time>2026-04-19T16:07:05.85Z</time></trkpt><trkpt lat="45.7602813" lon="11.7315824"><ele>110.0</ele><time>2026-04-19T16:07:06.85Z</time></trkpt><trkpt lat="45.7602143" lon="11.731584"><ele>110.0</ele><time>2026-04-19T16:07:07.849Z</time></trkpt><trkpt lat="45.7601489" lon="11.7315759"><ele>109.99999999999999</ele><time>2026-04-19T16:07:08.849Z</time></trkpt><trkpt lat="45.7600866" lon="11.7315557"><ele>110.0</ele><time>2026-04-19T16:07:09.85Z</time></trkpt><trkpt lat="45.7600193" lon="11.7315315"><ele>109.85714285714285</ele><time>2026-04-19T16:07:10.85Z</time></trkpt><trkpt lat="45.7599525" lon="11.7315073"><ele>109.71428571428571</ele><time>2026-04-19T16:07:11.849Z</time></trkpt><trkpt lat="45.7598851" lon="11.7314757"><ele>109.57142857142857</ele><time>2026-04-19T16:07:12.85Z</time></trkpt><trkpt lat="45.7598165" lon="11.7314402"><ele>109.42857142857142</ele><time>2026-04-19T16:07:13.85Z</time></trkpt><trkpt lat="45.7597497" lon="11.7314081"><ele>109.28571428571429</ele><time>2026-04-19T16:07:14.85Z</time></trkpt><trkpt lat="45.7596811" lon="11.7313767"><ele>109.14285714285714</ele><time>2026-04-19T16:07:15.85Z</time></trkpt><trkpt lat="45.7596105" lon="11.7313473"><ele>109.0</ele><time>2026-04-19T16:07:16.85Z</time></trkpt><trkpt lat="45.7595407" lon="11.7313139"><ele>109.00000000000001</ele><time>2026-04-19T16:07:17.849Z</time></trkpt><trkpt lat="45.7594695" lon="11.7312764"><ele>109.0</ele><time>2026-04-19T16:07:18.85Z</time></trkpt><trkpt lat="45.7593991" lon="11.731242"><ele>109.0</ele><time>2026-04-19T16:07:19.85Z</time></trkpt><trkpt lat="45.7593333" lon="11.7312126"><ele>109.0</ele><time>2026-04-19T16:07:20.85Z</time></trkpt><trkpt lat="45.7592697" lon="11.731183"><ele>109.00000000000001</ele><time>2026-04-19T16:07:21.85Z</time></trkpt><trkpt lat="45.7592069" lon="11.7311492"><ele>109.0</ele><time>2026-04-19T16:07:22.849Z</time></trkpt><trkpt lat="45.7590882" lon="11.7310907"><ele>109.00000000000001</ele><time>2026-04-19T16:07:24.849Z</time></trkpt><trkpt lat="45.7590267" lon="11.731063"><ele>109.0</ele><time>2026-04-19T16:07:25.85Z</time></trkpt><trkpt lat="45.7589638" lon="11.7310321"><ele>109.0</ele><time>2026-04-19T16:07:26.85Z</time></trkpt><trkpt lat="45.7589027" lon="11.7309981"><ele>109.0</ele><time>2026-04-19T16:07:27.849Z</time></trkpt><trkpt lat="45.7588407" lon="11.730965"><ele>109.00000000000001</ele><time>2026-04-19T16:07:28.849Z</time></trkpt><trkpt lat="45.7587191" lon="11.7309074"><ele>109.0</ele><time>2026-04-19T16:07:30.85Z</time></trkpt><trkpt lat="45.7586593" lon="11.7308756"><ele>108.85714285714286</ele><time>2026-04-19T16:07:31.85Z</time></trkpt><trkpt lat="45.7585933" lon="11.7308434"><ele>108.71428571428572</ele><time>2026-04-19T16:07:32.849Z</time></trkpt><trkpt lat="45.7585273" lon="11.730809"><ele>108.57142857142857</ele><time>2026-04-19T16:07:33.85Z</time></trkpt><trkpt lat="45.7584598" lon="11.7307776"><ele>108.42857142857143</ele><time>2026-04-19T16:07:34.849Z</time></trkpt><trkpt lat="45.7583911" lon="11.7307449"><ele>108.28571428571428</ele><time>2026-04-19T16:07:35.85Z</time></trkpt><trkpt lat="45.7583253" lon="11.7307136"><ele>108.14285714285714</ele><time>2026-04-19T16:07:36.85Z</time></trkpt><trkpt lat="45.7582619" lon="11.7306808"><ele>108.0</ele><time>2026-04-19T16:07:37.85Z</time></trkpt><trkpt lat="45.7582" lon="11.7306504"><ele>107.71428571428571</ele><time>2026-04-19T16:07:38.851Z</time></trkpt><trkpt lat="45.7581351" lon="11.7306203"><ele>107.42857142857142</ele><time>2026-04-19T16:07:39.851Z</time></trkpt><trkpt lat="45.7580686" lon="11.7305851"><ele>107.14285714285714</ele><time>2026-04-19T16:07:40.851Z</time></trkpt><trkpt lat="45.7580044" lon="11.7305488"><ele>106.85714285714286</ele><time>2026-04-19T16:07:41.85Z</time></trkpt><trkpt lat="45.7579406" lon="11.7305132"><ele>106.57142857142857</ele><time>2026-04-19T16:07:42.851Z</time></trkpt><trkpt lat="45.7578817" lon="11.7304784"><ele>106.28571428571429</ele><time>2026-04-19T16:07:43.85Z</time></trkpt><trkpt lat="45.7578184" lon="11.7304423"><ele>106.0</ele><time>2026-04-19T16:07:44.851Z</time></trkpt><trkpt lat="45.7577545" lon="11.7304031"><ele>106.0</ele><time>2026-04-19T16:07:45.851Z</time></trkpt><trkpt lat="45.7576947" lon="11.7303682"><ele>106.0</ele><time>2026-04-19T16:07:46.851Z</time></trkpt><trkpt lat="45.7576331" lon="11.7303287"><ele>106.0</ele><time>2026-04-19T16:07:47.85Z</time></trkpt><trkpt lat="45.7575739" lon="11.7302868"><ele>106.0</ele><time>2026-04-19T16:07:48.851Z</time></trkpt><trkpt lat="45.7575124" lon="11.7302466"><ele>106.0</ele><time>2026-04-19T16:07:49.85Z</time></trkpt><trkpt lat="45.757452" lon="11.7302024"><ele>106.0</ele><time>2026-04-19T16:07:50.85Z</time></trkpt><trkpt lat="45.7573903" lon="11.7301605"><ele>106.0</ele><time>2026-04-19T16:07:51.85Z</time></trkpt><trkpt lat="45.7573308" lon="11.7301177"><ele>106.00000000000001</ele><time>2026-04-19T16:07:52.851Z</time></trkpt><trkpt lat="45.7572721" lon="11.7300773"><ele>106.0</ele><time>2026-04-19T16:07:53.851Z</time></trkpt><trkpt lat="45.7572118" lon="11.7300351"><ele>106.0</ele><time>2026-04-19T16:07:54.85Z</time></trkpt><trkpt lat="45.7571441" lon="11.7299844"><ele>106.0</ele><time>2026-04-19T16:07:55.851Z</time></trkpt><trkpt lat="45.7570864" lon="11.729946"><ele>106.00000000000001</ele><time>2026-04-19T16:07:56.851Z</time></trkpt><trkpt lat="45.7569753" lon="11.7298677"><ele>106.0</ele><time>2026-04-19T16:07:58.851Z</time></trkpt><trkpt lat="45.7568657" lon="11.7297915"><ele>106.19999999999999</ele><time>2026-04-19T16:08:00.85Z</time></trkpt><trkpt lat="45.7567478" lon="11.729708"><ele>106.39999999999999</ele><time>2026-04-19T16:08:02.851Z</time></trkpt><trkpt lat="45.756688" lon="11.729668"><ele>106.6</ele><time>2026-04-19T16:08:03.85Z</time></trkpt><trkpt lat="45.7566286" lon="11.7296276"><ele>106.8</ele><time>2026-04-19T16:08:04.85Z</time></trkpt><trkpt lat="45.7565699" lon="11.7295858"><ele>107.0</ele><time>2026-04-19T16:08:05.85Z</time></trkpt><trkpt lat="45.7564598" lon="11.7295087"><ele>107.0</ele><time>2026-04-19T16:08:07.85Z</time></trkpt><trkpt lat="45.7563556" lon="11.7294325"><ele>106.99999999999999</ele><time>2026-04-19T16:08:09.85Z</time></trkpt><trkpt lat="45.7562954" lon="11.7293936"><ele>106.99999999999999</ele><time>2026-04-19T16:08:10.851Z</time></trkpt><trkpt lat="45.7561839" lon="11.7293236"><ele>107.0</ele><time>2026-04-19T16:08:12.851Z</time></trkpt><trkpt lat="45.7560675" lon="11.7292412"><ele>107.0</ele><time>2026-04-19T16:08:14.851Z</time></trkpt><trkpt lat="45.7560091" lon="11.7292037"><ele>106.75</ele><time>2026-04-19T16:08:15.85Z</time></trkpt><trkpt lat="45.7558969" lon="11.7291303"><ele>106.5</ele><time>2026-04-19T16:08:17.852Z</time></trkpt><trkpt lat="45.7557854" lon="11.7290455"><ele>106.25</ele><time>2026-04-19T16:08:19.851Z</time></trkpt><trkpt lat="45.7556836" lon="11.7289618"><ele>106.0</ele><time>2026-04-19T16:08:21.851Z</time></trkpt><trkpt lat="45.7555686" lon="11.7288809"><ele>106.0</ele><time>2026-04-19T16:08:23.85Z</time></trkpt><trkpt lat="45.7554584" lon="11.7288029"><ele>106.0</ele><time>2026-04-19T16:08:25.85Z</time></trkpt><trkpt lat="45.7554009" lon="11.7287637"><ele>106.0</ele><time>2026-04-19T16:08:26.852Z</time></trkpt><trkpt lat="45.7552934" lon="11.7286869"><ele>106.0</ele><time>2026-04-19T16:08:28.851Z</time></trkpt><trkpt lat="45.7551861" lon="11.7286089"><ele>106.0</ele><time>2026-04-19T16:08:30.852Z</time></trkpt><trkpt lat="45.7551285" lon="11.7285702"><ele>105.5</ele><time>2026-04-19T16:08:31.852Z</time></trkpt><trkpt lat="45.7550177" lon="11.7284921"><ele>105.0</ele><time>2026-04-19T16:08:33.851Z</time></trkpt><trkpt lat="45.7549104" lon="11.7284133"><ele>104.5</ele><time>2026-04-19T16:08:35.852Z</time></trkpt><trkpt lat="45.7548031" lon="11.7283374"><ele>104.0</ele><time>2026-04-19T16:08:37.852Z</time></trkpt><trkpt lat="45.7546946" lon="11.7282604"><ele>104.0</ele><time>2026-04-19T16:08:39.852Z</time></trkpt><trkpt lat="45.7545899" lon="11.7281901"><ele>104.0</ele><time>2026-04-19T16:08:41.852Z</time></trkpt><trkpt lat="45.7544819" lon="11.7281156"><ele>104.0</ele><time>2026-04-19T16:08:43.852Z</time></trkpt><trkpt lat="45.7543776" lon="11.7280379"><ele>104.0</ele><time>2026-04-19T16:08:45.851Z</time></trkpt><trkpt lat="45.7542779" lon="11.7279676"><ele>104.2</ele><time>2026-04-19T16:08:47.851Z</time></trkpt><trkpt lat="45.7541695" lon="11.7278989"><ele>104.4</ele><time>2026-04-19T16:08:49.851Z</time></trkpt><trkpt lat="45.754067" lon="11.7278297"><ele>104.6</ele><time>2026-04-19T16:08:51.852Z</time></trkpt><trkpt lat="45.7539644" lon="11.7277592"><ele>104.8</ele><time>2026-04-19T16:08:53.851Z</time></trkpt><trkpt lat="45.7539054" lon="11.7277167"><ele>105.0</ele><time>2026-04-19T16:08:54.851Z</time></trkpt><trkpt lat="45.7537998" lon="11.7276395"><ele>105.0</ele><time>2026-04-19T16:08:56.851Z</time></trkpt><trkpt lat="45.7536976" lon="11.7275676"><ele>105.0</ele><time>2026-04-19T16:08:58.852Z</time></trkpt><trkpt lat="45.7535924" lon="11.7274919"><ele>105.0</ele><time>2026-04-19T16:09:00.851Z</time></trkpt><trkpt lat="45.7534844" lon="11.7274051"><ele>105.0</ele><time>2026-04-19T16:09:02.852Z</time></trkpt><trkpt lat="45.7533826" lon="11.7273221"><ele>105.16666666666667</ele><time>2026-04-19T16:09:04.852Z</time></trkpt><trkpt lat="45.7532982" lon="11.7272334"><ele>105.33333333333334</ele><time>2026-04-19T16:09:06.851Z</time></trkpt><trkpt lat="45.7532039" lon="11.7271283"><ele>105.5</ele><time>2026-04-19T16:09:08.851Z</time></trkpt><trkpt lat="45.75314" lon="11.7270886"><ele>105.66666666666667</ele><time>2026-04-19T16:09:09.851Z</time></trkpt><trkpt lat="45.7530731" lon="11.7270682"><ele>105.83333333333334</ele><time>2026-04-19T16:09:10.851Z</time></trkpt><trkpt lat="45.7530084" lon="11.7270556"><ele>106.0</ele><time>2026-04-19T16:09:11.852Z</time></trkpt><trkpt lat="45.7528941" lon="11.7269872"><ele>106.00000000000001</ele><time>2026-04-19T16:09:13.851Z</time></trkpt><trkpt lat="45.752838" lon="11.7269451"><ele>106.0</ele><time>2026-04-19T16:09:14.852Z</time></trkpt><trkpt lat="45.7527807" lon="11.7269057"><ele>106.0</ele><time>2026-04-19T16:09:15.852Z</time></trkpt><trkpt lat="45.7527231" lon="11.7268681"><ele>106.0</ele><time>2026-04-19T16:09:16.852Z</time></trkpt><trkpt lat="45.7526094" lon="11.7267943"><ele>106.00000000000001</ele><time>2026-04-19T16:09:18.851Z</time></trkpt><trkpt lat="45.7524996" lon="11.7267183"><ele>106.0</ele><time>2026-04-19T16:09:20.852Z</time></trkpt><trkpt lat="45.7523884" lon="11.7266412"><ele>105.75</ele><time>2026-04-19T16:09:22.851Z</time></trkpt><trkpt lat="45.7522774" lon="11.7265576"><ele>105.5</ele><time>2026-04-19T16:09:24.853Z</time></trkpt><trkpt lat="45.7521664" lon="11.7264729"><ele>105.25</ele><time>2026-04-19T16:09:26.853Z</time></trkpt><trkpt lat="45.7520523" lon="11.7263994"><ele>105.0</ele><time>2026-04-19T16:09:28.852Z</time></trkpt><trkpt lat="45.751939" lon="11.726329"><ele>105.2</ele><time>2026-04-19T16:09:30.852Z</time></trkpt><trkpt lat="45.7518266" lon="11.7262591"><ele>105.4</ele><time>2026-04-19T16:09:32.853Z</time></trkpt><trkpt lat="45.7517148" lon="11.7261825"><ele>105.6</ele><time>2026-04-19T16:09:34.853Z</time></trkpt><trkpt lat="45.7516588" lon="11.7261391"><ele>105.8</ele><time>2026-04-19T16:09:35.852Z</time></trkpt><trkpt lat="45.7515474" lon="11.7260563"><ele>106.0</ele><time>2026-04-19T16:09:37.853Z</time></trkpt><trkpt lat="45.7514871" lon="11.7260183"><ele>106.00000000000001</ele><time>2026-04-19T16:09:38.853Z</time></trkpt><trkpt lat="45.751427" lon="11.7259816"><ele>106.0</ele><time>2026-04-19T16:09:39.852Z</time></trkpt><trkpt lat="45.7513697" lon="11.725944"><ele>106.0</ele><time>2026-04-19T16:09:40.853Z</time></trkpt><trkpt lat="45.7513103" lon="11.7259063"><ele>106.0</ele><time>2026-04-19T16:09:41.853Z</time></trkpt><trkpt lat="45.7511975" lon="11.7258522"><ele>106.00000000000001</ele><time>2026-04-19T16:09:43.853Z</time></trkpt><trkpt lat="45.7510813" lon="11.7258032"><ele>106.0</ele><time>2026-04-19T16:09:45.853Z</time></trkpt><trkpt lat="45.75102" lon="11.7257743"><ele>105.75</ele><time>2026-04-19T16:09:46.853Z</time></trkpt><trkpt lat="45.7509033" lon="11.7257315"><ele>105.5</ele><time>2026-04-19T16:09:48.852Z</time></trkpt><trkpt lat="45.7507806" lon="11.725693"><ele>105.25</ele><time>2026-04-19T16:09:50.853Z</time></trkpt><trkpt lat="45.7506573" lon="11.7256618"><ele>105.0</ele><time>2026-04-19T16:09:52.853Z</time></trkpt><trkpt lat="45.7505337" lon="11.7256324"><ele>105.0</ele><time>2026-04-19T16:09:54.853Z</time></trkpt><trkpt lat="45.7504692" lon="11.7256235"><ele>105.0</ele><time>2026-04-19T16:09:55.852Z</time></trkpt><trkpt lat="45.7503467" lon="11.7256045"><ele>105.0</ele><time>2026-04-19T16:09:57.852Z</time></trkpt><trkpt lat="45.7502252" lon="11.7255828"><ele>105.0</ele><time>2026-04-19T16:09:59.853Z</time></trkpt><trkpt lat="45.7501032" lon="11.7255738"><ele>105.0</ele><time>2026-04-19T16:10:01.853Z</time></trkpt><trkpt lat="45.7499792" lon="11.7255656"><ele>104.75</ele><time>2026-04-19T16:10:03.853Z</time></trkpt><trkpt lat="45.7498557" lon="11.7255571"><ele>104.5</ele><time>2026-04-19T16:10:05.853Z</time></trkpt><trkpt lat="45.7497319" lon="11.7255699"><ele>104.25</ele><time>2026-04-19T16:10:07.853Z</time></trkpt><trkpt lat="45.7496081" lon="11.7255891"><ele>104.0</ele><time>2026-04-19T16:10:09.853Z</time></trkpt><trkpt lat="45.7494914" lon="11.7256104"><ele>104.4</ele><time>2026-04-19T16:10:11.852Z</time></trkpt><trkpt lat="45.7493702" lon="11.72565"><ele>104.80000000000001</ele><time>2026-04-19T16:10:13.853Z</time></trkpt><trkpt lat="45.7493081" lon="11.7256711"><ele>105.19999999999999</ele><time>2026-04-19T16:10:14.853Z</time></trkpt><trkpt lat="45.7491869" lon="11.7257086"><ele>105.6</ele><time>2026-04-19T16:10:16.852Z</time></trkpt><trkpt lat="45.7490697" lon="11.725758"><ele>106.0</ele><time>2026-04-19T16:10:18.854Z</time></trkpt><trkpt lat="45.7490093" lon="11.7257849"><ele>106.0</ele><time>2026-04-19T16:10:19.853Z</time></trkpt><trkpt lat="45.7489487" lon="11.7258098"><ele>106.0</ele><time>2026-04-19T16:10:20.854Z</time></trkpt><trkpt lat="45.7488328" lon="11.7258696"><ele>106.0</ele><time>2026-04-19T16:10:22.853Z</time></trkpt><trkpt lat="45.7487137" lon="11.7259356"><ele>106.0</ele><time>2026-04-19T16:10:24.854Z</time></trkpt><trkpt lat="45.7486482" lon="11.7259708"><ele>106.0</ele><time>2026-04-19T16:10:25.854Z</time></trkpt><trkpt lat="45.7485859" lon="11.7260076"><ele>106.16666666666667</ele><time>2026-04-19T16:10:26.854Z</time></trkpt><trkpt lat="45.7485225" lon="11.726048"><ele>106.33333333333334</ele><time>2026-04-19T16:10:27.854Z</time></trkpt><trkpt lat="45.7484609" lon="11.726088"><ele>106.5</ele><time>2026-04-19T16:10:28.853Z</time></trkpt><trkpt lat="45.7484014" lon="11.7261235"><ele>106.66666666666666</ele><time>2026-04-19T16:10:29.853Z</time></trkpt><trkpt lat="45.7482891" lon="11.7261888"><ele>106.83333333333333</ele><time>2026-04-19T16:10:31.854Z</time></trkpt><trkpt lat="45.7482266" lon="11.7262294"><ele>107.0</ele><time>2026-04-19T16:10:32.854Z</time></trkpt><trkpt lat="45.7481646" lon="11.7262737"><ele>106.99999999999999</ele><time>2026-04-19T16:10:33.854Z</time></trkpt><trkpt lat="45.7481038" lon="11.7263218"><ele>107.0</ele><time>2026-04-19T16:10:34.854Z</time></trkpt><trkpt lat="45.7480455" lon="11.7263714"><ele>107.0</ele><time>2026-04-19T16:10:35.854Z</time></trkpt><trkpt lat="45.7479365" lon="11.7264558"><ele>107.0</ele><time>2026-04-19T16:10:37.854Z</time></trkpt><trkpt lat="45.7478472" lon="11.7265364"><ele>106.99999999999999</ele><time>2026-04-19T16:10:39.854Z</time></trkpt><trkpt lat="45.7477789" lon="11.7265988"><ele>107.0</ele><time>2026-04-19T16:10:42.853Z</time></trkpt><trkpt lat="45.7477002" lon="11.7266176"><ele>106.6</ele><time>2026-04-19T16:10:44.854Z</time></trkpt><trkpt lat="45.7476109" lon="11.7266768"><ele>106.19999999999999</ele><time>2026-04-19T16:10:46.854Z</time></trkpt><trkpt lat="45.7475197" lon="11.7267608"><ele>105.8</ele><time>2026-04-19T16:10:48.854Z</time></trkpt><trkpt lat="45.7474256" lon="11.7268427"><ele>105.4</ele><time>2026-04-19T16:10:50.853Z</time></trkpt><trkpt lat="45.7473292" lon="11.726924"><ele>105.0</ele><time>2026-04-19T16:10:52.853Z</time></trkpt><trkpt lat="45.7472221" lon="11.7270202"><ele>105.0</ele><time>2026-04-19T16:10:54.853Z</time></trkpt><trkpt lat="45.7471624" lon="11.7270666"><ele>105.0</ele><time>2026-04-19T16:10:55.854Z</time></trkpt><trkpt lat="45.7471027" lon="11.7271091"><ele>105.0</ele><time>2026-04-19T16:10:56.854Z</time></trkpt><trkpt lat="45.7470445" lon="11.7271465"><ele>105.0</ele><time>2026-04-19T16:10:57.854Z</time></trkpt><trkpt lat="45.7469869" lon="11.7271863"><ele>105.0</ele><time>2026-04-19T16:10:58.853Z</time></trkpt><trkpt lat="45.746876" lon="11.727268"><ele>105.0</ele><time>2026-04-19T16:11:00.854Z</time></trkpt><trkpt lat="45.7467661" lon="11.7273488"><ele>104.8</ele><time>2026-04-19T16:11:02.855Z</time></trkpt><trkpt lat="45.7466571" lon="11.7274262"><ele>104.6</ele><time>2026-04-19T16:11:04.854Z</time></trkpt><trkpt lat="45.7466015" lon="11.72747"><ele>104.4</ele><time>2026-04-19T16:11:05.854Z</time></trkpt><trkpt lat="45.7464937" lon="11.7275568"><ele>104.2</ele><time>2026-04-19T16:11:07.855Z</time></trkpt><trkpt lat="45.7463867" lon="11.7276404"><ele>104.0</ele><time>2026-04-19T16:11:09.854Z</time></trkpt><trkpt lat="45.746276" lon="11.7277244"><ele>104.16666666666666</ele><time>2026-04-19T16:11:11.855Z</time></trkpt><trkpt lat="45.7462209" lon="11.7277689"><ele>104.33333333333333</ele><time>2026-04-19T16:11:12.854Z</time></trkpt><trkpt lat="45.7461121" lon="11.727856"><ele>104.5</ele><time>2026-04-19T16:11:14.855Z</time></trkpt><trkpt lat="45.746055" lon="11.7279008"><ele>104.66666666666666</ele><time>2026-04-19T16:11:15.855Z</time></trkpt><trkpt lat="45.7459991" lon="11.7279511"><ele>104.83333333333333</ele><time>2026-04-19T16:11:16.855Z</time></trkpt><trkpt lat="45.7459444" lon="11.7280031"><ele>105.0</ele><time>2026-04-19T16:11:17.855Z</time></trkpt><trkpt lat="45.7458889" lon="11.7280586"><ele>104.6</ele><time>2026-04-19T16:11:18.855Z</time></trkpt><trkpt lat="45.7458348" lon="11.7281101"><ele>104.2</ele><time>2026-04-19T16:11:19.855Z</time></trkpt><trkpt lat="45.7457805" lon="11.7281609"><ele>103.80000000000001</ele><time>2026-04-19T16:11:20.854Z</time></trkpt><trkpt lat="45.7456817" lon="11.7282565"><ele>103.4</ele><time>2026-04-19T16:11:22.855Z</time></trkpt><trkpt lat="45.7455815" lon="11.7283446"><ele>103.0</ele><time>2026-04-19T16:11:24.855Z</time></trkpt><trkpt lat="45.74549" lon="11.7284355"><ele>103.0</ele><time>2026-04-19T16:11:26.854Z</time></trkpt><trkpt lat="45.7453973" lon="11.7285235"><ele>103.0</ele><time>2026-04-19T16:11:28.855Z</time></trkpt><trkpt lat="45.7453068" lon="11.7286155"><ele>103.0</ele><time>2026-04-19T16:11:30.855Z</time></trkpt><trkpt lat="45.745205" lon="11.7287045"><ele>103.0</ele><time>2026-04-19T16:11:32.854Z</time></trkpt><trkpt lat="45.7451046" lon="11.7288008"><ele>103.33333333333334</ele><time>2026-04-19T16:11:34.855Z</time></trkpt><trkpt lat="45.7450519" lon="11.7288507"><ele>103.66666666666667</ele><time>2026-04-19T16:11:35.854Z</time></trkpt><trkpt lat="45.744949" lon="11.7289506"><ele>104.0</ele><time>2026-04-19T16:11:37.855Z</time></trkpt><trkpt lat="45.7448956" lon="11.7289999"><ele>104.33333333333334</ele><time>2026-04-19T16:11:38.854Z</time></trkpt><trkpt lat="45.7448409" lon="11.729052"><ele>104.66666666666667</ele><time>2026-04-19T16:11:39.854Z</time></trkpt><trkpt lat="45.744788" lon="11.7291081"><ele>105.0</ele><time>2026-04-19T16:11:40.855Z</time></trkpt><trkpt lat="45.7446875" lon="11.7292046"><ele>105.0</ele><time>2026-04-19T16:11:42.855Z</time></trkpt><trkpt lat="45.7445878" lon="11.7293006"><ele>105.0</ele><time>2026-04-19T16:11:44.855Z</time></trkpt><trkpt lat="45.7444917" lon="11.7293967"><ele>105.0</ele><time>2026-04-19T16:11:46.854Z</time></trkpt><trkpt lat="45.7443932" lon="11.7294843"><ele>105.0</ele><time>2026-04-19T16:11:48.854Z</time></trkpt><trkpt lat="45.7442901" lon="11.7295679"><ele>104.4</ele><time>2026-04-19T16:11:50.855Z</time></trkpt><trkpt lat="45.7441944" lon="11.7296447"><ele>103.8</ele><time>2026-04-19T16:11:52.855Z</time></trkpt><trkpt lat="45.7440976" lon="11.7297122"><ele>103.19999999999999</ele><time>2026-04-19T16:11:54.854Z</time></trkpt><trkpt lat="45.7440013" lon="11.729761"><ele>102.6</ele><time>2026-04-19T16:11:56.854Z</time></trkpt><trkpt lat="45.7439075" lon="11.7298098"><ele>102.0</ele><time>2026-04-19T16:11:58.855Z</time></trkpt><trkpt lat="45.7438249" lon="11.7298698"><ele>102.0</ele><time>2026-04-19T16:12:00.854Z</time></trkpt><trkpt lat="45.7437421" lon="11.7299185"><ele>102.0</ele><time>2026-04-19T16:12:02.854Z</time></trkpt><trkpt lat="45.7436615" lon="11.7299651"><ele>102.0</ele><time>2026-04-19T16:12:04.856Z</time></trkpt><trkpt lat="45.7435812" lon="11.7300056"><ele>102.0</ele><time>2026-04-19T16:12:06.856Z</time></trkpt><trkpt lat="45.7435028" lon="11.7299838"><ele>102.0</ele><time>2026-04-19T16:12:08.856Z</time></trkpt><trkpt lat="45.7434418" lon="11.7298906"><ele>102.0</ele><time>2026-04-19T16:12:10.856Z</time></trkpt><trkpt lat="45.7433935" lon="11.7298055"><ele>102.0</ele><time>2026-04-19T16:12:12.855Z</time></trkpt><trkpt lat="45.743349" lon="11.7297181"><ele>102.0</ele><time>2026-04-19T16:12:14.856Z</time></trkpt><trkpt lat="45.7433123" lon="11.7296262"><ele>102.0</ele><time>2026-04-19T16:12:16.855Z</time></trkpt><trkpt lat="45.743269" lon="11.7295514"><ele>102.0</ele><time>2026-04-19T16:12:18.856Z</time></trkpt><trkpt lat="45.7432322" lon="11.7294501"><ele>102.0</ele><time>2026-04-19T16:12:20.855Z</time></trkpt><trkpt lat="45.7432193" lon="11.7293073"><ele>102.0</ele><time>2026-04-19T16:12:22.855Z</time></trkpt><trkpt lat="45.7431878" lon="11.7291531"><ele>102.0</ele><time>2026-04-19T16:12:24.856Z</time></trkpt><trkpt lat="45.7431566" lon="11.7289787"><ele>102.0</ele><time>2026-04-19T16:12:26.856Z</time></trkpt><trkpt lat="45.7431305" lon="11.7288078"><ele>102.0</ele><time>2026-04-19T16:12:28.856Z</time></trkpt><trkpt lat="45.7431019" lon="11.7286406"><ele>102.0</ele><time>2026-04-19T16:12:30.856Z</time></trkpt><trkpt lat="45.7430641" lon="11.7284718"><ele>101.6</ele><time>2026-04-19T16:12:32.856Z</time></trkpt><trkpt lat="45.7430286" lon="11.7283026"><ele>101.19999999999999</ele><time>2026-04-19T16:12:34.856Z</time></trkpt><trkpt lat="45.742996" lon="11.7281273"><ele>100.8</ele><time>2026-04-19T16:12:36.856Z</time></trkpt><trkpt lat="45.7429766" lon="11.7280315"><ele>100.4</ele><time>2026-04-19T16:12:37.856Z</time></trkpt><trkpt lat="45.742959" lon="11.7279298"><ele>100.0</ele><time>2026-04-19T16:12:38.855Z</time></trkpt><trkpt lat="45.7429488" lon="11.7278349"><ele>100.0</ele><time>2026-04-19T16:12:39.856Z</time></trkpt><trkpt lat="45.742937" lon="11.7277452"><ele>100.0</ele><time>2026-04-19T16:12:40.856Z</time></trkpt><trkpt lat="45.7429039" lon="11.7275806"><ele>100.0</ele><time>2026-04-19T16:12:42.856Z</time></trkpt><trkpt lat="45.7428791" lon="11.7274246"><ele>100.0</ele><time>2026-04-19T16:12:44.856Z</time></trkpt><trkpt lat="45.7428553" lon="11.7272665"><ele>100.0</ele><time>2026-04-19T16:12:46.857Z</time></trkpt><trkpt lat="45.7428335" lon="11.7271126"><ele>100.0</ele><time>2026-04-19T16:12:48.856Z</time></trkpt><trkpt lat="45.7428106" lon="11.7269626"><ele>100.0</ele><time>2026-04-19T16:12:50.856Z</time></trkpt><trkpt lat="45.7427834" lon="11.7268179"><ele>100.0</ele><time>2026-04-19T16:12:52.856Z</time></trkpt><trkpt lat="45.7427553" lon="11.7266769"><ele>100.0</ele><time>2026-04-19T16:12:54.856Z</time></trkpt><trkpt lat="45.7427248" lon="11.7265377"><ele>100.0</ele><time>2026-04-19T16:12:56.855Z</time></trkpt><trkpt lat="45.7426961" lon="11.7264013"><ele>99.6</ele><time>2026-04-19T16:12:58.857Z</time></trkpt><trkpt lat="45.7426605" lon="11.7262573"><ele>99.2</ele><time>2026-04-19T16:13:00.857Z</time></trkpt><trkpt lat="45.7426256" lon="11.726119"><ele>98.80000000000001</ele><time>2026-04-19T16:13:02.856Z</time></trkpt><trkpt lat="45.7425894" lon="11.7259817"><ele>98.4</ele><time>2026-04-19T16:13:04.856Z</time></trkpt><trkpt lat="45.7425419" lon="11.7258509"><ele>98.0</ele><time>2026-04-19T16:13:06.856Z</time></trkpt><trkpt lat="45.7424942" lon="11.7257054"><ele>98.0</ele><time>2026-04-19T16:13:08.857Z</time></trkpt><trkpt lat="45.7424462" lon="11.7255635"><ele>98.0</ele><time>2026-04-19T16:13:10.857Z</time></trkpt><trkpt lat="45.7424004" lon="11.7254156"><ele>98.0</ele><time>2026-04-19T16:13:12.857Z</time></trkpt><trkpt lat="45.7423556" lon="11.7252679"><ele>98.0</ele><time>2026-04-19T16:13:14.857Z</time></trkpt><trkpt lat="45.742322" lon="11.7251188"><ele>98.0</ele><time>2026-04-19T16:13:16.857Z</time></trkpt><trkpt lat="45.7422854" lon="11.7249659"><ele>98.75</ele><time>2026-04-19T16:13:18.856Z</time></trkpt><trkpt lat="45.7422444" lon="11.7248044"><ele>99.5</ele><time>2026-04-19T16:13:20.857Z</time></trkpt><trkpt lat="45.742209" lon="11.724646"><ele>100.25</ele><time>2026-04-19T16:13:22.857Z</time></trkpt><trkpt lat="45.7421758" lon="11.7244863"><ele>101.0</ele><time>2026-04-19T16:13:24.857Z</time></trkpt><trkpt lat="45.7421423" lon="11.7243219"><ele>101.0</ele><time>2026-04-19T16:13:26.856Z</time></trkpt><trkpt lat="45.7421098" lon="11.724165"><ele>101.0</ele><time>2026-04-19T16:13:28.857Z</time></trkpt><trkpt lat="45.7420785" lon="11.7240112"><ele>101.0</ele><time>2026-04-19T16:13:30.857Z</time></trkpt><trkpt lat="45.7420449" lon="11.7238597"><ele>101.0</ele><time>2026-04-19T16:13:32.857Z</time></trkpt><trkpt lat="45.7420158" lon="11.7237158"><ele>101.0</ele><time>2026-04-19T16:13:34.857Z</time></trkpt><trkpt lat="45.7419897" lon="11.7235891"><ele>100.8</ele><time>2026-04-19T16:13:36.857Z</time></trkpt><trkpt lat="45.7419402" lon="11.7234957"><ele>100.6</ele><time>2026-04-19T16:13:38.856Z</time></trkpt><trkpt lat="45.7418326" lon="11.7234359"><ele>100.4</ele><time>2026-04-19T16:13:40.857Z</time></trkpt><trkpt lat="45.7417095" lon="11.7234284"><ele>100.2</ele><time>2026-04-19T16:13:42.856Z</time></trkpt><trkpt lat="45.7415866" lon="11.7234469"><ele>100.0</ele><time>2026-04-19T16:13:44.857Z</time></trkpt><trkpt lat="45.7414675" lon="11.7234496"><ele>99.8</ele><time>2026-04-19T16:13:46.858Z</time></trkpt><trkpt lat="45.7413486" lon="11.7234607"><ele>99.6</ele><time>2026-04-19T16:13:48.858Z</time></trkpt><trkpt lat="45.7412413" lon="11.7234762"><ele>99.4</ele><time>2026-04-19T16:13:50.856Z</time></trkpt><trkpt lat="45.7411296" lon="11.7234915"><ele>99.2</ele><time>2026-04-19T16:13:52.858Z</time></trkpt><trkpt lat="45.7410228" lon="11.7235214"><ele>99.0</ele><time>2026-04-19T16:13:54.858Z</time></trkpt><trkpt lat="45.7409098" lon="11.7235585"><ele>99.5</ele><time>2026-04-19T16:13:56.857Z</time></trkpt><trkpt lat="45.7407918" lon="11.7236005"><ele>100.0</ele><time>2026-04-19T16:13:58.857Z</time></trkpt><trkpt lat="45.740676" lon="11.7236473"><ele>100.5</ele><time>2026-04-19T16:14:00.858Z</time></trkpt><trkpt lat="45.7405635" lon="11.7236795"><ele>101.0</ele><time>2026-04-19T16:14:02.858Z</time></trkpt><trkpt lat="45.7404583" lon="11.7237104"><ele>101.0</ele><time>2026-04-19T16:14:04.857Z</time></trkpt><trkpt lat="45.7403535" lon="11.7237645"><ele>101.0</ele><time>2026-04-19T16:14:06.857Z</time></trkpt><trkpt lat="45.7402616" lon="11.7238066"><ele>101.0</ele><time>2026-04-19T16:14:08.858Z</time></trkpt><trkpt lat="45.740168" lon="11.7238608"><ele>101.0</ele><time>2026-04-19T16:14:10.858Z</time></trkpt><trkpt lat="45.7400721" lon="11.723934"><ele>101.0</ele><time>2026-04-19T16:14:12.858Z</time></trkpt><trkpt lat="45.7399826" lon="11.7240048"><ele>100.4</ele><time>2026-04-19T16:14:14.858Z</time></trkpt><trkpt lat="45.7398908" lon="11.7240552"><ele>99.8</ele><time>2026-04-19T16:14:16.858Z</time></trkpt><trkpt lat="45.7398009" lon="11.724095"><ele>99.2</ele><time>2026-04-19T16:14:18.858Z</time></trkpt><trkpt lat="45.739707" lon="11.7241517"><ele>98.60000000000001</ele><time>2026-04-19T16:14:20.858Z</time></trkpt><trkpt lat="45.7396466" lon="11.7241834"><ele>98.0</ele><time>2026-04-19T16:14:21.858Z</time></trkpt><trkpt lat="45.7395371" lon="11.7242324"><ele>98.0</ele><time>2026-04-19T16:14:23.858Z</time></trkpt><trkpt lat="45.7394347" lon="11.7242677"><ele>98.0</ele><time>2026-04-19T16:14:25.858Z</time></trkpt><trkpt lat="45.739335" lon="11.7243074"><ele>98.0</ele><time>2026-04-19T16:14:27.858Z</time></trkpt><trkpt lat="45.7392312" lon="11.7243438"><ele>98.0</ele><time>2026-04-19T16:14:29.857Z</time></trkpt><trkpt lat="45.7391123" lon="11.7243627"><ele>98.0</ele><time>2026-04-19T16:14:31.857Z</time></trkpt><trkpt lat="45.7390438" lon="11.7243688"><ele>98.25</ele><time>2026-04-19T16:14:32.858Z</time></trkpt><trkpt lat="45.7389694" lon="11.7243748"><ele>98.5</ele><time>2026-04-19T16:14:33.858Z</time></trkpt><trkpt lat="45.7388943" lon="11.7243829"><ele>98.75</ele><time>2026-04-19T16:14:34.857Z</time></trkpt><trkpt lat="45.7388132" lon="11.7243878"><ele>99.0</ele><time>2026-04-19T16:14:35.857Z</time></trkpt><trkpt lat="45.7385497" lon="11.7244378"><ele>99.0</ele><time>2026-04-19T16:14:38.857Z</time></trkpt><trkpt lat="45.738457" lon="11.7244539"><ele>99.0</ele><time>2026-04-19T16:14:39.857Z</time></trkpt><trkpt lat="45.7383756" lon="11.7244636"><ele>99.0</ele><time>2026-04-19T16:14:40.858Z</time></trkpt><trkpt lat="45.7383074" lon="11.724465"><ele>99.0</ele><time>2026-04-19T16:14:41.858Z</time></trkpt><trkpt lat="45.7381987" lon="11.7244519"><ele>99.0</ele><time>2026-04-19T16:14:43.858Z</time></trkpt><trkpt lat="45.7381277" lon="11.7244527"><ele>99.0</ele><time>2026-04-19T16:14:45.859Z</time></trkpt><trkpt lat="45.7380544" lon="11.7244588"><ele>99.0</ele><time>2026-04-19T16:14:48.858Z</time></trkpt><trkpt lat="45.7379765" lon="11.7244868"><ele>99.0</ele><time>2026-04-19T16:14:51.859Z</time></trkpt><trkpt lat="45.7378969" lon="11.7245147"><ele>99.0</ele><time>2026-04-19T16:14:53.859Z</time></trkpt><trkpt lat="45.7378124" lon="11.7245369"><ele>99.0</ele><time>2026-04-19T16:14:55.858Z</time></trkpt><trkpt lat="45.7377345" lon="11.7245649"><ele>99.0</ele><time>2026-04-19T16:14:57.858Z</time></trkpt><trkpt lat="45.7376513" lon="11.7245938"><ele>99.0</ele><time>2026-04-19T16:14:59.859Z</time></trkpt><trkpt lat="45.7375646" lon="11.7246181"><ele>98.66666666666667</ele><time>2026-04-19T16:15:01.859Z</time></trkpt><trkpt lat="45.7374815" lon="11.7246484"><ele>98.33333333333334</ele><time>2026-04-19T16:15:03.859Z</time></trkpt><trkpt lat="45.7373981" lon="11.7246712"><ele>98.0</ele><time>2026-04-19T16:15:05.859Z</time></trkpt><trkpt lat="45.737306" lon="11.7247012"><ele>97.66666666666667</ele><time>2026-04-19T16:15:07.859Z</time></trkpt><trkpt lat="45.7372168" lon="11.7247368"><ele>97.33333333333334</ele><time>2026-04-19T16:15:09.858Z</time></trkpt><trkpt lat="45.7371314" lon="11.7247766"><ele>97.0</ele><time>2026-04-19T16:15:11.859Z</time></trkpt><trkpt lat="45.7370385" lon="11.7248099"><ele>97.0</ele><time>2026-04-19T16:15:13.859Z</time></trkpt><trkpt lat="45.7369478" lon="11.72484"><ele>97.0</ele><time>2026-04-19T16:15:15.859Z</time></trkpt><trkpt lat="45.7368552" lon="11.7248678"><ele>97.0</ele><time>2026-04-19T16:15:17.859Z</time></trkpt><trkpt lat="45.7367561" lon="11.7249049"><ele>97.0</ele><time>2026-04-19T16:15:19.859Z</time></trkpt><trkpt lat="45.7366763" lon="11.7249257"><ele>97.0</ele><time>2026-04-19T16:15:21.859Z</time></trkpt><trkpt lat="45.73659" lon="11.7249459"><ele>97.0</ele><time>2026-04-19T16:15:23.859Z</time></trkpt><trkpt lat="45.7365047" lon="11.7249707"><ele>97.0</ele><time>2026-04-19T16:15:25.858Z</time></trkpt><trkpt lat="45.7364246" lon="11.725004"><ele>97.0</ele><time>2026-04-19T16:15:27.859Z</time></trkpt><trkpt lat="45.7363489" lon="11.7250168"><ele>97.0</ele><time>2026-04-19T16:15:29.858Z</time></trkpt><trkpt lat="45.7362507" lon="11.725058"><ele>97.0</ele><time>2026-04-19T16:15:31.859Z</time></trkpt><trkpt lat="45.7361435" lon="11.7251144"><ele>97.19999999999999</ele><time>2026-04-19T16:15:33.859Z</time></trkpt><trkpt lat="45.7360487" lon="11.7251656"><ele>97.4</ele><time>2026-04-19T16:15:35.859Z</time></trkpt><trkpt lat="45.7359575" lon="11.7252019"><ele>97.6</ele><time>2026-04-19T16:15:37.86Z</time></trkpt><trkpt lat="45.7358684" lon="11.7251986"><ele>97.80000000000001</ele><time>2026-04-19T16:15:39.86Z</time></trkpt><trkpt lat="45.7357901" lon="11.7251256"><ele>98.0</ele><time>2026-04-19T16:15:41.86Z</time></trkpt><trkpt lat="45.7357028" lon="11.725045"><ele>98.0</ele><time>2026-04-19T16:15:43.86Z</time></trkpt><trkpt lat="45.7356041" lon="11.7249539"><ele>98.0</ele><time>2026-04-19T16:15:45.86Z</time></trkpt><trkpt lat="45.7355264" lon="11.7248884"><ele>98.0</ele><time>2026-04-19T16:15:47.859Z</time></trkpt><trkpt lat="45.7354451" lon="11.7248251"><ele>98.0</ele><time>2026-04-19T16:15:49.86Z</time></trkpt><trkpt lat="45.7353675" lon="11.7247653"><ele>98.0</ele><time>2026-04-19T16:15:51.859Z</time></trkpt><trkpt lat="45.7352901" lon="11.724712"><ele>97.49999999999999</ele><time>2026-04-19T16:15:53.86Z</time></trkpt><trkpt lat="45.7352168" lon="11.7246814"><ele>97.0</ele><time>2026-04-19T16:15:55.859Z</time></trkpt><trkpt lat="45.7351348" lon="11.724673"><ele>96.5</ele><time>2026-04-19T16:15:57.86Z</time></trkpt><trkpt lat="45.735062" lon="11.7246268"><ele>96.0</ele><time>2026-04-19T16:15:59.86Z</time></trkpt><trkpt lat="45.734997" lon="11.7245723"><ele>95.5</ele><time>2026-04-19T16:16:01.86Z</time></trkpt><trkpt lat="45.7349257" lon="11.7245211"><ele>95.0</ele><time>2026-04-19T16:16:03.86Z</time></trkpt><trkpt lat="45.7348327" lon="11.7244491"><ele>95.0</ele><time>2026-04-19T16:16:05.86Z</time></trkpt><trkpt lat="45.7347342" lon="11.7243718"><ele>95.0</ele><time>2026-04-19T16:16:07.859Z</time></trkpt><trkpt lat="45.7346456" lon="11.7243003"><ele>95.0</ele><time>2026-04-19T16:16:09.86Z</time></trkpt><trkpt lat="45.7345587" lon="11.7242341"><ele>95.0</ele><time>2026-04-19T16:16:11.859Z</time></trkpt><trkpt lat="45.7344663" lon="11.724159"><ele>95.0</ele><time>2026-04-19T16:16:13.859Z</time></trkpt><trkpt lat="45.7343748" lon="11.7240802"><ele>95.0</ele><time>2026-04-19T16:16:15.86Z</time></trkpt><trkpt lat="45.7342887" lon="11.7240172"><ele>95.0</ele><time>2026-04-19T16:16:17.86Z</time></trkpt><trkpt lat="45.7342021" lon="11.7239486"><ele>95.0</ele><time>2026-04-19T16:16:19.86Z</time></trkpt><trkpt lat="45.7341064" lon="11.7238774"><ele>95.0</ele><time>2026-04-19T16:16:21.86Z</time></trkpt><trkpt lat="45.7340067" lon="11.7238076"><ele>95.0</ele><time>2026-04-19T16:16:23.86Z</time></trkpt><trkpt lat="45.7339076" lon="11.7237254"><ele>95.0</ele><time>2026-04-19T16:16:25.859Z</time></trkpt><trkpt lat="45.7338079" lon="11.7236438"><ele>95.0</ele><time>2026-04-19T16:16:27.86Z</time></trkpt><trkpt lat="45.7337127" lon="11.7235731"><ele>95.0</ele><time>2026-04-19T16:16:29.86Z</time></trkpt><trkpt lat="45.733621" lon="11.723503"><ele>95.0</ele><time>2026-04-19T16:16:31.861Z</time></trkpt><trkpt lat="45.7335363" lon="11.7234331"><ele>95.0</ele><time>2026-04-19T16:16:33.861Z</time></trkpt><trkpt lat="45.7334513" lon="11.7233667"><ele>94.83333333333334</ele><time>2026-04-19T16:16:35.861Z</time></trkpt><trkpt lat="45.733358" lon="11.723335"><ele>94.66666666666667</ele><time>2026-04-19T16:16:37.86Z</time></trkpt><trkpt lat="45.733255" lon="11.723353"><ele>94.5</ele><time>2026-04-19T16:16:39.861Z</time></trkpt><trkpt lat="45.7331684" lon="11.7234576"><ele>94.33333333333333</ele><time>2026-04-19T16:16:41.861Z</time></trkpt><trkpt lat="45.7331403" lon="11.7235436"><ele>94.16666666666666</ele><time>2026-04-19T16:16:42.861Z</time></trkpt><trkpt lat="45.7331288" lon="11.7236413"><ele>94.0</ele><time>2026-04-19T16:16:43.861Z</time></trkpt><trkpt lat="45.7331191" lon="11.7238078"><ele>94.0</ele><time>2026-04-19T16:16:45.861Z</time></trkpt><trkpt lat="45.7330848" lon="11.7238909"><ele>94.0</ele><time>2026-04-19T16:16:47.861Z</time></trkpt><trkpt lat="45.7330188" lon="11.7238605"><ele>94.0</ele><time>2026-04-19T16:16:49.861Z</time></trkpt><trkpt lat="45.7329341" lon="11.7238403"><ele>94.0</ele><time>2026-04-19T16:16:51.86Z</time></trkpt><trkpt lat="45.7328206" lon="11.7237919"><ele>94.0</ele><time>2026-04-19T16:16:53.86Z</time></trkpt><trkpt lat="45.7327444" lon="11.7237503"><ele>94.0</ele><time>2026-04-19T16:16:54.861Z</time></trkpt><trkpt lat="45.7326757" lon="11.723718"><ele>94.16666666666666</ele><time>2026-04-19T16:16:55.861Z</time></trkpt><trkpt lat="45.7326139" lon="11.7236962"><ele>94.33333333333333</ele><time>2026-04-19T16:16:56.861Z</time></trkpt><trkpt lat="45.73249" lon="11.7236679"><ele>94.5</ele><time>2026-04-19T16:16:58.861Z</time></trkpt><trkpt lat="45.7324254" lon="11.723643"><ele>94.66666666666667</ele><time>2026-04-19T16:16:59.86Z</time></trkpt><trkpt lat="45.732306" lon="11.7236015"><ele>94.83333333333334</ele><time>2026-04-19T16:17:01.861Z</time></trkpt><trkpt lat="45.7322444" lon="11.7235824"><ele>95.0</ele><time>2026-04-19T16:17:02.861Z</time></trkpt><trkpt lat="45.7321293" lon="11.7235533"><ele>95.0</ele><time>2026-04-19T16:17:04.861Z</time></trkpt><trkpt lat="45.7320221" lon="11.7235256"><ele>95.0</ele><time>2026-04-19T16:17:06.861Z</time></trkpt><trkpt lat="45.7319225" lon="11.7234936"><ele>95.0</ele><time>2026-04-19T16:17:08.861Z</time></trkpt><trkpt lat="45.7318174" lon="11.7234671"><ele>95.0</ele><time>2026-04-19T16:17:10.861Z</time></trkpt><trkpt lat="45.7317066" lon="11.7234533"><ele>95.0</ele><time>2026-04-19T16:17:12.86Z</time></trkpt><trkpt lat="45.7315974" lon="11.7234664"><ele>95.0</ele><time>2026-04-19T16:17:14.86Z</time></trkpt><trkpt lat="45.7314877" lon="11.7234822"><ele>95.0</ele><time>2026-04-19T16:17:16.86Z</time></trkpt><trkpt lat="45.7313714" lon="11.723527"><ele>95.0</ele><time>2026-04-19T16:17:18.86Z</time></trkpt><trkpt lat="45.7312546" lon="11.7235685"><ele>95.0</ele><time>2026-04-19T16:17:20.861Z</time></trkpt><trkpt lat="45.7311324" lon="11.7235886"><ele>94.6</ele><time>2026-04-19T16:17:22.861Z</time></trkpt><trkpt lat="45.7310231" lon="11.7236055"><ele>94.2</ele><time>2026-04-19T16:17:24.86Z</time></trkpt><trkpt lat="45.7309164" lon="11.7236215"><ele>93.80000000000001</ele><time>2026-04-19T16:17:26.862Z</time></trkpt><trkpt lat="45.7308072" lon="11.7236302"><ele>93.4</ele><time>2026-04-19T16:17:28.861Z</time></trkpt><trkpt lat="45.7307044" lon="11.7236305"><ele>93.0</ele><time>2026-04-19T16:17:30.862Z</time></trkpt><trkpt lat="45.7305945" lon="11.7236347"><ele>93.0</ele><time>2026-04-19T16:17:32.861Z</time></trkpt><trkpt lat="45.7304795" lon="11.7236298"><ele>93.0</ele><time>2026-04-19T16:17:34.862Z</time></trkpt><trkpt lat="45.7303611" lon="11.7236353"><ele>93.0</ele><time>2026-04-19T16:17:36.862Z</time></trkpt><trkpt lat="45.7302518" lon="11.7236228"><ele>93.0</ele><time>2026-04-19T16:17:38.862Z</time></trkpt><trkpt lat="45.7301368" lon="11.7236042"><ele>93.2</ele><time>2026-04-19T16:17:40.862Z</time></trkpt><trkpt lat="45.7300191" lon="11.7236158"><ele>93.4</ele><time>2026-04-19T16:17:42.862Z</time></trkpt><trkpt lat="45.7299099" lon="11.7235993"><ele>93.60000000000001</ele><time>2026-04-19T16:17:44.862Z</time></trkpt><trkpt lat="45.7298078" lon="11.7235807"><ele>93.80000000000001</ele><time>2026-04-19T16:17:46.862Z</time></trkpt><trkpt lat="45.7296997" lon="11.7235571"><ele>94.0</ele><time>2026-04-19T16:17:48.862Z</time></trkpt><trkpt lat="45.7295943" lon="11.7235447"><ele>94.0</ele><time>2026-04-19T16:17:50.861Z</time></trkpt><trkpt lat="45.729478" lon="11.7235153"><ele>94.0</ele><time>2026-04-19T16:17:52.862Z</time></trkpt><trkpt lat="45.7293603" lon="11.723481"><ele>94.0</ele><time>2026-04-19T16:17:54.861Z</time></trkpt><trkpt lat="45.7292454" lon="11.7234518"><ele>94.0</ele><time>2026-04-19T16:17:56.861Z</time></trkpt><trkpt lat="45.7291249" lon="11.7234251"><ele>94.0</ele><time>2026-04-19T16:17:58.862Z</time></trkpt><trkpt lat="45.7290016" lon="11.7233837"><ele>94.0</ele><time>2026-04-19T16:18:00.862Z</time></trkpt><trkpt lat="45.7289377" lon="11.723359"><ele>94.0</ele><time>2026-04-19T16:18:01.862Z</time></trkpt><trkpt lat="45.7288753" lon="11.7233372"><ele>94.0</ele><time>2026-04-19T16:18:02.862Z</time></trkpt><trkpt lat="45.7288057" lon="11.7233223"><ele>94.0</ele><time>2026-04-19T16:18:03.862Z</time></trkpt><trkpt lat="45.7287397" lon="11.7233043"><ele>94.0</ele><time>2026-04-19T16:18:04.861Z</time></trkpt><trkpt lat="45.728676" lon="11.7232802"><ele>94.0</ele><time>2026-04-19T16:18:05.862Z</time></trkpt><trkpt lat="45.7286079" lon="11.7232571"><ele>94.0</ele><time>2026-04-19T16:18:06.862Z</time></trkpt><trkpt lat="45.7285322" lon="11.7232423"><ele>94.0</ele><time>2026-04-19T16:18:07.862Z</time></trkpt><trkpt lat="45.7284577" lon="11.7232344"><ele>94.0</ele><time>2026-04-19T16:18:08.862Z</time></trkpt><trkpt lat="45.7283848" lon="11.7232311"><ele>94.0</ele><time>2026-04-19T16:18:09.862Z</time></trkpt><trkpt lat="45.7283118" lon="11.723228"><ele>94.0</ele><time>2026-04-19T16:18:10.862Z</time></trkpt><trkpt lat="45.7282439" lon="11.7232213"><ele>94.0</ele><time>2026-04-19T16:18:11.862Z</time></trkpt><trkpt lat="45.7281777" lon="11.7232143"><ele>93.85714285714286</ele><time>2026-04-19T16:18:12.862Z</time></trkpt><trkpt lat="45.7281108" lon="11.7232035"><ele>93.71428571428571</ele><time>2026-04-19T16:18:13.862Z</time></trkpt><trkpt lat="45.7280437" lon="11.7231874"><ele>93.57142857142858</ele><time>2026-04-19T16:18:14.863Z</time></trkpt><trkpt lat="45.727976" lon="11.7231706"><ele>93.42857142857143</ele><time>2026-04-19T16:18:15.862Z</time></trkpt><trkpt lat="45.7279102" lon="11.7231555"><ele>93.28571428571429</ele><time>2026-04-19T16:18:16.862Z</time></trkpt><trkpt lat="45.7278449" lon="11.7231402"><ele>93.14285714285715</ele><time>2026-04-19T16:18:17.863Z</time></trkpt><trkpt lat="45.7277794" lon="11.7231254"><ele>93.0</ele><time>2026-04-19T16:18:18.863Z</time></trkpt><trkpt lat="45.7277139" lon="11.7231135"><ele>92.71428571428572</ele><time>2026-04-19T16:18:19.862Z</time></trkpt><trkpt lat="45.7276488" lon="11.7231044"><ele>92.42857142857143</ele><time>2026-04-19T16:18:20.863Z</time></trkpt><trkpt lat="45.7275814" lon="11.7230941"><ele>92.14285714285714</ele><time>2026-04-19T16:18:21.862Z</time></trkpt><trkpt lat="45.7275144" lon="11.7230798"><ele>91.85714285714286</ele><time>2026-04-19T16:18:22.862Z</time></trkpt><trkpt lat="45.7274488" lon="11.723064"><ele>91.57142857142857</ele><time>2026-04-19T16:18:23.863Z</time></trkpt><trkpt lat="45.7273823" lon="11.7230505"><ele>91.28571428571429</ele><time>2026-04-19T16:18:24.863Z</time></trkpt><trkpt lat="45.7273139" lon="11.7230429"><ele>91.0</ele><time>2026-04-19T16:18:25.863Z</time></trkpt><trkpt lat="45.7272457" lon="11.7230348"><ele>91.0</ele><time>2026-04-19T16:18:26.862Z</time></trkpt><trkpt lat="45.7271772" lon="11.7230223"><ele>91.0</ele><time>2026-04-19T16:18:27.863Z</time></trkpt><trkpt lat="45.7271101" lon="11.7230098"><ele>91.0</ele><time>2026-04-19T16:18:28.863Z</time></trkpt><trkpt lat="45.7270418" lon="11.7229983"><ele>91.0</ele><time>2026-04-19T16:18:29.863Z</time></trkpt><trkpt lat="45.7269722" lon="11.7229874"><ele>91.0</ele><time>2026-04-19T16:18:30.862Z</time></trkpt><trkpt lat="45.7269003" lon="11.7229746"><ele>91.0</ele><time>2026-04-19T16:18:31.863Z</time></trkpt><trkpt lat="45.726829" lon="11.7229615"><ele>91.0</ele><time>2026-04-19T16:18:32.863Z</time></trkpt><trkpt lat="45.7267598" lon="11.7229477"><ele>91.0</ele><time>2026-04-19T16:18:33.863Z</time></trkpt><trkpt lat="45.7266907" lon="11.7229305"><ele>91.0</ele><time>2026-04-19T16:18:34.863Z</time></trkpt><trkpt lat="45.7266217" lon="11.7229112"><ele>91.0</ele><time>2026-04-19T16:18:35.863Z</time></trkpt><trkpt lat="45.7265525" lon="11.7228921"><ele>91.0</ele><time>2026-04-19T16:18:36.862Z</time></trkpt><trkpt lat="45.726483" lon="11.7228739"><ele>91.0</ele><time>2026-04-19T16:18:37.862Z</time></trkpt><trkpt lat="45.7264149" lon="11.7228576"><ele>91.0</ele><time>2026-04-19T16:18:38.862Z</time></trkpt><trkpt lat="45.7263478" lon="11.7228399"><ele>91.0</ele><time>2026-04-19T16:18:39.863Z</time></trkpt><trkpt lat="45.7262807" lon="11.7228217"><ele>91.0</ele><time>2026-04-19T16:18:40.863Z</time></trkpt><trkpt lat="45.7262155" lon="11.7228042"><ele>91.0</ele><time>2026-04-19T16:18:41.863Z</time></trkpt><trkpt lat="45.726152" lon="11.7227882"><ele>91.0</ele><time>2026-04-19T16:18:42.863Z</time></trkpt><trkpt lat="45.7260864" lon="11.7227725"><ele>91.0</ele><time>2026-04-19T16:18:43.862Z</time></trkpt><trkpt lat="45.7260206" lon="11.7227556"><ele>91.0</ele><time>2026-04-19T16:18:44.863Z</time></trkpt><trkpt lat="45.7259545" lon="11.7227397"><ele>91.0</ele><time>2026-04-19T16:18:45.863Z</time></trkpt><trkpt lat="45.7258881" lon="11.7227244"><ele>91.0</ele><time>2026-04-19T16:18:46.863Z</time></trkpt><trkpt lat="45.7258221" lon="11.7227084"><ele>90.71428571428571</ele><time>2026-04-19T16:18:47.863Z</time></trkpt><trkpt lat="45.7257555" lon="11.7226931"><ele>90.42857142857143</ele><time>2026-04-19T16:18:48.863Z</time></trkpt><trkpt lat="45.7256893" lon="11.7226781"><ele>90.14285714285714</ele><time>2026-04-19T16:18:49.862Z</time></trkpt><trkpt lat="45.7256233" lon="11.7226612"><ele>89.85714285714286</ele><time>2026-04-19T16:18:50.863Z</time></trkpt><trkpt lat="45.7255586" lon="11.7226448"><ele>89.57142857142857</ele><time>2026-04-19T16:18:51.863Z</time></trkpt><trkpt lat="45.7254928" lon="11.7226309"><ele>89.28571428571428</ele><time>2026-04-19T16:18:52.863Z</time></trkpt><trkpt lat="45.7254268" lon="11.722617"><ele>89.0</ele><time>2026-04-19T16:18:53.863Z</time></trkpt><trkpt lat="45.7253625" lon="11.7226045"><ele>88.99999999999999</ele><time>2026-04-19T16:18:54.863Z</time></trkpt><trkpt lat="45.7252977" lon="11.722592"><ele>89.0</ele><time>2026-04-19T16:18:55.863Z</time></trkpt><trkpt lat="45.7252321" lon="11.7225807"><ele>89.0</ele><time>2026-04-19T16:18:56.863Z</time></trkpt><trkpt lat="45.7251665" lon="11.7225738"><ele>89.0</ele><time>2026-04-19T16:18:57.863Z</time></trkpt><trkpt lat="45.7251015" lon="11.72257"><ele>89.0</ele><time>2026-04-19T16:18:58.863Z</time></trkpt><trkpt lat="45.7250357" lon="11.7225678"><ele>88.99999999999999</ele><time>2026-04-19T16:18:59.863Z</time></trkpt><trkpt lat="45.7249707" lon="11.7225675"><ele>89.0</ele><time>2026-04-19T16:19:00.863Z</time></trkpt><trkpt lat="45.7249049" lon="11.7225655"><ele>88.85714285714285</ele><time>2026-04-19T16:19:01.863Z</time></trkpt><trkpt lat="45.7248388" lon="11.7225621"><ele>88.71428571428571</ele><time>2026-04-19T16:19:02.863Z</time></trkpt><trkpt lat="45.7247708" lon="11.7225591"><ele>88.57142857142857</ele><time>2026-04-19T16:19:03.863Z</time></trkpt><trkpt lat="45.7247038" lon="11.7225545"><ele>88.42857142857142</ele><time>2026-04-19T16:19:04.863Z</time></trkpt><trkpt lat="45.7246356" lon="11.722548"><ele>88.28571428571428</ele><time>2026-04-19T16:19:05.863Z</time></trkpt><trkpt lat="45.7245641" lon="11.7225427"><ele>88.14285714285714</ele><time>2026-04-19T16:19:06.862Z</time></trkpt><trkpt lat="45.7244928" lon="11.7225386"><ele>88.0</ele><time>2026-04-19T16:19:07.862Z</time></trkpt><trkpt lat="45.7244242" lon="11.7225311"><ele>88.0</ele><time>2026-04-19T16:19:08.863Z</time></trkpt><trkpt lat="45.7243581" lon="11.7225191"><ele>88.0</ele><time>2026-04-19T16:19:09.863Z</time></trkpt><trkpt lat="45.7242909" lon="11.722505"><ele>88.0</ele><time>2026-04-19T16:19:10.863Z</time></trkpt><trkpt lat="45.7242229" lon="11.7224865"><ele>88.0</ele><time>2026-04-19T16:19:11.863Z</time></trkpt><trkpt lat="45.7241569" lon="11.7224739"><ele>88.0</ele><time>2026-04-19T16:19:12.863Z</time></trkpt><trkpt lat="45.7240913" lon="11.7224652"><ele>88.0</ele><time>2026-04-19T16:19:13.863Z</time></trkpt><trkpt lat="45.7240276" lon="11.7224535"><ele>88.0</ele><time>2026-04-19T16:19:14.864Z</time></trkpt><trkpt lat="45.7239614" lon="11.7224413"><ele>88.0</ele><time>2026-04-19T16:19:15.864Z</time></trkpt><trkpt lat="45.7238953" lon="11.7224272"><ele>88.0</ele><time>2026-04-19T16:19:16.864Z</time></trkpt><trkpt lat="45.7238304" lon="11.722408"><ele>88.0</ele><time>2026-04-19T16:19:17.864Z</time></trkpt><trkpt lat="45.7237682" lon="11.7223887"><ele>88.0</ele><time>2026-04-19T16:19:18.864Z</time></trkpt><trkpt lat="45.7237034" lon="11.7223732"><ele>88.0</ele><time>2026-04-19T16:19:19.864Z</time></trkpt><trkpt lat="45.7236353" lon="11.7223573"><ele>88.0</ele><time>2026-04-19T16:19:20.863Z</time></trkpt><trkpt lat="45.7235691" lon="11.7223437"><ele>88.0</ele><time>2026-04-19T16:19:21.864Z</time></trkpt><trkpt lat="45.7235055" lon="11.7223322"><ele>88.0</ele><time>2026-04-19T16:19:22.863Z</time></trkpt><trkpt lat="45.7234412" lon="11.7223142"><ele>88.0</ele><time>2026-04-19T16:19:23.864Z</time></trkpt><trkpt lat="45.7233756" lon="11.7222911"><ele>88.0</ele><time>2026-04-19T16:19:24.864Z</time></trkpt><trkpt lat="45.7233078" lon="11.7222746"><ele>88.0</ele><time>2026-04-19T16:19:25.864Z</time></trkpt><trkpt lat="45.7232406" lon="11.7222655"><ele>88.0</ele><time>2026-04-19T16:19:26.864Z</time></trkpt><trkpt lat="45.723173" lon="11.7222551"><ele>88.0</ele><time>2026-04-19T16:19:27.863Z</time></trkpt><trkpt lat="45.7231098" lon="11.7222447"><ele>88.0</ele><time>2026-04-19T16:19:28.864Z</time></trkpt><trkpt lat="45.723047" lon="11.7222331"><ele>88.0</ele><time>2026-04-19T16:19:29.863Z</time></trkpt><trkpt lat="45.7229266" lon="11.7221971"><ele>88.0</ele><time>2026-04-19T16:19:31.864Z</time></trkpt><trkpt lat="45.7228607" lon="11.7221793"><ele>88.0</ele><time>2026-04-19T16:19:32.864Z</time></trkpt><trkpt lat="45.7227952" lon="11.7221668"><ele>88.0</ele><time>2026-04-19T16:19:33.863Z</time></trkpt><trkpt lat="45.7227276" lon="11.7221594"><ele>88.0</ele><time>2026-04-19T16:19:34.863Z</time></trkpt><trkpt lat="45.7226622" lon="11.7221528"><ele>88.0</ele><time>2026-04-19T16:19:35.864Z</time></trkpt><trkpt lat="45.7225966" lon="11.7221456"><ele>87.83333333333333</ele><time>2026-04-19T16:19:36.864Z</time></trkpt><trkpt lat="45.7225289" lon="11.7221362"><ele>87.66666666666666</ele><time>2026-04-19T16:19:37.864Z</time></trkpt><trkpt lat="45.7224628" lon="11.7221259"><ele>87.5</ele><time>2026-04-19T16:19:38.864Z</time></trkpt><trkpt lat="45.7223957" lon="11.7221157"><ele>87.33333333333333</ele><time>2026-04-19T16:19:39.864Z</time></trkpt><trkpt lat="45.722271" lon="11.7220939"><ele>87.16666666666667</ele><time>2026-04-19T16:19:41.864Z</time></trkpt><trkpt lat="45.7222078" lon="11.7220835"><ele>87.0</ele><time>2026-04-19T16:19:42.864Z</time></trkpt><trkpt lat="45.722143" lon="11.7220725"><ele>87.0</ele><time>2026-04-19T16:19:43.864Z</time></trkpt><trkpt lat="45.722077" lon="11.7220622"><ele>87.0</ele><time>2026-04-19T16:19:44.864Z</time></trkpt><trkpt lat="45.7220107" lon="11.722053"><ele>87.0</ele><time>2026-04-19T16:19:45.864Z</time></trkpt><trkpt lat="45.7219464" lon="11.7220418"><ele>87.0</ele><time>2026-04-19T16:19:46.864Z</time></trkpt><trkpt lat="45.7218829" lon="11.7220304"><ele>87.0</ele><time>2026-04-19T16:19:47.864Z</time></trkpt><trkpt lat="45.7218188" lon="11.7220185"><ele>87.0</ele><time>2026-04-19T16:19:48.864Z</time></trkpt><trkpt lat="45.7217564" lon="11.7220024"><ele>87.0</ele><time>2026-04-19T16:19:49.864Z</time></trkpt><trkpt lat="45.7216945" lon="11.7219805"><ele>87.0</ele><time>2026-04-19T16:19:50.864Z</time></trkpt><trkpt lat="45.7216345" lon="11.7219525"><ele>87.0</ele><time>2026-04-19T16:19:51.864Z</time></trkpt><trkpt lat="45.7215726" lon="11.7219236"><ele>87.0</ele><time>2026-04-19T16:19:52.864Z</time></trkpt><trkpt lat="45.7215108" lon="11.7218944"><ele>87.0</ele><time>2026-04-19T16:19:53.864Z</time></trkpt><trkpt lat="45.7214497" lon="11.7218652"><ele>87.0</ele><time>2026-04-19T16:19:54.863Z</time></trkpt><trkpt lat="45.7213327" lon="11.7218011"><ele>87.0</ele><time>2026-04-19T16:19:56.864Z</time></trkpt><trkpt lat="45.7212184" lon="11.7217405"><ele>87.0</ele><time>2026-04-19T16:19:58.864Z</time></trkpt><trkpt lat="45.7211047" lon="11.721666"><ele>87.0</ele><time>2026-04-19T16:20:00.864Z</time></trkpt><trkpt lat="45.7209909" lon="11.721588"><ele>87.0</ele><time>2026-04-19T16:20:02.863Z</time></trkpt><trkpt lat="45.7208831" lon="11.721514"><ele>87.0</ele><time>2026-04-19T16:20:04.864Z</time></trkpt><trkpt lat="45.7208251" lon="11.7214733"><ele>87.0</ele><time>2026-04-19T16:20:05.864Z</time></trkpt><trkpt lat="45.7207673" lon="11.7214315"><ele>87.0</ele><time>2026-04-19T16:20:06.864Z</time></trkpt><trkpt lat="45.7207107" lon="11.7213899"><ele>87.0</ele><time>2026-04-19T16:20:07.864Z</time></trkpt><trkpt lat="45.7205985" lon="11.7213091"><ele>87.0</ele><time>2026-04-19T16:20:09.865Z</time></trkpt><trkpt lat="45.7205404" lon="11.7212662"><ele>87.0</ele><time>2026-04-19T16:20:10.864Z</time></trkpt><trkpt lat="45.7204836" lon="11.7212236"><ele>87.0</ele><time>2026-04-19T16:20:11.865Z</time></trkpt><trkpt lat="45.7203753" lon="11.7211452"><ele>87.0</ele><time>2026-04-19T16:20:13.865Z</time></trkpt><trkpt lat="45.7202683" lon="11.7210626"><ele>87.0</ele><time>2026-04-19T16:20:15.865Z</time></trkpt><trkpt lat="45.7201663" lon="11.7209817"><ele>87.0</ele><time>2026-04-19T16:20:17.864Z</time></trkpt><trkpt lat="45.7200582" lon="11.720912"><ele>87.0</ele><time>2026-04-19T16:20:19.864Z</time></trkpt><trkpt lat="45.7199643" lon="11.720841"><ele>87.0</ele><time>2026-04-19T16:20:21.864Z</time></trkpt><trkpt lat="45.7198667" lon="11.720767"><ele>87.0</ele><time>2026-04-19T16:20:23.865Z</time></trkpt><trkpt lat="45.7197736" lon="11.7207006"><ele>87.0</ele><time>2026-04-19T16:20:25.864Z</time></trkpt><trkpt lat="45.719684" lon="11.7206309"><ele>87.0</ele><time>2026-04-19T16:20:27.864Z</time></trkpt><trkpt lat="45.7195897" lon="11.720562"><ele>87.0</ele><time>2026-04-19T16:20:29.865Z</time></trkpt><trkpt lat="45.7194943" lon="11.7204953"><ele>87.0</ele><time>2026-04-19T16:20:31.865Z</time></trkpt><trkpt lat="45.7193924" lon="11.7204215"><ele>87.0</ele><time>2026-04-19T16:20:33.865Z</time></trkpt><trkpt lat="45.7192929" lon="11.7203531"><ele>87.0</ele><time>2026-04-19T16:20:35.865Z</time></trkpt><trkpt lat="45.7192119" lon="11.7202627"><ele>87.0</ele><time>2026-04-19T16:20:37.865Z</time></trkpt><trkpt lat="45.7191598" lon="11.7201379"><ele>87.0</ele><time>2026-04-19T16:20:39.865Z</time></trkpt><trkpt lat="45.7190928" lon="11.7200099"><ele>87.0</ele><time>2026-04-19T16:20:41.865Z</time></trkpt><trkpt lat="45.718988" lon="11.71994"><ele>87.0</ele><time>2026-04-19T16:20:43.865Z</time></trkpt><trkpt lat="45.7188689" lon="11.7199974"><ele>87.0</ele><time>2026-04-19T16:20:45.864Z</time></trkpt><trkpt lat="45.7188126" lon="11.7200398"><ele>87.0</ele><time>2026-04-19T16:20:46.864Z</time></trkpt><trkpt lat="45.7186914" lon="11.7200522"><ele>87.0</ele><time>2026-04-19T16:20:48.865Z</time></trkpt><trkpt lat="45.7185751" lon="11.719964"><ele>87.0</ele><time>2026-04-19T16:20:50.864Z</time></trkpt><trkpt lat="45.7185091" lon="11.7199044"><ele>87.14285714285714</ele><time>2026-04-19T16:20:51.864Z</time></trkpt><trkpt lat="45.7184492" lon="11.7198528"><ele>87.28571428571429</ele><time>2026-04-19T16:20:52.864Z</time></trkpt><trkpt lat="45.7183893" lon="11.7197989"><ele>87.42857142857143</ele><time>2026-04-19T16:20:53.865Z</time></trkpt><trkpt lat="45.7183314" lon="11.7197451"><ele>87.57142857142857</ele><time>2026-04-19T16:20:54.865Z</time></trkpt><trkpt lat="45.7182735" lon="11.719693"><ele>87.71428571428571</ele><time>2026-04-19T16:20:55.864Z</time></trkpt><trkpt lat="45.7182172" lon="11.7196433"><ele>87.85714285714286</ele><time>2026-04-19T16:20:56.865Z</time></trkpt><trkpt lat="45.7181615" lon="11.7195937"><ele>88.0</ele><time>2026-04-19T16:20:57.866Z</time></trkpt><trkpt lat="45.7181042" lon="11.7195467"><ele>88.0</ele><time>2026-04-19T16:20:58.866Z</time></trkpt><trkpt lat="45.7180475" lon="11.7195012"><ele>88.0</ele><time>2026-04-19T16:20:59.866Z</time></trkpt><trkpt lat="45.7179907" lon="11.7194549"><ele>88.0</ele><time>2026-04-19T16:21:00.866Z</time></trkpt><trkpt lat="45.7179355" lon="11.7194089"><ele>88.0</ele><time>2026-04-19T16:21:01.866Z</time></trkpt><trkpt lat="45.7178796" lon="11.7193617"><ele>88.0</ele><time>2026-04-19T16:21:02.866Z</time></trkpt><trkpt lat="45.7178236" lon="11.7193159"><ele>88.0</ele><time>2026-04-19T16:21:03.866Z</time></trkpt><trkpt lat="45.7177675" lon="11.7192706"><ele>88.0</ele><time>2026-04-19T16:21:04.866Z</time></trkpt><trkpt lat="45.7177109" lon="11.7192266"><ele>87.57142857142857</ele><time>2026-04-19T16:21:05.866Z</time></trkpt><trkpt lat="45.7176529" lon="11.7191814"><ele>87.14285714285714</ele><time>2026-04-19T16:21:06.866Z</time></trkpt><trkpt lat="45.7175951" lon="11.7191344"><ele>86.71428571428572</ele><time>2026-04-19T16:21:07.866Z</time></trkpt><trkpt lat="45.7175383" lon="11.7190855"><ele>86.28571428571428</ele><time>2026-04-19T16:21:08.866Z</time></trkpt><trkpt lat="45.7174818" lon="11.719038"><ele>85.85714285714285</ele><time>2026-04-19T16:21:09.866Z</time></trkpt><trkpt lat="45.7174261" lon="11.718991"><ele>85.42857142857143</ele><time>2026-04-19T16:21:10.866Z</time></trkpt><trkpt lat="45.7173711" lon="11.718946"><ele>85.0</ele><time>2026-04-19T16:21:11.865Z</time></trkpt><trkpt lat="45.7173155" lon="11.718901"><ele>85.0</ele><time>2026-04-19T16:21:12.865Z</time></trkpt><trkpt lat="45.7172601" lon="11.7188535"><ele>85.0</ele><time>2026-04-19T16:21:13.866Z</time></trkpt><trkpt lat="45.7172033" lon="11.718807"><ele>85.0</ele><time>2026-04-19T16:21:14.866Z</time></trkpt><trkpt lat="45.7171461" lon="11.7187604"><ele>85.0</ele><time>2026-04-19T16:21:15.866Z</time></trkpt><trkpt lat="45.7170895" lon="11.7187144"><ele>85.0</ele><time>2026-04-19T16:21:16.866Z</time></trkpt><trkpt lat="45.7170317" lon="11.7186682"><ele>85.0</ele><time>2026-04-19T16:21:17.866Z</time></trkpt><trkpt lat="45.7169738" lon="11.7186224"><ele>85.0</ele><time>2026-04-19T16:21:18.866Z</time></trkpt><trkpt lat="45.7169162" lon="11.7185778"><ele>84.85714285714286</ele><time>2026-04-19T16:21:19.866Z</time></trkpt><trkpt lat="45.716858" lon="11.7185346"><ele>84.71428571428571</ele><time>2026-04-19T16:21:20.865Z</time></trkpt><trkpt lat="45.7168" lon="11.7184912"><ele>84.57142857142857</ele><time>2026-04-19T16:21:21.865Z</time></trkpt><trkpt lat="45.7167411" lon="11.7184482"><ele>84.42857142857143</ele><time>2026-04-19T16:21:22.866Z</time></trkpt><trkpt lat="45.7166826" lon="11.7184053"><ele>84.28571428571428</ele><time>2026-04-19T16:21:23.866Z</time></trkpt><trkpt lat="45.7166247" lon="11.7183619"><ele>84.14285714285714</ele><time>2026-04-19T16:21:24.866Z</time></trkpt><trkpt lat="45.7165661" lon="11.7183188"><ele>84.0</ele><time>2026-04-19T16:21:25.866Z</time></trkpt><trkpt lat="45.7165081" lon="11.7182759"><ele>84.0</ele><time>2026-04-19T16:21:26.866Z</time></trkpt><trkpt lat="45.7164471" lon="11.7182331"><ele>84.0</ele><time>2026-04-19T16:21:27.865Z</time></trkpt><trkpt lat="45.7163854" lon="11.7181932"><ele>84.0</ele><time>2026-04-19T16:21:28.866Z</time></trkpt><trkpt lat="45.7163231" lon="11.7181525"><ele>84.0</ele><time>2026-04-19T16:21:29.866Z</time></trkpt><trkpt lat="45.7162634" lon="11.7181105"><ele>84.0</ele><time>2026-04-19T16:21:30.866Z</time></trkpt><trkpt lat="45.7162046" lon="11.7180701"><ele>84.0</ele><time>2026-04-19T16:21:31.865Z</time></trkpt><trkpt lat="45.7161447" lon="11.71803"><ele>84.0</ele><time>2026-04-19T16:21:32.866Z</time></trkpt><trkpt lat="45.7160856" lon="11.717991"><ele>84.0</ele><time>2026-04-19T16:21:33.866Z</time></trkpt><trkpt lat="45.7160268" lon="11.7179513"><ele>84.0</ele><time>2026-04-19T16:21:34.865Z</time></trkpt><trkpt lat="45.7159694" lon="11.7179115"><ele>84.0</ele><time>2026-04-19T16:21:35.866Z</time></trkpt><trkpt lat="45.7159123" lon="11.7178724"><ele>84.0</ele><time>2026-04-19T16:21:36.866Z</time></trkpt><trkpt lat="45.7158548" lon="11.7178333"><ele>84.0</ele><time>2026-04-19T16:21:37.865Z</time></trkpt><trkpt lat="45.7157965" lon="11.7177954"><ele>84.0</ele><time>2026-04-19T16:21:38.866Z</time></trkpt><trkpt lat="45.7157383" lon="11.7177581"><ele>84.0</ele><time>2026-04-19T16:21:39.866Z</time></trkpt><trkpt lat="45.71568" lon="11.7177204"><ele>84.0</ele><time>2026-04-19T16:21:40.866Z</time></trkpt><trkpt lat="45.7156203" lon="11.7176816"><ele>84.0</ele><time>2026-04-19T16:21:41.865Z</time></trkpt><trkpt lat="45.7155595" lon="11.7176415"><ele>84.0</ele><time>2026-04-19T16:21:42.866Z</time></trkpt><trkpt lat="45.7154984" lon="11.717601"><ele>84.0</ele><time>2026-04-19T16:21:43.865Z</time></trkpt><trkpt lat="45.7154372" lon="11.7175606"><ele>84.0</ele><time>2026-04-19T16:21:44.865Z</time></trkpt><trkpt lat="45.7153766" lon="11.7175195"><ele>84.0</ele><time>2026-04-19T16:21:45.865Z</time></trkpt><trkpt lat="45.715317" lon="11.7174784"><ele>84.0</ele><time>2026-04-19T16:21:46.866Z</time></trkpt><trkpt lat="45.7152576" lon="11.7174384"><ele>84.0</ele><time>2026-04-19T16:21:47.865Z</time></trkpt><trkpt lat="45.715197" lon="11.7173989"><ele>83.85714285714286</ele><time>2026-04-19T16:21:48.865Z</time></trkpt><trkpt lat="45.7151368" lon="11.717358"><ele>83.71428571428572</ele><time>2026-04-19T16:21:49.866Z</time></trkpt><trkpt lat="45.715077" lon="11.7173148"><ele>83.57142857142857</ele><time>2026-04-19T16:21:50.865Z</time></trkpt><trkpt lat="45.7150171" lon="11.7172722"><ele>83.42857142857143</ele><time>2026-04-19T16:21:51.867Z</time></trkpt><trkpt lat="45.7149571" lon="11.7172327"><ele>83.28571428571429</ele><time>2026-04-19T16:21:52.867Z</time></trkpt><trkpt lat="45.7148974" lon="11.7171943"><ele>83.14285714285714</ele><time>2026-04-19T16:21:53.867Z</time></trkpt><trkpt lat="45.7148384" lon="11.7171558"><ele>83.0</ele><time>2026-04-19T16:21:54.867Z</time></trkpt><trkpt lat="45.7147767" lon="11.7171193"><ele>83.0</ele><time>2026-04-19T16:21:55.867Z</time></trkpt><trkpt lat="45.7147183" lon="11.7170797"><ele>83.0</ele><time>2026-04-19T16:21:56.866Z</time></trkpt><trkpt lat="45.7146604" lon="11.7170414"><ele>83.0</ele><time>2026-04-19T16:21:57.867Z</time></trkpt><trkpt lat="45.7146029" lon="11.7170015"><ele>83.0</ele><time>2026-04-19T16:21:58.867Z</time></trkpt><trkpt lat="45.7145421" lon="11.7169635"><ele>83.0</ele><time>2026-04-19T16:21:59.867Z</time></trkpt><trkpt lat="45.7144833" lon="11.716926"><ele>83.0</ele><time>2026-04-19T16:22:00.866Z</time></trkpt><trkpt lat="45.7144258" lon="11.7168879"><ele>83.0</ele><time>2026-04-19T16:22:01.866Z</time></trkpt><trkpt lat="45.714368" lon="11.7168475"><ele>83.14285714285714</ele><time>2026-04-19T16:22:02.866Z</time></trkpt><trkpt lat="45.7143092" lon="11.716806"><ele>83.28571428571429</ele><time>2026-04-19T16:22:03.866Z</time></trkpt><trkpt lat="45.7142492" lon="11.7167622"><ele>83.42857142857143</ele><time>2026-04-19T16:22:04.866Z</time></trkpt><trkpt lat="45.7141889" lon="11.716715"><ele>83.57142857142857</ele><time>2026-04-19T16:22:05.867Z</time></trkpt><trkpt lat="45.7141298" lon="11.7166668"><ele>83.71428571428572</ele><time>2026-04-19T16:22:06.867Z</time></trkpt><trkpt lat="45.7140692" lon="11.7166176"><ele>83.85714285714286</ele><time>2026-04-19T16:22:07.866Z</time></trkpt><trkpt lat="45.7140083" lon="11.7165655"><ele>84.0</ele><time>2026-04-19T16:22:08.867Z</time></trkpt><trkpt lat="45.713948" lon="11.7165142"><ele>84.0</ele><time>2026-04-19T16:22:09.867Z</time></trkpt><trkpt lat="45.7138887" lon="11.7164649"><ele>84.0</ele><time>2026-04-19T16:22:10.867Z</time></trkpt><trkpt lat="45.7138293" lon="11.7164152"><ele>84.0</ele><time>2026-04-19T16:22:11.867Z</time></trkpt><trkpt lat="45.7137693" lon="11.7163631"><ele>84.0</ele><time>2026-04-19T16:22:12.867Z</time></trkpt><trkpt lat="45.7137094" lon="11.7163114"><ele>84.0</ele><time>2026-04-19T16:22:13.866Z</time></trkpt><trkpt lat="45.7136489" lon="11.71626"><ele>84.0</ele><time>2026-04-19T16:22:14.866Z</time></trkpt><trkpt lat="45.7135878" lon="11.7162091"><ele>84.0</ele><time>2026-04-19T16:22:15.866Z</time></trkpt><trkpt lat="45.7135265" lon="11.7161584"><ele>84.0</ele><time>2026-04-19T16:22:16.867Z</time></trkpt><trkpt lat="45.7134653" lon="11.7161061"><ele>84.0</ele><time>2026-04-19T16:22:17.867Z</time></trkpt><trkpt lat="45.7134041" lon="11.7160542"><ele>84.0</ele><time>2026-04-19T16:22:18.867Z</time></trkpt><trkpt lat="45.7133441" lon="11.7160029"><ele>84.0</ele><time>2026-04-19T16:22:19.866Z</time></trkpt><trkpt lat="45.7132842" lon="11.7159506"><ele>84.0</ele><time>2026-04-19T16:22:20.866Z</time></trkpt><trkpt lat="45.7132233" lon="11.7158965"><ele>84.0</ele><time>2026-04-19T16:22:21.866Z</time></trkpt><trkpt lat="45.7131642" lon="11.7158425"><ele>84.0</ele><time>2026-04-19T16:22:22.867Z</time></trkpt><trkpt lat="45.7131064" lon="11.7157872"><ele>84.0</ele><time>2026-04-19T16:22:23.867Z</time></trkpt><trkpt lat="45.7130481" lon="11.7157358"><ele>84.0</ele><time>2026-04-19T16:22:24.867Z</time></trkpt><trkpt lat="45.7129881" lon="11.715686"><ele>84.0</ele><time>2026-04-19T16:22:25.867Z</time></trkpt><trkpt lat="45.7129287" lon="11.7156341"><ele>84.0</ele><time>2026-04-19T16:22:26.866Z</time></trkpt><trkpt lat="45.7128684" lon="11.7155817"><ele>84.0</ele><time>2026-04-19T16:22:27.866Z</time></trkpt><trkpt lat="45.712809" lon="11.7155252"><ele>84.0</ele><time>2026-04-19T16:22:28.866Z</time></trkpt><trkpt lat="45.7127528" lon="11.7154667"><ele>84.0</ele><time>2026-04-19T16:22:29.867Z</time></trkpt><trkpt lat="45.7126981" lon="11.7154061"><ele>83.71428571428571</ele><time>2026-04-19T16:22:30.867Z</time></trkpt><trkpt lat="45.7126448" lon="11.7153433"><ele>83.42857142857143</ele><time>2026-04-19T16:22:31.867Z</time></trkpt><trkpt lat="45.7125897" lon="11.7152775"><ele>83.14285714285714</ele><time>2026-04-19T16:22:32.867Z</time></trkpt><trkpt lat="45.7125332" lon="11.7152145"><ele>82.85714285714286</ele><time>2026-04-19T16:22:33.866Z</time></trkpt><trkpt lat="45.7124786" lon="11.7151509"><ele>82.57142857142857</ele><time>2026-04-19T16:22:34.867Z</time></trkpt><trkpt lat="45.7124254" lon="11.715087"><ele>82.28571428571428</ele><time>2026-04-19T16:22:35.867Z</time></trkpt><trkpt lat="45.7123745" lon="11.7150249"><ele>82.0</ele><time>2026-04-19T16:22:36.867Z</time></trkpt><trkpt lat="45.7123216" lon="11.7149659"><ele>81.85714285714285</ele><time>2026-04-19T16:22:37.866Z</time></trkpt><trkpt lat="45.7122663" lon="11.7149111"><ele>81.71428571428571</ele><time>2026-04-19T16:22:38.867Z</time></trkpt><trkpt lat="45.7122077" lon="11.7148625"><ele>81.57142857142857</ele><time>2026-04-19T16:22:39.867Z</time></trkpt><trkpt lat="45.7121447" lon="11.7148203"><ele>81.42857142857142</ele><time>2026-04-19T16:22:40.867Z</time></trkpt><trkpt lat="45.7120785" lon="11.7147851"><ele>81.28571428571428</ele><time>2026-04-19T16:22:41.867Z</time></trkpt><trkpt lat="45.7120125" lon="11.7147574"><ele>81.14285714285714</ele><time>2026-04-19T16:22:42.867Z</time></trkpt><trkpt lat="45.7119452" lon="11.7147381"><ele>81.0</ele><time>2026-04-19T16:22:43.867Z</time></trkpt><trkpt lat="45.7118779" lon="11.7147204"><ele>81.28571428571429</ele><time>2026-04-19T16:22:44.868Z</time></trkpt><trkpt lat="45.7118109" lon="11.7147023"><ele>81.57142857142857</ele><time>2026-04-19T16:22:45.868Z</time></trkpt><trkpt lat="45.7117447" lon="11.714686"><ele>81.85714285714286</ele><time>2026-04-19T16:22:46.868Z</time></trkpt><trkpt lat="45.7116805" lon="11.7146681"><ele>82.14285714285714</ele><time>2026-04-19T16:22:47.867Z</time></trkpt><trkpt lat="45.7116179" lon="11.7146476"><ele>82.42857142857143</ele><time>2026-04-19T16:22:48.868Z</time></trkpt><trkpt lat="45.7115532" lon="11.7146287"><ele>82.71428571428571</ele><time>2026-04-19T16:22:49.868Z</time></trkpt><trkpt lat="45.7114886" lon="11.714609"><ele>83.0</ele><time>2026-04-19T16:22:50.868Z</time></trkpt><trkpt lat="45.7114254" lon="11.7145896"><ele>83.0</ele><time>2026-04-19T16:22:51.868Z</time></trkpt><trkpt lat="45.7113091" lon="11.7145501"><ele>83.0</ele><time>2026-04-19T16:22:53.868Z</time></trkpt><trkpt lat="45.7112106" lon="11.7145106"><ele>83.0</ele><time>2026-04-19T16:22:55.867Z</time></trkpt><trkpt lat="45.7111144" lon="11.7144697"><ele>83.0</ele><time>2026-04-19T16:22:57.868Z</time></trkpt><trkpt lat="45.7109962" lon="11.7144243"><ele>83.0</ele><time>2026-04-19T16:22:59.867Z</time></trkpt><trkpt lat="45.7109338" lon="11.7143947"><ele>83.0</ele><time>2026-04-19T16:23:00.868Z</time></trkpt><trkpt lat="45.7108725" lon="11.7143615"><ele>83.0</ele><time>2026-04-19T16:23:01.867Z</time></trkpt><trkpt lat="45.7108106" lon="11.7143261"><ele>83.0</ele><time>2026-04-19T16:23:02.867Z</time></trkpt><trkpt lat="45.7107471" lon="11.7142888"><ele>83.0</ele><time>2026-04-19T16:23:03.867Z</time></trkpt><trkpt lat="45.7106827" lon="11.7142504"><ele>83.0</ele><time>2026-04-19T16:23:04.868Z</time></trkpt><trkpt lat="45.7106174" lon="11.7142113"><ele>83.0</ele><time>2026-04-19T16:23:05.868Z</time></trkpt><trkpt lat="45.7105516" lon="11.7141704"><ele>83.0</ele><time>2026-04-19T16:23:06.868Z</time></trkpt><trkpt lat="45.7104875" lon="11.7141301"><ele>83.0</ele><time>2026-04-19T16:23:07.868Z</time></trkpt><trkpt lat="45.7104236" lon="11.7140899"><ele>83.0</ele><time>2026-04-19T16:23:08.868Z</time></trkpt><trkpt lat="45.7103611" lon="11.7140524"><ele>83.0</ele><time>2026-04-19T16:23:09.867Z</time></trkpt><trkpt lat="45.7102971" lon="11.714015"><ele>83.0</ele><time>2026-04-19T16:23:10.868Z</time></trkpt><trkpt lat="45.7102327" lon="11.713976"><ele>83.0</ele><time>2026-04-19T16:23:11.867Z</time></trkpt><trkpt lat="45.7101677" lon="11.7139371"><ele>83.0</ele><time>2026-04-19T16:23:12.868Z</time></trkpt><trkpt lat="45.7101023" lon="11.7138992"><ele>83.0</ele><time>2026-04-19T16:23:13.868Z</time></trkpt><trkpt lat="45.7100378" lon="11.713862"><ele>82.85714285714285</ele><time>2026-04-19T16:23:14.867Z</time></trkpt><trkpt lat="45.7099738" lon="11.7138224"><ele>82.71428571428572</ele><time>2026-04-19T16:23:15.868Z</time></trkpt><trkpt lat="45.7099095" lon="11.7137806"><ele>82.57142857142857</ele><time>2026-04-19T16:23:16.868Z</time></trkpt><trkpt lat="45.7098453" lon="11.713739"><ele>82.42857142857142</ele><time>2026-04-19T16:23:17.867Z</time></trkpt><trkpt lat="45.7097819" lon="11.7136975"><ele>82.28571428571428</ele><time>2026-04-19T16:23:18.868Z</time></trkpt><trkpt lat="45.709719" lon="11.7136572"><ele>82.14285714285714</ele><time>2026-04-19T16:23:19.868Z</time></trkpt><trkpt lat="45.7096563" lon="11.7136153"><ele>82.0</ele><time>2026-04-19T16:23:20.867Z</time></trkpt><trkpt lat="45.7095943" lon="11.7135723"><ele>82.14285714285714</ele><time>2026-04-19T16:23:21.868Z</time></trkpt><trkpt lat="45.7095313" lon="11.7135285"><ele>82.28571428571428</ele><time>2026-04-19T16:23:22.867Z</time></trkpt><trkpt lat="45.7094687" lon="11.713485"><ele>82.42857142857142</ele><time>2026-04-19T16:23:23.868Z</time></trkpt><trkpt lat="45.7094066" lon="11.7134428"><ele>82.57142857142857</ele><time>2026-04-19T16:23:24.868Z</time></trkpt><trkpt lat="45.7093454" lon="11.7134013"><ele>82.71428571428572</ele><time>2026-04-19T16:23:25.868Z</time></trkpt><trkpt lat="45.7092841" lon="11.7133595"><ele>82.85714285714285</ele><time>2026-04-19T16:23:26.868Z</time></trkpt><trkpt lat="45.7092221" lon="11.7133181"><ele>83.0</ele><time>2026-04-19T16:23:27.868Z</time></trkpt><trkpt lat="45.70916" lon="11.7132765"><ele>82.71428571428571</ele><time>2026-04-19T16:23:28.868Z</time></trkpt><trkpt lat="45.7090987" lon="11.7132342"><ele>82.42857142857143</ele><time>2026-04-19T16:23:29.867Z</time></trkpt><trkpt lat="45.7090379" lon="11.7131929"><ele>82.14285714285714</ele><time>2026-04-19T16:23:30.868Z</time></trkpt><trkpt lat="45.7089778" lon="11.713151"><ele>81.85714285714286</ele><time>2026-04-19T16:23:31.868Z</time></trkpt><trkpt lat="45.7089174" lon="11.7131076"><ele>81.57142857142857</ele><time>2026-04-19T16:23:32.868Z</time></trkpt><trkpt lat="45.708858" lon="11.7130653"><ele>81.28571428571429</ele><time>2026-04-19T16:23:33.868Z</time></trkpt><trkpt lat="45.708799" lon="11.7130244"><ele>81.0</ele><time>2026-04-19T16:23:34.868Z</time></trkpt><trkpt lat="45.7087372" lon="11.7129795"><ele>81.0</ele><time>2026-04-19T16:23:35.868Z</time></trkpt><trkpt lat="45.708678" lon="11.7129353"><ele>81.0</ele><time>2026-04-19T16:23:36.869Z</time></trkpt><trkpt lat="45.7086187" lon="11.7128924"><ele>81.0</ele><time>2026-04-19T16:23:37.869Z</time></trkpt><trkpt lat="45.708557" lon="11.7128504"><ele>81.0</ele><time>2026-04-19T16:23:38.868Z</time></trkpt><trkpt lat="45.7084932" lon="11.7128075"><ele>81.0</ele><time>2026-04-19T16:23:39.869Z</time></trkpt><trkpt lat="45.7084303" lon="11.7127646"><ele>81.0</ele><time>2026-04-19T16:23:40.869Z</time></trkpt><trkpt lat="45.7083707" lon="11.7127238"><ele>81.0</ele><time>2026-04-19T16:23:41.869Z</time></trkpt><trkpt lat="45.7083112" lon="11.7126825"><ele>81.0</ele><time>2026-04-19T16:23:42.869Z</time></trkpt><trkpt lat="45.708251" lon="11.7126396"><ele>81.0</ele><time>2026-04-19T16:23:43.868Z</time></trkpt><trkpt lat="45.7081869" lon="11.7125951"><ele>81.0</ele><time>2026-04-19T16:23:44.868Z</time></trkpt><trkpt lat="45.7081215" lon="11.7125517"><ele>81.0</ele><time>2026-04-19T16:23:45.869Z</time></trkpt><trkpt lat="45.7080572" lon="11.7125062"><ele>81.0</ele><time>2026-04-19T16:23:46.868Z</time></trkpt><trkpt lat="45.7079939" lon="11.7124589"><ele>81.0</ele><time>2026-04-19T16:23:47.868Z</time></trkpt><trkpt lat="45.7079323" lon="11.712408"><ele>81.0</ele><time>2026-04-19T16:23:48.868Z</time></trkpt><trkpt lat="45.7078721" lon="11.7123565"><ele>81.0</ele><time>2026-04-19T16:23:49.869Z</time></trkpt><trkpt lat="45.7078147" lon="11.7123053"><ele>81.0</ele><time>2026-04-19T16:23:50.868Z</time></trkpt><trkpt lat="45.7077564" lon="11.7122537"><ele>81.0</ele><time>2026-04-19T16:23:51.868Z</time></trkpt><trkpt lat="45.7076969" lon="11.7122023"><ele>81.0</ele><time>2026-04-19T16:23:52.868Z</time></trkpt><trkpt lat="45.7076379" lon="11.712151"><ele>81.0</ele><time>2026-04-19T16:23:53.868Z</time></trkpt><trkpt lat="45.7075791" lon="11.7120993"><ele>81.0</ele><time>2026-04-19T16:23:54.869Z</time></trkpt><trkpt lat="45.7075199" lon="11.7120464"><ele>81.0</ele><time>2026-04-19T16:23:55.868Z</time></trkpt><trkpt lat="45.7074608" lon="11.7119921"><ele>81.0</ele><time>2026-04-19T16:23:56.868Z</time></trkpt><trkpt lat="45.7074005" lon="11.7119373"><ele>81.0</ele><time>2026-04-19T16:23:57.869Z</time></trkpt><trkpt lat="45.7073395" lon="11.7118837"><ele>81.0</ele><time>2026-04-19T16:23:58.868Z</time></trkpt><trkpt lat="45.7072782" lon="11.7118303"><ele>81.0</ele><time>2026-04-19T16:23:59.869Z</time></trkpt><trkpt lat="45.7072159" lon="11.7117769"><ele>81.0</ele><time>2026-04-19T16:24:00.869Z</time></trkpt><trkpt lat="45.7071545" lon="11.7117254"><ele>81.0</ele><time>2026-04-19T16:24:01.869Z</time></trkpt><trkpt lat="45.7070917" lon="11.7116737"><ele>81.0</ele><time>2026-04-19T16:24:02.869Z</time></trkpt><trkpt lat="45.7070291" lon="11.7116231"><ele>81.0</ele><time>2026-04-19T16:24:03.868Z</time></trkpt><trkpt lat="45.7069658" lon="11.7115751"><ele>81.0</ele><time>2026-04-19T16:24:04.868Z</time></trkpt><trkpt lat="45.7069025" lon="11.7115289"><ele>81.0</ele><time>2026-04-19T16:24:05.868Z</time></trkpt><trkpt lat="45.7068395" lon="11.711483"><ele>81.0</ele><time>2026-04-19T16:24:06.868Z</time></trkpt><trkpt lat="45.7067763" lon="11.7114387"><ele>81.0</ele><time>2026-04-19T16:24:07.869Z</time></trkpt><trkpt lat="45.7067111" lon="11.7113961"><ele>81.0</ele><time>2026-04-19T16:24:08.868Z</time></trkpt><trkpt lat="45.7066453" lon="11.711357"><ele>81.0</ele><time>2026-04-19T16:24:09.869Z</time></trkpt><trkpt lat="45.7065793" lon="11.7113202"><ele>80.57142857142857</ele><time>2026-04-19T16:24:10.869Z</time></trkpt><trkpt lat="45.7065126" lon="11.7112853"><ele>80.14285714285714</ele><time>2026-04-19T16:24:11.869Z</time></trkpt><trkpt lat="45.7064455" lon="11.7112523"><ele>79.71428571428572</ele><time>2026-04-19T16:24:12.868Z</time></trkpt><trkpt lat="45.706378" lon="11.7112241"><ele>79.28571428571428</ele><time>2026-04-19T16:24:13.869Z</time></trkpt><trkpt lat="45.7063096" lon="11.7111965"><ele>78.85714285714285</ele><time>2026-04-19T16:24:14.868Z</time></trkpt><trkpt lat="45.70624" lon="11.7111724"><ele>78.42857142857143</ele><time>2026-04-19T16:24:15.869Z</time></trkpt><trkpt lat="45.7061675" lon="11.7111552"><ele>78.0</ele><time>2026-04-19T16:24:16.869Z</time></trkpt><trkpt lat="45.7060959" lon="11.71114"><ele>78.0</ele><time>2026-04-19T16:24:17.868Z</time></trkpt><trkpt lat="45.706025" lon="11.7111222"><ele>78.0</ele><time>2026-04-19T16:24:18.869Z</time></trkpt><trkpt lat="45.7059554" lon="11.7111039"><ele>78.0</ele><time>2026-04-19T16:24:19.869Z</time></trkpt><trkpt lat="45.7058866" lon="11.7110854"><ele>78.0</ele><time>2026-04-19T16:24:20.869Z</time></trkpt><trkpt lat="45.7058165" lon="11.7110666"><ele>78.0</ele><time>2026-04-19T16:24:21.868Z</time></trkpt><trkpt lat="45.7057469" lon="11.7110484"><ele>78.0</ele><time>2026-04-19T16:24:22.869Z</time></trkpt><trkpt lat="45.7056775" lon="11.7110276"><ele>78.0</ele><time>2026-04-19T16:24:23.868Z</time></trkpt><trkpt lat="45.7056091" lon="11.7110065"><ele>77.85714285714286</ele><time>2026-04-19T16:24:24.869Z</time></trkpt><trkpt lat="45.7055391" lon="11.7109857"><ele>77.71428571428571</ele><time>2026-04-19T16:24:25.869Z</time></trkpt><trkpt lat="45.7054732" lon="11.7109637"><ele>77.57142857142857</ele><time>2026-04-19T16:24:26.869Z</time></trkpt><trkpt lat="45.7054087" lon="11.7109415"><ele>77.42857142857143</ele><time>2026-04-19T16:24:27.869Z</time></trkpt><trkpt lat="45.7053457" lon="11.7109216"><ele>77.28571428571428</ele><time>2026-04-19T16:24:28.869Z</time></trkpt><trkpt lat="45.7052833" lon="11.7109008"><ele>77.14285714285714</ele><time>2026-04-19T16:24:29.869Z</time></trkpt><trkpt lat="45.7052198" lon="11.7108764"><ele>77.0</ele><time>2026-04-19T16:24:30.87Z</time></trkpt><trkpt lat="45.7051554" lon="11.7108547"><ele>77.0</ele><time>2026-04-19T16:24:31.87Z</time></trkpt><trkpt lat="45.7050899" lon="11.7108349"><ele>77.0</ele><time>2026-04-19T16:24:32.869Z</time></trkpt><trkpt lat="45.7050254" lon="11.7108164"><ele>77.0</ele><time>2026-04-19T16:24:33.87Z</time></trkpt><trkpt lat="45.7049583" lon="11.7108008"><ele>77.0</ele><time>2026-04-19T16:24:34.87Z</time></trkpt><trkpt lat="45.7048918" lon="11.7107839"><ele>77.0</ele><time>2026-04-19T16:24:35.87Z</time></trkpt><trkpt lat="45.7048214" lon="11.7107645"><ele>77.0</ele><time>2026-04-19T16:24:36.869Z</time></trkpt><trkpt lat="45.7047507" lon="11.7107436"><ele>77.0</ele><time>2026-04-19T16:24:37.87Z</time></trkpt><trkpt lat="45.7046828" lon="11.7107214"><ele>77.0</ele><time>2026-04-19T16:24:38.87Z</time></trkpt><trkpt lat="45.704615" lon="11.7107004"><ele>77.0</ele><time>2026-04-19T16:24:39.87Z</time></trkpt><trkpt lat="45.7045476" lon="11.7106806"><ele>77.0</ele><time>2026-04-19T16:24:40.869Z</time></trkpt><trkpt lat="45.7044831" lon="11.7106608"><ele>77.0</ele><time>2026-04-19T16:24:41.87Z</time></trkpt><trkpt lat="45.704418" lon="11.7106399"><ele>77.0</ele><time>2026-04-19T16:24:42.87Z</time></trkpt><trkpt lat="45.7043523" lon="11.7106176"><ele>77.0</ele><time>2026-04-19T16:24:43.87Z</time></trkpt><trkpt lat="45.7042864" lon="11.710596"><ele>77.0</ele><time>2026-04-19T16:24:44.87Z</time></trkpt><trkpt lat="45.7042204" lon="11.7105755"><ele>77.28571428571429</ele><time>2026-04-19T16:24:45.87Z</time></trkpt><trkpt lat="45.7041538" lon="11.7105559"><ele>77.57142857142857</ele><time>2026-04-19T16:24:46.87Z</time></trkpt><trkpt lat="45.7040855" lon="11.7105375"><ele>77.85714285714286</ele><time>2026-04-19T16:24:47.87Z</time></trkpt><trkpt lat="45.7040175" lon="11.7105172"><ele>78.14285714285714</ele><time>2026-04-19T16:24:48.869Z</time></trkpt><trkpt lat="45.7039496" lon="11.7104969"><ele>78.42857142857143</ele><time>2026-04-19T16:24:49.869Z</time></trkpt><trkpt lat="45.7038847" lon="11.7104741"><ele>78.71428571428572</ele><time>2026-04-19T16:24:50.87Z</time></trkpt><trkpt lat="45.7038157" lon="11.7104478"><ele>79.0</ele><time>2026-04-19T16:24:51.869Z</time></trkpt><trkpt lat="45.7037492" lon="11.7104179"><ele>79.00000000000001</ele><time>2026-04-19T16:24:52.87Z</time></trkpt><trkpt lat="45.7036848" lon="11.710385"><ele>79.0</ele><time>2026-04-19T16:24:53.87Z</time></trkpt><trkpt lat="45.7036193" lon="11.7103517"><ele>79.0</ele><time>2026-04-19T16:24:54.87Z</time></trkpt><trkpt lat="45.7035553" lon="11.7103184"><ele>79.0</ele><time>2026-04-19T16:24:55.869Z</time></trkpt><trkpt lat="45.7034885" lon="11.7102838"><ele>79.0</ele><time>2026-04-19T16:24:56.869Z</time></trkpt><trkpt lat="45.7034195" lon="11.710247"><ele>79.00000000000001</ele><time>2026-04-19T16:24:57.87Z</time></trkpt><trkpt lat="45.7033498" lon="11.7102102"><ele>79.0</ele><time>2026-04-19T16:24:58.87Z</time></trkpt><trkpt lat="45.703282" lon="11.7101751"><ele>79.14285714285715</ele><time>2026-04-19T16:24:59.87Z</time></trkpt><trkpt lat="45.7032138" lon="11.7101417"><ele>79.28571428571429</ele><time>2026-04-19T16:25:00.87Z</time></trkpt><trkpt lat="45.7031452" lon="11.7101093"><ele>79.42857142857143</ele><time>2026-04-19T16:25:01.87Z</time></trkpt><trkpt lat="45.7030783" lon="11.7100759"><ele>79.57142857142858</ele><time>2026-04-19T16:25:02.869Z</time></trkpt><trkpt lat="45.7030095" lon="11.7100466"><ele>79.71428571428572</ele><time>2026-04-19T16:25:03.869Z</time></trkpt><trkpt lat="45.7029407" lon="11.7100152"><ele>79.85714285714286</ele><time>2026-04-19T16:25:04.87Z</time></trkpt><trkpt lat="45.7028711" lon="11.7099805"><ele>80.0</ele><time>2026-04-19T16:25:05.87Z</time></trkpt><trkpt lat="45.7028011" lon="11.7099449"><ele>79.71428571428571</ele><time>2026-04-19T16:25:06.87Z</time></trkpt><trkpt lat="45.7027314" lon="11.7099106"><ele>79.42857142857143</ele><time>2026-04-19T16:25:07.87Z</time></trkpt><trkpt lat="45.7026647" lon="11.7098729"><ele>79.14285714285714</ele><time>2026-04-19T16:25:08.87Z</time></trkpt><trkpt lat="45.7026007" lon="11.7098345"><ele>78.85714285714286</ele><time>2026-04-19T16:25:09.87Z</time></trkpt><trkpt lat="45.7025389" lon="11.7097888"><ele>78.57142857142857</ele><time>2026-04-19T16:25:10.869Z</time></trkpt><trkpt lat="45.7024775" lon="11.7097332"><ele>78.28571428571429</ele><time>2026-04-19T16:25:11.87Z</time></trkpt><trkpt lat="45.7024175" lon="11.7096699"><ele>78.0</ele><time>2026-04-19T16:25:12.869Z</time></trkpt><trkpt lat="45.7023569" lon="11.709602"><ele>78.0</ele><time>2026-04-19T16:25:13.87Z</time></trkpt><trkpt lat="45.7023003" lon="11.7095326"><ele>78.0</ele><time>2026-04-19T16:25:14.869Z</time></trkpt><trkpt lat="45.7022457" lon="11.7094617"><ele>78.0</ele><time>2026-04-19T16:25:15.869Z</time></trkpt><trkpt lat="45.7021888" lon="11.7093967"><ele>78.0</ele><time>2026-04-19T16:25:16.869Z</time></trkpt><trkpt lat="45.70213" lon="11.7093333"><ele>78.0</ele><time>2026-04-19T16:25:17.871Z</time></trkpt><trkpt lat="45.70207" lon="11.7092763"><ele>78.0</ele><time>2026-04-19T16:25:18.87Z</time></trkpt><trkpt lat="45.7020079" lon="11.7092252"><ele>78.0</ele><time>2026-04-19T16:25:19.869Z</time></trkpt><trkpt lat="45.7019448" lon="11.7091777"><ele>77.85714285714286</ele><time>2026-04-19T16:25:20.869Z</time></trkpt><trkpt lat="45.7018809" lon="11.7091336"><ele>77.71428571428571</ele><time>2026-04-19T16:25:21.869Z</time></trkpt><trkpt lat="45.7018157" lon="11.7090927"><ele>77.57142857142857</ele><time>2026-04-19T16:25:22.87Z</time></trkpt><trkpt lat="45.7017488" lon="11.7090552"><ele>77.42857142857143</ele><time>2026-04-19T16:25:23.871Z</time></trkpt><trkpt lat="45.7016819" lon="11.7090231"><ele>77.28571428571428</ele><time>2026-04-19T16:25:24.87Z</time></trkpt><trkpt lat="45.7016145" lon="11.7089944"><ele>77.14285714285714</ele><time>2026-04-19T16:25:25.871Z</time></trkpt><trkpt lat="45.7015459" lon="11.708971"><ele>77.0</ele><time>2026-04-19T16:25:26.87Z</time></trkpt><trkpt lat="45.7014743" lon="11.7089574"><ele>77.0</ele><time>2026-04-19T16:25:27.87Z</time></trkpt><trkpt lat="45.7014047" lon="11.7089488"><ele>77.0</ele><time>2026-04-19T16:25:28.871Z</time></trkpt><trkpt lat="45.701335" lon="11.7089443"><ele>77.0</ele><time>2026-04-19T16:25:29.871Z</time></trkpt><trkpt lat="45.701265" lon="11.708945"><ele>77.0</ele><time>2026-04-19T16:25:30.871Z</time></trkpt><trkpt lat="45.701194" lon="11.7089496"><ele>77.0</ele><time>2026-04-19T16:25:31.87Z</time></trkpt><trkpt lat="45.701119" lon="11.7089608"><ele>77.0</ele><time>2026-04-19T16:25:32.87Z</time></trkpt><trkpt lat="45.7010482" lon="11.7089695"><ele>77.0</ele><time>2026-04-19T16:25:33.87Z</time></trkpt><trkpt lat="45.7009797" lon="11.7089796"><ele>77.0</ele><time>2026-04-19T16:25:34.87Z</time></trkpt><trkpt lat="45.7009114" lon="11.7089892"><ele>77.0</ele><time>2026-04-19T16:25:35.871Z</time></trkpt><trkpt lat="45.7008391" lon="11.7089966"><ele>77.0</ele><time>2026-04-19T16:25:36.871Z</time></trkpt><trkpt lat="45.7007677" lon="11.7090014"><ele>77.0</ele><time>2026-04-19T16:25:37.871Z</time></trkpt><trkpt lat="45.7006973" lon="11.7090077"><ele>77.0</ele><time>2026-04-19T16:25:38.871Z</time></trkpt><trkpt lat="45.7006285" lon="11.7090141"><ele>77.0</ele><time>2026-04-19T16:25:39.87Z</time></trkpt><trkpt lat="45.700557" lon="11.7090197"><ele>77.0</ele><time>2026-04-19T16:25:40.871Z</time></trkpt><trkpt lat="45.7004842" lon="11.7090277"><ele>77.0</ele><time>2026-04-19T16:25:41.871Z</time></trkpt><trkpt lat="45.7004132" lon="11.7090378"><ele>77.0</ele><time>2026-04-19T16:25:42.871Z</time></trkpt><trkpt lat="45.7003419" lon="11.7090501"><ele>77.0</ele><time>2026-04-19T16:25:43.87Z</time></trkpt><trkpt lat="45.700273" lon="11.7090598"><ele>77.0</ele><time>2026-04-19T16:25:44.871Z</time></trkpt><trkpt lat="45.7002048" lon="11.7090658"><ele>77.0</ele><time>2026-04-19T16:25:45.871Z</time></trkpt><trkpt lat="45.7001361" lon="11.7090661"><ele>77.0</ele><time>2026-04-19T16:25:46.87Z</time></trkpt><trkpt lat="45.7000683" lon="11.7090606"><ele>77.0</ele><time>2026-04-19T16:25:47.87Z</time></trkpt><trkpt lat="45.7000001" lon="11.7090534"><ele>76.85714285714286</ele><time>2026-04-19T16:25:48.871Z</time></trkpt><trkpt lat="45.6999323" lon="11.7090422"><ele>76.71428571428572</ele><time>2026-04-19T16:25:49.871Z</time></trkpt><trkpt lat="45.6998603" lon="11.709029"><ele>76.57142857142857</ele><time>2026-04-19T16:25:50.87Z</time></trkpt><trkpt lat="45.6997871" lon="11.7090155"><ele>76.42857142857143</ele><time>2026-04-19T16:25:51.871Z</time></trkpt><trkpt lat="45.6997159" lon="11.7090001"><ele>76.28571428571429</ele><time>2026-04-19T16:25:52.871Z</time></trkpt><trkpt lat="45.6996457" lon="11.708983"><ele>76.14285714285714</ele><time>2026-04-19T16:25:53.871Z</time></trkpt><trkpt lat="45.699576" lon="11.7089664"><ele>76.0</ele><time>2026-04-19T16:25:54.871Z</time></trkpt><trkpt lat="45.6995046" lon="11.7089531"><ele>76.0</ele><time>2026-04-19T16:25:55.871Z</time></trkpt><trkpt lat="45.6994333" lon="11.7089433"><ele>76.0</ele><time>2026-04-19T16:25:56.87Z</time></trkpt><trkpt lat="45.6993657" lon="11.7089334"><ele>76.0</ele><time>2026-04-19T16:25:57.871Z</time></trkpt><trkpt lat="45.6992961" lon="11.7089194"><ele>76.0</ele><time>2026-04-19T16:25:58.871Z</time></trkpt><trkpt lat="45.6992252" lon="11.7089062"><ele>76.0</ele><time>2026-04-19T16:25:59.87Z</time></trkpt><trkpt lat="45.6991535" lon="11.7089"><ele>76.0</ele><time>2026-04-19T16:26:00.87Z</time></trkpt><trkpt lat="45.6990814" lon="11.7088926"><ele>76.0</ele><time>2026-04-19T16:26:01.871Z</time></trkpt><trkpt lat="45.699011" lon="11.7088848"><ele>76.0</ele><time>2026-04-19T16:26:02.871Z</time></trkpt><trkpt lat="45.6989388" lon="11.7088751"><ele>76.0</ele><time>2026-04-19T16:26:03.871Z</time></trkpt><trkpt lat="45.6988684" lon="11.7088671"><ele>76.0</ele><time>2026-04-19T16:26:04.871Z</time></trkpt><trkpt lat="45.6987957" lon="11.7088579"><ele>76.0</ele><time>2026-04-19T16:26:05.871Z</time></trkpt><trkpt lat="45.6987233" lon="11.7088477"><ele>76.0</ele><time>2026-04-19T16:26:06.871Z</time></trkpt><trkpt lat="45.6986506" lon="11.7088359"><ele>76.0</ele><time>2026-04-19T16:26:07.871Z</time></trkpt><trkpt lat="45.6985769" lon="11.708823"><ele>76.0</ele><time>2026-04-19T16:26:08.871Z</time></trkpt><trkpt lat="45.6985035" lon="11.7088101"><ele>76.0</ele><time>2026-04-19T16:26:09.871Z</time></trkpt><trkpt lat="45.6984333" lon="11.7088023"><ele>76.0</ele><time>2026-04-19T16:26:10.871Z</time></trkpt><trkpt lat="45.6983571" lon="11.7087844"><ele>76.0</ele><time>2026-04-19T16:26:11.87Z</time></trkpt><trkpt lat="45.6982872" lon="11.7087724"><ele>76.0</ele><time>2026-04-19T16:26:12.871Z</time></trkpt><trkpt lat="45.6982093" lon="11.7087489"><ele>76.0</ele><time>2026-04-19T16:26:13.87Z</time></trkpt><trkpt lat="45.6981428" lon="11.7087274"><ele>76.0</ele><time>2026-04-19T16:26:14.871Z</time></trkpt><trkpt lat="45.698075" lon="11.708709"><ele>76.0</ele><time>2026-04-19T16:26:15.87Z</time></trkpt><trkpt lat="45.6980062" lon="11.7086884"><ele>76.0</ele><time>2026-04-19T16:26:16.871Z</time></trkpt><trkpt lat="45.6979384" lon="11.7086596"><ele>76.0</ele><time>2026-04-19T16:26:17.872Z</time></trkpt><trkpt lat="45.6978736" lon="11.7086197"><ele>76.0</ele><time>2026-04-19T16:26:18.872Z</time></trkpt><trkpt lat="45.6978076" lon="11.7085861"><ele>76.0</ele><time>2026-04-19T16:26:19.872Z</time></trkpt><trkpt lat="45.6977434" lon="11.7085589"><ele>76.0</ele><time>2026-04-19T16:26:20.872Z</time></trkpt><trkpt lat="45.6976779" lon="11.7085364"><ele>76.0</ele><time>2026-04-19T16:26:21.872Z</time></trkpt><trkpt lat="45.697612" lon="11.7085133"><ele>76.0</ele><time>2026-04-19T16:26:22.871Z</time></trkpt><trkpt lat="45.6975444" lon="11.7084923"><ele>75.85714285714285</ele><time>2026-04-19T16:26:23.871Z</time></trkpt><trkpt lat="45.6974765" lon="11.7084723"><ele>75.71428571428572</ele><time>2026-04-19T16:26:24.871Z</time></trkpt><trkpt lat="45.697408" lon="11.7084522"><ele>75.57142857142857</ele><time>2026-04-19T16:26:25.872Z</time></trkpt><trkpt lat="45.6973413" lon="11.7084294"><ele>75.42857142857142</ele><time>2026-04-19T16:26:26.872Z</time></trkpt><trkpt lat="45.6972757" lon="11.7084057"><ele>75.28571428571428</ele><time>2026-04-19T16:26:27.871Z</time></trkpt><trkpt lat="45.6972101" lon="11.7083839"><ele>75.14285714285714</ele><time>2026-04-19T16:26:28.871Z</time></trkpt><trkpt lat="45.6971424" lon="11.708365"><ele>75.0</ele><time>2026-04-19T16:26:29.872Z</time></trkpt><trkpt lat="45.6970711" lon="11.7083502"><ele>74.99999999999999</ele><time>2026-04-19T16:26:30.872Z</time></trkpt><trkpt lat="45.6969979" lon="11.7083379"><ele>75.0</ele><time>2026-04-19T16:26:31.872Z</time></trkpt><trkpt lat="45.6969238" lon="11.7083302"><ele>75.0</ele><time>2026-04-19T16:26:32.871Z</time></trkpt><trkpt lat="45.696849" lon="11.7083207"><ele>75.0</ele><time>2026-04-19T16:26:33.872Z</time></trkpt><trkpt lat="45.6967787" lon="11.7083118"><ele>75.0</ele><time>2026-04-19T16:26:34.872Z</time></trkpt><trkpt lat="45.6967112" lon="11.7083044"><ele>74.99999999999999</ele><time>2026-04-19T16:26:35.872Z</time></trkpt><trkpt lat="45.6966419" lon="11.7082932"><ele>75.0</ele><time>2026-04-19T16:26:36.871Z</time></trkpt><trkpt lat="45.696568" lon="11.7082812"><ele>75.14285714285714</ele><time>2026-04-19T16:26:37.872Z</time></trkpt><trkpt lat="45.6964987" lon="11.7082715"><ele>75.28571428571428</ele><time>2026-04-19T16:26:38.871Z</time></trkpt><trkpt lat="45.6964321" lon="11.7082592"><ele>75.42857142857142</ele><time>2026-04-19T16:26:39.871Z</time></trkpt><trkpt lat="45.6963626" lon="11.7082513"><ele>75.57142857142857</ele><time>2026-04-19T16:26:40.872Z</time></trkpt><trkpt lat="45.6963002" lon="11.708238"><ele>75.71428571428572</ele><time>2026-04-19T16:26:41.872Z</time></trkpt><trkpt lat="45.6962305" lon="11.7082288"><ele>75.85714285714285</ele><time>2026-04-19T16:26:42.872Z</time></trkpt><trkpt lat="45.696163" lon="11.7082212"><ele>76.0</ele><time>2026-04-19T16:26:43.872Z</time></trkpt><trkpt lat="45.6960962" lon="11.7082158"><ele>75.85714285714285</ele><time>2026-04-19T16:26:44.872Z</time></trkpt><trkpt lat="45.6960255" lon="11.7082086"><ele>75.71428571428572</ele><time>2026-04-19T16:26:45.871Z</time></trkpt><trkpt lat="45.6959575" lon="11.7081992"><ele>75.57142857142857</ele><time>2026-04-19T16:26:46.872Z</time></trkpt><trkpt lat="45.6958889" lon="11.7081907"><ele>75.42857142857142</ele><time>2026-04-19T16:26:47.872Z</time></trkpt><trkpt lat="45.6958209" lon="11.708181"><ele>75.28571428571428</ele><time>2026-04-19T16:26:48.871Z</time></trkpt><trkpt lat="45.6957557" lon="11.7081721"><ele>75.14285714285714</ele><time>2026-04-19T16:26:49.871Z</time></trkpt><trkpt lat="45.6956911" lon="11.7081607"><ele>75.0</ele><time>2026-04-19T16:26:50.872Z</time></trkpt><trkpt lat="45.6956272" lon="11.7081497"><ele>75.0</ele><time>2026-04-19T16:26:51.872Z</time></trkpt><trkpt lat="45.6954996" lon="11.7081282"><ele>75.0</ele><time>2026-04-19T16:26:53.872Z</time></trkpt><trkpt lat="45.6954327" lon="11.7081208"><ele>75.0</ele><time>2026-04-19T16:26:54.871Z</time></trkpt><trkpt lat="45.6953683" lon="11.7081124"><ele>75.0</ele><time>2026-04-19T16:26:55.871Z</time></trkpt><trkpt lat="45.6953026" lon="11.7080994"><ele>75.0</ele><time>2026-04-19T16:26:56.872Z</time></trkpt><trkpt lat="45.6952356" lon="11.7080865"><ele>75.0</ele><time>2026-04-19T16:26:57.871Z</time></trkpt><trkpt lat="45.6951708" lon="11.7080741"><ele>74.85714285714285</ele><time>2026-04-19T16:26:58.871Z</time></trkpt><trkpt lat="45.6951035" lon="11.7080637"><ele>74.71428571428571</ele><time>2026-04-19T16:26:59.872Z</time></trkpt><trkpt lat="45.695034" lon="11.7080589"><ele>74.57142857142857</ele><time>2026-04-19T16:27:00.872Z</time></trkpt><trkpt lat="45.6949595" lon="11.7080536"><ele>74.42857142857142</ele><time>2026-04-19T16:27:01.872Z</time></trkpt><trkpt lat="45.6948878" lon="11.7080439"><ele>74.28571428571428</ele><time>2026-04-19T16:27:02.872Z</time></trkpt><trkpt lat="45.6948189" lon="11.7080323"><ele>74.14285714285714</ele><time>2026-04-19T16:27:03.872Z</time></trkpt><trkpt lat="45.6947498" lon="11.7080272"><ele>74.0</ele><time>2026-04-19T16:27:04.872Z</time></trkpt><trkpt lat="45.6946806" lon="11.7080207"><ele>74.0</ele><time>2026-04-19T16:27:05.871Z</time></trkpt><trkpt lat="45.6946098" lon="11.7080147"><ele>74.0</ele><time>2026-04-19T16:27:06.871Z</time></trkpt><trkpt lat="45.6945403" lon="11.7080063"><ele>74.0</ele><time>2026-04-19T16:27:07.871Z</time></trkpt><trkpt lat="45.6944698" lon="11.7080008"><ele>74.0</ele><time>2026-04-19T16:27:08.872Z</time></trkpt><trkpt lat="45.694398" lon="11.7079951"><ele>74.0</ele><time>2026-04-19T16:27:09.872Z</time></trkpt><trkpt lat="45.6943281" lon="11.7079902"><ele>74.0</ele><time>2026-04-19T16:27:10.872Z</time></trkpt><trkpt lat="45.6942595" lon="11.7079838"><ele>74.0</ele><time>2026-04-19T16:27:11.873Z</time></trkpt><trkpt lat="45.6941933" lon="11.7079748"><ele>73.85714285714286</ele><time>2026-04-19T16:27:12.873Z</time></trkpt><trkpt lat="45.6941267" lon="11.7079651"><ele>73.71428571428571</ele><time>2026-04-19T16:27:13.873Z</time></trkpt><trkpt lat="45.6940588" lon="11.7079542"><ele>73.57142857142857</ele><time>2026-04-19T16:27:14.872Z</time></trkpt><trkpt lat="45.6939903" lon="11.7079415"><ele>73.42857142857143</ele><time>2026-04-19T16:27:15.872Z</time></trkpt><trkpt lat="45.6939225" lon="11.7079313"><ele>73.28571428571429</ele><time>2026-04-19T16:27:16.873Z</time></trkpt><trkpt lat="45.6938578" lon="11.7079197"><ele>73.14285714285714</ele><time>2026-04-19T16:27:17.873Z</time></trkpt><trkpt lat="45.6937909" lon="11.7079058"><ele>73.0</ele><time>2026-04-19T16:27:18.873Z</time></trkpt><trkpt lat="45.6937245" lon="11.7078904"><ele>73.0</ele><time>2026-04-19T16:27:19.872Z</time></trkpt><trkpt lat="45.6936595" lon="11.7078737"><ele>73.0</ele><time>2026-04-19T16:27:20.873Z</time></trkpt><trkpt lat="45.6935931" lon="11.7078613"><ele>73.0</ele><time>2026-04-19T16:27:21.873Z</time></trkpt><trkpt lat="45.6935263" lon="11.7078502"><ele>73.0</ele><time>2026-04-19T16:27:22.873Z</time></trkpt><trkpt lat="45.6934588" lon="11.7078369"><ele>73.0</ele><time>2026-04-19T16:27:23.873Z</time></trkpt><trkpt lat="45.6933904" lon="11.7078245"><ele>73.0</ele><time>2026-04-19T16:27:24.873Z</time></trkpt><trkpt lat="45.6933225" lon="11.7078128"><ele>73.0</ele><time>2026-04-19T16:27:25.873Z</time></trkpt><trkpt lat="45.6932602" lon="11.707798"><ele>73.0</ele><time>2026-04-19T16:27:26.873Z</time></trkpt><trkpt lat="45.6931964" lon="11.707783"><ele>73.0</ele><time>2026-04-19T16:27:27.873Z</time></trkpt><trkpt lat="45.6931308" lon="11.7077695"><ele>73.0</ele><time>2026-04-19T16:27:28.873Z</time></trkpt><trkpt lat="45.6930673" lon="11.7077512"><ele>73.0</ele><time>2026-04-19T16:27:29.873Z</time></trkpt><trkpt lat="45.6930005" lon="11.7077239"><ele>73.0</ele><time>2026-04-19T16:27:30.873Z</time></trkpt><trkpt lat="45.6929353" lon="11.7077012"><ele>73.0</ele><time>2026-04-19T16:27:31.873Z</time></trkpt><trkpt lat="45.6928675" lon="11.7076827"><ele>73.0</ele><time>2026-04-19T16:27:32.873Z</time></trkpt><trkpt lat="45.6928018" lon="11.7076593"><ele>73.0</ele><time>2026-04-19T16:27:33.873Z</time></trkpt><trkpt lat="45.6927371" lon="11.7076362"><ele>73.0</ele><time>2026-04-19T16:27:34.872Z</time></trkpt><trkpt lat="45.6926722" lon="11.7076099"><ele>73.0</ele><time>2026-04-19T16:27:35.873Z</time></trkpt><trkpt lat="45.6926091" lon="11.7075821"><ele>73.0</ele><time>2026-04-19T16:27:36.873Z</time></trkpt><trkpt lat="45.6925444" lon="11.707548"><ele>73.0</ele><time>2026-04-19T16:27:37.872Z</time></trkpt><trkpt lat="45.6924795" lon="11.7075142"><ele>73.0</ele><time>2026-04-19T16:27:38.873Z</time></trkpt><trkpt lat="45.6924147" lon="11.7074796"><ele>73.0</ele><time>2026-04-19T16:27:39.873Z</time></trkpt><trkpt lat="45.6923522" lon="11.7074485"><ele>73.0</ele><time>2026-04-19T16:27:40.873Z</time></trkpt><trkpt lat="45.6922879" lon="11.7074137"><ele>73.0</ele><time>2026-04-19T16:27:41.872Z</time></trkpt><trkpt lat="45.6922221" lon="11.7073773"><ele>73.0</ele><time>2026-04-19T16:27:42.872Z</time></trkpt><trkpt lat="45.692156" lon="11.7073388"><ele>73.0</ele><time>2026-04-19T16:27:43.873Z</time></trkpt><trkpt lat="45.6920948" lon="11.7072978"><ele>73.0</ele><time>2026-04-19T16:27:44.872Z</time></trkpt><trkpt lat="45.6920309" lon="11.7072618"><ele>73.0</ele><time>2026-04-19T16:27:45.873Z</time></trkpt><trkpt lat="45.6919696" lon="11.7072279"><ele>73.0</ele><time>2026-04-19T16:27:46.873Z</time></trkpt><trkpt lat="45.691906" lon="11.7071952"><ele>73.14285714285714</ele><time>2026-04-19T16:27:47.873Z</time></trkpt><trkpt lat="45.6918413" lon="11.7071619"><ele>73.28571428571429</ele><time>2026-04-19T16:27:48.872Z</time></trkpt><trkpt lat="45.6917781" lon="11.7071299"><ele>73.42857142857143</ele><time>2026-04-19T16:27:49.873Z</time></trkpt><trkpt lat="45.691716" lon="11.7070969"><ele>73.57142857142857</ele><time>2026-04-19T16:27:50.873Z</time></trkpt><trkpt lat="45.6916518" lon="11.7070642"><ele>73.71428571428571</ele><time>2026-04-19T16:27:51.873Z</time></trkpt><trkpt lat="45.6915882" lon="11.7070293"><ele>73.85714285714286</ele><time>2026-04-19T16:27:52.873Z</time></trkpt><trkpt lat="45.6915248" lon="11.7069915"><ele>74.0</ele><time>2026-04-19T16:27:53.872Z</time></trkpt><trkpt lat="45.691461" lon="11.7069563"><ele>74.0</ele><time>2026-04-19T16:27:54.873Z</time></trkpt><trkpt lat="45.6913957" lon="11.7069228"><ele>74.0</ele><time>2026-04-19T16:27:55.874Z</time></trkpt><trkpt lat="45.6913294" lon="11.706885"><ele>74.0</ele><time>2026-04-19T16:27:56.873Z</time></trkpt><trkpt lat="45.6912641" lon="11.7068453"><ele>74.0</ele><time>2026-04-19T16:27:57.873Z</time></trkpt><trkpt lat="45.6911982" lon="11.7068069"><ele>74.0</ele><time>2026-04-19T16:27:58.873Z</time></trkpt><trkpt lat="45.6911328" lon="11.7067712"><ele>74.0</ele><time>2026-04-19T16:27:59.873Z</time></trkpt><trkpt lat="45.6910681" lon="11.7067375"><ele>74.0</ele><time>2026-04-19T16:28:00.873Z</time></trkpt><trkpt lat="45.6910045" lon="11.7067026"><ele>73.71428571428572</ele><time>2026-04-19T16:28:01.873Z</time></trkpt><trkpt lat="45.6909405" lon="11.706667"><ele>73.42857142857143</ele><time>2026-04-19T16:28:02.873Z</time></trkpt><trkpt lat="45.6908764" lon="11.7066312"><ele>73.14285714285714</ele><time>2026-04-19T16:28:03.873Z</time></trkpt><trkpt lat="45.6908086" lon="11.7065948"><ele>72.85714285714286</ele><time>2026-04-19T16:28:04.872Z</time></trkpt><trkpt lat="45.6907416" lon="11.7065577"><ele>72.57142857142857</ele><time>2026-04-19T16:28:05.874Z</time></trkpt><trkpt lat="45.6906751" lon="11.7065193"><ele>72.28571428571429</ele><time>2026-04-19T16:28:06.874Z</time></trkpt><trkpt lat="45.6906081" lon="11.7064815"><ele>72.0</ele><time>2026-04-19T16:28:07.874Z</time></trkpt><trkpt lat="45.6905411" lon="11.7064434"><ele>72.00000000000001</ele><time>2026-04-19T16:28:08.874Z</time></trkpt><trkpt lat="45.6904751" lon="11.7064058"><ele>72.0</ele><time>2026-04-19T16:28:09.873Z</time></trkpt><trkpt lat="45.6904076" lon="11.7063681"><ele>72.0</ele><time>2026-04-19T16:28:10.874Z</time></trkpt><trkpt lat="45.6903414" lon="11.7063313"><ele>72.0</ele><time>2026-04-19T16:28:11.874Z</time></trkpt><trkpt lat="45.6902744" lon="11.7062921"><ele>72.0</ele><time>2026-04-19T16:28:12.873Z</time></trkpt><trkpt lat="45.6902085" lon="11.7062515"><ele>72.00000000000001</ele><time>2026-04-19T16:28:13.874Z</time></trkpt><trkpt lat="45.6901411" lon="11.7062126"><ele>72.0</ele><time>2026-04-19T16:28:14.873Z</time></trkpt><trkpt lat="45.6900756" lon="11.7061767"><ele>72.00000000000001</ele><time>2026-04-19T16:28:15.874Z</time></trkpt><trkpt lat="45.6900103" lon="11.7061409"><ele>72.0</ele><time>2026-04-19T16:28:16.874Z</time></trkpt><trkpt lat="45.6899432" lon="11.7061024"><ele>72.0</ele><time>2026-04-19T16:28:17.874Z</time></trkpt><trkpt lat="45.6898771" lon="11.7060638"><ele>72.0</ele><time>2026-04-19T16:28:18.874Z</time></trkpt><trkpt lat="45.6898092" lon="11.7060244"><ele>72.0</ele><time>2026-04-19T16:28:19.874Z</time></trkpt><trkpt lat="45.6897449" lon="11.7059733"><ele>72.00000000000001</ele><time>2026-04-19T16:28:20.874Z</time></trkpt><trkpt lat="45.6896813" lon="11.7059229"><ele>72.0</ele><time>2026-04-19T16:28:21.874Z</time></trkpt><trkpt lat="45.6896158" lon="11.7058815"><ele>72.00000000000001</ele><time>2026-04-19T16:28:22.874Z</time></trkpt><trkpt lat="45.6895476" lon="11.7058428"><ele>72.0</ele><time>2026-04-19T16:28:23.873Z</time></trkpt><trkpt lat="45.6894792" lon="11.7058059"><ele>72.0</ele><time>2026-04-19T16:28:24.874Z</time></trkpt><trkpt lat="45.6894138" lon="11.7057601"><ele>72.0</ele><time>2026-04-19T16:28:25.873Z</time></trkpt><trkpt lat="45.689349" lon="11.705711"><ele>72.0</ele><time>2026-04-19T16:28:26.874Z</time></trkpt><trkpt lat="45.689284" lon="11.7056627"><ele>72.00000000000001</ele><time>2026-04-19T16:28:27.874Z</time></trkpt><trkpt lat="45.6892207" lon="11.7056125"><ele>72.0</ele><time>2026-04-19T16:28:28.874Z</time></trkpt><trkpt lat="45.6891546" lon="11.7055615"><ele>72.00000000000001</ele><time>2026-04-19T16:28:29.874Z</time></trkpt><trkpt lat="45.6890872" lon="11.7055103"><ele>72.0</ele><time>2026-04-19T16:28:30.873Z</time></trkpt><trkpt lat="45.6890217" lon="11.7054574"><ele>72.0</ele><time>2026-04-19T16:28:31.873Z</time></trkpt><trkpt lat="45.6889565" lon="11.7054081"><ele>72.0</ele><time>2026-04-19T16:28:32.873Z</time></trkpt><trkpt lat="45.6888916" lon="11.7053598"><ele>72.0</ele><time>2026-04-19T16:28:33.874Z</time></trkpt><trkpt lat="45.6888289" lon="11.7053102"><ele>72.00000000000001</ele><time>2026-04-19T16:28:34.874Z</time></trkpt><trkpt lat="45.6887679" lon="11.7052616"><ele>72.0</ele><time>2026-04-19T16:28:35.873Z</time></trkpt><trkpt lat="45.6887047" lon="11.7052109"><ele>72.00000000000001</ele><time>2026-04-19T16:28:36.874Z</time></trkpt><trkpt lat="45.688638" lon="11.7051631"><ele>72.0</ele><time>2026-04-19T16:28:37.874Z</time></trkpt><trkpt lat="45.6885732" lon="11.7051148"><ele>72.0</ele><time>2026-04-19T16:28:38.873Z</time></trkpt><trkpt lat="45.6885116" lon="11.7050635"><ele>72.0</ele><time>2026-04-19T16:28:39.874Z</time></trkpt><trkpt lat="45.6884502" lon="11.7050154"><ele>72.0</ele><time>2026-04-19T16:28:40.874Z</time></trkpt><trkpt lat="45.6883892" lon="11.7049704"><ele>72.00000000000001</ele><time>2026-04-19T16:28:41.874Z</time></trkpt><trkpt lat="45.6883263" lon="11.7049245"><ele>72.0</ele><time>2026-04-19T16:28:42.874Z</time></trkpt><trkpt lat="45.6882648" lon="11.7048763"><ele>71.85714285714286</ele><time>2026-04-19T16:28:43.873Z</time></trkpt><trkpt lat="45.6882024" lon="11.7048311"><ele>71.71428571428572</ele><time>2026-04-19T16:28:44.874Z</time></trkpt><trkpt lat="45.6881405" lon="11.7047843"><ele>71.57142857142857</ele><time>2026-04-19T16:28:45.873Z</time></trkpt><trkpt lat="45.6880765" lon="11.7047393"><ele>71.42857142857143</ele><time>2026-04-19T16:28:46.874Z</time></trkpt><trkpt lat="45.6880146" lon="11.7046955"><ele>71.28571428571428</ele><time>2026-04-19T16:28:47.874Z</time></trkpt><trkpt lat="45.687951" lon="11.7046543"><ele>71.14285714285714</ele><time>2026-04-19T16:28:48.874Z</time></trkpt><trkpt lat="45.6878878" lon="11.7046156"><ele>71.0</ele><time>2026-04-19T16:28:49.874Z</time></trkpt><trkpt lat="45.687821" lon="11.704578"><ele>71.0</ele><time>2026-04-19T16:28:50.874Z</time></trkpt><trkpt lat="45.6877539" lon="11.70454"><ele>71.0</ele><time>2026-04-19T16:28:51.873Z</time></trkpt><trkpt lat="45.6876846" lon="11.7045063"><ele>71.0</ele><time>2026-04-19T16:28:52.874Z</time></trkpt><trkpt lat="45.6876161" lon="11.7044735"><ele>71.0</ele><time>2026-04-19T16:28:53.875Z</time></trkpt><trkpt lat="45.6875484" lon="11.7044432"><ele>71.0</ele><time>2026-04-19T16:28:54.874Z</time></trkpt><trkpt lat="45.6874813" lon="11.7044184"><ele>71.0</ele><time>2026-04-19T16:28:55.873Z</time></trkpt><trkpt lat="45.6874146" lon="11.7043928"><ele>71.0</ele><time>2026-04-19T16:28:56.873Z</time></trkpt><trkpt lat="45.687348" lon="11.7043689"><ele>71.0</ele><time>2026-04-19T16:28:57.873Z</time></trkpt><trkpt lat="45.68728" lon="11.7043468"><ele>71.0</ele><time>2026-04-19T16:28:58.875Z</time></trkpt><trkpt lat="45.6872127" lon="11.7043285"><ele>71.0</ele><time>2026-04-19T16:28:59.875Z</time></trkpt><trkpt lat="45.6871433" lon="11.7043182"><ele>71.0</ele><time>2026-04-19T16:29:00.875Z</time></trkpt><trkpt lat="45.6870718" lon="11.7043068"><ele>71.0</ele><time>2026-04-19T16:29:01.875Z</time></trkpt><trkpt lat="45.6870027" lon="11.7042853"><ele>71.0</ele><time>2026-04-19T16:29:02.875Z</time></trkpt><trkpt lat="45.6869391" lon="11.7042468"><ele>71.0</ele><time>2026-04-19T16:29:03.875Z</time></trkpt><trkpt lat="45.6868803" lon="11.7041943"><ele>71.0</ele><time>2026-04-19T16:29:04.875Z</time></trkpt><trkpt lat="45.6868253" lon="11.7041443"><ele>71.0</ele><time>2026-04-19T16:29:05.875Z</time></trkpt><trkpt lat="45.6867626" lon="11.7041035"><ele>71.0</ele><time>2026-04-19T16:29:06.874Z</time></trkpt><trkpt lat="45.6866957" lon="11.7040662"><ele>71.0</ele><time>2026-04-19T16:29:07.875Z</time></trkpt><trkpt lat="45.686628" lon="11.7040271"><ele>71.0</ele><time>2026-04-19T16:29:08.875Z</time></trkpt><trkpt lat="45.6865672" lon="11.7039843"><ele>71.0</ele><time>2026-04-19T16:29:09.875Z</time></trkpt><trkpt lat="45.6865039" lon="11.7039547"><ele>71.0</ele><time>2026-04-19T16:29:10.875Z</time></trkpt><trkpt lat="45.6864421" lon="11.7039353"><ele>71.0</ele><time>2026-04-19T16:29:11.875Z</time></trkpt><trkpt lat="45.6863149" lon="11.7039088"><ele>71.0</ele><time>2026-04-19T16:29:13.875Z</time></trkpt><trkpt lat="45.686182" lon="11.7038902"><ele>71.0</ele><time>2026-04-19T16:29:15.875Z</time></trkpt><trkpt lat="45.6861124" lon="11.7038778"><ele>71.0</ele><time>2026-04-19T16:29:16.875Z</time></trkpt><trkpt lat="45.6860405" lon="11.7038687"><ele>71.0</ele><time>2026-04-19T16:29:17.875Z</time></trkpt><trkpt lat="45.6859737" lon="11.7038574"><ele>71.0</ele><time>2026-04-19T16:29:18.875Z</time></trkpt><trkpt lat="45.6859041" lon="11.7038452"><ele>71.0</ele><time>2026-04-19T16:29:19.875Z</time></trkpt><trkpt lat="45.6858342" lon="11.7038313"><ele>71.0</ele><time>2026-04-19T16:29:20.874Z</time></trkpt><trkpt lat="45.685762" lon="11.7038199"><ele>71.0</ele><time>2026-04-19T16:29:21.875Z</time></trkpt><trkpt lat="45.6856918" lon="11.7038118"><ele>71.0</ele><time>2026-04-19T16:29:22.875Z</time></trkpt><trkpt lat="45.6856233" lon="11.7038008"><ele>71.0</ele><time>2026-04-19T16:29:23.874Z</time></trkpt><trkpt lat="45.6855558" lon="11.7037885"><ele>71.0</ele><time>2026-04-19T16:29:24.874Z</time></trkpt><trkpt lat="45.6854902" lon="11.7037748"><ele>71.0</ele><time>2026-04-19T16:29:25.875Z</time></trkpt><trkpt lat="45.6854223" lon="11.7037568"><ele>71.0</ele><time>2026-04-19T16:29:26.874Z</time></trkpt><trkpt lat="45.6853556" lon="11.7037464"><ele>71.0</ele><time>2026-04-19T16:29:27.875Z</time></trkpt><trkpt lat="45.685284" lon="11.7037381"><ele>71.0</ele><time>2026-04-19T16:29:28.875Z</time></trkpt><trkpt lat="45.6852157" lon="11.7037264"><ele>71.0</ele><time>2026-04-19T16:29:29.875Z</time></trkpt><trkpt lat="45.6851485" lon="11.7037148"><ele>71.0</ele><time>2026-04-19T16:29:30.874Z</time></trkpt><trkpt lat="45.6850774" lon="11.7037004"><ele>71.0</ele><time>2026-04-19T16:29:31.874Z</time></trkpt><trkpt lat="45.6850073" lon="11.7036856"><ele>71.0</ele><time>2026-04-19T16:29:32.875Z</time></trkpt><trkpt lat="45.6849385" lon="11.7036722"><ele>71.0</ele><time>2026-04-19T16:29:33.874Z</time></trkpt><trkpt lat="45.6848726" lon="11.703664"><ele>71.0</ele><time>2026-04-19T16:29:34.875Z</time></trkpt><trkpt lat="45.6848095" lon="11.7036565"><ele>71.0</ele><time>2026-04-19T16:29:35.875Z</time></trkpt><trkpt lat="45.6847452" lon="11.7036493"><ele>71.0</ele><time>2026-04-19T16:29:36.874Z</time></trkpt><trkpt lat="45.6846783" lon="11.7036375"><ele>71.0</ele><time>2026-04-19T16:29:37.874Z</time></trkpt><trkpt lat="45.6846138" lon="11.7036284"><ele>71.0</ele><time>2026-04-19T16:29:38.875Z</time></trkpt><trkpt lat="45.6845473" lon="11.7036186"><ele>71.0</ele><time>2026-04-19T16:29:39.875Z</time></trkpt><trkpt lat="45.6844812" lon="11.7036078"><ele>71.0</ele><time>2026-04-19T16:29:40.874Z</time></trkpt><trkpt lat="45.6844156" lon="11.7035952"><ele>71.0</ele><time>2026-04-19T16:29:41.875Z</time></trkpt><trkpt lat="45.684348" lon="11.7035812"><ele>71.0</ele><time>2026-04-19T16:29:42.874Z</time></trkpt><trkpt lat="45.6842756" lon="11.7035691"><ele>71.0</ele><time>2026-04-19T16:29:43.875Z</time></trkpt><trkpt lat="45.6842073" lon="11.7035572"><ele>71.0</ele><time>2026-04-19T16:29:44.874Z</time></trkpt><trkpt lat="45.6841388" lon="11.7035474"><ele>71.0</ele><time>2026-04-19T16:29:45.875Z</time></trkpt><trkpt lat="45.6840711" lon="11.7035334"><ele>70.85714285714286</ele><time>2026-04-19T16:29:46.875Z</time></trkpt><trkpt lat="45.6840018" lon="11.70352"><ele>70.71428571428571</ele><time>2026-04-19T16:29:47.875Z</time></trkpt><trkpt lat="45.6839323" lon="11.703508"><ele>70.57142857142857</ele><time>2026-04-19T16:29:48.874Z</time></trkpt><trkpt lat="45.6838624" lon="11.7035013"><ele>70.42857142857143</ele><time>2026-04-19T16:29:49.876Z</time></trkpt><trkpt lat="45.6837922" lon="11.7034963"><ele>70.28571428571428</ele><time>2026-04-19T16:29:50.875Z</time></trkpt><trkpt lat="45.6837248" lon="11.7034853"><ele>70.14285714285714</ele><time>2026-04-19T16:29:51.874Z</time></trkpt><trkpt lat="45.6836567" lon="11.7034745"><ele>70.0</ele><time>2026-04-19T16:29:52.876Z</time></trkpt><trkpt lat="45.683588" lon="11.7034612"><ele>70.0</ele><time>2026-04-19T16:29:53.876Z</time></trkpt><trkpt lat="45.6835179" lon="11.7034491"><ele>70.0</ele><time>2026-04-19T16:29:54.876Z</time></trkpt><trkpt lat="45.6834506" lon="11.7034383"><ele>70.0</ele><time>2026-04-19T16:29:55.876Z</time></trkpt><trkpt lat="45.6833821" lon="11.7034298"><ele>70.0</ele><time>2026-04-19T16:29:56.876Z</time></trkpt><trkpt lat="45.6833164" lon="11.7034197"><ele>70.0</ele><time>2026-04-19T16:29:57.876Z</time></trkpt><trkpt lat="45.683252" lon="11.7034062"><ele>70.0</ele><time>2026-04-19T16:29:58.876Z</time></trkpt><trkpt lat="45.6831806" lon="11.703382"><ele>70.0</ele><time>2026-04-19T16:29:59.875Z</time></trkpt><trkpt lat="45.6831185" lon="11.7033388"><ele>70.0</ele><time>2026-04-19T16:30:00.875Z</time></trkpt><trkpt lat="45.6830736" lon="11.7032532"><ele>70.0</ele><time>2026-04-19T16:30:01.876Z</time></trkpt><trkpt lat="45.6830582" lon="11.7031458"><ele>70.0</ele><time>2026-04-19T16:30:02.876Z</time></trkpt><trkpt lat="45.6830632" lon="11.703027"><ele>70.0</ele><time>2026-04-19T16:30:03.875Z</time></trkpt><trkpt lat="45.683065" lon="11.7029205"><ele>70.0</ele><time>2026-04-19T16:30:04.875Z</time></trkpt><trkpt lat="45.6830553" lon="11.7028233"><ele>70.0</ele><time>2026-04-19T16:30:05.876Z</time></trkpt><trkpt lat="45.6830269" lon="11.7027196"><ele>69.33333333333333</ele><time>2026-04-19T16:30:06.876Z</time></trkpt><trkpt lat="45.682992" lon="11.702619"><ele>68.66666666666666</ele><time>2026-04-19T16:30:07.875Z</time></trkpt><trkpt lat="45.6829482" lon="11.702523"><ele>68.0</ele><time>2026-04-19T16:30:08.876Z</time></trkpt><trkpt lat="45.682902" lon="11.7024304"><ele>67.33333333333333</ele><time>2026-04-19T16:30:09.875Z</time></trkpt><trkpt lat="45.6828544" lon="11.7023392"><ele>66.66666666666667</ele><time>2026-04-19T16:30:10.875Z</time></trkpt><trkpt lat="45.6828079" lon="11.7022478"><ele>66.0</ele><time>2026-04-19T16:30:11.876Z</time></trkpt><trkpt lat="45.682763" lon="11.7021565"><ele>65.83333333333333</ele><time>2026-04-19T16:30:12.875Z</time></trkpt><trkpt lat="45.6827171" lon="11.7020637"><ele>65.66666666666667</ele><time>2026-04-19T16:30:13.876Z</time></trkpt><trkpt lat="45.6826717" lon="11.7019694"><ele>65.5</ele><time>2026-04-19T16:30:14.876Z</time></trkpt><trkpt lat="45.6826256" lon="11.7018734"><ele>65.33333333333334</ele><time>2026-04-19T16:30:15.875Z</time></trkpt><trkpt lat="45.6825784" lon="11.7017776"><ele>65.16666666666667</ele><time>2026-04-19T16:30:16.876Z</time></trkpt><trkpt lat="45.6825335" lon="11.7016831"><ele>65.0</ele><time>2026-04-19T16:30:17.875Z</time></trkpt><trkpt lat="45.682487" lon="11.7015905"><ele>64.71428571428572</ele><time>2026-04-19T16:30:18.876Z</time></trkpt><trkpt lat="45.6824396" lon="11.7015028"><ele>64.42857142857143</ele><time>2026-04-19T16:30:19.875Z</time></trkpt><trkpt lat="45.6823953" lon="11.7014135"><ele>64.14285714285714</ele><time>2026-04-19T16:30:20.875Z</time></trkpt><trkpt lat="45.6823525" lon="11.7013236"><ele>63.85714285714286</ele><time>2026-04-19T16:30:21.876Z</time></trkpt><trkpt lat="45.6823097" lon="11.7012345"><ele>63.57142857142857</ele><time>2026-04-19T16:30:22.875Z</time></trkpt><trkpt lat="45.6822657" lon="11.7011497"><ele>63.285714285714285</ele><time>2026-04-19T16:30:23.875Z</time></trkpt><trkpt lat="45.6822248" lon="11.7010682"><ele>63.0</ele><time>2026-04-19T16:30:24.876Z</time></trkpt><trkpt lat="45.6821836" lon="11.7009839"><ele>62.85714285714286</ele><time>2026-04-19T16:30:25.876Z</time></trkpt><trkpt lat="45.6821409" lon="11.7009017"><ele>62.714285714285715</ele><time>2026-04-19T16:30:26.876Z</time></trkpt><trkpt lat="45.6820978" lon="11.7008235"><ele>62.57142857142857</ele><time>2026-04-19T16:30:27.876Z</time></trkpt><trkpt lat="45.682054" lon="11.7007467"><ele>62.42857142857143</ele><time>2026-04-19T16:30:28.876Z</time></trkpt><trkpt lat="45.6820086" lon="11.7006691"><ele>62.28571428571429</ele><time>2026-04-19T16:30:29.876Z</time></trkpt><trkpt lat="45.6819618" lon="11.7005932"><ele>62.142857142857146</ele><time>2026-04-19T16:30:30.875Z</time></trkpt><trkpt lat="45.6819142" lon="11.7005187"><ele>62.0</ele><time>2026-04-19T16:30:31.875Z</time></trkpt><trkpt lat="45.681867" lon="11.7004454"><ele>61.85714285714286</ele><time>2026-04-19T16:30:32.876Z</time></trkpt><trkpt lat="45.6818189" lon="11.7003715"><ele>61.71428571428572</ele><time>2026-04-19T16:30:33.876Z</time></trkpt><trkpt lat="45.6817717" lon="11.7002968"><ele>61.57142857142857</ele><time>2026-04-19T16:30:34.876Z</time></trkpt><trkpt lat="45.6817236" lon="11.7002222"><ele>61.42857142857143</ele><time>2026-04-19T16:30:35.876Z</time></trkpt><trkpt lat="45.6816738" lon="11.7001472"><ele>61.285714285714285</ele><time>2026-04-19T16:30:36.876Z</time></trkpt><trkpt lat="45.6816227" lon="11.7000741"><ele>61.14285714285714</ele><time>2026-04-19T16:30:37.876Z</time></trkpt><trkpt lat="45.6815747" lon="11.7000027"><ele>60.99999999999999</ele><time>2026-04-19T16:30:38.875Z</time></trkpt><trkpt lat="45.6815281" lon="11.6999292"><ele>60.85714285714285</ele><time>2026-04-19T16:30:39.876Z</time></trkpt><trkpt lat="45.6814811" lon="11.6998566"><ele>60.71428571428571</ele><time>2026-04-19T16:30:40.876Z</time></trkpt><trkpt lat="45.6814336" lon="11.6997841"><ele>60.57142857142857</ele><time>2026-04-19T16:30:41.875Z</time></trkpt><trkpt lat="45.6813879" lon="11.6997132"><ele>60.42857142857142</ele><time>2026-04-19T16:30:42.875Z</time></trkpt><trkpt lat="45.6813426" lon="11.6996439"><ele>60.28571428571428</ele><time>2026-04-19T16:30:43.876Z</time></trkpt><trkpt lat="45.6812968" lon="11.699575"><ele>60.142857142857146</ele><time>2026-04-19T16:30:44.875Z</time></trkpt><trkpt lat="45.6812513" lon="11.6995055"><ele>60.0</ele><time>2026-04-19T16:30:45.876Z</time></trkpt><trkpt lat="45.6812075" lon="11.6994357"><ele>60.142857142857146</ele><time>2026-04-19T16:30:46.877Z</time></trkpt><trkpt lat="45.6811636" lon="11.6993626"><ele>60.28571428571428</ele><time>2026-04-19T16:30:47.877Z</time></trkpt><trkpt lat="45.6811197" lon="11.6992888"><ele>60.42857142857142</ele><time>2026-04-19T16:30:48.877Z</time></trkpt><trkpt lat="45.6810766" lon="11.6992154"><ele>60.57142857142857</ele><time>2026-04-19T16:30:49.877Z</time></trkpt><trkpt lat="45.6810346" lon="11.6991415"><ele>60.71428571428571</ele><time>2026-04-19T16:30:50.877Z</time></trkpt><trkpt lat="45.6809925" lon="11.6990644"><ele>60.85714285714285</ele><time>2026-04-19T16:30:51.877Z</time></trkpt><trkpt lat="45.6809521" lon="11.698985"><ele>60.99999999999999</ele><time>2026-04-19T16:30:52.877Z</time></trkpt><trkpt lat="45.6809125" lon="11.6989026"><ele>60.99999999999999</ele><time>2026-04-19T16:30:53.877Z</time></trkpt><trkpt lat="45.6808792" lon="11.6988222"><ele>61.0</ele><time>2026-04-19T16:30:54.877Z</time></trkpt><trkpt lat="45.6808448" lon="11.6987428"><ele>60.99999999999999</ele><time>2026-04-19T16:30:55.877Z</time></trkpt><trkpt lat="45.6808075" lon="11.6986614"><ele>60.99999999999999</ele><time>2026-04-19T16:30:56.877Z</time></trkpt><trkpt lat="45.6807698" lon="11.6985799"><ele>61.0</ele><time>2026-04-19T16:30:57.877Z</time></trkpt><trkpt lat="45.6807321" lon="11.6984979"><ele>60.99999999999999</ele><time>2026-04-19T16:30:58.877Z</time></trkpt><trkpt lat="45.6806947" lon="11.6984162"><ele>60.99999999999999</ele><time>2026-04-19T16:30:59.876Z</time></trkpt><trkpt lat="45.6806563" lon="11.6983342"><ele>61.14285714285714</ele><time>2026-04-19T16:31:00.877Z</time></trkpt><trkpt lat="45.6806187" lon="11.6982523"><ele>61.285714285714285</ele><time>2026-04-19T16:31:01.877Z</time></trkpt><trkpt lat="45.6805807" lon="11.6981691"><ele>61.42857142857143</ele><time>2026-04-19T16:31:02.877Z</time></trkpt><trkpt lat="45.6805434" lon="11.6980889"><ele>61.57142857142857</ele><time>2026-04-19T16:31:03.877Z</time></trkpt><trkpt lat="45.6805079" lon="11.6980093"><ele>61.71428571428572</ele><time>2026-04-19T16:31:04.877Z</time></trkpt><trkpt lat="45.6804735" lon="11.6979291"><ele>61.85714285714286</ele><time>2026-04-19T16:31:05.877Z</time></trkpt><trkpt lat="45.6804374" lon="11.6978471"><ele>62.0</ele><time>2026-04-19T16:31:06.877Z</time></trkpt><trkpt lat="45.6803992" lon="11.6977636"><ele>62.142857142857146</ele><time>2026-04-19T16:31:07.876Z</time></trkpt><trkpt lat="45.6803613" lon="11.6976817"><ele>62.28571428571429</ele><time>2026-04-19T16:31:08.877Z</time></trkpt><trkpt lat="45.6803252" lon="11.697602"><ele>62.42857142857143</ele><time>2026-04-19T16:31:09.876Z</time></trkpt><trkpt lat="45.6802885" lon="11.6975214"><ele>62.57142857142857</ele><time>2026-04-19T16:31:10.877Z</time></trkpt><trkpt lat="45.6802518" lon="11.6974422"><ele>62.714285714285715</ele><time>2026-04-19T16:31:11.877Z</time></trkpt><trkpt lat="45.6802155" lon="11.6973626"><ele>62.85714285714286</ele><time>2026-04-19T16:31:12.877Z</time></trkpt><trkpt lat="45.6801786" lon="11.6972803"><ele>63.0</ele><time>2026-04-19T16:31:13.877Z</time></trkpt><trkpt lat="45.6801423" lon="11.6971997"><ele>63.0</ele><time>2026-04-19T16:31:14.877Z</time></trkpt><trkpt lat="45.6801045" lon="11.6971181"><ele>63.0</ele><time>2026-04-19T16:31:15.877Z</time></trkpt><trkpt lat="45.6800666" lon="11.6970363"><ele>63.0</ele><time>2026-04-19T16:31:16.877Z</time></trkpt><trkpt lat="45.6800293" lon="11.6969552"><ele>63.0</ele><time>2026-04-19T16:31:17.877Z</time></trkpt><trkpt lat="45.6799906" lon="11.6968731"><ele>63.0</ele><time>2026-04-19T16:31:18.876Z</time></trkpt><trkpt lat="45.6799516" lon="11.6967903"><ele>63.0</ele><time>2026-04-19T16:31:19.876Z</time></trkpt><trkpt lat="45.6799146" lon="11.6967106"><ele>63.0</ele><time>2026-04-19T16:31:20.877Z</time></trkpt><trkpt lat="45.6798766" lon="11.6966311"><ele>63.0</ele><time>2026-04-19T16:31:21.877Z</time></trkpt><trkpt lat="45.679839" lon="11.6965494"><ele>63.0</ele><time>2026-04-19T16:31:22.877Z</time></trkpt><trkpt lat="45.6798015" lon="11.6964672"><ele>63.0</ele><time>2026-04-19T16:31:23.877Z</time></trkpt><trkpt lat="45.6797629" lon="11.6963846"><ele>63.0</ele><time>2026-04-19T16:31:24.877Z</time></trkpt><trkpt lat="45.6797259" lon="11.6963041"><ele>63.0</ele><time>2026-04-19T16:31:25.877Z</time></trkpt><trkpt lat="45.679689" lon="11.6962234"><ele>63.0</ele><time>2026-04-19T16:31:26.877Z</time></trkpt><trkpt lat="45.6796525" lon="11.6961426"><ele>63.0</ele><time>2026-04-19T16:31:27.877Z</time></trkpt><trkpt lat="45.6796152" lon="11.6960606"><ele>63.0</ele><time>2026-04-19T16:31:28.877Z</time></trkpt><trkpt lat="45.6795781" lon="11.6959797"><ele>63.0</ele><time>2026-04-19T16:31:29.876Z</time></trkpt><trkpt lat="45.6795409" lon="11.6959005"><ele>63.0</ele><time>2026-04-19T16:31:30.877Z</time></trkpt><trkpt lat="45.6795036" lon="11.6958228"><ele>63.0</ele><time>2026-04-19T16:31:31.877Z</time></trkpt><trkpt lat="45.6794671" lon="11.6957458"><ele>63.0</ele><time>2026-04-19T16:31:32.876Z</time></trkpt><trkpt lat="45.6794291" lon="11.6956623"><ele>63.0</ele><time>2026-04-19T16:31:33.876Z</time></trkpt><trkpt lat="45.6793923" lon="11.6955814"><ele>63.0</ele><time>2026-04-19T16:31:34.877Z</time></trkpt><trkpt lat="45.6793554" lon="11.6954999"><ele>63.0</ele><time>2026-04-19T16:31:35.877Z</time></trkpt><trkpt lat="45.6793183" lon="11.6954174"><ele>63.0</ele><time>2026-04-19T16:31:36.876Z</time></trkpt><trkpt lat="45.6792814" lon="11.6953341"><ele>63.0</ele><time>2026-04-19T16:31:37.877Z</time></trkpt><trkpt lat="45.6792438" lon="11.6952531"><ele>63.0</ele><time>2026-04-19T16:31:38.878Z</time></trkpt><trkpt lat="45.6792071" lon="11.6951745"><ele>63.0</ele><time>2026-04-19T16:31:39.878Z</time></trkpt><trkpt lat="45.6791712" lon="11.695094"><ele>63.0</ele><time>2026-04-19T16:31:40.878Z</time></trkpt><trkpt lat="45.6791351" lon="11.6950135"><ele>63.0</ele><time>2026-04-19T16:31:41.877Z</time></trkpt><trkpt lat="45.6790988" lon="11.6949328"><ele>63.0</ele><time>2026-04-19T16:31:42.878Z</time></trkpt><trkpt lat="45.6790625" lon="11.6948524"><ele>63.0</ele><time>2026-04-19T16:31:43.878Z</time></trkpt><trkpt lat="45.6790247" lon="11.6947734"><ele>63.0</ele><time>2026-04-19T16:31:44.878Z</time></trkpt><trkpt lat="45.6789873" lon="11.6946933"><ele>63.0</ele><time>2026-04-19T16:31:45.878Z</time></trkpt><trkpt lat="45.6789502" lon="11.6946116"><ele>63.0</ele><time>2026-04-19T16:31:46.878Z</time></trkpt><trkpt lat="45.6789138" lon="11.6945308"><ele>63.0</ele><time>2026-04-19T16:31:47.877Z</time></trkpt><trkpt lat="45.6788776" lon="11.6944525"><ele>63.0</ele><time>2026-04-19T16:31:48.877Z</time></trkpt><trkpt lat="45.6788412" lon="11.6943747"><ele>62.85714285714286</ele><time>2026-04-19T16:31:49.878Z</time></trkpt><trkpt lat="45.6788059" lon="11.6942971"><ele>62.714285714285715</ele><time>2026-04-19T16:31:50.877Z</time></trkpt><trkpt lat="45.6787712" lon="11.6942192"><ele>62.57142857142857</ele><time>2026-04-19T16:31:51.878Z</time></trkpt><trkpt lat="45.6787359" lon="11.6941416"><ele>62.42857142857143</ele><time>2026-04-19T16:31:52.878Z</time></trkpt><trkpt lat="45.6787005" lon="11.6940622"><ele>62.28571428571429</ele><time>2026-04-19T16:31:53.877Z</time></trkpt><trkpt lat="45.6786669" lon="11.693983"><ele>62.142857142857146</ele><time>2026-04-19T16:31:54.878Z</time></trkpt><trkpt lat="45.6786325" lon="11.693906"><ele>62.0</ele><time>2026-04-19T16:31:55.877Z</time></trkpt><trkpt lat="45.6785633" lon="11.6937579"><ele>62.142857142857146</ele><time>2026-04-19T16:31:57.878Z</time></trkpt><trkpt lat="45.678528" lon="11.6936816"><ele>62.28571428571429</ele><time>2026-04-19T16:31:58.878Z</time></trkpt><trkpt lat="45.6784927" lon="11.6936043"><ele>62.42857142857143</ele><time>2026-04-19T16:31:59.877Z</time></trkpt><trkpt lat="45.6784549" lon="11.693523"><ele>62.57142857142857</ele><time>2026-04-19T16:32:00.878Z</time></trkpt><trkpt lat="45.6784178" lon="11.6934395"><ele>62.714285714285715</ele><time>2026-04-19T16:32:01.878Z</time></trkpt><trkpt lat="45.6783805" lon="11.6933582"><ele>62.85714285714286</ele><time>2026-04-19T16:32:02.878Z</time></trkpt><trkpt lat="45.6783447" lon="11.6932771"><ele>63.0</ele><time>2026-04-19T16:32:03.877Z</time></trkpt><trkpt lat="45.6783091" lon="11.6931974"><ele>63.0</ele><time>2026-04-19T16:32:04.877Z</time></trkpt><trkpt lat="45.6782741" lon="11.6931215"><ele>63.0</ele><time>2026-04-19T16:32:05.878Z</time></trkpt><trkpt lat="45.6782387" lon="11.6930445"><ele>63.0</ele><time>2026-04-19T16:32:06.878Z</time></trkpt><trkpt lat="45.6782042" lon="11.6929677"><ele>63.0</ele><time>2026-04-19T16:32:07.878Z</time></trkpt><trkpt lat="45.6781691" lon="11.6928906"><ele>63.0</ele><time>2026-04-19T16:32:08.877Z</time></trkpt><trkpt lat="45.6780982" lon="11.6927453"><ele>63.0</ele><time>2026-04-19T16:32:10.878Z</time></trkpt><trkpt lat="45.6780283" lon="11.6925948"><ele>63.14285714285714</ele><time>2026-04-19T16:32:12.878Z</time></trkpt><trkpt lat="45.6779942" lon="11.6925182"><ele>63.285714285714285</ele><time>2026-04-19T16:32:13.877Z</time></trkpt><trkpt lat="45.677957" lon="11.6924419"><ele>63.42857142857143</ele><time>2026-04-19T16:32:14.878Z</time></trkpt><trkpt lat="45.6779197" lon="11.6923639"><ele>63.57142857142857</ele><time>2026-04-19T16:32:15.878Z</time></trkpt><trkpt lat="45.6778824" lon="11.6922845"><ele>63.71428571428571</ele><time>2026-04-19T16:32:16.878Z</time></trkpt><trkpt lat="45.6778456" lon="11.6922064"><ele>63.857142857142854</ele><time>2026-04-19T16:32:17.878Z</time></trkpt><trkpt lat="45.6778087" lon="11.6921282"><ele>64.0</ele><time>2026-04-19T16:32:18.877Z</time></trkpt><trkpt lat="45.6777729" lon="11.6920507"><ele>63.71428571428571</ele><time>2026-04-19T16:32:19.877Z</time></trkpt><trkpt lat="45.6777378" lon="11.6919753"><ele>63.42857142857142</ele><time>2026-04-19T16:32:20.878Z</time></trkpt><trkpt lat="45.6777038" lon="11.6918985"><ele>63.14285714285714</ele><time>2026-04-19T16:32:21.878Z</time></trkpt><trkpt lat="45.6776704" lon="11.69182"><ele>62.85714285714286</ele><time>2026-04-19T16:32:22.878Z</time></trkpt><trkpt lat="45.6776379" lon="11.6917407"><ele>62.57142857142858</ele><time>2026-04-19T16:32:23.877Z</time></trkpt><trkpt lat="45.6776059" lon="11.69166"><ele>62.28571428571429</ele><time>2026-04-19T16:32:24.878Z</time></trkpt><trkpt lat="45.6775743" lon="11.6915795"><ele>62.0</ele><time>2026-04-19T16:32:25.878Z</time></trkpt><trkpt lat="45.6775213" lon="11.691424"><ele>61.75</ele><time>2026-04-19T16:32:27.878Z</time></trkpt><trkpt lat="45.677475" lon="11.691263"><ele>61.5</ele><time>2026-04-19T16:32:29.877Z</time></trkpt><trkpt lat="45.6774353" lon="11.6910971"><ele>61.25</ele><time>2026-04-19T16:32:31.878Z</time></trkpt><trkpt lat="45.6774006" lon="11.6909327"><ele>61.0</ele><time>2026-04-19T16:32:33.879Z</time></trkpt><trkpt lat="45.6773741" lon="11.6907712"><ele>61.0</ele><time>2026-04-19T16:32:35.879Z</time></trkpt><trkpt lat="45.6773478" lon="11.6906104"><ele>61.0</ele><time>2026-04-19T16:32:37.878Z</time></trkpt><trkpt lat="45.6773197" lon="11.6904493"><ele>61.0</ele><time>2026-04-19T16:32:39.879Z</time></trkpt><trkpt lat="45.677292" lon="11.6902805"><ele>61.0</ele><time>2026-04-19T16:32:41.879Z</time></trkpt><trkpt lat="45.6772532" lon="11.6901171"><ele>60.75</ele><time>2026-04-19T16:32:43.878Z</time></trkpt><trkpt lat="45.6772176" lon="11.6899517"><ele>60.5</ele><time>2026-04-19T16:32:45.878Z</time></trkpt><trkpt lat="45.6771849" lon="11.689784"><ele>60.25</ele><time>2026-04-19T16:32:47.879Z</time></trkpt><trkpt lat="45.6771515" lon="11.68962"><ele>60.0</ele><time>2026-04-19T16:32:49.879Z</time></trkpt><trkpt lat="45.6771184" lon="11.6894592"><ele>59.25</ele><time>2026-04-19T16:32:51.879Z</time></trkpt><trkpt lat="45.677088" lon="11.6892952"><ele>58.5</ele><time>2026-04-19T16:32:53.879Z</time></trkpt><trkpt lat="45.6770564" lon="11.6891314"><ele>57.75</ele><time>2026-04-19T16:32:55.879Z</time></trkpt><trkpt lat="45.6770256" lon="11.6889643"><ele>57.0</ele><time>2026-04-19T16:32:57.878Z</time></trkpt><trkpt lat="45.6769928" lon="11.6887996"><ele>57.0</ele><time>2026-04-19T16:32:59.879Z</time></trkpt><trkpt lat="45.6769621" lon="11.6886338"><ele>57.0</ele><time>2026-04-19T16:33:01.878Z</time></trkpt><trkpt lat="45.6769331" lon="11.6884673"><ele>57.0</ele><time>2026-04-19T16:33:03.878Z</time></trkpt><trkpt lat="45.6769004" lon="11.6883052"><ele>57.0</ele><time>2026-04-19T16:33:05.878Z</time></trkpt><trkpt lat="45.6768704" lon="11.6881452"><ele>56.400000000000006</ele><time>2026-04-19T16:33:07.879Z</time></trkpt><trkpt lat="45.6768383" lon="11.6879969"><ele>55.800000000000004</ele><time>2026-04-19T16:33:09.879Z</time></trkpt><trkpt lat="45.6768106" lon="11.6878596"><ele>55.2</ele><time>2026-04-19T16:33:11.879Z</time></trkpt><trkpt lat="45.6767849" lon="11.6877319"><ele>54.6</ele><time>2026-04-19T16:33:13.879Z</time></trkpt><trkpt lat="45.6767626" lon="11.6876117"><ele>54.0</ele><time>2026-04-19T16:33:15.879Z</time></trkpt><trkpt lat="45.6767435" lon="11.6874773"><ele>54.0</ele><time>2026-04-19T16:33:17.879Z</time></trkpt><trkpt lat="45.6767137" lon="11.6873288"><ele>54.00000000000001</ele><time>2026-04-19T16:33:19.878Z</time></trkpt><trkpt lat="45.6766827" lon="11.6871667"><ele>54.00000000000001</ele><time>2026-04-19T16:33:21.879Z</time></trkpt><trkpt lat="45.6766556" lon="11.687034"><ele>54.0</ele><time>2026-04-19T16:33:23.88Z</time></trkpt><trkpt lat="45.6766311" lon="11.6869029"><ele>54.0</ele><time>2026-04-19T16:33:25.879Z</time></trkpt><trkpt lat="45.6766149" lon="11.6867761"><ele>54.400000000000006</ele><time>2026-04-19T16:33:27.88Z</time></trkpt><trkpt lat="45.676593" lon="11.6866592"><ele>54.800000000000004</ele><time>2026-04-19T16:33:29.88Z</time></trkpt><trkpt lat="45.676572" lon="11.6865424"><ele>55.199999999999996</ele><time>2026-04-19T16:33:31.88Z</time></trkpt><trkpt lat="45.6765468" lon="11.6863969"><ele>55.599999999999994</ele><time>2026-04-19T16:33:33.879Z</time></trkpt><trkpt lat="45.6765182" lon="11.686236"><ele>56.0</ele><time>2026-04-19T16:33:35.88Z</time></trkpt><trkpt lat="45.676485" lon="11.6860857"><ele>56.50000000000001</ele><time>2026-04-19T16:33:37.879Z</time></trkpt><trkpt lat="45.6764572" lon="11.6859494"><ele>57.0</ele><time>2026-04-19T16:33:39.88Z</time></trkpt><trkpt lat="45.6764331" lon="11.6858243"><ele>57.5</ele><time>2026-04-19T16:33:41.88Z</time></trkpt><trkpt lat="45.6764105" lon="11.6857026"><ele>58.0</ele><time>2026-04-19T16:33:43.879Z</time></trkpt><trkpt lat="45.6763876" lon="11.6855888"><ele>58.50000000000001</ele><time>2026-04-19T16:33:45.88Z</time></trkpt><trkpt lat="45.6763627" lon="11.6854785"><ele>59.0</ele><time>2026-04-19T16:33:47.88Z</time></trkpt><trkpt lat="45.6763431" lon="11.685355"><ele>59.57142857142857</ele><time>2026-04-19T16:33:49.879Z</time></trkpt><trkpt lat="45.6763201" lon="11.6852317"><ele>60.142857142857146</ele><time>2026-04-19T16:33:51.879Z</time></trkpt><trkpt lat="45.6763" lon="11.6851306"><ele>60.714285714285715</ele><time>2026-04-19T16:33:53.88Z</time></trkpt><trkpt lat="45.6763429" lon="11.6850541"><ele>61.285714285714285</ele><time>2026-04-19T16:35:02.881Z</time></trkpt><trkpt lat="45.6763353" lon="11.6849577"><ele>61.85714285714286</ele><time>2026-04-19T16:35:04.881Z</time></trkpt><trkpt lat="45.6762897" lon="11.6848929"><ele>62.42857142857143</ele><time>2026-04-19T16:35:06.881Z</time></trkpt><trkpt lat="45.676223" lon="11.6848267"><ele>63.0</ele><time>2026-04-19T16:35:09.881Z</time></trkpt><trkpt lat="45.6762127" lon="11.6847073"><ele>63.0</ele><time>2026-04-19T16:35:11.881Z</time></trkpt><trkpt lat="45.6761904" lon="11.684592"><ele>63.0</ele><time>2026-04-19T16:35:13.88Z</time></trkpt><trkpt lat="45.6761723" lon="11.6844656"><ele>63.0</ele><time>2026-04-19T16:35:15.881Z</time></trkpt><trkpt lat="45.6761578" lon="11.6843373"><ele>63.0</ele><time>2026-04-19T16:35:17.882Z</time></trkpt><trkpt lat="45.6761414" lon="11.6842089"><ele>63.0</ele><time>2026-04-19T16:35:19.882Z</time></trkpt><trkpt lat="45.6761219" lon="11.6840748"><ele>62.8</ele><time>2026-04-19T16:35:21.882Z</time></trkpt><trkpt lat="45.676104" lon="11.6839314"><ele>62.599999999999994</ele><time>2026-04-19T16:35:23.882Z</time></trkpt><trkpt lat="45.6760892" lon="11.6837963"><ele>62.400000000000006</ele><time>2026-04-19T16:35:25.881Z</time></trkpt><trkpt lat="45.6760817" lon="11.683655"><ele>62.2</ele><time>2026-04-19T16:35:27.882Z</time></trkpt><trkpt lat="45.6760657" lon="11.683512"><ele>62.0</ele><time>2026-04-19T16:35:29.881Z</time></trkpt><trkpt lat="45.6760499" lon="11.6833737"><ele>62.0</ele><time>2026-04-19T16:35:31.882Z</time></trkpt><trkpt lat="45.6760464" lon="11.683242"><ele>62.0</ele><time>2026-04-19T16:35:33.882Z</time></trkpt><trkpt lat="45.6760452" lon="11.6831117"><ele>62.0</ele><time>2026-04-19T16:35:35.882Z</time></trkpt><trkpt lat="45.6760459" lon="11.6829607"><ele>62.0</ele><time>2026-04-19T16:35:37.882Z</time></trkpt><trkpt lat="45.6760439" lon="11.682799"><ele>62.0</ele><time>2026-04-19T16:35:39.882Z</time></trkpt><trkpt lat="45.6760277" lon="11.6826477"><ele>62.0</ele><time>2026-04-19T16:35:41.882Z</time></trkpt><trkpt lat="45.6760255" lon="11.6825131"><ele>62.0</ele><time>2026-04-19T16:35:43.881Z</time></trkpt><trkpt lat="45.6760701" lon="11.6823796"><ele>62.0</ele><time>2026-04-19T16:35:45.882Z</time></trkpt><trkpt lat="45.6760451" lon="11.6822484"><ele>62.0</ele><time>2026-04-19T16:35:47.882Z</time></trkpt><trkpt lat="45.6759261" lon="11.6822019"><ele>62.0</ele><time>2026-04-19T16:35:49.881Z</time></trkpt><trkpt lat="45.6758115" lon="11.6822135"><ele>62.0</ele><time>2026-04-19T16:35:51.881Z</time></trkpt><trkpt lat="45.6757031" lon="11.6821975"><ele>62.0</ele><time>2026-04-19T16:35:53.882Z</time></trkpt><trkpt lat="45.6755873" lon="11.6822029"><ele>62.0</ele><time>2026-04-19T16:35:55.881Z</time></trkpt><trkpt lat="45.6754714" lon="11.682212"><ele>62.0</ele><time>2026-04-19T16:35:57.881Z</time></trkpt><trkpt lat="45.6753633" lon="11.6822182"><ele>62.0</ele><time>2026-04-19T16:35:59.881Z</time></trkpt><trkpt lat="45.6752473" lon="11.6822266"><ele>62.25</ele><time>2026-04-19T16:36:01.882Z</time></trkpt><trkpt lat="45.6751383" lon="11.682231"><ele>62.5</ele><time>2026-04-19T16:36:03.882Z</time></trkpt><trkpt lat="45.6750216" lon="11.6822295"><ele>62.75</ele><time>2026-04-19T16:36:05.882Z</time></trkpt><trkpt lat="45.6749014" lon="11.682238"><ele>63.0</ele><time>2026-04-19T16:36:07.882Z</time></trkpt><trkpt lat="45.6747928" lon="11.682246"><ele>63.0</ele><time>2026-04-19T16:36:09.882Z</time></trkpt><trkpt lat="45.6746862" lon="11.6822505"><ele>63.0</ele><time>2026-04-19T16:36:11.881Z</time></trkpt><trkpt lat="45.674578" lon="11.6822545"><ele>63.0</ele><time>2026-04-19T16:36:13.882Z</time></trkpt><trkpt lat="45.6744641" lon="11.6822661"><ele>63.0</ele><time>2026-04-19T16:36:15.883Z</time></trkpt><trkpt lat="45.6743433" lon="11.6822702"><ele>62.875</ele><time>2026-04-19T16:36:17.885Z</time></trkpt><trkpt lat="45.6742802" lon="11.6822712"><ele>62.75</ele><time>2026-04-19T16:36:18.882Z</time></trkpt><trkpt lat="45.6742161" lon="11.6822705"><ele>62.625</ele><time>2026-04-19T16:36:19.883Z</time></trkpt><trkpt lat="45.6741512" lon="11.6822724"><ele>62.5</ele><time>2026-04-19T16:36:20.883Z</time></trkpt><trkpt lat="45.6740862" lon="11.6822779"><ele>62.375</ele><time>2026-04-19T16:36:21.883Z</time></trkpt><trkpt lat="45.6740211" lon="11.6822831"><ele>62.25</ele><time>2026-04-19T16:36:22.883Z</time></trkpt><trkpt lat="45.6739572" lon="11.6822881"><ele>62.125</ele><time>2026-04-19T16:36:23.883Z</time></trkpt><trkpt lat="45.6738943" lon="11.6822929"><ele>62.0</ele><time>2026-04-19T16:36:24.882Z</time></trkpt><trkpt lat="45.6738313" lon="11.6822975"><ele>62.00000000000001</ele><time>2026-04-19T16:36:25.882Z</time></trkpt><trkpt lat="45.6737066" lon="11.6823184"><ele>62.0</ele><time>2026-04-19T16:36:27.883Z</time></trkpt><trkpt lat="45.6736412" lon="11.6823262"><ele>62.0</ele><time>2026-04-19T16:36:28.883Z</time></trkpt><trkpt lat="45.6735728" lon="11.6823286"><ele>62.0</ele><time>2026-04-19T16:36:29.883Z</time></trkpt><trkpt lat="45.6735053" lon="11.6823319"><ele>62.00000000000001</ele><time>2026-04-19T16:36:30.883Z</time></trkpt><trkpt lat="45.6734398" lon="11.6823407"><ele>62.0</ele><time>2026-04-19T16:36:31.883Z</time></trkpt><trkpt lat="45.6733772" lon="11.6823515"><ele>61.714285714285715</ele><time>2026-04-19T16:36:32.883Z</time></trkpt><trkpt lat="45.6733121" lon="11.68236"><ele>61.42857142857143</ele><time>2026-04-19T16:36:33.883Z</time></trkpt><trkpt lat="45.6732464" lon="11.6823666"><ele>61.142857142857146</ele><time>2026-04-19T16:36:34.883Z</time></trkpt><trkpt lat="45.6731793" lon="11.6823734"><ele>60.85714285714286</ele><time>2026-04-19T16:36:35.883Z</time></trkpt><trkpt lat="45.6731129" lon="11.6823829"><ele>60.57142857142857</ele><time>2026-04-19T16:36:36.883Z</time></trkpt><trkpt lat="45.6730454" lon="11.6823941"><ele>60.28571428571429</ele><time>2026-04-19T16:36:37.883Z</time></trkpt><trkpt lat="45.6729794" lon="11.6824044"><ele>60.0</ele><time>2026-04-19T16:36:38.883Z</time></trkpt><trkpt lat="45.6729146" lon="11.6824123"><ele>60.0</ele><time>2026-04-19T16:36:39.883Z</time></trkpt><trkpt lat="45.672849" lon="11.6824206"><ele>60.0</ele><time>2026-04-19T16:36:40.883Z</time></trkpt><trkpt lat="45.6727812" lon="11.6824295"><ele>60.0</ele><time>2026-04-19T16:36:41.882Z</time></trkpt><trkpt lat="45.6727142" lon="11.6824385"><ele>60.0</ele><time>2026-04-19T16:36:42.883Z</time></trkpt><trkpt lat="45.6726484" lon="11.6824485"><ele>60.0</ele><time>2026-04-19T16:36:43.883Z</time></trkpt><trkpt lat="45.6725836" lon="11.6824591"><ele>60.0</ele><time>2026-04-19T16:36:44.883Z</time></trkpt><trkpt lat="45.6725174" lon="11.6824685"><ele>60.0</ele><time>2026-04-19T16:36:45.883Z</time></trkpt><trkpt lat="45.672449" lon="11.6824786"><ele>59.85714285714286</ele><time>2026-04-19T16:36:46.882Z</time></trkpt><trkpt lat="45.6723803" lon="11.6824895"><ele>59.71428571428571</ele><time>2026-04-19T16:36:47.883Z</time></trkpt><trkpt lat="45.6723114" lon="11.6825021"><ele>59.57142857142857</ele><time>2026-04-19T16:36:48.883Z</time></trkpt><trkpt lat="45.6722429" lon="11.6825155"><ele>59.42857142857143</ele><time>2026-04-19T16:36:49.883Z</time></trkpt><trkpt lat="45.6721749" lon="11.6825295"><ele>59.28571428571429</ele><time>2026-04-19T16:36:50.882Z</time></trkpt><trkpt lat="45.6721063" lon="11.6825435"><ele>59.14285714285714</ele><time>2026-04-19T16:36:51.883Z</time></trkpt><trkpt lat="45.672039" lon="11.6825583"><ele>59.0</ele><time>2026-04-19T16:36:52.882Z</time></trkpt><trkpt lat="45.6719721" lon="11.6825745"><ele>59.285714285714285</ele><time>2026-04-19T16:36:53.883Z</time></trkpt><trkpt lat="45.6719041" lon="11.6825918"><ele>59.57142857142857</ele><time>2026-04-19T16:36:54.883Z</time></trkpt><trkpt lat="45.6718357" lon="11.6826082"><ele>59.857142857142854</ele><time>2026-04-19T16:36:55.883Z</time></trkpt><trkpt lat="45.6717673" lon="11.6826242"><ele>60.14285714285714</ele><time>2026-04-19T16:36:56.882Z</time></trkpt><trkpt lat="45.6716986" lon="11.6826406"><ele>60.42857142857143</ele><time>2026-04-19T16:36:57.882Z</time></trkpt><trkpt lat="45.6716291" lon="11.6826593"><ele>60.71428571428571</ele><time>2026-04-19T16:36:58.882Z</time></trkpt><trkpt lat="45.6715597" lon="11.6826797"><ele>60.99999999999999</ele><time>2026-04-19T16:36:59.882Z</time></trkpt><trkpt lat="45.6714908" lon="11.682701"><ele>60.99999999999999</ele><time>2026-04-19T16:37:00.883Z</time></trkpt><trkpt lat="45.671422" lon="11.682722"><ele>61.0</ele><time>2026-04-19T16:37:01.883Z</time></trkpt><trkpt lat="45.6713535" lon="11.6827437"><ele>60.99999999999999</ele><time>2026-04-19T16:37:02.883Z</time></trkpt><trkpt lat="45.6712845" lon="11.6827643"><ele>60.99999999999999</ele><time>2026-04-19T16:37:03.883Z</time></trkpt><trkpt lat="45.6712174" lon="11.6827859"><ele>61.0</ele><time>2026-04-19T16:37:04.883Z</time></trkpt><trkpt lat="45.6711524" lon="11.6828078"><ele>60.99999999999999</ele><time>2026-04-19T16:37:05.883Z</time></trkpt><trkpt lat="45.6710887" lon="11.682829"><ele>60.99999999999999</ele><time>2026-04-19T16:37:06.882Z</time></trkpt><trkpt lat="45.6710234" lon="11.68285"><ele>60.99999999999999</ele><time>2026-04-19T16:37:07.883Z</time></trkpt><trkpt lat="45.670956" lon="11.6828693"><ele>61.0</ele><time>2026-04-19T16:37:08.882Z</time></trkpt><trkpt lat="45.6708876" lon="11.6828894"><ele>60.99999999999999</ele><time>2026-04-19T16:37:09.883Z</time></trkpt><trkpt lat="45.6708191" lon="11.6829066"><ele>60.99999999999999</ele><time>2026-04-19T16:37:10.884Z</time></trkpt><trkpt lat="45.6707502" lon="11.6829242"><ele>61.0</ele><time>2026-04-19T16:37:11.884Z</time></trkpt><trkpt lat="45.6706802" lon="11.6829455"><ele>60.99999999999999</ele><time>2026-04-19T16:37:12.884Z</time></trkpt><trkpt lat="45.6706114" lon="11.6829694"><ele>60.99999999999999</ele><time>2026-04-19T16:37:13.884Z</time></trkpt><trkpt lat="45.6705418" lon="11.6829939"><ele>60.99999999999999</ele><time>2026-04-19T16:37:14.884Z</time></trkpt><trkpt lat="45.6704738" lon="11.6830175"><ele>61.0</ele><time>2026-04-19T16:37:15.884Z</time></trkpt><trkpt lat="45.6704068" lon="11.6830379"><ele>60.99999999999999</ele><time>2026-04-19T16:37:16.884Z</time></trkpt><trkpt lat="45.6703416" lon="11.6830575"><ele>60.99999999999999</ele><time>2026-04-19T16:37:17.884Z</time></trkpt><trkpt lat="45.6702769" lon="11.6830744"><ele>61.0</ele><time>2026-04-19T16:37:18.883Z</time></trkpt><trkpt lat="45.6702085" lon="11.6830892"><ele>60.99999999999999</ele><time>2026-04-19T16:37:19.884Z</time></trkpt><trkpt lat="45.670137" lon="11.6830996"><ele>60.99999999999999</ele><time>2026-04-19T16:37:20.884Z</time></trkpt><trkpt lat="45.6700649" lon="11.6831064"><ele>60.71428571428571</ele><time>2026-04-19T16:37:21.883Z</time></trkpt><trkpt lat="45.6699939" lon="11.6831125"><ele>60.42857142857143</ele><time>2026-04-19T16:37:22.884Z</time></trkpt><trkpt lat="45.6699237" lon="11.6831197"><ele>60.14285714285714</ele><time>2026-04-19T16:37:23.884Z</time></trkpt><trkpt lat="45.6698547" lon="11.6831277"><ele>59.857142857142854</ele><time>2026-04-19T16:37:24.884Z</time></trkpt><trkpt lat="45.6697871" lon="11.6831333"><ele>59.57142857142857</ele><time>2026-04-19T16:37:25.884Z</time></trkpt><trkpt lat="45.6697189" lon="11.6831364"><ele>59.285714285714285</ele><time>2026-04-19T16:37:26.884Z</time></trkpt><trkpt lat="45.669651" lon="11.6831368"><ele>59.0</ele><time>2026-04-19T16:37:27.883Z</time></trkpt><trkpt lat="45.6695842" lon="11.683136"><ele>59.0</ele><time>2026-04-19T16:37:28.883Z</time></trkpt><trkpt lat="45.6695172" lon="11.6831349"><ele>59.0</ele><time>2026-04-19T16:37:29.883Z</time></trkpt><trkpt lat="45.6694523" lon="11.6831334"><ele>59.0</ele><time>2026-04-19T16:37:30.884Z</time></trkpt><trkpt lat="45.6693883" lon="11.6831328"><ele>59.0</ele><time>2026-04-19T16:37:31.884Z</time></trkpt><trkpt lat="45.669324" lon="11.6831307"><ele>59.0</ele><time>2026-04-19T16:37:32.883Z</time></trkpt><trkpt lat="45.6692575" lon="11.6831301"><ele>59.0</ele><time>2026-04-19T16:37:33.884Z</time></trkpt><trkpt lat="45.6691886" lon="11.6831319"><ele>59.0</ele><time>2026-04-19T16:37:34.883Z</time></trkpt><trkpt lat="45.6691204" lon="11.683131"><ele>58.857142857142854</ele><time>2026-04-19T16:37:35.883Z</time></trkpt><trkpt lat="45.6690527" lon="11.6831294"><ele>58.71428571428572</ele><time>2026-04-19T16:37:36.884Z</time></trkpt><trkpt lat="45.668986" lon="11.6831268"><ele>58.57142857142858</ele><time>2026-04-19T16:37:37.884Z</time></trkpt><trkpt lat="45.66892" lon="11.6831265"><ele>58.42857142857143</ele><time>2026-04-19T16:37:38.883Z</time></trkpt><trkpt lat="45.6688525" lon="11.6831267"><ele>58.28571428571429</ele><time>2026-04-19T16:37:39.884Z</time></trkpt><trkpt lat="45.6687825" lon="11.6831257"><ele>58.14285714285715</ele><time>2026-04-19T16:37:40.884Z</time></trkpt><trkpt lat="45.6687144" lon="11.6831219"><ele>58.00000000000001</ele><time>2026-04-19T16:37:41.884Z</time></trkpt><trkpt lat="45.6686452" lon="11.6831194"><ele>58.28571428571429</ele><time>2026-04-19T16:37:42.884Z</time></trkpt><trkpt lat="45.6685787" lon="11.6831173"><ele>58.57142857142857</ele><time>2026-04-19T16:37:43.884Z</time></trkpt><trkpt lat="45.6685142" lon="11.6831169"><ele>58.85714285714286</ele><time>2026-04-19T16:37:44.884Z</time></trkpt><trkpt lat="45.66845" lon="11.6831158"><ele>59.142857142857146</ele><time>2026-04-19T16:37:45.884Z</time></trkpt><trkpt lat="45.6683829" lon="11.6831124"><ele>59.42857142857143</ele><time>2026-04-19T16:37:46.884Z</time></trkpt><trkpt lat="45.6683171" lon="11.6831094"><ele>59.714285714285715</ele><time>2026-04-19T16:37:47.884Z</time></trkpt><trkpt lat="45.6682485" lon="11.683109"><ele>60.0</ele><time>2026-04-19T16:37:48.884Z</time></trkpt><trkpt lat="45.66818" lon="11.6831092"><ele>60.0</ele><time>2026-04-19T16:37:49.884Z</time></trkpt><trkpt lat="45.6681131" lon="11.6831101"><ele>60.0</ele><time>2026-04-19T16:37:50.884Z</time></trkpt><trkpt lat="45.668045" lon="11.6831067"><ele>60.0</ele><time>2026-04-19T16:37:51.884Z</time></trkpt><trkpt lat="45.6679775" lon="11.6831022"><ele>60.0</ele><time>2026-04-19T16:37:52.883Z</time></trkpt><trkpt lat="45.6679049" lon="11.6831031"><ele>60.0</ele><time>2026-04-19T16:37:53.884Z</time></trkpt><trkpt lat="45.6678373" lon="11.6831017"><ele>60.0</ele><time>2026-04-19T16:37:54.883Z</time></trkpt><trkpt lat="45.6677713" lon="11.6830989"><ele>60.0</ele><time>2026-04-19T16:37:55.884Z</time></trkpt><trkpt lat="45.6677041" lon="11.6830952"><ele>59.833333333333336</ele><time>2026-04-19T16:37:56.884Z</time></trkpt><trkpt lat="45.6676362" lon="11.6830903"><ele>59.66666666666667</ele><time>2026-04-19T16:37:57.884Z</time></trkpt><trkpt lat="45.6675686" lon="11.6830875"><ele>59.5</ele><time>2026-04-19T16:37:58.884Z</time></trkpt><trkpt lat="45.6675034" lon="11.6830837"><ele>59.333333333333336</ele><time>2026-04-19T16:37:59.884Z</time></trkpt><trkpt lat="45.6674394" lon="11.6830802"><ele>59.16666666666667</ele><time>2026-04-19T16:38:00.883Z</time></trkpt><trkpt lat="45.6673106" lon="11.6830717"><ele>59.0</ele><time>2026-04-19T16:38:02.885Z</time></trkpt><trkpt lat="45.6672456" lon="11.6830671"><ele>59.00000000000001</ele><time>2026-04-19T16:38:03.883Z</time></trkpt><trkpt lat="45.6671787" lon="11.6830614"><ele>59.0</ele><time>2026-04-19T16:38:04.884Z</time></trkpt><trkpt lat="45.6671148" lon="11.6830558"><ele>59.0</ele><time>2026-04-19T16:38:05.884Z</time></trkpt><trkpt lat="45.6669856" lon="11.6830442"><ele>59.0</ele><time>2026-04-19T16:38:07.885Z</time></trkpt><trkpt lat="45.6669152" lon="11.683041"><ele>59.00000000000001</ele><time>2026-04-19T16:38:08.885Z</time></trkpt><trkpt lat="45.6668441" lon="11.6830397"><ele>59.0</ele><time>2026-04-19T16:38:09.884Z</time></trkpt><trkpt lat="45.6667776" lon="11.6830349"><ele>58.857142857142854</ele><time>2026-04-19T16:38:10.885Z</time></trkpt><trkpt lat="45.6667086" lon="11.6830271"><ele>58.71428571428572</ele><time>2026-04-19T16:38:11.885Z</time></trkpt><trkpt lat="45.6666437" lon="11.6830233"><ele>58.57142857142858</ele><time>2026-04-19T16:38:12.885Z</time></trkpt><trkpt lat="45.6665779" lon="11.6830199"><ele>58.42857142857143</ele><time>2026-04-19T16:38:13.885Z</time></trkpt><trkpt lat="45.6665107" lon="11.6830172"><ele>58.28571428571429</ele><time>2026-04-19T16:38:14.885Z</time></trkpt><trkpt lat="45.666444" lon="11.6830143"><ele>58.14285714285715</ele><time>2026-04-19T16:38:15.885Z</time></trkpt><trkpt lat="45.6663768" lon="11.683013"><ele>58.00000000000001</ele><time>2026-04-19T16:38:16.884Z</time></trkpt><trkpt lat="45.666309" lon="11.6830106"><ele>58.00000000000001</ele><time>2026-04-19T16:38:17.885Z</time></trkpt><trkpt lat="45.6662421" lon="11.6830096"><ele>58.0</ele><time>2026-04-19T16:38:18.885Z</time></trkpt><trkpt lat="45.6661766" lon="11.6830072"><ele>58.00000000000001</ele><time>2026-04-19T16:38:19.885Z</time></trkpt><trkpt lat="45.6661101" lon="11.6830028"><ele>58.00000000000001</ele><time>2026-04-19T16:38:20.885Z</time></trkpt><trkpt lat="45.6660428" lon="11.6829977"><ele>58.0</ele><time>2026-04-19T16:38:21.885Z</time></trkpt><trkpt lat="45.6659758" lon="11.6829941"><ele>58.00000000000001</ele><time>2026-04-19T16:38:22.885Z</time></trkpt><trkpt lat="45.6659099" lon="11.6829895"><ele>58.00000000000001</ele><time>2026-04-19T16:38:23.885Z</time></trkpt><trkpt lat="45.6658417" lon="11.6829864"><ele>57.85714285714286</ele><time>2026-04-19T16:38:24.884Z</time></trkpt><trkpt lat="45.6657732" lon="11.6829845"><ele>57.714285714285715</ele><time>2026-04-19T16:38:25.884Z</time></trkpt><trkpt lat="45.6657082" lon="11.6829805"><ele>57.57142857142857</ele><time>2026-04-19T16:38:26.884Z</time></trkpt><trkpt lat="45.6656441" lon="11.6829764"><ele>57.42857142857143</ele><time>2026-04-19T16:38:27.884Z</time></trkpt><trkpt lat="45.6655788" lon="11.6829707"><ele>57.28571428571428</ele><time>2026-04-19T16:38:28.885Z</time></trkpt><trkpt lat="45.6655095" lon="11.6829627"><ele>57.14285714285714</ele><time>2026-04-19T16:38:29.885Z</time></trkpt><trkpt lat="45.66544" lon="11.6829568"><ele>57.0</ele><time>2026-04-19T16:38:30.885Z</time></trkpt><trkpt lat="45.6653739" lon="11.6829552"><ele>56.8</ele><time>2026-04-19T16:38:31.884Z</time></trkpt><trkpt lat="45.6652571" lon="11.6829547"><ele>56.6</ele><time>2026-04-19T16:38:33.884Z</time></trkpt><trkpt lat="45.6651433" lon="11.6829442"><ele>56.39999999999999</ele><time>2026-04-19T16:38:35.885Z</time></trkpt><trkpt lat="45.6650743" lon="11.6829479"><ele>56.199999999999996</ele><time>2026-04-19T16:38:36.884Z</time></trkpt><trkpt lat="45.6650095" lon="11.6829522"><ele>56.0</ele><time>2026-04-19T16:38:37.885Z</time></trkpt><trkpt lat="45.6648997" lon="11.6829522"><ele>56.0</ele><time>2026-04-19T16:38:39.885Z</time></trkpt><trkpt lat="45.6647883" lon="11.6829408"><ele>55.99999999999999</ele><time>2026-04-19T16:38:41.885Z</time></trkpt><trkpt lat="45.6646825" lon="11.682907"><ele>55.99999999999999</ele><time>2026-04-19T16:38:43.885Z</time></trkpt><trkpt lat="45.6646405" lon="11.6827375"><ele>56.0</ele><time>2026-04-19T16:38:45.884Z</time></trkpt><trkpt lat="45.6646515" lon="11.6826204"><ele>56.0</ele><time>2026-04-19T16:38:46.885Z</time></trkpt><trkpt lat="45.6646626" lon="11.6825255"><ele>55.75</ele><time>2026-04-19T16:38:47.885Z</time></trkpt><trkpt lat="45.6646638" lon="11.6823555"><ele>55.5</ele><time>2026-04-19T16:38:49.885Z</time></trkpt><trkpt lat="45.6646633" lon="11.6821887"><ele>55.25</ele><time>2026-04-19T16:38:51.885Z</time></trkpt><trkpt lat="45.6646644" lon="11.6820208"><ele>55.0</ele><time>2026-04-19T16:38:53.885Z</time></trkpt><trkpt lat="45.6646674" lon="11.6818547"><ele>55.5</ele><time>2026-04-19T16:38:55.885Z</time></trkpt><trkpt lat="45.6646624" lon="11.6816864"><ele>56.0</ele><time>2026-04-19T16:38:57.885Z</time></trkpt><trkpt lat="45.6646684" lon="11.6815261"><ele>56.5</ele><time>2026-04-19T16:38:59.885Z</time></trkpt><trkpt lat="45.6646759" lon="11.6813682"><ele>57.0</ele><time>2026-04-19T16:39:01.885Z</time></trkpt><trkpt lat="45.6646894" lon="11.681212"><ele>57.2</ele><time>2026-04-19T16:39:03.885Z</time></trkpt><trkpt lat="45.6647207" lon="11.6810667"><ele>57.400000000000006</ele><time>2026-04-19T16:39:05.886Z</time></trkpt><trkpt lat="45.6647542" lon="11.6809283"><ele>57.599999999999994</ele><time>2026-04-19T16:39:07.885Z</time></trkpt><trkpt lat="45.6647804" lon="11.6808004"><ele>57.8</ele><time>2026-04-19T16:39:09.886Z</time></trkpt><trkpt lat="45.6648171" lon="11.6806561"><ele>58.0</ele><time>2026-04-19T16:39:11.886Z</time></trkpt><trkpt lat="45.6648481" lon="11.680503"><ele>58.0</ele><time>2026-04-19T16:39:13.885Z</time></trkpt><trkpt lat="45.6648747" lon="11.6803568"><ele>58.0</ele><time>2026-04-19T16:39:15.885Z</time></trkpt><trkpt lat="45.6649097" lon="11.6802131"><ele>58.0</ele><time>2026-04-19T16:39:17.885Z</time></trkpt><trkpt lat="45.6649332" lon="11.6800741"><ele>58.0</ele><time>2026-04-19T16:39:19.886Z</time></trkpt><trkpt lat="45.6649497" lon="11.6799363"><ele>58.0</ele><time>2026-04-19T16:39:21.886Z</time></trkpt><trkpt lat="45.6649563" lon="11.6797875"><ele>58.0</ele><time>2026-04-19T16:39:23.885Z</time></trkpt><trkpt lat="45.6649516" lon="11.6796397"><ele>58.0</ele><time>2026-04-19T16:39:25.886Z</time></trkpt><trkpt lat="45.6649396" lon="11.6794914"><ele>58.0</ele><time>2026-04-19T16:39:27.886Z</time></trkpt><trkpt lat="45.6649123" lon="11.67934"><ele>58.0</ele><time>2026-04-19T16:39:29.886Z</time></trkpt><trkpt lat="45.6648798" lon="11.6791921"><ele>58.0</ele><time>2026-04-19T16:39:31.886Z</time></trkpt><trkpt lat="45.6648496" lon="11.6790411"><ele>57.8</ele><time>2026-04-19T16:39:33.886Z</time></trkpt><trkpt lat="45.664823" lon="11.6788883"><ele>57.599999999999994</ele><time>2026-04-19T16:39:35.886Z</time></trkpt><trkpt lat="45.6647989" lon="11.6787361"><ele>57.400000000000006</ele><time>2026-04-19T16:39:37.886Z</time></trkpt><trkpt lat="45.6647759" lon="11.6785769"><ele>57.2</ele><time>2026-04-19T16:39:39.886Z</time></trkpt><trkpt lat="45.6647493" lon="11.6784188"><ele>57.0</ele><time>2026-04-19T16:39:41.886Z</time></trkpt><trkpt lat="45.6647191" lon="11.678262"><ele>57.0</ele><time>2026-04-19T16:39:43.886Z</time></trkpt><trkpt lat="45.6646893" lon="11.6781041"><ele>57.0</ele><time>2026-04-19T16:39:45.886Z</time></trkpt><trkpt lat="45.6646631" lon="11.6779497"><ele>57.0</ele><time>2026-04-19T16:39:47.885Z</time></trkpt><trkpt lat="45.6646346" lon="11.6777952"><ele>57.0</ele><time>2026-04-19T16:39:49.886Z</time></trkpt><trkpt lat="45.6646085" lon="11.6776387"><ele>57.0</ele><time>2026-04-19T16:39:51.886Z</time></trkpt><trkpt lat="45.6645809" lon="11.6774822"><ele>57.0</ele><time>2026-04-19T16:39:53.886Z</time></trkpt><trkpt lat="45.6645523" lon="11.6773217"><ele>57.0</ele><time>2026-04-19T16:39:55.885Z</time></trkpt><trkpt lat="45.6645244" lon="11.6771647"><ele>57.0</ele><time>2026-04-19T16:39:57.886Z</time></trkpt><trkpt lat="45.6644951" lon="11.6770103"><ele>57.0</ele><time>2026-04-19T16:39:59.886Z</time></trkpt><trkpt lat="45.6644643" lon="11.6768581"><ele>57.2</ele><time>2026-04-19T16:40:01.887Z</time></trkpt><trkpt lat="45.6644338" lon="11.6767075"><ele>57.400000000000006</ele><time>2026-04-19T16:40:03.886Z</time></trkpt><trkpt lat="45.6644043" lon="11.6765544"><ele>57.599999999999994</ele><time>2026-04-19T16:40:05.887Z</time></trkpt><trkpt lat="45.6643729" lon="11.6764076"><ele>57.8</ele><time>2026-04-19T16:40:07.887Z</time></trkpt><trkpt lat="45.6643397" lon="11.6762521"><ele>58.0</ele><time>2026-04-19T16:40:09.887Z</time></trkpt><trkpt lat="45.664302" lon="11.6760913"><ele>58.0</ele><time>2026-04-19T16:40:11.886Z</time></trkpt><trkpt lat="45.6642644" lon="11.6759341"><ele>58.0</ele><time>2026-04-19T16:40:13.887Z</time></trkpt><trkpt lat="45.6642297" lon="11.6757798"><ele>58.0</ele><time>2026-04-19T16:40:15.887Z</time></trkpt><trkpt lat="45.6641925" lon="11.6756244"><ele>58.0</ele><time>2026-04-19T16:40:17.886Z</time></trkpt><trkpt lat="45.6641567" lon="11.675468"><ele>58.0</ele><time>2026-04-19T16:40:19.887Z</time></trkpt><trkpt lat="45.6641172" lon="11.6753065"><ele>58.0</ele><time>2026-04-19T16:40:21.886Z</time></trkpt><trkpt lat="45.6640814" lon="11.6751508"><ele>58.0</ele><time>2026-04-19T16:40:23.887Z</time></trkpt><trkpt lat="45.6640468" lon="11.6749992"><ele>58.0</ele><time>2026-04-19T16:40:25.887Z</time></trkpt><trkpt lat="45.6640119" lon="11.6748539"><ele>58.0</ele><time>2026-04-19T16:40:27.887Z</time></trkpt><trkpt lat="45.6639763" lon="11.6747045"><ele>58.0</ele><time>2026-04-19T16:40:29.886Z</time></trkpt><trkpt lat="45.6639402" lon="11.674551"><ele>58.0</ele><time>2026-04-19T16:40:31.887Z</time></trkpt><trkpt lat="45.6639021" lon="11.674397"><ele>58.0</ele><time>2026-04-19T16:40:33.887Z</time></trkpt><trkpt lat="45.6638671" lon="11.6742454"><ele>58.0</ele><time>2026-04-19T16:40:35.887Z</time></trkpt><trkpt lat="45.6638287" lon="11.6740888"><ele>58.25</ele><time>2026-04-19T16:40:37.887Z</time></trkpt><trkpt lat="45.6637909" lon="11.6739298"><ele>58.5</ele><time>2026-04-19T16:40:39.887Z</time></trkpt><trkpt lat="45.6637576" lon="11.6737693"><ele>58.75</ele><time>2026-04-19T16:40:41.887Z</time></trkpt><trkpt lat="45.663721" lon="11.6736079"><ele>59.0</ele><time>2026-04-19T16:40:43.886Z</time></trkpt><trkpt lat="45.6636798" lon="11.6734463"><ele>59.25</ele><time>2026-04-19T16:40:45.887Z</time></trkpt><trkpt lat="45.6636474" lon="11.6732833"><ele>59.5</ele><time>2026-04-19T16:40:47.888Z</time></trkpt><trkpt lat="45.6636225" lon="11.6731211"><ele>59.75</ele><time>2026-04-19T16:40:49.887Z</time></trkpt><trkpt lat="45.6636044" lon="11.6729625"><ele>60.0</ele><time>2026-04-19T16:40:51.887Z</time></trkpt><trkpt lat="45.6635845" lon="11.6728068"><ele>59.4</ele><time>2026-04-19T16:40:53.886Z</time></trkpt><trkpt lat="45.6635635" lon="11.6726515"><ele>58.8</ele><time>2026-04-19T16:40:55.888Z</time></trkpt><trkpt lat="45.6635523" lon="11.6724888"><ele>58.2</ele><time>2026-04-19T16:40:57.887Z</time></trkpt><trkpt lat="45.6635373" lon="11.672332"><ele>57.6</ele><time>2026-04-19T16:40:59.888Z</time></trkpt><trkpt lat="45.6635267" lon="11.6721786"><ele>57.0</ele><time>2026-04-19T16:41:01.887Z</time></trkpt><trkpt lat="45.6635178" lon="11.6720145"><ele>56.75</ele><time>2026-04-19T16:41:03.888Z</time></trkpt><trkpt lat="45.6635029" lon="11.671854"><ele>56.5</ele><time>2026-04-19T16:41:05.887Z</time></trkpt><trkpt lat="45.6634923" lon="11.671695"><ele>56.25</ele><time>2026-04-19T16:41:07.888Z</time></trkpt><trkpt lat="45.6634828" lon="11.6715321"><ele>56.0</ele><time>2026-04-19T16:41:09.888Z</time></trkpt><trkpt lat="45.6634713" lon="11.6713673"><ele>56.0</ele><time>2026-04-19T16:41:11.887Z</time></trkpt><trkpt lat="45.6634568" lon="11.6711966"><ele>56.0</ele><time>2026-04-19T16:41:13.887Z</time></trkpt><trkpt lat="45.6634418" lon="11.6710268"><ele>56.0</ele><time>2026-04-19T16:41:15.888Z</time></trkpt><trkpt lat="45.6634302" lon="11.6708538"><ele>56.0</ele><time>2026-04-19T16:41:17.888Z</time></trkpt><trkpt lat="45.6634156" lon="11.670681"><ele>56.0</ele><time>2026-04-19T16:41:19.888Z</time></trkpt><trkpt lat="45.663401" lon="11.6705125"><ele>56.0</ele><time>2026-04-19T16:41:21.888Z</time></trkpt><trkpt lat="45.6633934" lon="11.6703436"><ele>56.0</ele><time>2026-04-19T16:41:23.888Z</time></trkpt><trkpt lat="45.6633923" lon="11.6701799"><ele>56.0</ele><time>2026-04-19T16:41:25.888Z</time></trkpt><trkpt lat="45.6633973" lon="11.6700183"><ele>56.5</ele><time>2026-04-19T16:41:27.888Z</time></trkpt><trkpt lat="45.6633963" lon="11.6698582"><ele>57.0</ele><time>2026-04-19T16:41:29.888Z</time></trkpt><trkpt lat="45.6633784" lon="11.6697026"><ele>57.5</ele><time>2026-04-19T16:41:31.888Z</time></trkpt><trkpt lat="45.6633361" lon="11.6695467"><ele>58.0</ele><time>2026-04-19T16:41:33.888Z</time></trkpt><trkpt lat="45.6632616" lon="11.6694219"><ele>57.99999999999999</ele><time>2026-04-19T16:41:35.888Z</time></trkpt><trkpt lat="45.6631549" lon="11.6693426"><ele>58.0</ele><time>2026-04-19T16:41:37.887Z</time></trkpt><trkpt lat="45.6630351" lon="11.6692876"><ele>58.0</ele><time>2026-04-19T16:41:39.888Z</time></trkpt><trkpt lat="45.6629702" lon="11.6692693"><ele>58.0</ele><time>2026-04-19T16:41:40.888Z</time></trkpt><trkpt lat="45.6629039" lon="11.669256"><ele>57.99999999999999</ele><time>2026-04-19T16:41:41.887Z</time></trkpt><trkpt lat="45.6628384" lon="11.6692477"><ele>58.0</ele><time>2026-04-19T16:41:42.888Z</time></trkpt><trkpt lat="45.6627726" lon="11.6692374"><ele>57.666666666666664</ele><time>2026-04-19T16:41:43.888Z</time></trkpt><trkpt lat="45.6627075" lon="11.6692226"><ele>57.33333333333333</ele><time>2026-04-19T16:41:44.888Z</time></trkpt><trkpt lat="45.6626448" lon="11.6692007"><ele>57.0</ele><time>2026-04-19T16:41:45.888Z</time></trkpt><trkpt lat="45.6625837" lon="11.6691766"><ele>56.66666666666667</ele><time>2026-04-19T16:41:46.888Z</time></trkpt><trkpt lat="45.6624613" lon="11.6691501"><ele>56.333333333333336</ele><time>2026-04-19T16:41:48.888Z</time></trkpt><trkpt lat="45.6623427" lon="11.6691289"><ele>56.0</ele><time>2026-04-19T16:41:50.889Z</time></trkpt><trkpt lat="45.6622258" lon="11.6691117"><ele>56.0</ele><time>2026-04-19T16:41:52.889Z</time></trkpt><trkpt lat="45.662109" lon="11.6690902"><ele>56.0</ele><time>2026-04-19T16:41:54.888Z</time></trkpt><trkpt lat="45.6619967" lon="11.6690694"><ele>56.0</ele><time>2026-04-19T16:41:56.888Z</time></trkpt><trkpt lat="45.6618833" lon="11.6690471"><ele>56.0</ele><time>2026-04-19T16:41:58.889Z</time></trkpt><trkpt lat="45.6617733" lon="11.6690214"><ele>56.199999999999996</ele><time>2026-04-19T16:42:00.889Z</time></trkpt><trkpt lat="45.6616662" lon="11.6689985"><ele>56.39999999999999</ele><time>2026-04-19T16:42:02.889Z</time></trkpt><trkpt lat="45.6615702" lon="11.6689393"><ele>56.6</ele><time>2026-04-19T16:42:04.889Z</time></trkpt><trkpt lat="45.6614757" lon="11.668886"><ele>56.8</ele><time>2026-04-19T16:42:06.889Z</time></trkpt><trkpt lat="45.6614013" lon="11.668782"><ele>57.0</ele><time>2026-04-19T16:42:08.889Z</time></trkpt><trkpt lat="45.6613416" lon="11.6686629"><ele>57.0</ele><time>2026-04-19T16:42:10.889Z</time></trkpt><trkpt lat="45.6612925" lon="11.6685524"><ele>57.0</ele><time>2026-04-19T16:42:12.889Z</time></trkpt><trkpt lat="45.6612545" lon="11.6684317"><ele>57.0</ele><time>2026-04-19T16:42:14.888Z</time></trkpt><trkpt lat="45.6612402" lon="11.6682906"><ele>57.0</ele><time>2026-04-19T16:42:16.889Z</time></trkpt><trkpt lat="45.6612294" lon="11.6681389"><ele>57.0</ele><time>2026-04-19T16:42:18.888Z</time></trkpt><trkpt lat="45.6612381" lon="11.6679773"><ele>57.0</ele><time>2026-04-19T16:42:20.888Z</time></trkpt><trkpt lat="45.6612697" lon="11.6678149"><ele>57.0</ele><time>2026-04-19T16:42:22.889Z</time></trkpt><trkpt lat="45.661295" lon="11.6676464"><ele>57.0</ele><time>2026-04-19T16:42:24.889Z</time></trkpt><trkpt lat="45.6613274" lon="11.6674809"><ele>57.0</ele><time>2026-04-19T16:42:26.889Z</time></trkpt><trkpt lat="45.6613523" lon="11.6673096"><ele>57.0</ele><time>2026-04-19T16:42:28.889Z</time></trkpt><trkpt lat="45.6613673" lon="11.6672212"><ele>57.0</ele><time>2026-04-19T16:42:29.889Z</time></trkpt><trkpt lat="45.6613834" lon="11.667133"><ele>57.0</ele><time>2026-04-19T16:42:30.889Z</time></trkpt><trkpt lat="45.6614138" lon="11.6669696"><ele>57.0</ele><time>2026-04-19T16:42:32.889Z</time></trkpt><trkpt lat="45.6614541" lon="11.6667999"><ele>57.0</ele><time>2026-04-19T16:42:34.889Z</time></trkpt><trkpt lat="45.6614686" lon="11.6667088"><ele>57.0</ele><time>2026-04-19T16:42:35.888Z</time></trkpt><trkpt lat="45.6614798" lon="11.66662"><ele>57.0</ele><time>2026-04-19T16:42:36.889Z</time></trkpt><trkpt lat="45.6615028" lon="11.6664484"><ele>57.0</ele><time>2026-04-19T16:42:38.888Z</time></trkpt><trkpt lat="45.6615213" lon="11.6662818"><ele>57.0</ele><time>2026-04-19T16:42:40.889Z</time></trkpt><trkpt lat="45.6615445" lon="11.666125"><ele>57.0</ele><time>2026-04-19T16:42:42.89Z</time></trkpt><trkpt lat="45.6615691" lon="11.6659679"><ele>57.0</ele><time>2026-04-19T16:42:44.89Z</time></trkpt><trkpt lat="45.6615882" lon="11.6658094"><ele>57.0</ele><time>2026-04-19T16:42:46.89Z</time></trkpt><trkpt lat="45.6616078" lon="11.6656561"><ele>57.0</ele><time>2026-04-19T16:42:48.889Z</time></trkpt><trkpt lat="45.6616296" lon="11.6655065"><ele>57.0</ele><time>2026-04-19T16:42:50.89Z</time></trkpt><trkpt lat="45.6616585" lon="11.6653631"><ele>57.0</ele><time>2026-04-19T16:42:52.89Z</time></trkpt><trkpt lat="45.6616891" lon="11.6652244"><ele>57.0</ele><time>2026-04-19T16:42:54.89Z</time></trkpt><trkpt lat="45.6617189" lon="11.6650994"><ele>57.0</ele><time>2026-04-19T16:42:56.89Z</time></trkpt><trkpt lat="45.6617807" lon="11.6649962"><ele>57.0</ele><time>2026-04-19T16:42:58.89Z</time></trkpt><trkpt lat="45.6619032" lon="11.6649389"><ele>57.0</ele><time>2026-04-19T16:43:00.89Z</time></trkpt><trkpt lat="45.6619667" lon="11.664913"><ele>57.0</ele><time>2026-04-19T16:43:01.889Z</time></trkpt><trkpt lat="45.6620663" lon="11.6648132"><ele>57.0</ele><time>2026-04-19T16:43:03.89Z</time></trkpt><trkpt lat="45.6620806" lon="11.6647143"><ele>57.0</ele><time>2026-04-19T16:43:04.889Z</time></trkpt><trkpt lat="45.6620744" lon="11.6646104"><ele>57.0</ele><time>2026-04-19T16:43:05.889Z</time></trkpt><trkpt lat="45.6620663" lon="11.6645148"><ele>57.0</ele><time>2026-04-19T16:43:06.89Z</time></trkpt><trkpt lat="45.6620652" lon="11.6643392"><ele>57.0</ele><time>2026-04-19T16:43:08.89Z</time></trkpt><trkpt lat="45.6620679" lon="11.6641613"><ele>57.0</ele><time>2026-04-19T16:43:10.89Z</time></trkpt><trkpt lat="45.6620597" lon="11.6639868"><ele>57.0</ele><time>2026-04-19T16:43:12.889Z</time></trkpt><trkpt lat="45.6620506" lon="11.6638175"><ele>57.0</ele><time>2026-04-19T16:43:14.889Z</time></trkpt><trkpt lat="45.6620428" lon="11.663645"><ele>57.0</ele><time>2026-04-19T16:43:16.889Z</time></trkpt><trkpt lat="45.662037" lon="11.6634763"><ele>56.25</ele><time>2026-04-19T16:43:18.889Z</time></trkpt><trkpt lat="45.6620292" lon="11.6633105"><ele>55.5</ele><time>2026-04-19T16:43:20.889Z</time></trkpt><trkpt lat="45.6620223" lon="11.6631457"><ele>54.75</ele><time>2026-04-19T16:43:22.89Z</time></trkpt><trkpt lat="45.6620172" lon="11.6629766"><ele>54.0</ele><time>2026-04-19T16:43:24.889Z</time></trkpt><trkpt lat="45.6620085" lon="11.6628104"><ele>54.5</ele><time>2026-04-19T16:43:26.89Z</time></trkpt><trkpt lat="45.6620034" lon="11.6626442"><ele>55.0</ele><time>2026-04-19T16:43:28.889Z</time></trkpt><trkpt lat="45.6619965" lon="11.6624862"><ele>55.5</ele><time>2026-04-19T16:43:30.89Z</time></trkpt><trkpt lat="45.6619895" lon="11.6623231"><ele>56.0</ele><time>2026-04-19T16:43:32.89Z</time></trkpt><trkpt lat="45.661979" lon="11.6621542"><ele>56.0</ele><time>2026-04-19T16:43:34.89Z</time></trkpt><trkpt lat="45.6619705" lon="11.6619947"><ele>55.99999999999999</ele><time>2026-04-19T16:43:36.89Z</time></trkpt><trkpt lat="45.6619624" lon="11.6618371"><ele>55.99999999999999</ele><time>2026-04-19T16:43:38.89Z</time></trkpt><trkpt lat="45.6619549" lon="11.6616808"><ele>56.0</ele><time>2026-04-19T16:43:40.89Z</time></trkpt><trkpt lat="45.6619477" lon="11.6615299"><ele>56.0</ele><time>2026-04-19T16:43:42.891Z</time></trkpt><trkpt lat="45.6619417" lon="11.6613626"><ele>56.599999999999994</ele><time>2026-04-19T16:43:44.891Z</time></trkpt><trkpt lat="45.6619377" lon="11.6612073"><ele>57.199999999999996</ele><time>2026-04-19T16:43:46.89Z</time></trkpt><trkpt lat="45.6619294" lon="11.6610494"><ele>57.800000000000004</ele><time>2026-04-19T16:43:48.89Z</time></trkpt><trkpt lat="45.6619219" lon="11.6608887"><ele>58.400000000000006</ele><time>2026-04-19T16:43:50.891Z</time></trkpt><trkpt lat="45.6619135" lon="11.6607311"><ele>59.0</ele><time>2026-04-19T16:43:52.891Z</time></trkpt><trkpt lat="45.6619055" lon="11.6605741"><ele>59.0</ele><time>2026-04-19T16:43:54.891Z</time></trkpt><trkpt lat="45.661901" lon="11.6604218"><ele>59.00000000000001</ele><time>2026-04-19T16:43:56.891Z</time></trkpt><trkpt lat="45.6618946" lon="11.6602703"><ele>59.00000000000001</ele><time>2026-04-19T16:43:58.891Z</time></trkpt><trkpt lat="45.6618872" lon="11.6601198"><ele>59.0</ele><time>2026-04-19T16:44:00.891Z</time></trkpt><trkpt lat="45.661881" lon="11.659965"><ele>59.0</ele><time>2026-04-19T16:44:02.891Z</time></trkpt><trkpt lat="45.6618748" lon="11.6598045"><ele>59.0</ele><time>2026-04-19T16:44:04.891Z</time></trkpt><trkpt lat="45.6618705" lon="11.6596442"><ele>59.0</ele><time>2026-04-19T16:44:06.891Z</time></trkpt><trkpt lat="45.661867" lon="11.6594793"><ele>59.0</ele><time>2026-04-19T16:44:08.89Z</time></trkpt><trkpt lat="45.6618656" lon="11.6593061"><ele>59.0</ele><time>2026-04-19T16:44:10.891Z</time></trkpt><trkpt lat="45.6618593" lon="11.6591405"><ele>59.0</ele><time>2026-04-19T16:44:12.89Z</time></trkpt><trkpt lat="45.6618479" lon="11.6589748"><ele>59.0</ele><time>2026-04-19T16:44:14.89Z</time></trkpt><trkpt lat="45.6618408" lon="11.6588094"><ele>59.0</ele><time>2026-04-19T16:44:16.891Z</time></trkpt><trkpt lat="45.6618311" lon="11.6586467"><ele>59.0</ele><time>2026-04-19T16:44:18.891Z</time></trkpt><trkpt lat="45.6618279" lon="11.6584866"><ele>59.0</ele><time>2026-04-19T16:44:20.891Z</time></trkpt><trkpt lat="45.6618215" lon="11.6583263"><ele>59.0</ele><time>2026-04-19T16:44:22.89Z</time></trkpt><trkpt lat="45.6618139" lon="11.6581671"><ele>59.0</ele><time>2026-04-19T16:44:24.891Z</time></trkpt><trkpt lat="45.6618077" lon="11.6580075"><ele>59.0</ele><time>2026-04-19T16:44:26.891Z</time></trkpt><trkpt lat="45.6618012" lon="11.657842"><ele>59.0</ele><time>2026-04-19T16:44:28.89Z</time></trkpt><trkpt lat="45.6617966" lon="11.65768"><ele>59.00000000000001</ele><time>2026-04-19T16:44:30.89Z</time></trkpt><trkpt lat="45.6617876" lon="11.6575284"><ele>59.00000000000001</ele><time>2026-04-19T16:44:32.891Z</time></trkpt><trkpt lat="45.6617793" lon="11.6573683"><ele>59.0</ele><time>2026-04-19T16:44:34.892Z</time></trkpt><trkpt lat="45.6617708" lon="11.65721"><ele>59.0</ele><time>2026-04-19T16:44:36.892Z</time></trkpt><trkpt lat="45.661762" lon="11.6570516"><ele>59.0</ele><time>2026-04-19T16:44:38.891Z</time></trkpt><trkpt lat="45.6617552" lon="11.6568971"><ele>59.00000000000001</ele><time>2026-04-19T16:44:40.892Z</time></trkpt><trkpt lat="45.6617524" lon="11.6567387"><ele>59.00000000000001</ele><time>2026-04-19T16:44:42.892Z</time></trkpt><trkpt lat="45.6617461" lon="11.6565866"><ele>59.0</ele><time>2026-04-19T16:44:44.892Z</time></trkpt><trkpt lat="45.6617399" lon="11.6564259"><ele>59.0</ele><time>2026-04-19T16:44:46.892Z</time></trkpt><trkpt lat="45.661732" lon="11.6562634"><ele>59.0</ele><time>2026-04-19T16:44:48.892Z</time></trkpt><trkpt lat="45.6617241" lon="11.6561077"><ele>59.00000000000001</ele><time>2026-04-19T16:44:50.892Z</time></trkpt><trkpt lat="45.6617153" lon="11.6559572"><ele>59.00000000000001</ele><time>2026-04-19T16:44:52.891Z</time></trkpt><trkpt lat="45.6617103" lon="11.6558173"><ele>59.0</ele><time>2026-04-19T16:44:54.891Z</time></trkpt><trkpt lat="45.6617101" lon="11.655668"><ele>59.0</ele><time>2026-04-19T16:44:56.891Z</time></trkpt><trkpt lat="45.6617017" lon="11.6555122"><ele>59.0</ele><time>2026-04-19T16:44:58.892Z</time></trkpt><trkpt lat="45.6616951" lon="11.6553646"><ele>59.00000000000001</ele><time>2026-04-19T16:45:00.892Z</time></trkpt><trkpt lat="45.6616905" lon="11.6552153"><ele>59.00000000000001</ele><time>2026-04-19T16:45:02.891Z</time></trkpt><trkpt lat="45.6616827" lon="11.655065"><ele>59.0</ele><time>2026-04-19T16:45:04.892Z</time></trkpt><trkpt lat="45.6616744" lon="11.6549175"><ele>59.0</ele><time>2026-04-19T16:45:06.892Z</time></trkpt><trkpt lat="45.6616675" lon="11.6547622"><ele>59.0</ele><time>2026-04-19T16:45:08.892Z</time></trkpt><trkpt lat="45.6616607" lon="11.6546126"><ele>59.00000000000001</ele><time>2026-04-19T16:45:10.892Z</time></trkpt><trkpt lat="45.6616492" lon="11.654456"><ele>59.00000000000001</ele><time>2026-04-19T16:45:12.891Z</time></trkpt><trkpt lat="45.661642" lon="11.6543"><ele>59.0</ele><time>2026-04-19T16:45:14.892Z</time></trkpt><trkpt lat="45.6616349" lon="11.6541514"><ele>59.0</ele><time>2026-04-19T16:45:16.892Z</time></trkpt><trkpt lat="45.661627" lon="11.6539988"><ele>58.6</ele><time>2026-04-19T16:45:18.892Z</time></trkpt><trkpt lat="45.6616157" lon="11.6538454"><ele>58.2</ele><time>2026-04-19T16:45:20.892Z</time></trkpt><trkpt lat="45.66161" lon="11.6536979"><ele>57.800000000000004</ele><time>2026-04-19T16:45:22.892Z</time></trkpt><trkpt lat="45.6616085" lon="11.6535518"><ele>57.400000000000006</ele><time>2026-04-19T16:45:24.892Z</time></trkpt><trkpt lat="45.6616049" lon="11.6533967"><ele>57.0</ele><time>2026-04-19T16:45:26.892Z</time></trkpt><trkpt lat="45.6615979" lon="11.6532448"><ele>57.0</ele><time>2026-04-19T16:45:28.892Z</time></trkpt><trkpt lat="45.6615946" lon="11.6530952"><ele>57.0</ele><time>2026-04-19T16:45:30.892Z</time></trkpt><trkpt lat="45.6615868" lon="11.6529465"><ele>57.0</ele><time>2026-04-19T16:45:32.893Z</time></trkpt><trkpt lat="45.661582" lon="11.6527966"><ele>57.0</ele><time>2026-04-19T16:45:34.893Z</time></trkpt><trkpt lat="45.6615742" lon="11.6526405"><ele>57.0</ele><time>2026-04-19T16:45:36.893Z</time></trkpt><trkpt lat="45.6615621" lon="11.6524842"><ele>57.400000000000006</ele><time>2026-04-19T16:45:38.892Z</time></trkpt><trkpt lat="45.6615566" lon="11.6523261"><ele>57.800000000000004</ele><time>2026-04-19T16:45:40.893Z</time></trkpt><trkpt lat="45.6615525" lon="11.6521756"><ele>58.2</ele><time>2026-04-19T16:45:42.893Z</time></trkpt><trkpt lat="45.6615474" lon="11.6520266"><ele>58.6</ele><time>2026-04-19T16:45:44.892Z</time></trkpt><trkpt lat="45.6615418" lon="11.6518717"><ele>59.0</ele><time>2026-04-19T16:45:46.893Z</time></trkpt><trkpt lat="45.6615392" lon="11.6517115"><ele>59.0</ele><time>2026-04-19T16:45:48.893Z</time></trkpt><trkpt lat="45.6615292" lon="11.6515561"><ele>59.0</ele><time>2026-04-19T16:45:50.893Z</time></trkpt><trkpt lat="45.6615217" lon="11.6513924"><ele>59.0</ele><time>2026-04-19T16:45:52.893Z</time></trkpt><trkpt lat="45.661512" lon="11.6512283"><ele>59.0</ele><time>2026-04-19T16:45:54.893Z</time></trkpt><trkpt lat="45.661505" lon="11.6510674"><ele>59.0</ele><time>2026-04-19T16:45:56.893Z</time></trkpt><trkpt lat="45.6614951" lon="11.6509047"><ele>59.0</ele><time>2026-04-19T16:45:58.893Z</time></trkpt><trkpt lat="45.6614875" lon="11.6507443"><ele>59.0</ele><time>2026-04-19T16:46:00.892Z</time></trkpt><trkpt lat="45.6614817" lon="11.6505833"><ele>59.0</ele><time>2026-04-19T16:46:02.893Z</time></trkpt><trkpt lat="45.6614734" lon="11.6504183"><ele>58.5</ele><time>2026-04-19T16:46:04.893Z</time></trkpt><trkpt lat="45.6614653" lon="11.6502557"><ele>58.0</ele><time>2026-04-19T16:46:06.893Z</time></trkpt><trkpt lat="45.6614573" lon="11.650093"><ele>57.5</ele><time>2026-04-19T16:46:08.893Z</time></trkpt><trkpt lat="45.6614509" lon="11.6499311"><ele>57.0</ele><time>2026-04-19T16:46:10.892Z</time></trkpt><trkpt lat="45.6614475" lon="11.6497707"><ele>57.0</ele><time>2026-04-19T16:46:12.892Z</time></trkpt><trkpt lat="45.6614404" lon="11.6496168"><ele>57.0</ele><time>2026-04-19T16:46:14.893Z</time></trkpt><trkpt lat="45.6614359" lon="11.6494563"><ele>57.0</ele><time>2026-04-19T16:46:16.894Z</time></trkpt><trkpt lat="45.6614273" lon="11.6493024"><ele>57.0</ele><time>2026-04-19T16:46:18.894Z</time></trkpt><trkpt lat="45.6614226" lon="11.6491455"><ele>57.0</ele><time>2026-04-19T16:46:20.893Z</time></trkpt><trkpt lat="45.6614175" lon="11.6489893"><ele>57.0</ele><time>2026-04-19T16:46:22.893Z</time></trkpt><trkpt lat="45.6614078" lon="11.6488321"><ele>57.0</ele><time>2026-04-19T16:46:24.893Z</time></trkpt><trkpt lat="45.6614006" lon="11.6486724"><ele>57.0</ele><time>2026-04-19T16:46:26.894Z</time></trkpt><trkpt lat="45.6613908" lon="11.6485182"><ele>57.0</ele><time>2026-04-19T16:46:28.894Z</time></trkpt><trkpt lat="45.6613829" lon="11.6483641"><ele>57.0</ele><time>2026-04-19T16:46:30.894Z</time></trkpt><trkpt lat="45.6613767" lon="11.6482119"><ele>57.0</ele><time>2026-04-19T16:46:32.893Z</time></trkpt><trkpt lat="45.6613754" lon="11.6480572"><ele>57.0</ele><time>2026-04-19T16:46:34.893Z</time></trkpt><trkpt lat="45.6613709" lon="11.6479057"><ele>57.0</ele><time>2026-04-19T16:46:36.894Z</time></trkpt><trkpt lat="45.6613624" lon="11.6477551"><ele>57.0</ele><time>2026-04-19T16:46:38.893Z</time></trkpt><trkpt lat="45.6613541" lon="11.647604"><ele>57.0</ele><time>2026-04-19T16:46:40.894Z</time></trkpt><trkpt lat="45.6613484" lon="11.6474551"><ele>56.8</ele><time>2026-04-19T16:46:42.894Z</time></trkpt><trkpt lat="45.661343" lon="11.6473079"><ele>56.6</ele><time>2026-04-19T16:46:44.893Z</time></trkpt><trkpt lat="45.6613359" lon="11.647158"><ele>56.39999999999999</ele><time>2026-04-19T16:46:46.894Z</time></trkpt><trkpt lat="45.6613299" lon="11.6470072"><ele>56.199999999999996</ele><time>2026-04-19T16:46:48.893Z</time></trkpt><trkpt lat="45.6613244" lon="11.6468545"><ele>56.0</ele><time>2026-04-19T16:46:50.894Z</time></trkpt><trkpt lat="45.6613214" lon="11.6467034"><ele>56.0</ele><time>2026-04-19T16:46:52.894Z</time></trkpt><trkpt lat="45.6613158" lon="11.6465533"><ele>55.99999999999999</ele><time>2026-04-19T16:46:54.894Z</time></trkpt><trkpt lat="45.6613092" lon="11.6464071"><ele>55.99999999999999</ele><time>2026-04-19T16:46:56.894Z</time></trkpt><trkpt lat="45.661303" lon="11.6462602"><ele>56.0</ele><time>2026-04-19T16:46:58.894Z</time></trkpt><trkpt lat="45.6612962" lon="11.6461124"><ele>56.0</ele><time>2026-04-19T16:47:00.894Z</time></trkpt><trkpt lat="45.6612898" lon="11.6459675"><ele>56.0</ele><time>2026-04-19T16:47:02.894Z</time></trkpt><trkpt lat="45.661284" lon="11.6458217"><ele>55.99999999999999</ele><time>2026-04-19T16:47:04.894Z</time></trkpt><trkpt lat="45.6612782" lon="11.6456749"><ele>55.99999999999999</ele><time>2026-04-19T16:47:06.894Z</time></trkpt><trkpt lat="45.6612696" lon="11.6455314"><ele>56.0</ele><time>2026-04-19T16:47:08.895Z</time></trkpt><trkpt lat="45.6612603" lon="11.6453869"><ele>56.0</ele><time>2026-04-19T16:47:10.894Z</time></trkpt><trkpt lat="45.6612507" lon="11.6452378"><ele>56.199999999999996</ele><time>2026-04-19T16:47:12.893Z</time></trkpt><trkpt lat="45.6612467" lon="11.6450933"><ele>56.39999999999999</ele><time>2026-04-19T16:47:14.895Z</time></trkpt><trkpt lat="45.6612433" lon="11.6449457"><ele>56.6</ele><time>2026-04-19T16:47:16.895Z</time></trkpt><trkpt lat="45.6612389" lon="11.6447907"><ele>56.8</ele><time>2026-04-19T16:47:18.895Z</time></trkpt><trkpt lat="45.6612386" lon="11.6446341"><ele>57.0</ele><time>2026-04-19T16:47:20.895Z</time></trkpt><trkpt lat="45.6612412" lon="11.6444774"><ele>56.8</ele><time>2026-04-19T16:47:22.895Z</time></trkpt><trkpt lat="45.6612444" lon="11.6443207"><ele>56.6</ele><time>2026-04-19T16:47:24.894Z</time></trkpt><trkpt lat="45.6612533" lon="11.6441666"><ele>56.39999999999999</ele><time>2026-04-19T16:47:26.895Z</time></trkpt><trkpt lat="45.661264" lon="11.644014"><ele>56.199999999999996</ele><time>2026-04-19T16:47:28.895Z</time></trkpt><trkpt lat="45.6612755" lon="11.6438565"><ele>56.0</ele><time>2026-04-19T16:47:30.895Z</time></trkpt><trkpt lat="45.6612865" lon="11.6436997"><ele>55.8</ele><time>2026-04-19T16:47:32.895Z</time></trkpt><trkpt lat="45.661296" lon="11.6435477"><ele>55.599999999999994</ele><time>2026-04-19T16:47:34.894Z</time></trkpt><trkpt lat="45.6613043" lon="11.6433946"><ele>55.4</ele><time>2026-04-19T16:47:36.894Z</time></trkpt><trkpt lat="45.6613149" lon="11.6432422"><ele>55.2</ele><time>2026-04-19T16:47:38.894Z</time></trkpt><trkpt lat="45.6613235" lon="11.6430899"><ele>55.0</ele><time>2026-04-19T16:47:40.895Z</time></trkpt><trkpt lat="45.661333" lon="11.6429368"><ele>55.4</ele><time>2026-04-19T16:47:42.895Z</time></trkpt><trkpt lat="45.6613429" lon="11.6427879"><ele>55.8</ele><time>2026-04-19T16:47:44.895Z</time></trkpt><trkpt lat="45.6613581" lon="11.6426414"><ele>56.2</ele><time>2026-04-19T16:47:46.895Z</time></trkpt><trkpt lat="45.6613833" lon="11.6424941"><ele>56.6</ele><time>2026-04-19T16:47:48.895Z</time></trkpt><trkpt lat="45.661443" lon="11.6423837"><ele>57.0</ele><time>2026-04-19T16:47:50.894Z</time></trkpt><trkpt lat="45.6615119" lon="11.6422938"><ele>57.0</ele><time>2026-04-19T16:47:52.896Z</time></trkpt><trkpt lat="45.6616011" lon="11.6422682"><ele>57.0</ele><time>2026-04-19T16:47:54.896Z</time></trkpt><trkpt lat="45.661711" lon="11.6422857"><ele>57.0</ele><time>2026-04-19T16:47:56.895Z</time></trkpt><trkpt lat="45.6618165" lon="11.6422872"><ele>57.0</ele><time>2026-04-19T16:47:58.894Z</time></trkpt><trkpt lat="45.6619194" lon="11.6422964"><ele>57.0</ele><time>2026-04-19T16:48:00.895Z</time></trkpt><trkpt lat="45.6620225" lon="11.6423091"><ele>57.2</ele><time>2026-04-19T16:48:02.896Z</time></trkpt><trkpt lat="45.662127" lon="11.642316"><ele>57.400000000000006</ele><time>2026-04-19T16:48:04.896Z</time></trkpt><trkpt lat="45.662229" lon="11.6423341"><ele>57.599999999999994</ele><time>2026-04-19T16:48:06.895Z</time></trkpt><trkpt lat="45.6623259" lon="11.6423679"><ele>57.8</ele><time>2026-04-19T16:48:08.895Z</time></trkpt><trkpt lat="45.6624145" lon="11.6423993"><ele>58.0</ele><time>2026-04-19T16:48:10.896Z</time></trkpt><trkpt lat="45.6625033" lon="11.6424361"><ele>58.0</ele><time>2026-04-19T16:48:12.896Z</time></trkpt><trkpt lat="45.6625955" lon="11.6424774"><ele>58.0</ele><time>2026-04-19T16:48:14.895Z</time></trkpt><trkpt lat="45.6626941" lon="11.6425144"><ele>58.0</ele><time>2026-04-19T16:48:16.895Z</time></trkpt><trkpt lat="45.6627887" lon="11.6425675"><ele>58.0</ele><time>2026-04-19T16:48:18.895Z</time></trkpt><trkpt lat="45.6628797" lon="11.6426097"><ele>58.0</ele><time>2026-04-19T16:48:20.896Z</time></trkpt><trkpt lat="45.6629672" lon="11.6426487"><ele>58.166666666666664</ele><time>2026-04-19T16:48:22.896Z</time></trkpt><trkpt lat="45.663054" lon="11.6426875"><ele>58.33333333333333</ele><time>2026-04-19T16:48:24.895Z</time></trkpt><trkpt lat="45.663141" lon="11.642716"><ele>58.5</ele><time>2026-04-19T16:48:26.896Z</time></trkpt><trkpt lat="45.6632239" lon="11.6427358"><ele>58.66666666666667</ele><time>2026-04-19T16:48:28.896Z</time></trkpt><trkpt lat="45.6633115" lon="11.6427149"><ele>58.833333333333336</ele><time>2026-04-19T16:48:30.895Z</time></trkpt><trkpt lat="45.6633782" lon="11.6426498"><ele>59.0</ele><time>2026-04-19T16:48:32.895Z</time></trkpt><trkpt lat="45.6634201" lon="11.6425559"><ele>59.00000000000001</ele><time>2026-04-19T16:48:34.895Z</time></trkpt><trkpt lat="45.6634497" lon="11.6424394"><ele>59.0</ele><time>2026-04-19T16:48:36.895Z</time></trkpt><trkpt lat="45.6634784" lon="11.6423218"><ele>59.0</ele><time>2026-04-19T16:48:38.895Z</time></trkpt><trkpt lat="45.6635106" lon="11.6422017"><ele>59.0</ele><time>2026-04-19T16:48:40.895Z</time></trkpt><trkpt lat="45.6635386" lon="11.6420847"><ele>59.00000000000001</ele><time>2026-04-19T16:48:42.895Z</time></trkpt><trkpt lat="45.6635635" lon="11.6419557"><ele>59.0</ele><time>2026-04-19T16:48:44.895Z</time></trkpt><trkpt lat="45.6635967" lon="11.6418338"><ele>59.00000000000001</ele><time>2026-04-19T16:48:46.896Z</time></trkpt><trkpt lat="45.6636298" lon="11.6417063"><ele>59.0</ele><time>2026-04-19T16:48:48.896Z</time></trkpt><trkpt lat="45.6636511" lon="11.6415878"><ele>59.0</ele><time>2026-04-19T16:48:50.896Z</time></trkpt><trkpt lat="45.6636778" lon="11.6414783"><ele>59.0</ele><time>2026-04-19T16:48:52.896Z</time></trkpt><trkpt lat="45.6637015" lon="11.6413593"><ele>59.00000000000001</ele><time>2026-04-19T16:48:54.896Z</time></trkpt><trkpt lat="45.6637243" lon="11.6412362"><ele>59.0</ele><time>2026-04-19T16:48:56.895Z</time></trkpt><trkpt lat="45.6637522" lon="11.6411167"><ele>58.833333333333336</ele><time>2026-04-19T16:48:58.896Z</time></trkpt><trkpt lat="45.6637763" lon="11.6409963"><ele>58.66666666666667</ele><time>2026-04-19T16:49:00.896Z</time></trkpt><trkpt lat="45.6638065" lon="11.6408832"><ele>58.5</ele><time>2026-04-19T16:49:02.897Z</time></trkpt><trkpt lat="45.6638328" lon="11.640762"><ele>58.33333333333333</ele><time>2026-04-19T16:49:04.897Z</time></trkpt><trkpt lat="45.6638579" lon="11.6406423"><ele>58.166666666666664</ele><time>2026-04-19T16:49:06.897Z</time></trkpt><trkpt lat="45.6638814" lon="11.6405276"><ele>58.0</ele><time>2026-04-19T16:49:08.897Z</time></trkpt><trkpt lat="45.6639072" lon="11.640412"><ele>57.8</ele><time>2026-04-19T16:49:10.897Z</time></trkpt><trkpt lat="45.6639368" lon="11.6402942"><ele>57.599999999999994</ele><time>2026-04-19T16:49:12.896Z</time></trkpt><trkpt lat="45.6639603" lon="11.6401748"><ele>57.400000000000006</ele><time>2026-04-19T16:49:14.897Z</time></trkpt><trkpt lat="45.6639889" lon="11.6400509"><ele>57.2</ele><time>2026-04-19T16:49:16.897Z</time></trkpt><trkpt lat="45.6640224" lon="11.6399216"><ele>57.0</ele><time>2026-04-19T16:49:18.897Z</time></trkpt><trkpt lat="45.6640537" lon="11.6397836"><ele>57.0</ele><time>2026-04-19T16:49:20.897Z</time></trkpt><trkpt lat="45.6640806" lon="11.6396568"><ele>57.0</ele><time>2026-04-19T16:49:22.896Z</time></trkpt><trkpt lat="45.6641097" lon="11.6395367"><ele>57.0</ele><time>2026-04-19T16:49:24.897Z</time></trkpt><trkpt lat="45.6641316" lon="11.6394238"><ele>57.0</ele><time>2026-04-19T16:49:26.897Z</time></trkpt><trkpt lat="45.6641519" lon="11.6393182"><ele>57.0</ele><time>2026-04-19T16:49:28.897Z</time></trkpt><trkpt lat="45.6641757" lon="11.6392187"><ele>57.0</ele><time>2026-04-19T16:49:30.896Z</time></trkpt><trkpt lat="45.6642046" lon="11.6391055"><ele>57.0</ele><time>2026-04-19T16:49:32.896Z</time></trkpt><trkpt lat="45.6642294" lon="11.6389961"><ele>57.0</ele><time>2026-04-19T16:49:34.896Z</time></trkpt><trkpt lat="45.6642592" lon="11.6388925"><ele>57.0</ele><time>2026-04-19T16:49:36.896Z</time></trkpt><trkpt lat="45.6642965" lon="11.6387544"><ele>57.0</ele><time>2026-04-19T16:49:38.897Z</time></trkpt><trkpt lat="45.6643314" lon="11.6386072"><ele>57.0</ele><time>2026-04-19T16:49:40.897Z</time></trkpt><trkpt lat="45.6643696" lon="11.638489"><ele>57.166666666666664</ele><time>2026-04-19T16:49:42.897Z</time></trkpt><trkpt lat="45.6644145" lon="11.6383858"><ele>57.33333333333333</ele><time>2026-04-19T16:49:44.896Z</time></trkpt><trkpt lat="45.6644554" lon="11.6382831"><ele>57.5</ele><time>2026-04-19T16:49:46.897Z</time></trkpt><trkpt lat="45.6644994" lon="11.6382011"><ele>57.666666666666664</ele><time>2026-04-19T16:49:48.896Z</time></trkpt><trkpt lat="45.6645469" lon="11.6380938"><ele>57.83333333333333</ele><time>2026-04-19T16:49:50.896Z</time></trkpt><trkpt lat="45.6645981" lon="11.6379523"><ele>58.0</ele><time>2026-04-19T16:49:52.897Z</time></trkpt><trkpt lat="45.6646285" lon="11.6378225"><ele>58.0</ele><time>2026-04-19T16:49:54.896Z</time></trkpt><trkpt lat="45.6646549" lon="11.6377115"><ele>58.0</ele><time>2026-04-19T16:49:56.898Z</time></trkpt><trkpt lat="45.6646422" lon="11.637586"><ele>58.0</ele><time>2026-04-19T16:49:58.898Z</time></trkpt><trkpt lat="45.6646321" lon="11.6374416"><ele>58.0</ele><time>2026-04-19T16:50:00.898Z</time></trkpt><trkpt lat="45.6646165" lon="11.6372897"><ele>58.0</ele><time>2026-04-19T16:50:02.897Z</time></trkpt><trkpt lat="45.6645924" lon="11.6371396"><ele>57.99999999999999</ele><time>2026-04-19T16:50:04.897Z</time></trkpt><trkpt lat="45.6645859" lon="11.6370165"><ele>58.0</ele><time>2026-04-19T16:50:06.897Z</time></trkpt><trkpt lat="45.6645733" lon="11.636903"><ele>58.0</ele><time>2026-04-19T16:50:08.898Z</time></trkpt><trkpt lat="45.6645435" lon="11.6368062"><ele>58.0</ele><time>2026-04-19T16:50:10.898Z</time></trkpt><trkpt lat="45.6645341" lon="11.6367164"><ele>57.99999999999999</ele><time>2026-04-19T16:50:12.898Z</time></trkpt><trkpt lat="45.6645188" lon="11.6366036"><ele>58.0</ele><time>2026-04-19T16:50:14.898Z</time></trkpt><trkpt lat="45.6645028" lon="11.6364784"><ele>58.166666666666664</ele><time>2026-04-19T16:50:16.897Z</time></trkpt><trkpt lat="45.6644934" lon="11.6363635"><ele>58.33333333333333</ele><time>2026-04-19T16:50:18.898Z</time></trkpt><trkpt lat="45.6644808" lon="11.6362455"><ele>58.5</ele><time>2026-04-19T16:50:21.898Z</time></trkpt><trkpt lat="45.6644753" lon="11.6361423"><ele>58.66666666666667</ele><time>2026-04-19T16:50:23.897Z</time></trkpt><trkpt lat="45.6644568" lon="11.6360296"><ele>58.833333333333336</ele><time>2026-04-19T16:50:25.898Z</time></trkpt><trkpt lat="45.6644445" lon="11.6359297"><ele>59.0</ele><time>2026-04-19T16:50:27.898Z</time></trkpt><trkpt lat="45.6644315" lon="11.6358252"><ele>59.16666666666667</ele><time>2026-04-19T16:50:29.897Z</time></trkpt><trkpt lat="45.6644145" lon="11.6356987"><ele>59.333333333333336</ele><time>2026-04-19T16:50:32.897Z</time></trkpt><trkpt lat="45.6643339" lon="11.6356044"><ele>59.5</ele><time>2026-04-19T16:50:35.898Z</time></trkpt><trkpt lat="45.664266" lon="11.6355933"><ele>59.66666666666667</ele><time>2026-04-19T16:50:37.898Z</time></trkpt><trkpt lat="45.6641911" lon="11.6355796"><ele>59.833333333333336</ele><time>2026-04-19T16:50:39.898Z</time></trkpt><trkpt lat="45.6641396" lon="11.6355226"><ele>60.0</ele><time>2026-04-19T16:50:41.897Z</time></trkpt><trkpt lat="45.6641254" lon="11.6354206"><ele>60.0</ele><time>2026-04-19T16:50:43.898Z</time></trkpt><trkpt lat="45.6640929" lon="11.6353118"><ele>60.0</ele><time>2026-04-19T16:50:46.898Z</time></trkpt><trkpt lat="45.6640482" lon="11.6352429"><ele>60.0</ele><time>2026-04-19T16:50:48.898Z</time></trkpt><trkpt lat="45.6639892" lon="11.6351866"><ele>60.0</ele><time>2026-04-19T16:50:50.897Z</time></trkpt><trkpt lat="45.6639451" lon="11.6351211"><ele>60.0</ele><time>2026-04-19T16:50:52.899Z</time></trkpt><trkpt lat="45.6638943" lon="11.6350366"><ele>60.0</ele><time>2026-04-19T16:50:55.898Z</time></trkpt><trkpt lat="45.6638295" lon="11.6350247"><ele>60.0</ele><time>2026-04-19T16:50:57.898Z</time></trkpt><trkpt lat="45.6637752" lon="11.6349767"><ele>60.0</ele><time>2026-04-19T16:50:59.899Z</time></trkpt><trkpt lat="45.6637036" lon="11.6349029"><ele>60.0</ele><time>2026-04-19T16:51:02.898Z</time></trkpt><trkpt lat="45.6636403" lon="11.6348596"><ele>60.0</ele><time>2026-04-19T16:51:04.898Z</time></trkpt><trkpt lat="45.6635802" lon="11.6348035"><ele>60.0</ele><time>2026-04-19T16:51:06.899Z</time></trkpt><trkpt lat="45.6635254" lon="11.6347375"><ele>60.0</ele><time>2026-04-19T16:51:08.899Z</time></trkpt><trkpt lat="45.6634529" lon="11.6346532"><ele>60.0</ele><time>2026-04-19T16:51:11.898Z</time></trkpt><trkpt lat="45.6634111" lon="11.6345852"><ele>59.85714285714286</ele><time>2026-04-19T16:51:13.899Z</time></trkpt><trkpt lat="45.6633627" lon="11.6345232"><ele>59.71428571428571</ele><time>2026-04-19T16:51:15.899Z</time></trkpt><trkpt lat="45.6633131" lon="11.6344598"><ele>59.57142857142857</ele><time>2026-04-19T16:51:17.898Z</time></trkpt><trkpt lat="45.6632604" lon="11.6343868"><ele>59.42857142857143</ele><time>2026-04-19T16:51:19.899Z</time></trkpt><trkpt lat="45.6632083" lon="11.6343101"><ele>59.28571428571429</ele><time>2026-04-19T16:51:21.899Z</time></trkpt><trkpt lat="45.6631593" lon="11.6342349"><ele>59.14285714285714</ele><time>2026-04-19T16:51:23.899Z</time></trkpt><trkpt lat="45.6631065" lon="11.6341743"><ele>59.0</ele><time>2026-04-19T16:51:25.899Z</time></trkpt><trkpt lat="45.6630676" lon="11.6341019"><ele>58.857142857142854</ele><time>2026-04-19T16:51:27.899Z</time></trkpt><trkpt lat="45.6630086" lon="11.6340106"><ele>58.71428571428572</ele><time>2026-04-19T16:51:30.899Z</time></trkpt><trkpt lat="45.6629508" lon="11.6339687"><ele>58.57142857142858</ele><time>2026-04-19T16:51:32.899Z</time></trkpt><trkpt lat="45.6628823" lon="11.6339243"><ele>58.42857142857143</ele><time>2026-04-19T16:51:34.899Z</time></trkpt><trkpt lat="45.6628212" lon="11.6338815"><ele>58.28571428571429</ele><time>2026-04-19T16:51:36.899Z</time></trkpt><trkpt lat="45.6627622" lon="11.6338407"><ele>58.14285714285715</ele><time>2026-04-19T16:51:38.899Z</time></trkpt><trkpt lat="45.662697" lon="11.6337992"><ele>58.00000000000001</ele><time>2026-04-19T16:51:40.899Z</time></trkpt><trkpt lat="45.6626398" lon="11.6337476"><ele>57.99999999999999</ele><time>2026-04-19T16:51:43.899Z</time></trkpt><trkpt lat="45.6625636" lon="11.6337013"><ele>58.0</ele><time>2026-04-19T16:53:14.901Z</time></trkpt><trkpt lat="45.6624905" lon="11.6336531"><ele>58.0</ele><time>2026-04-19T16:53:16.901Z</time></trkpt><trkpt lat="45.6624131" lon="11.6335938"><ele>58.0</ele><time>2026-04-19T16:53:19.901Z</time></trkpt><trkpt lat="45.6623619" lon="11.6335381"><ele>57.99999999999999</ele><time>2026-04-19T16:53:21.901Z</time></trkpt><trkpt lat="45.6622867" lon="11.6334571"><ele>58.0</ele><time>2026-04-19T16:53:23.901Z</time></trkpt><trkpt lat="45.6622174" lon="11.6333778"><ele>58.00000000000001</ele><time>2026-04-19T16:53:25.901Z</time></trkpt><trkpt lat="45.6621604" lon="11.6332861"><ele>58.0</ele><time>2026-04-19T16:53:27.9Z</time></trkpt><trkpt lat="45.6621081" lon="11.6332037"><ele>58.00000000000001</ele><time>2026-04-19T16:53:29.9Z</time></trkpt><trkpt lat="45.6620531" lon="11.6331378"><ele>58.00000000000001</ele><time>2026-04-19T16:53:31.901Z</time></trkpt><trkpt lat="45.6620059" lon="11.6330628"><ele>58.0</ele><time>2026-04-19T16:53:33.901Z</time></trkpt><trkpt lat="45.6619638" lon="11.6329832"><ele>58.00000000000001</ele><time>2026-04-19T16:53:35.901Z</time></trkpt><trkpt lat="45.6619171" lon="11.6329113"><ele>58.00000000000001</ele><time>2026-04-19T16:53:37.901Z</time></trkpt><trkpt lat="45.6619119" lon="11.6328071"><ele>58.0</ele><time>2026-04-19T16:53:39.901Z</time></trkpt><trkpt lat="45.6619301" lon="11.6326902"><ele>58.0</ele><time>2026-04-19T16:53:41.901Z</time></trkpt><trkpt lat="45.6619287" lon="11.6325469"><ele>58.0</ele><time>2026-04-19T16:53:43.902Z</time></trkpt><trkpt lat="45.6619188" lon="11.6324031"><ele>58.0</ele><time>2026-04-19T16:53:45.902Z</time></trkpt><trkpt lat="45.6619172" lon="11.6322794"><ele>58.0</ele><time>2026-04-19T16:53:47.902Z</time></trkpt><trkpt lat="45.6619126" lon="11.6321631"><ele>57.99999999999999</ele><time>2026-04-19T16:53:49.902Z</time></trkpt><trkpt lat="45.6619124" lon="11.6320561"><ele>58.0</ele><time>2026-04-19T16:53:51.901Z</time></trkpt><trkpt lat="45.6619156" lon="11.6319505"><ele>58.0</ele><time>2026-04-19T16:53:53.902Z</time></trkpt><trkpt lat="45.6619112" lon="11.6318363"><ele>58.0</ele><time>2026-04-19T16:53:55.902Z</time></trkpt><trkpt lat="45.6619039" lon="11.63173"><ele>57.99999999999999</ele><time>2026-04-19T16:53:57.902Z</time></trkpt><trkpt lat="45.6618986" lon="11.6316227"><ele>58.0</ele><time>2026-04-19T16:53:59.901Z</time></trkpt><trkpt lat="45.6618907" lon="11.6314943"><ele>57.599999999999994</ele><time>2026-04-19T16:54:01.901Z</time></trkpt><trkpt lat="45.6618873" lon="11.6313596"><ele>57.199999999999996</ele><time>2026-04-19T16:54:03.902Z</time></trkpt><trkpt lat="45.6618875" lon="11.6312292"><ele>56.8</ele><time>2026-04-19T16:54:05.902Z</time></trkpt><trkpt lat="45.6618879" lon="11.6311"><ele>56.4</ele><time>2026-04-19T16:54:07.901Z</time></trkpt><trkpt lat="45.6618829" lon="11.630958"><ele>56.0</ele><time>2026-04-19T16:54:09.902Z</time></trkpt><trkpt lat="45.6618771" lon="11.6308145"><ele>56.0</ele><time>2026-04-19T16:54:11.901Z</time></trkpt><trkpt lat="45.6618749" lon="11.6306797"><ele>55.99999999999999</ele><time>2026-04-19T16:54:13.901Z</time></trkpt><trkpt lat="45.6618703" lon="11.6305334"><ele>55.99999999999999</ele><time>2026-04-19T16:54:15.902Z</time></trkpt><trkpt lat="45.6618687" lon="11.6303934"><ele>56.0</ele><time>2026-04-19T16:54:17.901Z</time></trkpt><trkpt lat="45.6618669" lon="11.6302493"><ele>56.0</ele><time>2026-04-19T16:54:19.901Z</time></trkpt><trkpt lat="45.6618615" lon="11.6301029"><ele>55.833333333333336</ele><time>2026-04-19T16:54:21.902Z</time></trkpt><trkpt lat="45.6618565" lon="11.6299642"><ele>55.66666666666667</ele><time>2026-04-19T16:54:23.902Z</time></trkpt><trkpt lat="45.6618526" lon="11.6298312"><ele>55.5</ele><time>2026-04-19T16:54:25.902Z</time></trkpt><trkpt lat="45.6618436" lon="11.6296996"><ele>55.33333333333333</ele><time>2026-04-19T16:54:27.902Z</time></trkpt><trkpt lat="45.6618426" lon="11.6295822"><ele>55.166666666666664</ele><time>2026-04-19T16:54:29.901Z</time></trkpt><trkpt lat="45.6618432" lon="11.6294637"><ele>55.0</ele><time>2026-04-19T16:54:31.902Z</time></trkpt><trkpt lat="45.6618372" lon="11.6293404"><ele>55.4</ele><time>2026-04-19T16:54:33.902Z</time></trkpt><trkpt lat="45.6618216" lon="11.6292126"><ele>55.8</ele><time>2026-04-19T16:54:35.902Z</time></trkpt><trkpt lat="45.6618123" lon="11.6290879"><ele>56.2</ele><time>2026-04-19T16:54:37.902Z</time></trkpt><trkpt lat="45.661815" lon="11.6289546"><ele>56.6</ele><time>2026-04-19T16:54:39.902Z</time></trkpt><trkpt lat="45.6618155" lon="11.6288007"><ele>57.0</ele><time>2026-04-19T16:54:41.903Z</time></trkpt><trkpt lat="45.6618119" lon="11.6286559"><ele>57.2</ele><time>2026-04-19T16:54:43.903Z</time></trkpt><trkpt lat="45.6618105" lon="11.6285127"><ele>57.400000000000006</ele><time>2026-04-19T16:54:45.903Z</time></trkpt><trkpt lat="45.6618023" lon="11.6283719"><ele>57.599999999999994</ele><time>2026-04-19T16:54:47.903Z</time></trkpt><trkpt lat="45.6617976" lon="11.6282279"><ele>57.8</ele><time>2026-04-19T16:54:49.902Z</time></trkpt><trkpt lat="45.6617987" lon="11.6280825"><ele>58.0</ele><time>2026-04-19T16:54:51.903Z</time></trkpt><trkpt lat="45.6617896" lon="11.6279433"><ele>57.8</ele><time>2026-04-19T16:54:53.903Z</time></trkpt><trkpt lat="45.6617869" lon="11.6277962"><ele>57.599999999999994</ele><time>2026-04-19T16:54:55.902Z</time></trkpt><trkpt lat="45.6617867" lon="11.6276495"><ele>57.400000000000006</ele><time>2026-04-19T16:54:57.903Z</time></trkpt><trkpt lat="45.6617789" lon="11.6275085"><ele>57.2</ele><time>2026-04-19T16:54:59.903Z</time></trkpt><trkpt lat="45.6617733" lon="11.6273651"><ele>57.0</ele><time>2026-04-19T16:55:01.903Z</time></trkpt><trkpt lat="45.6617697" lon="11.6272198"><ele>57.0</ele><time>2026-04-19T16:55:03.903Z</time></trkpt><trkpt lat="45.6617688" lon="11.6270732"><ele>57.0</ele><time>2026-04-19T16:55:05.903Z</time></trkpt><trkpt lat="45.6617673" lon="11.6269315"><ele>57.0</ele><time>2026-04-19T16:55:07.903Z</time></trkpt><trkpt lat="45.6617664" lon="11.6267837"><ele>57.0</ele><time>2026-04-19T16:55:09.903Z</time></trkpt><trkpt lat="45.6617605" lon="11.6266387"><ele>57.0</ele><time>2026-04-19T16:55:11.902Z</time></trkpt><trkpt lat="45.661758" lon="11.6264988"><ele>57.0</ele><time>2026-04-19T16:55:13.902Z</time></trkpt><trkpt lat="45.661753" lon="11.6263585"><ele>57.0</ele><time>2026-04-19T16:55:15.902Z</time></trkpt><trkpt lat="45.6617454" lon="11.6262373"><ele>57.0</ele><time>2026-04-19T16:55:17.903Z</time></trkpt><trkpt lat="45.6617449" lon="11.6261275"><ele>57.0</ele><time>2026-04-19T16:55:19.903Z</time></trkpt><trkpt lat="45.661742" lon="11.6260121"><ele>57.0</ele><time>2026-04-19T16:55:21.903Z</time></trkpt><trkpt lat="45.6617375" lon="11.6258852"><ele>57.0</ele><time>2026-04-19T16:55:23.903Z</time></trkpt><trkpt lat="45.6617313" lon="11.625753"><ele>57.0</ele><time>2026-04-19T16:55:25.903Z</time></trkpt><trkpt lat="45.6617268" lon="11.6256267"><ele>57.0</ele><time>2026-04-19T16:55:27.902Z</time></trkpt><trkpt lat="45.6617216" lon="11.6254943"><ele>57.0</ele><time>2026-04-19T16:55:29.902Z</time></trkpt><trkpt lat="45.6617179" lon="11.6253549"><ele>57.0</ele><time>2026-04-19T16:55:31.903Z</time></trkpt><trkpt lat="45.6617198" lon="11.6252178"><ele>57.0</ele><time>2026-04-19T16:55:33.902Z</time></trkpt><trkpt lat="45.6617091" lon="11.6250831"><ele>56.8</ele><time>2026-04-19T16:55:35.903Z</time></trkpt><trkpt lat="45.6617104" lon="11.6249562"><ele>56.6</ele><time>2026-04-19T16:55:37.903Z</time></trkpt><trkpt lat="45.6616985" lon="11.6248309"><ele>56.39999999999999</ele><time>2026-04-19T16:55:39.904Z</time></trkpt><trkpt lat="45.6616712" lon="11.6247029"><ele>56.199999999999996</ele><time>2026-04-19T16:55:41.904Z</time></trkpt><trkpt lat="45.6616609" lon="11.6245784"><ele>56.0</ele><time>2026-04-19T16:55:43.904Z</time></trkpt><trkpt lat="45.661659" lon="11.6244402"><ele>55.8</ele><time>2026-04-19T16:55:45.903Z</time></trkpt><trkpt lat="45.6616611" lon="11.6243017"><ele>55.599999999999994</ele><time>2026-04-19T16:55:47.904Z</time></trkpt><trkpt lat="45.6616651" lon="11.624162"><ele>55.4</ele><time>2026-04-19T16:55:49.903Z</time></trkpt><trkpt lat="45.6616633" lon="11.6240252"><ele>55.2</ele><time>2026-04-19T16:55:51.903Z</time></trkpt><trkpt lat="45.6616643" lon="11.6238885"><ele>55.0</ele><time>2026-04-19T16:55:53.904Z</time></trkpt><trkpt lat="45.6616647" lon="11.623748"><ele>55.4</ele><time>2026-04-19T16:55:55.903Z</time></trkpt><trkpt lat="45.6616626" lon="11.6236145"><ele>55.8</ele><time>2026-04-19T16:55:57.904Z</time></trkpt><trkpt lat="45.6616663" lon="11.6234709"><ele>56.2</ele><time>2026-04-19T16:55:59.904Z</time></trkpt><trkpt lat="45.6616731" lon="11.6233282"><ele>56.6</ele><time>2026-04-19T16:56:01.904Z</time></trkpt><trkpt lat="45.6616734" lon="11.6231956"><ele>57.0</ele><time>2026-04-19T16:56:03.904Z</time></trkpt><trkpt lat="45.6616821" lon="11.6230597"><ele>57.0</ele><time>2026-04-19T16:56:05.903Z</time></trkpt><trkpt lat="45.6616823" lon="11.6229185"><ele>57.0</ele><time>2026-04-19T16:56:07.904Z</time></trkpt><trkpt lat="45.6616746" lon="11.6227652"><ele>57.0</ele><time>2026-04-19T16:56:09.904Z</time></trkpt><trkpt lat="45.6616666" lon="11.622619"><ele>57.0</ele><time>2026-04-19T16:56:11.904Z</time></trkpt><trkpt lat="45.6616503" lon="11.6224767"><ele>57.0</ele><time>2026-04-19T16:56:13.904Z</time></trkpt><trkpt lat="45.6616305" lon="11.6223436"><ele>57.0</ele><time>2026-04-19T16:56:15.903Z</time></trkpt><trkpt lat="45.6616271" lon="11.6222217"><ele>57.0</ele><time>2026-04-19T16:56:17.904Z</time></trkpt><trkpt lat="45.6616259" lon="11.6220929"><ele>57.0</ele><time>2026-04-19T16:56:19.904Z</time></trkpt><trkpt lat="45.6616207" lon="11.6219587"><ele>57.0</ele><time>2026-04-19T16:56:21.904Z</time></trkpt><trkpt lat="45.6616219" lon="11.6218253"><ele>57.0</ele><time>2026-04-19T16:56:23.904Z</time></trkpt><trkpt lat="45.6616231" lon="11.6216816"><ele>56.8</ele><time>2026-04-19T16:56:25.904Z</time></trkpt><trkpt lat="45.6616252" lon="11.6215421"><ele>56.6</ele><time>2026-04-19T16:56:27.905Z</time></trkpt><trkpt lat="45.6616256" lon="11.6214015"><ele>56.39999999999999</ele><time>2026-04-19T16:56:29.904Z</time></trkpt><trkpt lat="45.6616211" lon="11.621257"><ele>56.199999999999996</ele><time>2026-04-19T16:56:31.904Z</time></trkpt><trkpt lat="45.66162" lon="11.6211114"><ele>56.0</ele><time>2026-04-19T16:56:33.905Z</time></trkpt><trkpt lat="45.6616172" lon="11.6209683"><ele>56.4</ele><time>2026-04-19T16:56:35.905Z</time></trkpt><trkpt lat="45.6616138" lon="11.6208272"><ele>56.8</ele><time>2026-04-19T16:56:37.905Z</time></trkpt><trkpt lat="45.6616095" lon="11.620686"><ele>57.199999999999996</ele><time>2026-04-19T16:56:39.904Z</time></trkpt><trkpt lat="45.6616144" lon="11.6205461"><ele>57.599999999999994</ele><time>2026-04-19T16:56:41.905Z</time></trkpt><trkpt lat="45.6616177" lon="11.6204116"><ele>58.0</ele><time>2026-04-19T16:56:43.905Z</time></trkpt><trkpt lat="45.6616149" lon="11.62028"><ele>57.99999999999999</ele><time>2026-04-19T16:56:45.905Z</time></trkpt><trkpt lat="45.6615874" lon="11.6201601"><ele>58.0</ele><time>2026-04-19T16:56:47.904Z</time></trkpt><trkpt lat="45.6615297" lon="11.6200594"><ele>58.0</ele><time>2026-04-19T16:56:49.905Z</time></trkpt><trkpt lat="45.6615281" lon="11.6199618"><ele>58.0</ele><time>2026-04-19T16:56:51.905Z</time></trkpt><trkpt lat="45.6615998" lon="11.6198936"><ele>57.99999999999999</ele><time>2026-04-19T16:56:53.905Z</time></trkpt><trkpt lat="45.6616136" lon="11.6197996"><ele>58.0</ele><time>2026-04-19T16:56:55.905Z</time></trkpt><trkpt lat="45.6616056" lon="11.6196795"><ele>57.99999999999999</ele><time>2026-04-19T16:56:57.905Z</time></trkpt><trkpt lat="45.6616031" lon="11.6195656"><ele>58.0</ele><time>2026-04-19T16:56:59.905Z</time></trkpt><trkpt lat="45.661603" lon="11.6194365"><ele>58.0</ele><time>2026-04-19T16:57:01.905Z</time></trkpt><trkpt lat="45.6615972" lon="11.6193091"><ele>58.0</ele><time>2026-04-19T16:57:03.905Z</time></trkpt><trkpt lat="45.661594" lon="11.6191761"><ele>57.99999999999999</ele><time>2026-04-19T16:57:05.905Z</time></trkpt><trkpt lat="45.6615917" lon="11.6190405"><ele>58.0</ele><time>2026-04-19T16:57:07.905Z</time></trkpt><trkpt lat="45.6615862" lon="11.6189076"><ele>57.99999999999999</ele><time>2026-04-19T16:57:09.905Z</time></trkpt><trkpt lat="45.6615945" lon="11.6187834"><ele>58.0</ele><time>2026-04-19T16:57:11.905Z</time></trkpt><trkpt lat="45.6616189" lon="11.6186701"><ele>58.0</ele><time>2026-04-19T16:57:13.905Z</time></trkpt><trkpt lat="45.6616178" lon="11.618541"><ele>58.0</ele><time>2026-04-19T16:57:15.905Z</time></trkpt><trkpt lat="45.6616158" lon="11.6184291"><ele>57.99999999999999</ele><time>2026-04-19T16:57:17.905Z</time></trkpt><trkpt lat="45.6616105" lon="11.6183059"><ele>58.0</ele><time>2026-04-19T16:57:19.904Z</time></trkpt><trkpt lat="45.6616062" lon="11.6181877"><ele>57.99999999999999</ele><time>2026-04-19T16:57:21.905Z</time></trkpt><trkpt lat="45.6616093" lon="11.6180701"><ele>58.0</ele><time>2026-04-19T16:57:23.905Z</time></trkpt><trkpt lat="45.6616081" lon="11.6179388"><ele>58.0</ele><time>2026-04-19T16:57:25.904Z</time></trkpt><trkpt lat="45.6616046" lon="11.6178084"><ele>58.0</ele><time>2026-04-19T16:57:27.905Z</time></trkpt><trkpt lat="45.6616022" lon="11.6176789"><ele>57.99999999999999</ele><time>2026-04-19T16:57:29.906Z</time></trkpt><trkpt lat="45.6615869" lon="11.6175554"><ele>58.0</ele><time>2026-04-19T16:57:31.906Z</time></trkpt><trkpt lat="45.6615703" lon="11.6174193"><ele>57.8</ele><time>2026-04-19T16:57:33.906Z</time></trkpt><trkpt lat="45.6615727" lon="11.6172777"><ele>57.599999999999994</ele><time>2026-04-19T16:57:35.906Z</time></trkpt><trkpt lat="45.6615736" lon="11.6171394"><ele>57.400000000000006</ele><time>2026-04-19T16:57:37.906Z</time></trkpt><trkpt lat="45.6615661" lon="11.617013"><ele>57.2</ele><time>2026-04-19T16:57:39.906Z</time></trkpt><trkpt lat="45.6615606" lon="11.6168929"><ele>57.0</ele><time>2026-04-19T16:57:41.906Z</time></trkpt><trkpt lat="45.661563" lon="11.6167769"><ele>56.8</ele><time>2026-04-19T16:57:43.906Z</time></trkpt><trkpt lat="45.6615649" lon="11.6166512"><ele>56.6</ele><time>2026-04-19T16:57:45.906Z</time></trkpt><trkpt lat="45.6615648" lon="11.6165225"><ele>56.39999999999999</ele><time>2026-04-19T16:57:47.906Z</time></trkpt><trkpt lat="45.6615628" lon="11.6163928"><ele>56.199999999999996</ele><time>2026-04-19T16:57:49.905Z</time></trkpt><trkpt lat="45.6615547" lon="11.6162598"><ele>56.0</ele><time>2026-04-19T16:57:51.906Z</time></trkpt><trkpt lat="45.6615537" lon="11.6161287"><ele>56.0</ele><time>2026-04-19T16:57:53.906Z</time></trkpt><trkpt lat="45.6615512" lon="11.6159987"><ele>55.99999999999999</ele><time>2026-04-19T16:57:55.906Z</time></trkpt><trkpt lat="45.6615495" lon="11.6158702"><ele>55.99999999999999</ele><time>2026-04-19T16:57:57.905Z</time></trkpt><trkpt lat="45.6615496" lon="11.6157327"><ele>56.0</ele><time>2026-04-19T16:57:59.905Z</time></trkpt><trkpt lat="45.6615485" lon="11.6155999"><ele>56.0</ele><time>2026-04-19T16:58:01.906Z</time></trkpt><trkpt lat="45.6615489" lon="11.6154699"><ele>56.0</ele><time>2026-04-19T16:58:03.905Z</time></trkpt><trkpt lat="45.6615473" lon="11.6153384"><ele>55.99999999999999</ele><time>2026-04-19T16:58:05.906Z</time></trkpt><trkpt lat="45.661542" lon="11.6152133"><ele>55.99999999999999</ele><time>2026-04-19T16:58:07.906Z</time></trkpt><trkpt lat="45.6615396" lon="11.6150739"><ele>56.0</ele><time>2026-04-19T16:58:09.906Z</time></trkpt><trkpt lat="45.6615348" lon="11.6149393"><ele>56.0</ele><time>2026-04-19T16:58:11.906Z</time></trkpt><trkpt lat="45.6615314" lon="11.6148095"><ele>56.16666666666667</ele><time>2026-04-19T16:58:13.906Z</time></trkpt><trkpt lat="45.6615301" lon="11.6146747"><ele>56.333333333333336</ele><time>2026-04-19T16:58:15.906Z</time></trkpt><trkpt lat="45.6615228" lon="11.6145434"><ele>56.5</ele><time>2026-04-19T16:58:17.905Z</time></trkpt><trkpt lat="45.6615194" lon="11.614427"><ele>56.66666666666667</ele><time>2026-04-19T16:58:19.905Z</time></trkpt><trkpt lat="45.6615157" lon="11.6143232"><ele>56.833333333333336</ele><time>2026-04-19T16:58:21.907Z</time></trkpt><trkpt lat="45.6615223" lon="11.6141906"><ele>57.0</ele><time>2026-04-19T16:58:24.907Z</time></trkpt><trkpt lat="45.6615018" lon="11.6140831"><ele>57.400000000000006</ele><time>2026-04-19T16:58:26.907Z</time></trkpt><trkpt lat="45.6614137" lon="11.6140068"><ele>57.800000000000004</ele><time>2026-04-19T16:58:28.907Z</time></trkpt><trkpt lat="45.6613592" lon="11.6139345"><ele>58.2</ele><time>2026-04-19T16:58:30.907Z</time></trkpt><trkpt lat="45.6613177" lon="11.6138053"><ele>58.6</ele><time>2026-04-19T16:58:32.907Z</time></trkpt><trkpt lat="45.6612352" lon="11.6136982"><ele>59.0</ele><time>2026-04-19T16:58:34.907Z</time></trkpt><trkpt lat="45.6611676" lon="11.6136279"><ele>59.0</ele><time>2026-04-19T16:58:36.907Z</time></trkpt><trkpt lat="45.6611076" lon="11.6135721"><ele>59.0</ele><time>2026-04-19T16:58:38.906Z</time></trkpt><trkpt lat="45.6611017" lon="11.6134495"><ele>59.0</ele><time>2026-04-19T16:58:41.907Z</time></trkpt><trkpt lat="45.66116" lon="11.613381"><ele>59.0</ele><time>2026-04-19T16:58:43.906Z</time></trkpt><trkpt lat="45.6612023" lon="11.6133117"><ele>59.0</ele><time>2026-04-19T16:58:45.907Z</time></trkpt><trkpt lat="45.6612596" lon="11.6132206"><ele>59.0</ele><time>2026-04-19T16:58:48.907Z</time></trkpt><trkpt lat="45.6613218" lon="11.613245"><ele>59.0</ele><time>2026-04-19T16:58:50.907Z</time></trkpt><trkpt lat="45.6613628" lon="11.6133212"><ele>59.00000000000001</ele><time>2026-04-19T16:58:52.907Z</time></trkpt><trkpt lat="45.6614127" lon="11.613386"><ele>59.0</ele><time>2026-04-19T16:58:55.907Z</time></trkpt><trkpt lat="45.6614852" lon="11.61339"><ele>59.0</ele><time>2026-04-19T16:58:58.906Z</time></trkpt><trkpt lat="45.6615215" lon="11.6132978"><ele>59.0</ele><time>2026-04-19T16:59:00.906Z</time></trkpt><trkpt lat="45.6615119" lon="11.6131497"><ele>59.00000000000001</ele><time>2026-04-19T16:59:02.907Z</time></trkpt><trkpt lat="45.661507" lon="11.6130137"><ele>59.0</ele><time>2026-04-19T16:59:04.906Z</time></trkpt><trkpt lat="45.6615054" lon="11.6128737"><ele>58.833333333333336</ele><time>2026-04-19T16:59:06.906Z</time></trkpt><trkpt lat="45.6615011" lon="11.6127369"><ele>58.66666666666667</ele><time>2026-04-19T16:59:08.907Z</time></trkpt><trkpt lat="45.661499" lon="11.6126091"><ele>58.5</ele><time>2026-04-19T16:59:10.907Z</time></trkpt><trkpt lat="45.6614986" lon="11.6124858"><ele>58.33333333333333</ele><time>2026-04-19T16:59:12.906Z</time></trkpt><trkpt lat="45.6614927" lon="11.6123626"><ele>58.166666666666664</ele><time>2026-04-19T16:59:14.907Z</time></trkpt><trkpt lat="45.6614854" lon="11.6122325"><ele>58.0</ele><time>2026-04-19T16:59:16.907Z</time></trkpt><trkpt lat="45.6614851" lon="11.6120929"><ele>58.0</ele><time>2026-04-19T16:59:18.907Z</time></trkpt><trkpt lat="45.661485" lon="11.6119501"><ele>58.0</ele><time>2026-04-19T16:59:20.907Z</time></trkpt><trkpt lat="45.6614685" lon="11.6118049"><ele>58.0</ele><time>2026-04-19T16:59:22.908Z</time></trkpt><trkpt lat="45.6614372" lon="11.6116624"><ele>58.0</ele><time>2026-04-19T16:59:24.908Z</time></trkpt><trkpt lat="45.6614481" lon="11.6115267"><ele>58.0</ele><time>2026-04-19T16:59:26.908Z</time></trkpt><trkpt lat="45.6614768" lon="11.6113886"><ele>58.0</ele><time>2026-04-19T16:59:28.908Z</time></trkpt><trkpt lat="45.6614874" lon="11.6112436"><ele>58.0</ele><time>2026-04-19T16:59:30.908Z</time></trkpt><trkpt lat="45.6614836" lon="11.6111032"><ele>58.0</ele><time>2026-04-19T16:59:32.908Z</time></trkpt><trkpt lat="45.6614778" lon="11.6109636"><ele>58.0</ele><time>2026-04-19T16:59:34.908Z</time></trkpt><trkpt lat="45.6614782" lon="11.6108231"><ele>58.0</ele><time>2026-04-19T16:59:36.907Z</time></trkpt><trkpt lat="45.6614779" lon="11.6106806"><ele>58.2</ele><time>2026-04-19T16:59:38.907Z</time></trkpt><trkpt lat="45.6614753" lon="11.6105381"><ele>58.4</ele><time>2026-04-19T16:59:40.908Z</time></trkpt><trkpt lat="45.6614744" lon="11.6103992"><ele>58.60000000000001</ele><time>2026-04-19T16:59:42.908Z</time></trkpt><trkpt lat="45.6614718" lon="11.6102588"><ele>58.800000000000004</ele><time>2026-04-19T16:59:44.908Z</time></trkpt><trkpt lat="45.6614744" lon="11.6101194"><ele>59.0</ele><time>2026-04-19T16:59:46.907Z</time></trkpt><trkpt lat="45.6614752" lon="11.6099771"><ele>58.800000000000004</ele><time>2026-04-19T16:59:48.908Z</time></trkpt><trkpt lat="45.6614729" lon="11.6098329"><ele>58.60000000000001</ele><time>2026-04-19T16:59:50.908Z</time></trkpt><trkpt lat="45.6614702" lon="11.6096899"><ele>58.4</ele><time>2026-04-19T16:59:52.908Z</time></trkpt><trkpt lat="45.661465" lon="11.6095463"><ele>58.2</ele><time>2026-04-19T16:59:54.908Z</time></trkpt><trkpt lat="45.6614519" lon="11.6094064"><ele>58.0</ele><time>2026-04-19T16:59:56.908Z</time></trkpt><trkpt lat="45.6614458" lon="11.6092691"><ele>58.0</ele><time>2026-04-19T16:59:58.907Z</time></trkpt><trkpt lat="45.6614458" lon="11.6091261"><ele>58.0</ele><time>2026-04-19T17:00:00.907Z</time></trkpt><trkpt lat="45.6614409" lon="11.6089821"><ele>58.0</ele><time>2026-04-19T17:00:02.908Z</time></trkpt><trkpt lat="45.6614445" lon="11.6088374"><ele>58.0</ele><time>2026-04-19T17:00:04.907Z</time></trkpt><trkpt lat="45.6614418" lon="11.6086958"><ele>58.0</ele><time>2026-04-19T17:00:06.907Z</time></trkpt><trkpt lat="45.6614404" lon="11.6085512"><ele>58.33333333333333</ele><time>2026-04-19T17:00:08.908Z</time></trkpt><trkpt lat="45.6614395" lon="11.6084093"><ele>58.666666666666664</ele><time>2026-04-19T17:00:10.909Z</time></trkpt><trkpt lat="45.6614367" lon="11.6082885"><ele>59.0</ele><time>2026-04-19T17:00:12.907Z</time></trkpt><trkpt lat="45.6614348" lon="11.6081884"><ele>59.33333333333333</ele><time>2026-04-19T17:00:14.909Z</time></trkpt><trkpt lat="45.6614378" lon="11.608083"><ele>59.666666666666664</ele><time>2026-04-19T17:00:16.909Z</time></trkpt><trkpt lat="45.6614397" lon="11.6079775"><ele>60.0</ele><time>2026-04-19T17:00:18.909Z</time></trkpt><trkpt lat="45.6614445" lon="11.6078742"><ele>60.6</ele><time>2026-04-19T17:00:20.908Z</time></trkpt><trkpt lat="45.6614544" lon="11.6077578"><ele>61.2</ele><time>2026-04-19T17:00:22.908Z</time></trkpt><trkpt lat="45.6614489" lon="11.6076464"><ele>61.8</ele><time>2026-04-19T17:00:24.908Z</time></trkpt><trkpt lat="45.6614008" lon="11.6075118"><ele>62.4</ele><time>2026-04-19T17:00:26.909Z</time></trkpt><trkpt lat="45.661382" lon="11.6073732"><ele>63.0</ele><time>2026-04-19T17:00:28.909Z</time></trkpt><trkpt lat="45.6613682" lon="11.6072315"><ele>63.0</ele><time>2026-04-19T17:00:30.909Z</time></trkpt><trkpt lat="45.661336" lon="11.6071109"><ele>63.0</ele><time>2026-04-19T17:00:32.909Z</time></trkpt><trkpt lat="45.6612881" lon="11.6070047"><ele>63.0</ele><time>2026-04-19T17:00:34.909Z</time></trkpt><trkpt lat="45.6612439" lon="11.6069061"><ele>63.0</ele><time>2026-04-19T17:00:36.908Z</time></trkpt><trkpt lat="45.6612122" lon="11.6068092"><ele>63.0</ele><time>2026-04-19T17:00:38.908Z</time></trkpt><trkpt lat="45.6611696" lon="11.606712"><ele>63.0</ele><time>2026-04-19T17:00:40.909Z</time></trkpt><trkpt lat="45.6611291" lon="11.6066199"><ele>62.666666666666664</ele><time>2026-04-19T17:00:42.908Z</time></trkpt><trkpt lat="45.6610883" lon="11.6065097"><ele>62.33333333333333</ele><time>2026-04-19T17:00:44.91Z</time></trkpt><trkpt lat="45.6610442" lon="11.6064043"><ele>62.0</ele><time>2026-04-19T17:00:46.908Z</time></trkpt><trkpt lat="45.6610145" lon="11.6063164"><ele>61.666666666666664</ele><time>2026-04-19T17:00:48.909Z</time></trkpt><trkpt lat="45.6609926" lon="11.6062067"><ele>61.33333333333333</ele><time>2026-04-19T17:00:50.909Z</time></trkpt><trkpt lat="45.6609739" lon="11.6060929"><ele>61.0</ele><time>2026-04-19T17:00:52.909Z</time></trkpt><trkpt lat="45.6609716" lon="11.6059979"><ele>61.666666666666664</ele><time>2026-04-19T17:00:54.91Z</time></trkpt><trkpt lat="45.660994" lon="11.6058729"><ele>62.33333333333333</ele><time>2026-04-19T17:00:56.91Z</time></trkpt><trkpt lat="45.6610249" lon="11.6057583"><ele>63.0</ele><time>2026-04-19T17:00:58.909Z</time></trkpt><trkpt lat="45.661045" lon="11.6056436"><ele>63.66666666666667</ele><time>2026-04-19T17:01:00.909Z</time></trkpt><trkpt lat="45.661067" lon="11.6055267"><ele>64.33333333333334</ele><time>2026-04-19T17:01:02.909Z</time></trkpt><trkpt lat="45.6610947" lon="11.6054117"><ele>65.0</ele><time>2026-04-19T17:01:04.909Z</time></trkpt><trkpt lat="45.6611396" lon="11.605294"><ele>65.16666666666667</ele><time>2026-04-19T17:01:06.908Z</time></trkpt><trkpt lat="45.661194" lon="11.6052105"><ele>65.33333333333334</ele><time>2026-04-19T17:01:08.909Z</time></trkpt><trkpt lat="45.6612452" lon="11.6051355"><ele>65.5</ele><time>2026-04-19T17:01:10.91Z</time></trkpt><trkpt lat="45.6612874" lon="11.6050319"><ele>65.66666666666667</ele><time>2026-04-19T17:01:12.91Z</time></trkpt><trkpt lat="45.6613305" lon="11.604926"><ele>65.83333333333333</ele><time>2026-04-19T17:01:14.91Z</time></trkpt><trkpt lat="45.6613705" lon="11.6048165"><ele>66.0</ele><time>2026-04-19T17:01:16.909Z</time></trkpt><trkpt lat="45.6614001" lon="11.6047115"><ele>66.0</ele><time>2026-04-19T17:01:18.91Z</time></trkpt><trkpt lat="45.6614088" lon="11.6045901"><ele>66.0</ele><time>2026-04-19T17:01:20.909Z</time></trkpt><trkpt lat="45.6613905" lon="11.6044609"><ele>66.0</ele><time>2026-04-19T17:01:22.91Z</time></trkpt><trkpt lat="45.661355" lon="11.6043344"><ele>66.0</ele><time>2026-04-19T17:01:24.909Z</time></trkpt><trkpt lat="45.6612933" lon="11.6042325"><ele>66.0</ele><time>2026-04-19T17:01:26.91Z</time></trkpt><trkpt lat="45.6612323" lon="11.6041255"><ele>66.0</ele><time>2026-04-19T17:01:28.909Z</time></trkpt><trkpt lat="45.6611724" lon="11.6040222"><ele>66.0</ele><time>2026-04-19T17:01:30.91Z</time></trkpt><trkpt lat="45.6611253" lon="11.6038975"><ele>66.0</ele><time>2026-04-19T17:01:32.909Z</time></trkpt><trkpt lat="45.6610954" lon="11.603774"><ele>66.0</ele><time>2026-04-19T17:01:34.91Z</time></trkpt><trkpt lat="45.6610707" lon="11.6036397"><ele>66.0</ele><time>2026-04-19T17:01:36.909Z</time></trkpt><trkpt lat="45.6610535" lon="11.6034889"><ele>66.0</ele><time>2026-04-19T17:01:38.91Z</time></trkpt><trkpt lat="45.6610279" lon="11.6033336"><ele>66.0</ele><time>2026-04-19T17:01:40.909Z</time></trkpt><trkpt lat="45.6609806" lon="11.6031923"><ele>66.0</ele><time>2026-04-19T17:01:42.91Z</time></trkpt><trkpt lat="45.660918" lon="11.6030731"><ele>66.0</ele><time>2026-04-19T17:01:44.91Z</time></trkpt><trkpt lat="45.6608934" lon="11.6029339"><ele>66.0</ele><time>2026-04-19T17:01:46.909Z</time></trkpt><trkpt lat="45.6608875" lon="11.6028186"><ele>66.16666666666667</ele><time>2026-04-19T17:01:48.91Z</time></trkpt><trkpt lat="45.6608722" lon="11.6026999"><ele>66.33333333333333</ele><time>2026-04-19T17:01:50.91Z</time></trkpt><trkpt lat="45.6608616" lon="11.6025938"><ele>66.5</ele><time>2026-04-19T17:01:52.91Z</time></trkpt><trkpt lat="45.6608481" lon="11.6024876"><ele>66.66666666666666</ele><time>2026-04-19T17:01:54.909Z</time></trkpt><trkpt lat="45.6608087" lon="11.6023943"><ele>66.83333333333333</ele><time>2026-04-19T17:01:56.909Z</time></trkpt><trkpt lat="45.6607334" lon="11.6023683"><ele>67.0</ele><time>2026-04-19T17:01:58.909Z</time></trkpt><trkpt lat="45.6606576" lon="11.6023908"><ele>67.0</ele><time>2026-04-19T17:02:00.909Z</time></trkpt><trkpt lat="45.6605732" lon="11.6024072"><ele>67.0</ele><time>2026-04-19T17:02:03.911Z</time></trkpt><trkpt lat="45.6605005" lon="11.6023361"><ele>67.0</ele><time>2026-04-19T17:02:06.911Z</time></trkpt><trkpt lat="45.6604945" lon="11.6022309"><ele>67.0</ele><time>2026-04-19T17:02:08.91Z</time></trkpt><trkpt lat="45.6605031" lon="11.602103"><ele>67.0</ele><time>2026-04-19T17:02:10.911Z</time></trkpt><trkpt lat="45.6605097" lon="11.6019814"><ele>67.0</ele><time>2026-04-19T17:02:12.91Z</time></trkpt><trkpt lat="45.6605168" lon="11.6018587"><ele>67.14285714285714</ele><time>2026-04-19T17:02:14.91Z</time></trkpt><trkpt lat="45.6605207" lon="11.601745"><ele>67.28571428571428</ele><time>2026-04-19T17:02:16.91Z</time></trkpt><trkpt lat="45.6605185" lon="11.6016466"><ele>67.42857142857142</ele><time>2026-04-19T17:02:18.911Z</time></trkpt><trkpt lat="45.6605158" lon="11.6015512"><ele>67.57142857142857</ele><time>2026-04-19T17:02:20.911Z</time></trkpt><trkpt lat="45.6605164" lon="11.601461"><ele>67.71428571428571</ele><time>2026-04-19T17:02:22.911Z</time></trkpt><trkpt lat="45.6604967" lon="11.6013368"><ele>67.85714285714285</ele><time>2026-04-19T17:02:25.911Z</time></trkpt><trkpt lat="45.6604813" lon="11.6012441"><ele>68.0</ele><time>2026-04-19T17:02:27.911Z</time></trkpt><trkpt lat="45.660478" lon="11.6011496"><ele>67.57142857142857</ele><time>2026-04-19T17:02:29.911Z</time></trkpt><trkpt lat="45.6604782" lon="11.6010456"><ele>67.14285714285714</ele><time>2026-04-19T17:02:31.911Z</time></trkpt><trkpt lat="45.6604844" lon="11.6009426"><ele>66.71428571428572</ele><time>2026-04-19T17:02:33.911Z</time></trkpt><trkpt lat="45.6604909" lon="11.6008239"><ele>66.28571428571428</ele><time>2026-04-19T17:02:35.911Z</time></trkpt><trkpt lat="45.6605058" lon="11.6007179"><ele>65.85714285714286</ele><time>2026-04-19T17:02:37.911Z</time></trkpt><trkpt lat="45.6605189" lon="11.6006284"><ele>65.42857142857143</ele><time>2026-04-19T17:02:39.91Z</time></trkpt><trkpt lat="45.6605578" lon="11.6005464"><ele>65.0</ele><time>2026-04-19T17:02:44.91Z</time></trkpt><trkpt lat="45.6606132" lon="11.6004928"><ele>65.0</ele><time>2026-04-19T17:02:47.91Z</time></trkpt><trkpt lat="45.6606236" lon="11.6004025"><ele>65.0</ele><time>2026-04-19T17:02:49.911Z</time></trkpt><trkpt lat="45.6606537" lon="11.6002856"><ele>65.0</ele><time>2026-04-19T17:02:52.911Z</time></trkpt><trkpt lat="45.660699" lon="11.6001672"><ele>65.0</ele><time>2026-04-19T17:02:55.911Z</time></trkpt><trkpt lat="45.6607164" lon="11.6000701"><ele>65.0</ele><time>2026-04-19T17:02:57.911Z</time></trkpt><trkpt lat="45.6607298" lon="11.5999663"><ele>65.0</ele><time>2026-04-19T17:02:59.912Z</time></trkpt><trkpt lat="45.6607404" lon="11.5998469"><ele>64.83333333333334</ele><time>2026-04-19T17:03:01.912Z</time></trkpt><trkpt lat="45.6607607" lon="11.5997299"><ele>64.66666666666667</ele><time>2026-04-19T17:03:03.912Z</time></trkpt><trkpt lat="45.6607831" lon="11.5996097"><ele>64.5</ele><time>2026-04-19T17:03:05.911Z</time></trkpt><trkpt lat="45.6608112" lon="11.5994895"><ele>64.33333333333333</ele><time>2026-04-19T17:03:07.912Z</time></trkpt><trkpt lat="45.6608337" lon="11.5993742"><ele>64.16666666666666</ele><time>2026-04-19T17:03:09.912Z</time></trkpt><trkpt lat="45.6608482" lon="11.5992511"><ele>64.0</ele><time>2026-04-19T17:03:11.911Z</time></trkpt><trkpt lat="45.6608585" lon="11.5991296"><ele>63.99999999999999</ele><time>2026-04-19T17:03:13.912Z</time></trkpt><trkpt lat="45.6608727" lon="11.5990051"><ele>64.0</ele><time>2026-04-19T17:03:15.912Z</time></trkpt><trkpt lat="45.6608883" lon="11.5988833"><ele>64.0</ele><time>2026-04-19T17:03:17.911Z</time></trkpt><trkpt lat="45.6609075" lon="11.5987468"><ele>64.0</ele><time>2026-04-19T17:03:19.912Z</time></trkpt><trkpt lat="45.660922" lon="11.598617"><ele>63.99999999999999</ele><time>2026-04-19T17:03:21.912Z</time></trkpt><trkpt lat="45.6609445" lon="11.5985115"><ele>64.0</ele><time>2026-04-19T17:03:23.911Z</time></trkpt><trkpt lat="45.6609526" lon="11.5984017"><ele>64.16666666666666</ele><time>2026-04-19T17:03:25.911Z</time></trkpt><trkpt lat="45.6609686" lon="11.5983133"><ele>64.33333333333333</ele><time>2026-04-19T17:03:27.912Z</time></trkpt><trkpt lat="45.6609747" lon="11.5982206"><ele>64.5</ele><time>2026-04-19T17:03:29.912Z</time></trkpt><trkpt lat="45.6609857" lon="11.5981034"><ele>64.66666666666667</ele><time>2026-04-19T17:03:31.912Z</time></trkpt><trkpt lat="45.6610075" lon="11.5979735"><ele>64.83333333333334</ele><time>2026-04-19T17:03:33.912Z</time></trkpt><trkpt lat="45.6610092" lon="11.5978658"><ele>65.0</ele><time>2026-04-19T17:03:35.912Z</time></trkpt><trkpt lat="45.6610047" lon="11.5977528"><ele>65.0</ele><time>2026-04-19T17:03:37.912Z</time></trkpt><trkpt lat="45.6609923" lon="11.5976417"><ele>65.0</ele><time>2026-04-19T17:03:39.911Z</time></trkpt><trkpt lat="45.6609778" lon="11.5975216"><ele>65.0</ele><time>2026-04-19T17:03:41.912Z</time></trkpt><trkpt lat="45.6609326" lon="11.5974227"><ele>65.0</ele><time>2026-04-19T17:03:43.912Z</time></trkpt><trkpt lat="45.6608639" lon="11.5973526"><ele>65.0</ele><time>2026-04-19T17:03:45.912Z</time></trkpt><trkpt lat="45.6607911" lon="11.5972956"><ele>65.0</ele><time>2026-04-19T17:03:47.912Z</time></trkpt><trkpt lat="45.6607062" lon="11.5972754"><ele>65.0</ele><time>2026-04-19T17:03:49.912Z</time></trkpt><trkpt lat="45.6606227" lon="11.5972766"><ele>65.0</ele><time>2026-04-19T17:03:51.912Z</time></trkpt><trkpt lat="45.6605357" lon="11.5972975"><ele>65.0</ele><time>2026-04-19T17:03:53.911Z</time></trkpt><trkpt lat="45.6604555" lon="11.5973128"><ele>65.0</ele><time>2026-04-19T17:03:55.912Z</time></trkpt><trkpt lat="45.6603774" lon="11.5973037"><ele>65.0</ele><time>2026-04-19T17:03:57.912Z</time></trkpt><trkpt lat="45.6603003" lon="11.5973023"><ele>65.0</ele><time>2026-04-19T17:03:59.913Z</time></trkpt><trkpt lat="45.6602139" lon="11.5972761"><ele>64.5</ele><time>2026-04-19T17:04:01.912Z</time></trkpt><trkpt lat="45.6601199" lon="11.5972439"><ele>64.0</ele><time>2026-04-19T17:04:03.913Z</time></trkpt><trkpt lat="45.6600414" lon="11.5972066"><ele>63.5</ele><time>2026-04-19T17:04:05.912Z</time></trkpt><trkpt lat="45.6599731" lon="11.5971389"><ele>63.0</ele><time>2026-04-19T17:04:07.912Z</time></trkpt><trkpt lat="45.6599167" lon="11.5970441"><ele>62.50000000000001</ele><time>2026-04-19T17:04:09.913Z</time></trkpt><trkpt lat="45.6598714" lon="11.5969538"><ele>62.0</ele><time>2026-04-19T17:04:11.913Z</time></trkpt><trkpt lat="45.6598209" lon="11.5968534"><ele>62.00000000000001</ele><time>2026-04-19T17:04:13.913Z</time></trkpt><trkpt lat="45.6597768" lon="11.5967268"><ele>62.0</ele><time>2026-04-19T17:04:15.912Z</time></trkpt><trkpt lat="45.6597528" lon="11.5966087"><ele>62.0</ele><time>2026-04-19T17:04:17.912Z</time></trkpt><trkpt lat="45.6597423" lon="11.5964801"><ele>62.0</ele><time>2026-04-19T17:04:19.912Z</time></trkpt><trkpt lat="45.6597376" lon="11.5963619"><ele>62.00000000000001</ele><time>2026-04-19T17:04:21.913Z</time></trkpt><trkpt lat="45.6597356" lon="11.5962477"><ele>62.0</ele><time>2026-04-19T17:04:23.913Z</time></trkpt><trkpt lat="45.6597317" lon="11.5961354"><ele>62.16666666666667</ele><time>2026-04-19T17:04:25.913Z</time></trkpt><trkpt lat="45.6597404" lon="11.5960317"><ele>62.333333333333336</ele><time>2026-04-19T17:04:27.913Z</time></trkpt><trkpt lat="45.6597643" lon="11.5959284"><ele>62.5</ele><time>2026-04-19T17:04:29.912Z</time></trkpt><trkpt lat="45.659798" lon="11.5958382"><ele>62.66666666666667</ele><time>2026-04-19T17:04:31.913Z</time></trkpt><trkpt lat="45.6598725" lon="11.5957832"><ele>62.833333333333336</ele><time>2026-04-19T17:04:33.913Z</time></trkpt><trkpt lat="45.6599328" lon="11.5956817"><ele>63.0</ele><time>2026-04-19T17:04:35.914Z</time></trkpt><trkpt lat="45.6599418" lon="11.5955293"><ele>63.0</ele><time>2026-04-19T17:04:37.913Z</time></trkpt><trkpt lat="45.6599669" lon="11.5954042"><ele>63.0</ele><time>2026-04-19T17:04:39.913Z</time></trkpt><trkpt lat="45.6599906" lon="11.5952699"><ele>63.0</ele><time>2026-04-19T17:04:41.913Z</time></trkpt><trkpt lat="45.6600022" lon="11.5951433"><ele>63.0</ele><time>2026-04-19T17:04:43.912Z</time></trkpt><trkpt lat="45.6600146" lon="11.5950129"><ele>63.0</ele><time>2026-04-19T17:04:45.913Z</time></trkpt><trkpt lat="45.6600394" lon="11.5948813"><ele>63.2</ele><time>2026-04-19T17:04:47.913Z</time></trkpt><trkpt lat="45.6600683" lon="11.5947573"><ele>63.4</ele><time>2026-04-19T17:04:49.914Z</time></trkpt><trkpt lat="45.6600827" lon="11.5946315"><ele>63.60000000000001</ele><time>2026-04-19T17:04:51.914Z</time></trkpt><trkpt lat="45.6601003" lon="11.5945064"><ele>63.800000000000004</ele><time>2026-04-19T17:04:53.914Z</time></trkpt><trkpt lat="45.6601162" lon="11.5943814"><ele>64.0</ele><time>2026-04-19T17:04:55.913Z</time></trkpt><trkpt lat="45.6601435" lon="11.5942436"><ele>63.99999999999999</ele><time>2026-04-19T17:04:57.914Z</time></trkpt><trkpt lat="45.6601637" lon="11.5941214"><ele>64.0</ele><time>2026-04-19T17:04:59.914Z</time></trkpt><trkpt lat="45.6601664" lon="11.5939892"><ele>64.0</ele><time>2026-04-19T17:05:01.914Z</time></trkpt><trkpt lat="45.6602299" lon="11.5939432"><ele>64.0</ele><time>2026-04-19T17:05:03.914Z</time></trkpt><trkpt lat="45.6603169" lon="11.5939787"><ele>63.99999999999999</ele><time>2026-04-19T17:05:05.914Z</time></trkpt><trkpt lat="45.6603746" lon="11.5940158"><ele>64.0</ele><time>2026-04-19T17:05:06.914Z</time></trkpt><trkpt lat="45.66046" lon="11.5940536"><ele>64.33333333333333</ele><time>2026-04-19T17:05:08.914Z</time></trkpt><trkpt lat="45.6605382" lon="11.5940801"><ele>64.66666666666666</ele><time>2026-04-19T17:05:10.914Z</time></trkpt><trkpt lat="45.6606302" lon="11.5941035"><ele>65.0</ele><time>2026-04-19T17:05:12.914Z</time></trkpt><trkpt lat="45.660719" lon="11.5941342"><ele>65.33333333333333</ele><time>2026-04-19T17:05:14.914Z</time></trkpt><trkpt lat="45.6608083" lon="11.5941683"><ele>65.66666666666667</ele><time>2026-04-19T17:05:16.914Z</time></trkpt><trkpt lat="45.6608953" lon="11.5941956"><ele>66.0</ele><time>2026-04-19T17:05:18.914Z</time></trkpt><trkpt lat="45.6609726" lon="11.5942158"><ele>66.0</ele><time>2026-04-19T17:05:20.914Z</time></trkpt><trkpt lat="45.6610669" lon="11.5942409"><ele>66.0</ele><time>2026-04-19T17:05:22.914Z</time></trkpt><trkpt lat="45.6611512" lon="11.5942463"><ele>66.0</ele><time>2026-04-19T17:05:24.914Z</time></trkpt><trkpt lat="45.6612086" lon="11.5941405"><ele>66.0</ele><time>2026-04-19T17:05:26.914Z</time></trkpt><trkpt lat="45.6612315" lon="11.5939961"><ele>66.0</ele><time>2026-04-19T17:05:28.914Z</time></trkpt><trkpt lat="45.6612477" lon="11.593875"><ele>68.0</ele><time>2026-04-19T17:05:30.913Z</time></trkpt><trkpt lat="45.6612538" lon="11.5937688"><ele>68.0</ele><time>2026-04-19T17:05:32.914Z</time></trkpt><trkpt lat="45.661294" lon="11.5936889"><ele>68.0</ele><time>2026-04-19T17:05:34.914Z</time></trkpt><trkpt lat="45.6613562" lon="11.5937114"><ele>68.0</ele><time>2026-04-19T17:05:36.914Z</time></trkpt><trkpt lat="45.6614221" lon="11.5937129"><ele>68.0</ele><time>2026-04-19T17:06:02.915Z</time></trkpt></trkseg></trk></gpx>